<?xml version="1.0" encoding="utf-8"?>
<gpx version="1.1" creator="Guru Maps/6.2.5" xmlns:xsi="http://www.w3.org/2001/XMLSchema-instance" xmlns="http://www.topografix.com/GPX/1/1" xmlns:gom="https://gurumaps.app/gpx/v3" xsi:schemaLocation="http://www.topografix.com/GPX/1/1 http://www.topografix.com/GPX/1/1/gpx.xsd https://gurumaps.app/gpx/v3 https://gurumaps.app/gpx/v3/schema.xsd">
 <trk>
  <name>13_08_2026-Ветер1</name>
  <type>TrackStyle_2196F3C8</type>
  <extensions>
   <gom:time>2026-08-13T20:14:48.763Z</gom:time>
   <line xmlns="http://www.topografix.com/GPX/gpx_style/0/2">
    <color>2196F3</color>
   </line>
  </extensions>
  <trkseg>
   <trkpt lat="59.3506221727" lon="34.6994387578"><ele>164.89</ele><time>2026-08-13T20:14:47.999Z</time><hdop>3.625</hdop><vdop>4.812</vdop><extensions><gom:speed>0.057</gom:speed></extensions></trkpt>
   <trkpt lat="59.350584999" lon="34.6992637437"><ele>166.561</ele><time>2026-08-13T20:15:12.998Z</time><hdop>4.687</hdop><vdop>3.125</vdop><extensions><gom:speed>0.59</gom:speed><gom:course>270.179</gom:course><gom:rel_alt>-0.055</gom:rel_alt></extensions></trkpt>
   <trkpt lat="59.3506192391" lon="34.6994293701"><ele>168.604</ele><time>2026-08-13T20:16:18.999Z</time><hdop>4.687</hdop><vdop>3.125</vdop><extensions><gom:speed>0.414</gom:speed><gom:rel_alt>-0.116</gom:rel_alt></extensions></trkpt>
   <trkpt lat="59.3505254037" lon="34.6994256821"><ele>163.62</ele><time>2026-08-13T20:35:14.999Z</time><hdop>4.687</hdop><vdop>5.062</vdop><extensions><gom:speed>1.545</gom:speed><gom:course>153.942</gom:course><gom:rel_alt>-0.261</gom:rel_alt></extensions></trkpt>
   <trkpt lat="59.350433538" lon="34.6994057331"><ele>164.437</ele><time>2026-08-13T20:35:19.999Z</time><hdop>4.687</hdop><vdop>4.875</vdop><extensions><gom:speed>2.269</gom:speed><gom:course>189.088</gom:course><gom:rel_alt>-0.15</gom:rel_alt></extensions></trkpt>
   <trkpt lat="59.3503334162" lon="34.6993793301"><ele>164.774</ele><time>2026-08-13T20:35:23.999Z</time><hdop>4.687</hdop><vdop>4.687</vdop><extensions><gom:speed>3.042</gom:speed><gom:course>186.528</gom:course><gom:rel_alt>0.142</gom:rel_alt></extensions></trkpt>
   <trkpt lat="59.3502241581" lon="34.6993701939"><ele>165.016</ele><time>2026-08-13T20:35:27.999Z</time><hdop>4.687</hdop><vdop>4.75</vdop><extensions><gom:speed>3.033</gom:speed><gom:course>182.254</gom:course><gom:rel_alt>0.34</gom:rel_alt></extensions></trkpt>
   <trkpt lat="59.3501257126" lon="34.6993189804"><ele>165.009</ele><time>2026-08-13T20:35:31.999Z</time><hdop>4.687</hdop><vdop>4.75</vdop><extensions><gom:speed>2.944</gom:speed><gom:course>202.755</gom:course><gom:rel_alt>0.306</gom:rel_alt></extensions></trkpt>
   <trkpt lat="59.3500395047" lon="34.6992126141"><ele>164.581</ele><time>2026-08-13T20:35:35.999Z</time><hdop>4.687</hdop><vdop>4.875</vdop><extensions><gom:speed>2.86</gom:speed><gom:course>208.199</gom:course><gom:rel_alt>0.243</gom:rel_alt></extensions></trkpt>
   <trkpt lat="59.3499456274" lon="34.6991045714"><ele>164.548</ele><time>2026-08-13T20:35:39.999Z</time><hdop>4.687</hdop><vdop>4.812</vdop><extensions><gom:speed>2.873</gom:speed><gom:course>209.743</gom:course><gom:rel_alt>0.24</gom:rel_alt></extensions></trkpt>
   <trkpt lat="59.3498397221" lon="34.6990086824"><ele>164.38</ele><time>2026-08-13T20:35:43.999Z</time><hdop>4.687</hdop><vdop>4.812</vdop><extensions><gom:speed>3.324</gom:speed><gom:course>204.777</gom:course><gom:rel_alt>0.747</gom:rel_alt></extensions></trkpt>
   <trkpt lat="59.3497391392" lon="34.6988946885"><ele>164.917</ele><time>2026-08-13T20:35:47.999Z</time><hdop>4.687</hdop><vdop>4.875</vdop><extensions><gom:speed>3.23</gom:speed><gom:course>211.16</gom:course><gom:rel_alt>1.085</gom:rel_alt></extensions></trkpt>
   <trkpt lat="59.3496316832" lon="34.698805086"><ele>164.561</ele><time>2026-08-13T20:35:51.999Z</time><hdop>4.687</hdop><vdop>4.937</vdop><extensions><gom:speed>3.347</gom:speed><gom:course>199.267</gom:course><gom:rel_alt>1.268</gom:rel_alt></extensions></trkpt>
   <trkpt lat="59.3495242691" lon="34.6987052575"><ele>164.439</ele><time>2026-08-13T20:35:55.999Z</time><hdop>4.687</hdop><vdop>4.937</vdop><extensions><gom:speed>3.444</gom:speed><gom:course>207.93</gom:course><gom:rel_alt>0.84</gom:rel_alt></extensions></trkpt>
   <trkpt lat="59.3494177352" lon="34.6985994779"><ele>164.712</ele><time>2026-08-13T20:35:59.998Z</time><hdop>4.687</hdop><vdop>4.937</vdop><extensions><gom:speed>3.45</gom:speed><gom:course>203.541</gom:course><gom:rel_alt>0.739</gom:rel_alt></extensions></trkpt>
   <trkpt lat="59.3493297252" lon="34.6985203527"><ele>164.807</ele><time>2026-08-13T20:36:02.998Z</time><hdop>4.687</hdop><vdop>4.875</vdop><extensions><gom:speed>3.6</gom:speed><gom:course>206.732</gom:course><gom:rel_alt>0.951</gom:rel_alt></extensions></trkpt>
   <trkpt lat="59.3492416733" lon="34.6984472625"><ele>164.628</ele><time>2026-08-13T20:36:05.998Z</time><hdop>4.687</hdop><vdop>4.875</vdop><extensions><gom:speed>3.665</gom:speed><gom:course>204.365</gom:course><gom:rel_alt>1.194</gom:rel_alt></extensions></trkpt>
   <trkpt lat="59.3491535795" lon="34.6983684726"><ele>164.747</ele><time>2026-08-13T20:36:08.998Z</time><hdop>4.687</hdop><vdop>4.812</vdop><extensions><gom:speed>3.716</gom:speed><gom:course>202.678</gom:course><gom:rel_alt>1.294</gom:rel_alt></extensions></trkpt>
   <trkpt lat="59.3490626777" lon="34.6983075362"><ele>164.787</ele><time>2026-08-13T20:36:11.998Z</time><hdop>4.687</hdop><vdop>5.0</vdop><extensions><gom:speed>3.54</gom:speed><gom:course>199.207</gom:course><gom:rel_alt>1.363</gom:rel_alt></extensions></trkpt>
   <trkpt lat="59.3489733266" lon="34.698239978"><ele>165.018</ele><time>2026-08-13T20:36:14.998Z</time><hdop>4.687</hdop><vdop>5.0</vdop><extensions><gom:speed>3.564</gom:speed><gom:course>201.442</gom:course><gom:rel_alt>1.31</gom:rel_alt></extensions></trkpt>
   <trkpt lat="59.3488862806" lon="34.698135791"><ele>165.638</ele><time>2026-08-13T20:36:17.998Z</time><hdop>4.687</hdop><vdop>4.937</vdop><extensions><gom:speed>3.869</gom:speed><gom:course>208.512</gom:course><gom:rel_alt>1.281</gom:rel_alt></extensions></trkpt>
   <trkpt lat="59.3487982287" lon="34.6980435901"><ele>165.533</ele><time>2026-08-13T20:36:20.998Z</time><hdop>4.687</hdop><vdop>4.875</vdop><extensions><gom:speed>3.761</gom:speed><gom:course>206.694</gom:course><gom:rel_alt>1.519</gom:rel_alt></extensions></trkpt>
   <trkpt lat="59.3487100511" lon="34.6979451865"><ele>165.935</ele><time>2026-08-13T20:36:23.998Z</time><hdop>4.687</hdop><vdop>5.0</vdop><extensions><gom:speed>3.776</gom:speed><gom:course>211.154</gom:course></extensions></trkpt>
   <trkpt lat="59.3486244299" lon="34.6978489623"><ele>165.909</ele><time>2026-08-13T20:36:26.998Z</time><hdop>4.687</hdop><vdop>4.937</vdop><extensions><gom:speed>3.65</gom:speed><gom:course>210.259</gom:course><gom:rel_alt>1.606</gom:rel_alt></extensions></trkpt>
   <trkpt lat="59.348533612" lon="34.6977636345"><ele>165.606</ele><time>2026-08-13T20:36:29.998Z</time><hdop>4.687</hdop><vdop>4.937</vdop><extensions><gom:speed>3.765</gom:speed><gom:course>207.468</gom:course><gom:rel_alt>1.701</gom:rel_alt></extensions></trkpt>
   <trkpt lat="59.3484414949" lon="34.6976602856"><ele>165.346</ele><time>2026-08-13T20:36:32.998Z</time><hdop>4.687</hdop><vdop>5.0</vdop><extensions><gom:speed>3.922</gom:speed><gom:course>211.116</gom:course><gom:rel_alt>1.82</gom:rel_alt></extensions></trkpt>
   <trkpt lat="59.3483492101" lon="34.6975747902"><ele>165.092</ele><time>2026-08-13T20:36:35.998Z</time><hdop>4.687</hdop><vdop>4.937</vdop><extensions><gom:speed>3.817</gom:speed><gom:course>204.42</gom:course><gom:rel_alt>1.471</gom:rel_alt></extensions></trkpt>
   <trkpt lat="59.3482599848" lon="34.6974872831"><ele>164.957</ele><time>2026-08-13T20:36:38.998Z</time><hdop>4.687</hdop><vdop>4.875</vdop><extensions><gom:speed>3.764</gom:speed><gom:course>207.254</gom:course><gom:rel_alt>1.014</gom:rel_alt></extensions></trkpt>
   <trkpt lat="59.3481647664" lon="34.6973903045"><ele>163.906</ele><time>2026-08-13T20:36:43.997Z</time><hdop>4.687</hdop><vdop>5.937</vdop><extensions><gom:speed>1.239</gom:speed><gom:course>205.969</gom:course><gom:rel_alt>0.774</gom:rel_alt></extensions></trkpt>
   <trkpt lat="59.3480493476" lon="34.6972802501"><ele>163.782</ele><time>2026-08-13T20:36:47.997Z</time><hdop>4.687</hdop><vdop>5.562</vdop><extensions><gom:speed>3.676</gom:speed><gom:course>206.254</gom:course><gom:rel_alt>0.79</gom:rel_alt></extensions></trkpt>
   <trkpt lat="59.3479401314" lon="34.6971848641"><ele>163.662</ele><time>2026-08-13T20:36:52.997Z</time><hdop>4.687</hdop><vdop>6.0</vdop><extensions><gom:speed>1.351</gom:speed><gom:course>201.81</gom:course><gom:rel_alt>0.414</gom:rel_alt></extensions></trkpt>
   <trkpt lat="59.3478513251" lon="34.6971057389"><ele>163.953</ele><time>2026-08-13T20:36:55.997Z</time><hdop>4.687</hdop><vdop>6.187</vdop><extensions><gom:speed>1.312</gom:speed><gom:course>204.26</gom:course><gom:rel_alt>0.272</gom:rel_alt></extensions></trkpt>
   <trkpt lat="59.34776013" lon="34.6970114425"><ele>164.41</ele><time>2026-08-13T20:36:58.997Z</time><hdop>4.687</hdop><vdop>6.125</vdop><extensions><gom:speed>1.375</gom:speed><gom:course>211.88</gom:course><gom:rel_alt>0.293</gom:rel_alt></extensions></trkpt>
   <trkpt lat="59.3476789513" lon="34.6969085127"><ele>164.742</ele><time>2026-08-13T20:37:01.997Z</time><hdop>4.687</hdop><vdop>6.187</vdop><extensions><gom:speed>1.437</gom:speed><gom:course>212.956</gom:course><gom:rel_alt>0.184</gom:rel_alt></extensions></trkpt>
   <trkpt lat="59.3476013348" lon="34.6968010567"><ele>165.727</ele><time>2026-08-13T20:37:04.997Z</time><hdop>4.687</hdop><vdop>6.125</vdop><extensions><gom:speed>2.071</gom:speed><gom:course>216.697</gom:course><gom:rel_alt>0.092</gom:rel_alt></extensions></trkpt>
   <trkpt lat="59.3475232155" lon="34.6966519427"><ele>166.566</ele><time>2026-08-13T20:37:07.997Z</time><hdop>4.687</hdop><vdop>5.625</vdop><extensions><gom:speed>4.043</gom:speed><gom:course>226.541</gom:course><gom:rel_alt>0.768</gom:rel_alt></extensions></trkpt>
   <trkpt lat="59.3474358342" lon="34.6965025772"><ele>166.581</ele><time>2026-08-13T20:37:12.999Z</time><hdop>4.687</hdop><vdop>6.312</vdop><extensions><gom:speed>1.367</gom:speed><gom:course>218.801</gom:course><gom:rel_alt>1.58</gom:rel_alt></extensions></trkpt>
   <trkpt lat="59.3473505902" lon="34.6963687182"><ele>166.088</ele><time>2026-08-13T20:37:15.999Z</time><hdop>4.687</hdop><vdop>5.687</vdop><extensions><gom:speed>3.944</gom:speed><gom:course>217.73</gom:course><gom:rel_alt>1.376</gom:rel_alt></extensions></trkpt>
   <trkpt lat="59.3472699144" lon="34.6962754276"><ele>165.77</ele><time>2026-08-13T20:37:19.999Z</time><hdop>4.687</hdop><vdop>6.437</vdop><extensions><gom:speed>1.54</gom:speed><gom:course>207.787</gom:course><gom:rel_alt>1.091</gom:rel_alt></extensions></trkpt>
   <trkpt lat="59.3471490892" lon="34.6961348631"><ele>165.739</ele><time>2026-08-13T20:37:23.999Z</time><hdop>4.687</hdop><vdop>5.437</vdop><extensions><gom:speed>4.528</gom:speed><gom:course>209.188</gom:course><gom:rel_alt>0.943</gom:rel_alt></extensions></trkpt>
   <trkpt lat="59.3470514401" lon="34.6960193604"><ele>166.217</ele><time>2026-08-13T20:37:28.999Z</time><hdop>4.687</hdop><vdop>6.5</vdop><extensions><gom:speed>1.69</gom:speed><gom:course>214.401</gom:course><gom:rel_alt>0.797</gom:rel_alt></extensions></trkpt>
   <trkpt lat="59.3469631367" lon="34.6959067915"><ele>166.612</ele><time>2026-08-13T20:37:32.999Z</time><hdop>4.687</hdop><vdop>6.562</vdop><extensions><gom:speed>1.699</gom:speed><gom:course>209.589</gom:course><gom:rel_alt>0.784</gom:rel_alt></extensions></trkpt>
   <trkpt lat="59.3468718578" lon="34.695800928"><ele>165.434</ele><time>2026-08-13T20:37:36.999Z</time><hdop>4.687</hdop><vdop>6.5</vdop><extensions><gom:speed>1.705</gom:speed><gom:course>208.787</gom:course><gom:rel_alt>0.694</gom:rel_alt></extensions></trkpt>
   <trkpt lat="59.3467754659" lon="34.6956960704"><ele>165.137</ele><time>2026-08-13T20:37:40.999Z</time><hdop>4.687</hdop><vdop>6.5</vdop><extensions><gom:speed>1.738</gom:speed><gom:course>210.166</gom:course><gom:rel_alt>0.409</gom:rel_alt></extensions></trkpt>
   <trkpt lat="59.3466815467" lon="34.6955532428"><ele>165.882</ele><time>2026-08-13T20:37:43.999Z</time><hdop>4.687</hdop><vdop>5.687</vdop><extensions><gom:speed>4.419</gom:speed><gom:course>216.851</gom:course><gom:rel_alt>0.398</gom:rel_alt></extensions></trkpt>
   <trkpt lat="59.3465976438" lon="34.6954462059"><ele>166.205</ele><time>2026-08-13T20:37:46.999Z</time><hdop>4.687</hdop><vdop>5.187</vdop><extensions><gom:speed>3.157</gom:speed><gom:course>213.231</gom:course><gom:rel_alt>0.771</gom:rel_alt></extensions></trkpt>
   <trkpt lat="59.3465166746" lon="34.695328524"><ele>166.27</ele><time>2026-08-13T20:37:50.999Z</time><hdop>4.687</hdop><vdop>6.375</vdop><extensions><gom:speed>1.556</gom:speed><gom:course>214.67</gom:course><gom:rel_alt>1.122</gom:rel_alt></extensions></trkpt>
   <trkpt lat="59.3464337357" lon="34.6952244207"><ele>164.914</ele><time>2026-08-13T20:37:54.999Z</time><hdop>4.687</hdop><vdop>6.562</vdop><extensions><gom:speed>1.693</gom:speed><gom:course>209.331</gom:course><gom:rel_alt>0.919</gom:rel_alt></extensions></trkpt>
   <trkpt lat="59.3463490785" lon="34.695106655"><ele>163.91</ele><time>2026-08-13T20:37:57.999Z</time><hdop>4.687</hdop><vdop>3.5</vdop><extensions><gom:speed>3.329</gom:speed><gom:course>211.671</gom:course><gom:rel_alt>0.414</gom:rel_alt></extensions></trkpt>
   <trkpt lat="59.3462709592" lon="34.6950082515"><ele>164.885</ele><time>2026-08-13T20:38:00.998Z</time><hdop>4.687</hdop><vdop>3.562</vdop><extensions><gom:speed>1.751</gom:speed><gom:course>215.181</gom:course><gom:rel_alt>-0.121</gom:rel_alt></extensions></trkpt>
   <trkpt lat="59.3461958154" lon="34.694890821"><ele>165.159</ele><time>2026-08-13T20:38:03.998Z</time><hdop>4.687</hdop><vdop>3.625</vdop><extensions><gom:speed>2.037</gom:speed><gom:course>221.207</gom:course><gom:rel_alt>-0.163</gom:rel_alt></extensions></trkpt>
   <trkpt lat="59.3461299336" lon="34.6947591413"><ele>165.253</ele><time>2026-08-13T20:38:06.998Z</time><hdop>4.687</hdop><vdop>3.5</vdop><extensions><gom:speed>3.042</gom:speed><gom:course>224.322</gom:course><gom:rel_alt>-0.005</gom:rel_alt></extensions></trkpt>
   <trkpt lat="59.3460539098" lon="34.6946640905"><ele>165.646</ele><time>2026-08-13T20:38:09.998Z</time><hdop>4.687</hdop><vdop>3.562</vdop><extensions><gom:speed>2.145</gom:speed><gom:course>214.269</gom:course><gom:rel_alt>0.06</gom:rel_alt></extensions></trkpt>
   <trkpt lat="59.3459733178" lon="34.6945723087"><ele>165.517</ele><time>2026-08-13T20:38:13.998Z</time><hdop>4.687</hdop><vdop>3.687</vdop><extensions><gom:speed>1.756</gom:speed><gom:course>207.216</gom:course><gom:rel_alt>0.073</gom:rel_alt></extensions></trkpt>
   <trkpt lat="59.345893103" lon="34.6944865618"><ele>166.179</ele><time>2026-08-13T20:38:17.998Z</time><hdop>4.687</hdop><vdop>5.875</vdop><extensions><gom:speed>2.311</gom:speed><gom:course>208.869</gom:course><gom:rel_alt>0.092</gom:rel_alt></extensions></trkpt>
   <trkpt lat="59.3458188812" lon="34.6943725679"><ele>166.135</ele><time>2026-08-13T20:38:21.998Z</time><hdop>4.687</hdop><vdop>6.687</vdop><extensions><gom:speed>1.613</gom:speed><gom:course>216.807</gom:course></extensions></trkpt>
   <trkpt lat="59.3457412648" lon="34.69425212"><ele>166.018</ele><time>2026-08-13T20:38:25.998Z</time><hdop>4.687</hdop><vdop>6.687</vdop><extensions><gom:speed>1.634</gom:speed><gom:course>221.8</gom:course><gom:rel_alt>0.565</gom:rel_alt></extensions></trkpt>
   <trkpt lat="59.3456553084" lon="34.6941470109"><ele>167.874</ele><time>2026-08-13T20:38:39.998Z</time><hdop>4.687</hdop><vdop>5.375</vdop><extensions><gom:speed>1.798</gom:speed><gom:course>214.412</gom:course><gom:rel_alt>0.544</gom:rel_alt></extensions></trkpt>
   <trkpt lat="59.3455750936" lon="34.6940387167"><ele>167.629</ele><time>2026-08-13T20:38:44.997Z</time><hdop>4.687</hdop><vdop>5.437</vdop><extensions><gom:speed>2.441</gom:speed><gom:course>211.874</gom:course><gom:rel_alt>0.602</gom:rel_alt></extensions></trkpt>
   <trkpt lat="59.345504015" lon="34.6939075399"><ele>167.958</ele><time>2026-08-13T20:38:48.997Z</time><hdop>4.687</hdop><vdop>5.375</vdop><extensions><gom:speed>2.56</gom:speed><gom:course>232.468</gom:course><gom:rel_alt>0.613</gom:rel_alt></extensions></trkpt>
   <trkpt lat="59.345415544" lon="34.6937951386"><ele>167.649</ele><time>2026-08-13T20:38:53.997Z</time><hdop>4.687</hdop><vdop>5.5</vdop><extensions><gom:speed>2.026</gom:speed><gom:course>217.818</gom:course><gom:rel_alt>0.499</gom:rel_alt></extensions></trkpt>
   <trkpt lat="59.3453295876" lon="34.6936977409"><ele>167.647</ele><time>2026-08-13T20:38:57.997Z</time><hdop>4.687</hdop><vdop>5.25</vdop><extensions><gom:speed>2.828</gom:speed><gom:course>205.48</gom:course><gom:rel_alt>0.385</gom:rel_alt></extensions></trkpt>
   <trkpt lat="59.3452352074" lon="34.6935725153"><ele>167.808</ele><time>2026-08-13T20:39:01.997Z</time><hdop>4.687</hdop><vdop>5.312</vdop><extensions><gom:speed>3.096</gom:speed><gom:course>215.884</gom:course><gom:rel_alt>0.327</gom:rel_alt></extensions></trkpt>
   <trkpt lat="59.3451567109" lon="34.6934575994"><ele>168.01</ele><time>2026-08-13T20:39:05.997Z</time><hdop>4.687</hdop><vdop>5.187</vdop><extensions><gom:speed>2.408</gom:speed><gom:course>217.68</gom:course><gom:rel_alt>0.425</gom:rel_alt></extensions></trkpt>
   <trkpt lat="59.3450721794" lon="34.6933145203"><ele>167.194</ele><time>2026-08-13T20:39:10.997Z</time><hdop>4.687</hdop><vdop>5.75</vdop><extensions><gom:speed>2.815</gom:speed><gom:course>217.109</gom:course><gom:rel_alt>0.11</gom:rel_alt></extensions></trkpt>
   <trkpt lat="59.344990833" lon="34.6932287734"><ele>166.911</ele><time>2026-08-13T20:39:13.997Z</time><hdop>4.687</hdop><vdop>5.437</vdop><extensions><gom:speed>3.822</gom:speed><gom:course>209.578</gom:course><gom:rel_alt>0.036</gom:rel_alt></extensions></trkpt>
   <trkpt lat="59.3448936029" lon="34.6931105048"><ele>167.109</ele><time>2026-08-13T20:39:17.999Z</time><hdop>4.687</hdop><vdop>5.25</vdop><extensions><gom:speed>3.267</gom:speed><gom:course>212.434</gom:course><gom:rel_alt>-0.01</gom:rel_alt></extensions></trkpt>
   <trkpt lat="59.3448216024" lon="34.6930009533"><ele>166.038</ele><time>2026-08-13T20:39:20.999Z</time><hdop>4.687</hdop><vdop>5.312</vdop><extensions><gom:speed>3.351</gom:speed><gom:course>219.515</gom:course><gom:rel_alt>-0.076</gom:rel_alt></extensions></trkpt>
   <trkpt lat="59.3447266354" lon="34.6928711176"><ele>166.038</ele><time>2026-08-13T20:39:25.999Z</time><hdop>4.687</hdop><vdop>5.812</vdop><extensions><gom:speed>2.436</gom:speed><gom:course>212.857</gom:course><gom:rel_alt>-0.573</gom:rel_alt></extensions></trkpt>
   <trkpt lat="59.3446461691" lon="34.6927740552"><ele>165.768</ele><time>2026-08-13T20:39:29.999Z</time><hdop>4.687</hdop><vdop>6.25</vdop><extensions><gom:speed>1.275</gom:speed><gom:course>209.6</gom:course></extensions></trkpt>
   <trkpt lat="59.3445519565" lon="34.6926712092"><ele>165.153</ele><time>2026-08-13T20:39:32.999Z</time><hdop>4.687</hdop><vdop>5.25</vdop><extensions><gom:speed>3.043</gom:speed><gom:course>208.803</gom:course><gom:rel_alt>-0.602</gom:rel_alt></extensions></trkpt>
   <trkpt lat="59.3444744239" lon="34.6925371826"><ele>165.305</ele><time>2026-08-13T20:39:36.999Z</time><hdop>4.687</hdop><vdop>5.25</vdop><extensions><gom:speed>2.503</gom:speed><gom:course>219.197</gom:course><gom:rel_alt>-0.739</gom:rel_alt></extensions></trkpt>
   <trkpt lat="59.3443898086" lon="34.6924287208"><ele>165.161</ele><time>2026-08-13T20:39:40.999Z</time><hdop>4.687</hdop><vdop>5.25</vdop><extensions><gom:speed>2.65</gom:speed><gom:course>214.275</gom:course><gom:rel_alt>-0.808</gom:rel_alt></extensions></trkpt>
   <trkpt lat="59.3443084203" lon="34.6923208457"><ele>165.016</ele><time>2026-08-13T20:39:45.999Z</time><hdop>4.687</hdop><vdop>5.375</vdop><extensions><gom:speed>2.311</gom:speed><gom:course>209.561</gom:course><gom:rel_alt>-0.808</gom:rel_alt></extensions></trkpt>
   <trkpt lat="59.3442211228" lon="34.6922425587"><ele>165.287</ele><time>2026-08-13T20:39:49.999Z</time><hdop>4.687</hdop><vdop>5.187</vdop><extensions><gom:speed>2.826</gom:speed><gom:course>205.722</gom:course><gom:rel_alt>-0.768</gom:rel_alt></extensions></trkpt>
   <trkpt lat="59.3441294248" lon="34.6921592426"><ele>166.082</ele><time>2026-08-13T20:39:53.999Z</time><hdop>4.687</hdop><vdop>5.312</vdop><extensions><gom:speed>2.18</gom:speed><gom:course>208.985</gom:course><gom:rel_alt>-0.618</gom:rel_alt></extensions></trkpt>
   <trkpt lat="59.3440421692" lon="34.6920822129"><ele>167.554</ele><time>2026-08-13T20:39:58.999Z</time><hdop>4.687</hdop><vdop>5.875</vdop><extensions><gom:speed>1.744</gom:speed><gom:course>205.485</gom:course><gom:rel_alt>-0.211</gom:rel_alt></extensions></trkpt>
   <trkpt lat="59.3439702106" lon="34.6919505332"><ele>166.227</ele><time>2026-08-13T20:40:03.999Z</time><hdop>4.687</hdop><vdop>5.437</vdop><extensions><gom:speed>1.852</gom:speed><gom:course>227.046</gom:course><gom:rel_alt>0.026</gom:rel_alt></extensions></trkpt>
   <trkpt lat="59.3438934323" lon="34.6918579132"><ele>167.781</ele><time>2026-08-13T20:40:08.999Z</time><hdop>4.687</hdop><vdop>5.375</vdop><extensions><gom:speed>2.034</gom:speed><gom:course>215.06</gom:course><gom:rel_alt>0.24</gom:rel_alt></extensions></trkpt>
   <trkpt lat="59.3438308195" lon="34.6917113975"><ele>167.831</ele><time>2026-08-13T20:40:13.998Z</time><hdop>4.687</hdop><vdop>5.312</vdop><extensions><gom:speed>2.18</gom:speed><gom:course>230.529</gom:course><gom:rel_alt>0.317</gom:rel_alt></extensions></trkpt>
   <trkpt lat="59.3437465814" lon="34.6915537339"><ele>167.274</ele><time>2026-08-13T20:40:17.998Z</time><hdop>4.687</hdop><vdop>5.187</vdop><extensions><gom:speed>2.961</gom:speed><gom:course>226.382</gom:course><gom:rel_alt>0.361</gom:rel_alt></extensions></trkpt>
   <trkpt lat="59.3436649416" lon="34.6913849224"><ele>166.669</ele><time>2026-08-13T20:40:21.998Z</time><hdop>4.687</hdop><vdop>5.125</vdop><extensions><gom:speed>3.157</gom:speed><gom:course>225.563</gom:course><gom:rel_alt>-0.021</gom:rel_alt></extensions></trkpt>
   <trkpt lat="59.3435791529" lon="34.6912358921"><ele>166.034</ele><time>2026-08-13T20:40:25.998Z</time><hdop>4.687</hdop><vdop>5.125</vdop><extensions><gom:speed>3.047</gom:speed><gom:course>221.251</gom:course><gom:rel_alt>-0.649</gom:rel_alt></extensions></trkpt>
   <trkpt lat="59.3434945795" lon="34.6911290229"><ele>165.662</ele><time>2026-08-13T20:40:29.998Z</time><hdop>4.687</hdop><vdop>5.562</vdop><extensions><gom:speed>1.942</gom:speed><gom:course>212.824</gom:course><gom:rel_alt>-1.165</gom:rel_alt></extensions></trkpt>
   <trkpt lat="59.3434082878" lon="34.6910509873"><ele>165.58</ele><time>2026-08-13T20:40:33.998Z</time><hdop>4.687</hdop><vdop>6.312</vdop><extensions><gom:speed>1.853</gom:speed><gom:course>203.914</gom:course><gom:rel_alt>-1.183</gom:rel_alt></extensions></trkpt>
   <trkpt lat="59.3433171346" lon="34.6909642346"><ele>165.362</ele><time>2026-08-13T20:40:37.998Z</time><hdop>4.687</hdop><vdop>6.312</vdop><extensions><gom:speed>1.784</gom:speed><gom:course>204.282</gom:course><gom:rel_alt>-0.964</gom:rel_alt></extensions></trkpt>
   <trkpt lat="59.34322661" lon="34.6908581197"><ele>165.193</ele><time>2026-08-13T20:40:41.998Z</time><hdop>4.687</hdop><vdop>6.375</vdop><extensions><gom:speed>1.79</gom:speed><gom:course>208.71</gom:course><gom:rel_alt>-0.679</gom:rel_alt></extensions></trkpt>
   <trkpt lat="59.3431444255" lon="34.6907641586"><ele>164.729</ele><time>2026-08-13T20:40:43.998Z</time><hdop>4.687</hdop><vdop>5.312</vdop><extensions><gom:speed>4.547</gom:speed><gom:course>209.671</gom:course><gom:rel_alt>-0.557</gom:rel_alt></extensions></trkpt>
   <trkpt lat="59.3430615703" lon="34.6906743046"><ele>164.931</ele><time>2026-08-13T20:40:46.998Z</time><hdop>4.687</hdop><vdop>5.187</vdop><extensions><gom:speed>3.486</gom:speed><gom:course>210.429</gom:course><gom:rel_alt>-0.631</gom:rel_alt></extensions></trkpt>
   <trkpt lat="59.3429835348" lon="34.6905807626"><ele>164.802</ele><time>2026-08-13T20:40:49.998Z</time><hdop>4.687</hdop><vdop>5.25</vdop><extensions><gom:speed>3.204</gom:speed><gom:course>213.088</gom:course><gom:rel_alt>-0.935</gom:rel_alt></extensions></trkpt>
   <trkpt lat="59.3429016855" lon="34.6904868853"><ele>165.457</ele><time>2026-08-13T20:40:52.998Z</time><hdop>4.687</hdop><vdop>5.187</vdop><extensions><gom:speed>3.286</gom:speed><gom:course>214.813</gom:course><gom:rel_alt>-1.231</gom:rel_alt></extensions></trkpt>
   <trkpt lat="59.3428123344" lon="34.6903949358"><ele>165.347</ele><time>2026-08-13T20:40:56.997Z</time><hdop>4.687</hdop><vdop>6.125</vdop><extensions><gom:speed>1.644</gom:speed><gom:course>209.737</gom:course><gom:rel_alt>-1.376</gom:rel_alt></extensions></trkpt>
   <trkpt lat="59.3427537449" lon="34.690242469"><ele>164.745</ele><time>2026-08-13T20:41:00.997Z</time><hdop>4.687</hdop><vdop>6.187</vdop><extensions><gom:speed>1.681</gom:speed><gom:course>242.927</gom:course><gom:rel_alt>-1.41</gom:rel_alt></extensions></trkpt>
   <trkpt lat="59.342704166" lon="34.6900452428"><ele>164.837</ele><time>2026-08-13T20:41:03.997Z</time><hdop>4.687</hdop><vdop>5.312</vdop><extensions><gom:speed>4.41</gom:speed><gom:course>243.306</gom:course><gom:rel_alt>-1.297</gom:rel_alt></extensions></trkpt>
   <trkpt lat="59.3426640167" lon="34.6898824662"><ele>165.875</ele><time>2026-08-13T20:41:07.997Z</time><hdop>4.687</hdop><vdop>6.0</vdop><extensions><gom:speed>1.395</gom:speed><gom:course>242.724</gom:course><gom:rel_alt>-0.578</gom:rel_alt></extensions></trkpt>
   <trkpt lat="59.3426200117" lon="34.6897033449"><ele>167.224</ele><time>2026-08-13T20:41:10.997Z</time><hdop>4.687</hdop><vdop>5.062</vdop><extensions><gom:speed>2.662</gom:speed><gom:course>247.816</gom:course></extensions></trkpt>
   <trkpt lat="59.3425913456" lon="34.6895289175"><ele>166.309</ele><time>2026-08-13T20:41:16.997Z</time><hdop>4.687</hdop><vdop>5.25</vdop><extensions><gom:speed>1.682</gom:speed><gom:course>258.589</gom:course><gom:rel_alt>0.832</gom:rel_alt></extensions></trkpt>
   <trkpt lat="59.3425621765" lon="34.689311491"><ele>166.82</ele><time>2026-08-13T20:41:21.997Z</time><hdop>4.687</hdop><vdop>5.187</vdop><extensions><gom:speed>2.877</gom:speed><gom:course>259.874</gom:course><gom:rel_alt>1.004</gom:rel_alt></extensions></trkpt>
   <trkpt lat="59.3425451613" lon="34.6891279273"><ele>166.586</ele><time>2026-08-13T20:41:24.999Z</time><hdop>4.687</hdop><vdop>5.187</vdop><extensions><gom:speed>3.378</gom:speed><gom:course>261.407</gom:course><gom:rel_alt>1.21</gom:rel_alt></extensions></trkpt>
   <trkpt lat="59.3425286908" lon="34.6889011968"><ele>166.66</ele><time>2026-08-13T20:41:28.999Z</time><hdop>4.687</hdop><vdop>5.125</vdop><extensions><gom:speed>3.162</gom:speed><gom:course>262.033</gom:course><gom:rel_alt>1.199</gom:rel_alt></extensions></trkpt>
   <trkpt lat="59.3425169562" lon="34.6886767294"><ele>166.25</ele><time>2026-08-13T20:41:32.999Z</time><hdop>4.687</hdop><vdop>5.125</vdop><extensions><gom:speed>3.226</gom:speed><gom:course>266.274</gom:course><gom:rel_alt>0.93</gom:rel_alt></extensions></trkpt>
   <trkpt lat="59.3424914752" lon="34.6884937525"><ele>166.701</ele><time>2026-08-13T20:41:35.999Z</time><hdop>4.687</hdop><vdop>5.125</vdop><extensions><gom:speed>3.496</gom:speed><gom:course>256.463</gom:course><gom:rel_alt>0.657</gom:rel_alt></extensions></trkpt>
   <trkpt lat="59.3424719035" lon="34.6883096859"><ele>166.951</ele><time>2026-08-13T20:41:38.999Z</time><hdop>4.687</hdop><vdop>5.062</vdop><extensions><gom:speed>3.541</gom:speed><gom:course>260.028</gom:course><gom:rel_alt>0.589</gom:rel_alt></extensions></trkpt>
   <trkpt lat="59.3424630186" lon="34.6881267928"><ele>166.496</ele><time>2026-08-13T20:41:41.999Z</time><hdop>4.687</hdop><vdop>5.062</vdop><extensions><gom:speed>3.494</gom:speed><gom:course>265.856</gom:course><gom:rel_alt>0.472</gom:rel_alt></extensions></trkpt>
   <trkpt lat="59.3424576961" lon="34.6879397925"><ele>166.279</ele><time>2026-08-13T20:41:44.999Z</time><hdop>4.687</hdop><vdop>5.0</vdop><extensions><gom:speed>3.435</gom:speed><gom:course>267.455</gom:course></extensions></trkpt>
   <trkpt lat="59.3424423992" lon="34.6877537981"><ele>165.768</ele><time>2026-08-13T20:41:47.999Z</time><hdop>4.687</hdop><vdop>5.062</vdop><extensions><gom:speed>3.331</gom:speed><gom:course>261.599</gom:course><gom:rel_alt>-0.132</gom:rel_alt></extensions></trkpt>
   <trkpt lat="59.3424180916" lon="34.6875397243"><ele>165.279</ele><time>2026-08-13T20:41:51.999Z</time><hdop>4.687</hdop><vdop>5.062</vdop><extensions><gom:speed>3.225</gom:speed><gom:course>255.436</gom:course><gom:rel_alt>-0.747</gom:rel_alt></extensions></trkpt>
   <trkpt lat="59.3423999867" lon="34.6873659674"><ele>165.185</ele><time>2026-08-13T20:41:54.999Z</time><hdop>4.687</hdop><vdop>5.0</vdop><extensions><gom:speed>3.317</gom:speed><gom:course>261.286</gom:course><gom:rel_alt>-1.009</gom:rel_alt></extensions></trkpt>
   <trkpt lat="59.3423826781" lon="34.6871922106"><ele>166.684</ele><time>2026-08-13T20:41:57.999Z</time><hdop>4.687</hdop><vdop>5.25</vdop><extensions><gom:speed>3.356</gom:speed><gom:course>257.649</gom:course><gom:rel_alt>-1.017</gom:rel_alt></extensions></trkpt>
   <trkpt lat="59.3423584963" lon="34.6869980019"><ele>166.192</ele><time>2026-08-13T20:42:01.999Z</time><hdop>4.687</hdop><vdop>5.187</vdop><extensions><gom:speed>2.579</gom:speed><gom:course>258.825</gom:course><gom:rel_alt>-0.924</gom:rel_alt></extensions></trkpt>
   <trkpt lat="59.3423455044" lon="34.6868042123"><ele>166.073</ele><time>2026-08-13T20:42:06.999Z</time><hdop>4.687</hdop><vdop>5.875</vdop><extensions><gom:speed>1.594</gom:speed><gom:course>270.861</gom:course><gom:rel_alt>-0.829</gom:rel_alt></extensions></trkpt>
   <trkpt lat="59.3423416906" lon="34.686621403"><ele>165.687</ele><time>2026-08-13T20:42:09.999Z</time><hdop>4.687</hdop><vdop>5.5</vdop><extensions><gom:speed>3.059</gom:speed><gom:course>269.41</gom:course><gom:rel_alt>-0.684</gom:rel_alt></extensions></trkpt>
   <trkpt lat="59.342332219" lon="34.6864160463"><ele>166.029</ele><time>2026-08-13T20:42:13.999Z</time><hdop>4.687</hdop><vdop>5.812</vdop><extensions><gom:speed>1.474</gom:speed><gom:course>265.367</gom:course><gom:rel_alt>-0.568</gom:rel_alt></extensions></trkpt>
   <trkpt lat="59.3423237952" lon="34.6861966919"><ele>165.62</ele><time>2026-08-13T20:42:17.998Z</time><hdop>4.687</hdop><vdop>5.437</vdop><extensions><gom:speed>2.705</gom:speed><gom:course>265.631</gom:course></extensions></trkpt>
   <trkpt lat="59.3423099232" lon="34.6859733142"><ele>165.773</ele><time>2026-08-13T20:42:21.998Z</time><hdop>4.687</hdop><vdop>5.0</vdop><extensions><gom:speed>2.689</gom:speed><gom:course>268.888</gom:course><gom:rel_alt>-0.679</gom:rel_alt></extensions></trkpt>
   <trkpt lat="59.3422844422" lon="34.68575111"><ele>165.979</ele><time>2026-08-13T20:42:26.998Z</time><hdop>4.687</hdop><vdop>5.5</vdop><extensions><gom:speed>2.656</gom:speed><gom:course>251.261</gom:course><gom:rel_alt>-0.824</gom:rel_alt></extensions></trkpt>
   <trkpt lat="59.3422207816" lon="34.685620017"><ele>166.104</ele><time>2026-08-13T20:42:30.998Z</time><hdop>4.687</hdop><vdop>6.125</vdop><extensions><gom:speed>1.326</gom:speed><gom:course>221.46</gom:course><gom:rel_alt>-0.668</gom:rel_alt></extensions></trkpt>
   <trkpt lat="59.3421484877" lon="34.6855021674"><ele>166.213</ele><time>2026-08-13T20:42:34.998Z</time><hdop>4.687</hdop><vdop>5.875</vdop><extensions><gom:speed>2.136</gom:speed><gom:course>223.899</gom:course></extensions></trkpt>
   <trkpt lat="59.3420792532" lon="34.6853760198"><ele>166.342</ele><time>2026-08-13T20:42:38.998Z</time><hdop>4.687</hdop><vdop>5.687</vdop><extensions><gom:speed>2.353</gom:speed><gom:course>225.085</gom:course><gom:rel_alt>-0.639</gom:rel_alt></extensions></trkpt>
   <trkpt lat="59.3420042771" lon="34.6852571644"><ele>166.996</ele><time>2026-08-13T20:42:41.998Z</time><hdop>4.687</hdop><vdop>5.187</vdop><extensions><gom:speed>3.325</gom:speed><gom:course>218.576</gom:course><gom:rel_alt>-0.375</gom:rel_alt></extensions></trkpt>
   <trkpt lat="59.3419113218" lon="34.6851425838"><ele>166.928</ele><time>2026-08-13T20:42:45.998Z</time><hdop>4.687</hdop><vdop>5.25</vdop><extensions><gom:speed>3.132</gom:speed><gom:course>211.319</gom:course><gom:rel_alt>-0.089</gom:rel_alt></extensions></trkpt>
   <trkpt lat="59.3418327414" lon="34.685051724"><ele>166.848</ele><time>2026-08-13T20:42:48.998Z</time><hdop>4.687</hdop><vdop>5.187</vdop><extensions><gom:speed>3.374</gom:speed><gom:course>211.632</gom:course><gom:rel_alt>-0.11</gom:rel_alt></extensions></trkpt>
   <trkpt lat="59.3417287639" lon="34.6849509735"><ele>167.045</ele><time>2026-08-13T20:42:52.998Z</time><hdop>4.687</hdop><vdop>5.125</vdop><extensions><gom:speed>3.217</gom:speed><gom:course>206.623</gom:course><gom:rel_alt>-0.071</gom:rel_alt></extensions></trkpt>
   <trkpt lat="59.3416456993" lon="34.6848789729"><ele>167.389</ele><time>2026-08-13T20:42:56.998Z</time><hdop>4.687</hdop><vdop>6.0</vdop><extensions><gom:speed>1.655</gom:speed><gom:course>204.112</gom:course><gom:rel_alt>-0.166</gom:rel_alt></extensions></trkpt>
   <trkpt lat="59.34155551" lon="34.6848054636"><ele>167.192</ele><time>2026-08-13T20:43:00.997Z</time><hdop>4.687</hdop><vdop>6.375</vdop><extensions><gom:speed>1.692</gom:speed><gom:course>201.728</gom:course><gom:rel_alt>-0.203</gom:rel_alt></extensions></trkpt>
   <trkpt lat="59.3414584056" lon="34.6847337984"><ele>166.869</ele><time>2026-08-13T20:43:05.997Z</time><hdop>4.687</hdop><vdop>6.437</vdop><extensions><gom:speed>1.694</gom:speed><gom:course>195.147</gom:course><gom:rel_alt>-0.153</gom:rel_alt></extensions></trkpt>
   <trkpt lat="59.3413614689" lon="34.6846804895"><ele>166.188</ele><time>2026-08-13T20:43:09.997Z</time><hdop>4.687</hdop><vdop>6.312</vdop><extensions><gom:speed>1.863</gom:speed><gom:course>199.333</gom:course><gom:rel_alt>-0.068</gom:rel_alt></extensions></trkpt>
   <trkpt lat="59.3412547254" lon="34.6846208103"><ele>166.668</ele><time>2026-08-13T20:43:13.997Z</time><hdop>4.687</hdop><vdop>6.187</vdop><extensions><gom:speed>1.838</gom:speed><gom:course>198.487</gom:course><gom:rel_alt>0.364</gom:rel_alt></extensions></trkpt>
   <trkpt lat="59.3411467665" lon="34.684536656"><ele>166.867</ele><time>2026-08-13T20:43:17.997Z</time><hdop>4.687</hdop><vdop>6.312</vdop><extensions><gom:speed>1.854</gom:speed><gom:course>203.942</gom:course><gom:rel_alt>0.702</gom:rel_alt></extensions></trkpt>
   <trkpt lat="59.3410440043" lon="34.684436157"><ele>166.093</ele><time>2026-08-13T20:43:21.997Z</time><hdop>4.687</hdop><vdop>6.5</vdop><extensions><gom:speed>1.8</gom:speed><gom:course>208.21</gom:course><gom:rel_alt>0.879</gom:rel_alt></extensions></trkpt>
   <trkpt lat="59.3409316449" lon="34.6843405195"><ele>165.556</ele><time>2026-08-13T20:43:24.997Z</time><hdop>4.687</hdop><vdop>5.625</vdop><extensions><gom:speed>4.769</gom:speed><gom:course>202.854</gom:course><gom:rel_alt>1.072</gom:rel_alt></extensions></trkpt>
   <trkpt lat="59.3408432997" lon="34.6842632383"><ele>166.516</ele><time>2026-08-13T20:43:27.997Z</time><hdop>4.687</hdop><vdop>5.375</vdop><extensions><gom:speed>3.424</gom:speed><gom:course>204.876</gom:course><gom:rel_alt>1.138</gom:rel_alt></extensions></trkpt>
   <trkpt lat="59.3407498834" lon="34.6841442991"><ele>166.895</ele><time>2026-08-13T20:43:30.999Z</time><hdop>4.687</hdop><vdop>5.312</vdop><extensions><gom:speed>4.207</gom:speed><gom:course>219.696</gom:course><gom:rel_alt>1.181</gom:rel_alt></extensions></trkpt>
   <trkpt lat="59.3406525275" lon="34.6841063291"><ele>167.421</ele><time>2026-08-13T20:43:34.999Z</time><hdop>4.687</hdop><vdop>5.312</vdop><extensions><gom:speed>2.249</gom:speed><gom:course>198.905</gom:course><gom:rel_alt>1.128</gom:rel_alt></extensions></trkpt>
   <trkpt lat="59.3405522381" lon="34.6840899844"><ele>167.927</ele><time>2026-08-13T20:43:39.999Z</time><hdop>4.687</hdop><vdop>5.5</vdop><extensions><gom:speed>1.987</gom:speed><gom:course>196.339</gom:course><gom:rel_alt>1.009</gom:rel_alt></extensions></trkpt>
   <trkpt lat="59.3404505237" lon="34.6839922514"><ele>168.046</ele><time>2026-08-13T20:43:44.999Z</time><hdop>4.687</hdop><vdop>5.187</vdop><extensions><gom:speed>2.501</gom:speed><gom:course>209.776</gom:course><gom:rel_alt>0.951</gom:rel_alt></extensions></trkpt>
   <trkpt lat="59.3403667885" lon="34.6838920038"><ele>168.119</ele><time>2026-08-13T20:43:48.999Z</time><hdop>4.687</hdop><vdop>5.187</vdop><extensions><gom:speed>2.694</gom:speed><gom:course>210.254</gom:course><gom:rel_alt>0.787</gom:rel_alt></extensions></trkpt>
   <trkpt lat="59.3402760544" lon="34.6837691251"><ele>168.367</ele><time>2026-08-13T20:43:52.999Z</time><hdop>4.687</hdop><vdop>5.187</vdop><extensions><gom:speed>2.692</gom:speed><gom:course>213.456</gom:course><gom:rel_alt>0.702</gom:rel_alt></extensions></trkpt>
   <trkpt lat="59.3401970549" lon="34.6836301532"><ele>168.246</ele><time>2026-08-13T20:43:56.999Z</time><hdop>4.687</hdop><vdop>5.375</vdop><extensions><gom:speed>2.863</gom:speed><gom:course>223.075</gom:course><gom:rel_alt>0.673</gom:rel_alt></extensions></trkpt>
   <trkpt lat="59.3401398904" lon="34.6834346034"><ele>168.471</ele><time>2026-08-13T20:44:00.999Z</time><hdop>4.687</hdop><vdop>5.437</vdop><extensions><gom:speed>3.054</gom:speed><gom:course>238.939</gom:course><gom:rel_alt>0.858</gom:rel_alt></extensions></trkpt>
   <trkpt lat="59.3400854918" lon="34.6832711563"><ele>169.322</ele><time>2026-08-13T20:44:05.999Z</time><hdop>4.687</hdop><vdop>5.375</vdop><extensions><gom:speed>1.781</gom:speed><gom:course>239.362</gom:course><gom:rel_alt>1.276</gom:rel_alt></extensions></trkpt>
   <trkpt lat="59.3401531757" lon="34.683143919"><ele>170.46</ele><time>2026-08-13T20:46:20.999Z</time><hdop>4.687</hdop><vdop>5.25</vdop><extensions><gom:speed>2.046</gom:speed><gom:course>15.837</gom:course><gom:rel_alt>0.824</gom:rel_alt></extensions></trkpt>
   <trkpt lat="59.3402575304" lon="34.6831735909"><ele>169.852</ele><time>2026-08-13T20:46:26.999Z</time><hdop>4.687</hdop><vdop>5.125</vdop><extensions><gom:speed>1.905</gom:speed><gom:course>14.661</gom:course><gom:rel_alt>0.832</gom:rel_alt></extensions></trkpt>
   <trkpt lat="59.3403540899" lon="34.6832068671"><ele>169.244</ele><time>2026-08-13T20:46:31.998Z</time><hdop>4.687</hdop><vdop>5.187</vdop><extensions><gom:speed>1.93</gom:speed><gom:course>7.295</gom:course><gom:rel_alt>0.866</gom:rel_alt></extensions></trkpt>
   <trkpt lat="59.3404564329" lon="34.6832500339"><ele>169.494</ele><time>2026-08-13T20:46:36.998Z</time><hdop>4.687</hdop><vdop>5.187</vdop><extensions><gom:speed>2.294</gom:speed><gom:course>8.327</gom:course><gom:rel_alt>0.797</gom:rel_alt></extensions></trkpt>
   <trkpt lat="59.3405697563" lon="34.6832593378"><ele>168.818</ele><time>2026-08-13T20:46:40.998Z</time><hdop>4.687</hdop><vdop>5.187</vdop><extensions><gom:speed>2.741</gom:speed><gom:course>2.471</gom:course><gom:rel_alt>0.959</gom:rel_alt></extensions></trkpt>
   <trkpt lat="59.3406904138" lon="34.683293955"><ele>168.102</ele><time>2026-08-13T20:46:44.998Z</time><hdop>4.687</hdop><vdop>5.0</vdop><extensions><gom:speed>3.0</gom:speed><gom:course>5.548</gom:course><gom:rel_alt>1.122</gom:rel_alt></extensions></trkpt>
   <trkpt lat="59.3407909128" lon="34.6833030913"><ele>168.811</ele><time>2026-08-13T20:46:47.998Z</time><hdop>4.687</hdop><vdop>5.0</vdop><extensions><gom:speed>3.306</gom:speed><gom:course>6.635</gom:course></extensions></trkpt>
   <trkpt lat="59.3408870532" lon="34.6833206933"><ele>168.603</ele><time>2026-08-13T20:46:50.998Z</time><hdop>4.687</hdop><vdop>5.0</vdop><extensions><gom:speed>3.383</gom:speed><gom:course>2.636</gom:course><gom:rel_alt>1.08</gom:rel_alt></extensions></trkpt>
   <trkpt lat="59.3410016757" lon="34.6833425701"><ele>169.288</ele><time>2026-08-13T20:46:54.998Z</time><hdop>4.687</hdop><vdop>5.062</vdop><extensions><gom:speed>3.366</gom:speed><gom:course>2.482</gom:course><gom:rel_alt>0.993</gom:rel_alt></extensions></trkpt>
   <trkpt lat="59.3410915716" lon="34.6833624352"><ele>169.598</ele><time>2026-08-13T20:46:57.998Z</time><hdop>4.687</hdop><vdop>5.062</vdop><extensions><gom:speed>3.094</gom:speed><gom:course>3.713</gom:course><gom:rel_alt>1.009</gom:rel_alt></extensions></trkpt>
   <trkpt lat="59.3411820543" lon="34.6833576575"><ele>169.182</ele><time>2026-08-13T20:47:00.998Z</time><hdop>4.687</hdop><vdop>5.125</vdop><extensions><gom:speed>3.249</gom:speed><gom:course>358.818</gom:course><gom:rel_alt>1.035</gom:rel_alt></extensions></trkpt>
   <trkpt lat="59.3413006582" lon="34.6833565679"><ele>169.112</ele><time>2026-08-13T20:47:04.998Z</time><hdop>4.687</hdop><vdop>5.562</vdop><extensions><gom:speed>3.266</gom:speed><gom:course>358.566</gom:course></extensions></trkpt>
   <trkpt lat="59.3414023307" lon="34.6833533827"><ele>169.881</ele><time>2026-08-13T20:47:07.998Z</time><hdop>4.687</hdop><vdop>5.75</vdop><extensions><gom:speed>3.546</gom:speed><gom:course>2.098</gom:course><gom:rel_alt>0.969</gom:rel_alt></extensions></trkpt>
   <trkpt lat="59.3414977168" lon="34.6833491918"><ele>170.0</ele><time>2026-08-13T20:47:10.998Z</time><hdop>4.687</hdop><vdop>5.687</vdop><extensions><gom:speed>3.442</gom:speed><gom:course>355.72</gom:course><gom:rel_alt>1.041</gom:rel_alt></extensions></trkpt>
   <trkpt lat="59.3416034545" lon="34.6833292429"><ele>169.895</ele><time>2026-08-13T20:47:14.997Z</time><hdop>4.687</hdop><vdop>5.75</vdop><extensions><gom:speed>2.953</gom:speed><gom:course>353.847</gom:course><gom:rel_alt>0.977</gom:rel_alt></extensions></trkpt>
   <trkpt lat="59.341707893" lon="34.6833367866"><ele>168.614</ele><time>2026-08-13T20:47:18.997Z</time><hdop>4.687</hdop><vdop>5.625</vdop><extensions><gom:speed>2.876</gom:speed><gom:course>357.511</gom:course><gom:rel_alt>0.827</gom:rel_alt></extensions></trkpt>
   <trkpt lat="59.3418113257" lon="34.6833551429"><ele>168.425</ele><time>2026-08-13T20:47:21.997Z</time><hdop>4.687</hdop><vdop>5.562</vdop><extensions><gom:speed>3.375</gom:speed><gom:course>4.729</gom:course></extensions></trkpt>
   <trkpt lat="59.3419162671" lon="34.6833568193"><ele>169.718</ele><time>2026-08-13T20:47:24.997Z</time><hdop>4.687</hdop><vdop>5.75</vdop><extensions><gom:speed>3.676</gom:speed><gom:course>2.235</gom:course><gom:rel_alt>1.075</gom:rel_alt></extensions></trkpt>
   <trkpt lat="59.3420120303" lon="34.6833684702"><ele>170.491</ele><time>2026-08-13T20:47:27.997Z</time><hdop>4.687</hdop><vdop>5.812</vdop><extensions><gom:speed>3.357</gom:speed><gom:course>358.341</gom:course><gom:rel_alt>1.276</gom:rel_alt></extensions></trkpt>
   <trkpt lat="59.3421087575" lon="34.6833755948"><ele>170.692</ele><time>2026-08-13T20:47:30.997Z</time><hdop>4.687</hdop><vdop>5.75</vdop><extensions><gom:speed>3.262</gom:speed><gom:course>4.586</gom:course><gom:rel_alt>1.477</gom:rel_alt></extensions></trkpt>
   <trkpt lat="59.3422232962" lon="34.6833770197"><ele>170.665</ele><time>2026-08-13T20:47:34.997Z</time><hdop>4.687</hdop><vdop>5.187</vdop><extensions><gom:speed>3.17</gom:speed><gom:course>2.076</gom:course><gom:rel_alt>1.73</gom:rel_alt></extensions></trkpt>
   <trkpt lat="59.3423293273" lon="34.6833768521"><ele>171.054</ele><time>2026-08-13T20:47:38.997Z</time><hdop>4.687</hdop><vdop>5.125</vdop><extensions><gom:speed>3.002</gom:speed><gom:course>359.983</gom:course></extensions></trkpt>
   <trkpt lat="59.3424312093" lon="34.6834219467"><ele>170.554</ele><time>2026-08-13T20:47:43.999Z</time><hdop>4.687</hdop><vdop>6.125</vdop><extensions><gom:speed>1.687</gom:speed><gom:course>12.392</gom:course><gom:rel_alt>2.208</gom:rel_alt></extensions></trkpt>
   <trkpt lat="59.342521692" lon="34.6834020816"><ele>171.131</ele><time>2026-08-13T20:47:48.999Z</time><hdop>4.687</hdop><vdop>6.25</vdop><extensions><gom:speed>1.63</gom:speed><gom:course>354.523</gom:course><gom:rel_alt>2.671</gom:rel_alt></extensions></trkpt>
   <trkpt lat="59.3426222329" lon="34.6834100444"><ele>172.676</ele><time>2026-08-13T20:47:55.999Z</time><hdop>4.687</hdop><vdop>6.5</vdop><extensions><gom:speed>1.352</gom:speed><gom:course>4.603</gom:course></extensions></trkpt>
   <trkpt lat="59.3427195468" lon="34.6834124752"><ele>174.205</ele><time>2026-08-13T20:48:02.999Z</time><hdop>4.687</hdop><vdop>5.812</vdop><extensions><gom:speed>1.917</gom:speed><gom:course>5.954</gom:course><gom:rel_alt>3.638</gom:rel_alt></extensions></trkpt>
   <trkpt lat="59.3428104904" lon="34.6834331785"><ele>174.499</ele><time>2026-08-13T20:48:06.999Z</time><hdop>4.687</hdop><vdop>5.0</vdop><extensions><gom:speed>2.293</gom:speed><gom:course>7.042</gom:course><gom:rel_alt>4.164</gom:rel_alt></extensions></trkpt>
   <trkpt lat="59.3429059184" lon="34.6834587433"><ele>174.954</ele><time>2026-08-13T20:48:11.999Z</time><hdop>4.687</hdop><vdop>5.062</vdop><extensions><gom:speed>2.298</gom:speed><gom:course>10.332</gom:course></extensions></trkpt>
   <trkpt lat="59.342994096" lon="34.683521859"><ele>174.676</ele><time>2026-08-13T20:48:15.999Z</time><hdop>4.687</hdop><vdop>4.875</vdop><extensions><gom:speed>2.592</gom:speed><gom:course>19.847</gom:course><gom:rel_alt>4.523</gom:rel_alt></extensions></trkpt>
   <trkpt lat="59.3430811421" lon="34.6836000621"><ele>173.616</ele><time>2026-08-13T20:48:19.999Z</time><hdop>4.687</hdop><vdop>4.875</vdop><extensions><gom:speed>2.462</gom:speed><gom:course>28.119</gom:course><gom:rel_alt>4.848</gom:rel_alt></extensions></trkpt>
   <trkpt lat="59.3431453894" lon="34.683733502"><ele>173.432</ele><time>2026-08-13T20:48:23.999Z</time><hdop>4.687</hdop><vdop>5.062</vdop><extensions><gom:speed>2.139</gom:speed><gom:course>54.767</gom:course><gom:rel_alt>5.118</gom:rel_alt></extensions></trkpt>
   <trkpt lat="59.3432084213" lon="34.6838905789"><ele>174.62</ele><time>2026-08-13T20:48:28.999Z</time><hdop>4.687</hdop><vdop>5.125</vdop><extensions><gom:speed>1.912</gom:speed><gom:course>68.506</gom:course></extensions></trkpt>
   <trkpt lat="59.3432392667" lon="34.6840713766"><ele>174.396</ele><time>2026-08-13T20:48:33.999Z</time><hdop>4.687</hdop><vdop>5.187</vdop><extensions><gom:speed>2.064</gom:speed><gom:course>76.762</gom:course><gom:rel_alt>5.34</gom:rel_alt></extensions></trkpt>
   <trkpt lat="59.3432678071" lon="34.6842552755"><ele>174.199</ele><time>2026-08-13T20:48:37.998Z</time><hdop>4.687</hdop><vdop>5.125</vdop><extensions><gom:speed>2.346</gom:speed><gom:course>70.093</gom:course><gom:rel_alt>5.424</gom:rel_alt></extensions></trkpt>
   <trkpt lat="59.3433101357" lon="34.6844521664"><ele>174.592</ele><time>2026-08-13T20:48:42.998Z</time><hdop>4.687</hdop><vdop>5.25</vdop><extensions><gom:speed>2.53</gom:speed><gom:course>63.078</gom:course><gom:rel_alt>5.696</gom:rel_alt></extensions></trkpt>
   <trkpt lat="59.3433649952" lon="34.6846472971"><ele>173.66</ele><time>2026-08-13T20:48:46.998Z</time><hdop>4.687</hdop><vdop>5.0</vdop><extensions><gom:speed>3.235</gom:speed><gom:course>59.837</gom:course><gom:rel_alt>5.908</gom:rel_alt></extensions></trkpt>
   <trkpt lat="59.3434306255" lon="34.6848390751"><ele>173.893</ele><time>2026-08-13T20:48:50.998Z</time><hdop>4.687</hdop><vdop>5.062</vdop><extensions><gom:speed>3.297</gom:speed><gom:course>51.993</gom:course><gom:rel_alt>6.22</gom:rel_alt></extensions></trkpt>
   <trkpt lat="59.3434944956" lon="34.6850215491"><ele>173.395</ele><time>2026-08-13T20:48:54.998Z</time><hdop>4.687</hdop><vdop>4.875</vdop><extensions><gom:speed>2.916</gom:speed><gom:course>54.482</gom:course><gom:rel_alt>6.457</gom:rel_alt></extensions></trkpt>
   <trkpt lat="59.3435565636" lon="34.6851585932"><ele>172.751</ele><time>2026-08-13T20:48:59.998Z</time><hdop>4.687</hdop><vdop>4.75</vdop><extensions><gom:speed>1.826</gom:speed><gom:course>50.85</gom:course><gom:rel_alt>6.058</gom:rel_alt></extensions></trkpt>
   <trkpt lat="59.3436174162" lon="34.6853137423"><ele>172.58</ele><time>2026-08-13T20:49:04.998Z</time><hdop>4.687</hdop><vdop>4.812</vdop><extensions><gom:speed>1.85</gom:speed><gom:course>55.113</gom:course><gom:rel_alt>5.395</gom:rel_alt></extensions></trkpt>
   <trkpt lat="59.3436748323" lon="34.6855051011"><ele>171.687</ele><time>2026-08-13T20:49:09.998Z</time><hdop>4.687</hdop><vdop>4.875</vdop><extensions><gom:speed>2.504</gom:speed><gom:course>57.157</gom:course><gom:rel_alt>4.827</gom:rel_alt></extensions></trkpt>
   <trkpt lat="59.3437228187" lon="34.6856762596"><ele>171.755</ele><time>2026-08-13T20:49:13.998Z</time><hdop>4.687</hdop><vdop>5.062</vdop><extensions><gom:speed>2.455</gom:speed><gom:course>64.792</gom:course><gom:rel_alt>4.061</gom:rel_alt></extensions></trkpt>
   <trkpt lat="59.343737026" lon="34.6858614158"><ele>171.1</ele><time>2026-08-13T20:49:19.997Z</time><hdop>4.687</hdop><vdop>5.25</vdop><extensions><gom:speed>1.14</gom:speed><gom:course>77.405</gom:course></extensions></trkpt>
   <trkpt lat="59.3437612078" lon="34.6860514336"><ele>169.635</ele><time>2026-08-13T20:49:24.997Z</time><hdop>4.687</hdop><vdop>5.312</vdop><extensions><gom:speed>2.626</gom:speed><gom:course>71.285</gom:course><gom:rel_alt>2.594</gom:rel_alt></extensions></trkpt>
   <trkpt lat="59.3437947354" lon="34.6862544432"><ele>169.698</ele><time>2026-08-13T20:49:28.997Z</time><hdop>4.687</hdop><vdop>5.312</vdop><extensions><gom:speed>2.887</gom:speed><gom:course>74.329</gom:course><gom:rel_alt>2.111</gom:rel_alt></extensions></trkpt>
   <trkpt lat="59.3438541212" lon="34.6864156272"><ele>169.139</ele><time>2026-08-13T20:49:32.997Z</time><hdop>4.687</hdop><vdop>5.25</vdop><extensions><gom:speed>2.564</gom:speed><gom:course>50.087</gom:course><gom:rel_alt>1.551</gom:rel_alt></extensions></trkpt>
   <trkpt lat="59.3439479147" lon="34.6865426131"><ele>169.188</ele><time>2026-08-13T20:49:36.997Z</time><hdop>4.687</hdop><vdop>5.25</vdop><extensions><gom:speed>3.129</gom:speed><gom:course>32.673</gom:course></extensions></trkpt>
   <trkpt lat="59.3440577595" lon="34.6865879592"><ele>169.657</ele><time>2026-08-13T20:49:40.997Z</time><hdop>4.687</hdop><vdop>5.25</vdop><extensions><gom:speed>2.78</gom:speed><gom:course>5.888</gom:course><gom:rel_alt>1.36</gom:rel_alt></extensions></trkpt>
   <trkpt lat="59.3441559535" lon="34.6865397632"><ele>169.73</ele><time>2026-08-13T20:49:44.997Z</time><hdop>4.687</hdop><vdop>5.187</vdop><extensions><gom:speed>2.766</gom:speed><gom:course>342.295</gom:course><gom:rel_alt>1.685</gom:rel_alt></extensions></trkpt>
   <trkpt lat="59.3441694484" lon="34.68672559"><ele>170.984</ele><time>2026-08-13T20:52:48.998Z</time><hdop>4.687</hdop><vdop>4.937</vdop><extensions><gom:speed>0.189</gom:speed><gom:course>289.252</gom:course><gom:rel_alt>2.264</gom:rel_alt></extensions></trkpt>
   <trkpt lat="59.3440671892" lon="34.6866896317"><ele>170.627</ele><time>2026-08-13T20:52:53.998Z</time><hdop>4.687</hdop><vdop>5.25</vdop><extensions><gom:speed>2.021</gom:speed><gom:course>209.479</gom:course><gom:rel_alt>2.378</gom:rel_alt></extensions></trkpt>
   <trkpt lat="59.3439770837" lon="34.6866383344"><ele>171.698</ele><time>2026-08-13T20:52:58.998Z</time><hdop>4.687</hdop><vdop>5.312</vdop><extensions><gom:speed>2.011</gom:speed><gom:course>202.585</gom:course></extensions></trkpt>
   <trkpt lat="59.3438936" lon="34.686559796"><ele>171.252</ele><time>2026-08-13T20:53:02.998Z</time><hdop>4.687</hdop><vdop>5.312</vdop><extensions><gom:speed>2.636</gom:speed><gom:course>207.859</gom:course><gom:rel_alt>1.876</gom:rel_alt></extensions></trkpt>
   <trkpt lat="59.343821809" lon="34.6864360791"><ele>172.036</ele><time>2026-08-13T20:53:06.998Z</time><hdop>4.687</hdop><vdop>5.312</vdop><extensions><gom:speed>2.677</gom:speed><gom:course>226.178</gom:course><gom:rel_alt>1.474</gom:rel_alt></extensions></trkpt>
   <trkpt lat="59.3437632614" lon="34.6862448879"><ele>173.443</ele><time>2026-08-13T20:53:11.998Z</time><hdop>4.687</hdop><vdop>5.312</vdop><extensions><gom:speed>2.51</gom:speed><gom:course>248.629</gom:course><gom:rel_alt>1.482</gom:rel_alt></extensions></trkpt>
   <trkpt lat="59.3437428095" lon="34.6860634197"><ele>171.814</ele><time>2026-08-13T20:53:15.998Z</time><hdop>4.687</hdop><vdop>5.25</vdop><extensions><gom:speed>2.36</gom:speed><gom:course>254.721</gom:course></extensions></trkpt>
   <trkpt lat="59.3437110421" lon="34.68589838"><ele>172.213</ele><time>2026-08-13T20:53:21.998Z</time><hdop>4.687</hdop><vdop>5.062</vdop><extensions><gom:speed>1.206</gom:speed><gom:course>248.294</gom:course><gom:rel_alt>2.452</gom:rel_alt></extensions></trkpt>
   <trkpt lat="59.3436771373" lon="34.6856972981"><ele>173.132</ele><time>2026-08-13T20:53:26.998Z</time><hdop>4.687</hdop><vdop>4.937</vdop><extensions><gom:speed>2.682</gom:speed><gom:course>247.663</gom:course><gom:rel_alt>2.911</gom:rel_alt></extensions></trkpt>
   <trkpt lat="59.3436248342" lon="34.6855087891"><ele>173.999</ele><time>2026-08-13T20:53:30.998Z</time><hdop>4.687</hdop><vdop>5.125</vdop><extensions><gom:speed>2.943</gom:speed><gom:course>239.505</gom:course><gom:rel_alt>3.828</gom:rel_alt></extensions></trkpt>
   <trkpt lat="59.3435777279" lon="34.6853459288"><ele>174.635</ele><time>2026-08-13T20:53:35.997Z</time><hdop>4.687</hdop><vdop>5.875</vdop><extensions><gom:speed>1.267</gom:speed><gom:course>241.027</gom:course><gom:rel_alt>4.679</gom:rel_alt></extensions></trkpt>
   <trkpt lat="59.3435330524" lon="34.6851873432"><ele>174.82</ele><time>2026-08-13T20:53:40.997Z</time><hdop>4.687</hdop><vdop>5.437</vdop><extensions><gom:speed>2.153</gom:speed><gom:course>237.791</gom:course><gom:rel_alt>5.554</gom:rel_alt></extensions></trkpt>
   <trkpt lat="59.3434623091" lon="34.6850312721"><ele>174.559</ele><time>2026-08-13T20:53:44.997Z</time><hdop>4.687</hdop><vdop>5.25</vdop><extensions><gom:speed>3.461</gom:speed><gom:course>227.892</gom:course><gom:rel_alt>6.169</gom:rel_alt></extensions></trkpt>
   <trkpt lat="59.3433942062" lon="34.6848429308"><ele>174.696</ele><time>2026-08-13T20:53:48.997Z</time><hdop>4.687</hdop><vdop>5.125</vdop><extensions><gom:speed>3.124</gom:speed><gom:course>239.044</gom:course><gom:rel_alt>6.782</gom:rel_alt></extensions></trkpt>
   <trkpt lat="59.3433256422" lon="34.6846572716"><ele>175.198</ele><time>2026-08-13T20:53:52.997Z</time><hdop>4.687</hdop><vdop>5.125</vdop><extensions><gom:speed>3.142</gom:speed><gom:course>236.747</gom:course><gom:rel_alt>6.835</gom:rel_alt></extensions></trkpt>
   <trkpt lat="59.3432753089" lon="34.6844551839"><ele>174.593</ele><time>2026-08-13T20:53:56.997Z</time><hdop>4.687</hdop><vdop>4.937</vdop><extensions><gom:speed>3.207</gom:speed><gom:course>246.707</gom:course><gom:rel_alt>6.571</gom:rel_alt></extensions></trkpt>
   <trkpt lat="59.3432402306" lon="34.684268938"><ele>174.82</ele><time>2026-08-13T20:54:00.999Z</time><hdop>4.687</hdop><vdop>4.937</vdop><extensions><gom:speed>2.656</gom:speed><gom:course>251.382</gom:course><gom:rel_alt>6.465</gom:rel_alt></extensions></trkpt>
   <trkpt lat="59.3432128637" lon="34.6840955164"><ele>174.287</ele><time>2026-08-13T20:54:04.999Z</time><hdop>4.687</hdop><vdop>4.937</vdop><extensions><gom:speed>2.27</gom:speed><gom:course>250.255</gom:course><gom:rel_alt>6.175</gom:rel_alt></extensions></trkpt>
   <trkpt lat="59.3431857063" lon="34.6839185745"><ele>173.561</ele><time>2026-08-13T20:54:12.000Z</time><hdop>4.687</hdop><vdop>5.312</vdop><extensions><gom:speed>1.351</gom:speed><gom:course>254.809</gom:course><gom:rel_alt>5.924</gom:rel_alt></extensions></trkpt>
   <trkpt lat="59.3431215009" lon="34.683770131"><ele>174.098</ele><time>2026-08-13T20:54:15.999Z</time><hdop>4.687</hdop><vdop>4.875</vdop><extensions><gom:speed>2.507</gom:speed><gom:course>223.998</gom:course><gom:rel_alt>5.889</gom:rel_alt></extensions></trkpt>
   <trkpt lat="59.343039484" lon="34.6836800255"><ele>175.002</ele><time>2026-08-13T20:54:19.999Z</time><hdop>4.687</hdop><vdop>5.0</vdop><extensions><gom:speed>2.506</gom:speed><gom:course>209.259</gom:course><gom:rel_alt>5.791</gom:rel_alt></extensions></trkpt>
   <trkpt lat="59.3429467383" lon="34.6836257946"><ele>174.338</ele><time>2026-08-13T20:54:24.999Z</time><hdop>4.687</hdop><vdop>5.75</vdop><extensions><gom:speed>1.332</gom:speed><gom:course>192.208</gom:course><gom:rel_alt>5.577</gom:rel_alt></extensions></trkpt>
   <trkpt lat="59.342835259" lon="34.6835467532"><ele>173.108</ele><time>2026-08-13T20:54:29.999Z</time><hdop>4.687</hdop><vdop>3.0</vdop><extensions><gom:speed>2.591</gom:speed><gom:course>198.718</gom:course><gom:rel_alt>5.173</gom:rel_alt></extensions></trkpt>
   <trkpt lat="59.3427395795" lon="34.683498222"><ele>172.757</ele><time>2026-08-13T20:54:31.999Z</time><hdop>4.687</hdop><vdop>3.0</vdop><extensions><gom:speed>4.301</gom:speed><gom:course>194.933</gom:course><gom:rel_alt>5.052</gom:rel_alt></extensions></trkpt>
   <trkpt lat="59.3426355182" lon="34.6834975515"><ele>171.29</ele><time>2026-08-13T20:54:35.999Z</time><hdop>4.687</hdop><vdop>3.25</vdop><extensions><gom:speed>2.878</gom:speed><gom:course>178.711</gom:course><gom:rel_alt>4.687</gom:rel_alt></extensions></trkpt>
   <trkpt lat="59.3425348935" lon="34.6834693045"><ele>170.381</ele><time>2026-08-13T20:54:43.999Z</time><hdop>4.687</hdop><vdop>5.125</vdop><extensions><gom:speed>1.397</gom:speed><gom:course>185.918</gom:course><gom:rel_alt>3.844</gom:rel_alt></extensions></trkpt>
   <trkpt lat="59.3424402618" lon="34.6834812906"><ele>170.798</ele><time>2026-08-13T20:54:48.999Z</time><hdop>4.687</hdop><vdop>5.375</vdop><extensions><gom:speed>1.809</gom:speed><gom:course>182.502</gom:course><gom:rel_alt>3.379</gom:rel_alt></extensions></trkpt>
   <trkpt lat="59.3423511202" lon="34.6834333461"><ele>169.685</ele><time>2026-08-13T20:54:54.999Z</time><hdop>4.687</hdop><vdop>5.625</vdop><extensions><gom:speed>1.578</gom:speed><gom:course>193.444</gom:course><gom:rel_alt>2.893</gom:rel_alt></extensions></trkpt>
   <trkpt lat="59.3422285768" lon="34.6834361121"><ele>168.045</ele><time>2026-08-13T20:54:59.998Z</time><hdop>4.687</hdop><vdop>5.562</vdop><extensions><gom:speed>3.192</gom:speed><gom:course>178.437</gom:course><gom:rel_alt>2.515</gom:rel_alt></extensions></trkpt>
   <trkpt lat="59.3421227553" lon="34.6834087033"><ele>168.172</ele><time>2026-08-13T20:55:03.998Z</time><hdop>4.687</hdop><vdop>4.687</vdop><extensions><gom:speed>3.302</gom:speed><gom:course>182.386</gom:course><gom:rel_alt>2.288</gom:rel_alt></extensions></trkpt>
   <trkpt lat="59.3419998766" lon="34.6834299933"><ele>168.574</ele><time>2026-08-13T20:55:06.998Z</time><hdop>4.687</hdop><vdop>3.5</vdop><extensions><gom:speed>4.133</gom:speed><gom:course>175.58</gom:course><gom:rel_alt>2.158</gom:rel_alt></extensions></trkpt>
   <trkpt lat="59.3418957314" lon="34.6834049314"><ele>168.528</ele><time>2026-08-13T20:55:09.998Z</time><hdop>4.687</hdop><vdop>4.25</vdop><extensions><gom:speed>3.619</gom:speed><gom:course>187.078</gom:course><gom:rel_alt>1.992</gom:rel_alt></extensions></trkpt>
   <trkpt lat="59.3417952324" lon="34.6833748404"><ele>168.019</ele><time>2026-08-13T20:55:12.998Z</time><hdop>4.687</hdop><vdop>4.625</vdop><extensions><gom:speed>3.496</gom:speed><gom:course>186.38</gom:course><gom:rel_alt>1.794</gom:rel_alt></extensions></trkpt>
   <trkpt lat="59.3417042888" lon="34.6833631896"><ele>167.506</ele><time>2026-08-13T20:55:15.998Z</time><hdop>4.687</hdop><vdop>5.125</vdop><extensions><gom:speed>3.171</gom:speed><gom:course>184.056</gom:course><gom:rel_alt>1.667</gom:rel_alt></extensions></trkpt>
   <trkpt lat="59.3416137642" lon="34.6833488565"><ele>167.661</ele><time>2026-08-13T20:55:18.998Z</time><hdop>4.687</hdop><vdop>5.062</vdop><extensions><gom:speed>3.23</gom:speed><gom:course>184.347</gom:course><gom:rel_alt>1.426</gom:rel_alt></extensions></trkpt>
   <trkpt lat="59.3415138938" lon="34.6833674643"><ele>166.659</ele><time>2026-08-13T20:55:22.998Z</time><hdop>4.687</hdop><vdop>5.25</vdop><extensions><gom:speed>2.746</gom:speed><gom:course>177.887</gom:course><gom:rel_alt>1.326</gom:rel_alt></extensions></trkpt>
   <trkpt lat="59.3413923143" lon="34.6833936159"><ele>166.017</ele><time>2026-08-13T20:55:26.998Z</time><hdop>4.687</hdop><vdop>4.062</vdop><extensions><gom:speed>3.491</gom:speed><gom:course>171.691</gom:course><gom:rel_alt>1.477</gom:rel_alt></extensions></trkpt>
   <trkpt lat="59.3412828886" lon="34.6833697274"><ele>166.914</ele><time>2026-08-13T20:55:29.998Z</time><hdop>4.687</hdop><vdop>3.562</vdop><extensions><gom:speed>3.86</gom:speed><gom:course>186.248</gom:course><gom:rel_alt>1.437</gom:rel_alt></extensions></trkpt>
   <trkpt lat="59.3411816771" lon="34.6833661232"><ele>167.28</ele><time>2026-08-13T20:55:32.998Z</time><hdop>4.687</hdop><vdop>3.437</vdop><extensions><gom:speed>3.574</gom:speed><gom:course>184.93</gom:course><gom:rel_alt>1.424</gom:rel_alt></extensions></trkpt>
   <trkpt lat="59.3410769452" lon="34.6833888382"><ele>166.696</ele><time>2026-08-13T20:55:35.998Z</time><hdop>4.687</hdop><vdop>3.375</vdop><extensions><gom:speed>3.497</gom:speed><gom:course>171.702</gom:course><gom:rel_alt>1.453</gom:rel_alt></extensions></trkpt>
   <trkpt lat="59.3409773263" lon="34.6833806239"><ele>166.798</ele><time>2026-08-13T20:55:38.997Z</time><hdop>4.687</hdop><vdop>3.187</vdop><extensions><gom:speed>3.535</gom:speed><gom:course>184.161</gom:course><gom:rel_alt>1.471</gom:rel_alt></extensions></trkpt>
   <trkpt lat="59.3408768273" lon="34.6833767682"><ele>166.626</ele><time>2026-08-13T20:55:41.997Z</time><hdop>4.687</hdop><vdop>3.0</vdop><extensions><gom:speed>3.403</gom:speed><gom:course>179.629</gom:course><gom:rel_alt>1.461</gom:rel_alt></extensions></trkpt>
   <trkpt lat="59.3407576366" lon="34.6833751757"><ele>167.101</ele><time>2026-08-13T20:55:44.997Z</time><hdop>4.687</hdop><vdop>3.5</vdop><extensions><gom:speed>3.703</gom:speed><gom:course>183.117</gom:course><gom:rel_alt>1.519</gom:rel_alt></extensions></trkpt>
   <trkpt lat="59.3406366858" lon="34.6833529636"><ele>167.519</ele><time>2026-08-13T20:55:47.997Z</time><hdop>4.687</hdop><vdop>3.687</vdop><extensions><gom:speed>3.822</gom:speed><gom:course>184.864</gom:course></extensions></trkpt>
   <trkpt lat="59.3405408387" lon="34.683330081"><ele>167.249</ele><time>2026-08-13T20:55:50.997Z</time><hdop>4.687</hdop><vdop>3.25</vdop><extensions><gom:speed>2.968</gom:speed><gom:course>185.583</gom:course><gom:rel_alt>1.632</gom:rel_alt></extensions></trkpt>
   <trkpt lat="59.3404361487" lon="34.6832872495"><ele>168.209</ele><time>2026-08-13T20:55:54.997Z</time><hdop>4.687</hdop><vdop>3.125</vdop><extensions><gom:speed>2.153</gom:speed><gom:course>183.721</gom:course><gom:rel_alt>1.553</gom:rel_alt></extensions></trkpt>
   <trkpt lat="59.3403237893" lon="34.6832883392"><ele>168.146</ele><time>2026-08-13T20:55:58.997Z</time><hdop>4.687</hdop><vdop>3.812</vdop><extensions><gom:speed>2.708</gom:speed><gom:course>172.976</gom:course><gom:rel_alt>1.344</gom:rel_alt></extensions></trkpt>
   <trkpt lat="59.3402268945" lon="34.6832081244"><ele>167.687</ele><time>2026-08-13T20:56:01.997Z</time><hdop>4.687</hdop><vdop>4.75</vdop><extensions><gom:speed>3.408</gom:speed><gom:course>195.856</gom:course><gom:rel_alt>1.479</gom:rel_alt></extensions></trkpt>
   <trkpt lat="59.3401313408" lon="34.6831693161"><ele>167.79</ele><time>2026-08-13T20:56:05.000Z</time><hdop>4.687</hdop><vdop>4.937</vdop><extensions><gom:speed>3.531</gom:speed><gom:course>190.005</gom:course></extensions></trkpt>
   <trkpt lat="59.340025184" lon="34.6831122354"><ele>166.696</ele><time>2026-08-13T20:56:09.000Z</time><hdop>4.687</hdop><vdop>5.062</vdop><extensions><gom:speed>3.779</gom:speed><gom:course>191.598</gom:course><gom:rel_alt>1.648</gom:rel_alt></extensions></trkpt>
   <trkpt lat="59.3399296303" lon="34.6830807194"><ele>167.438</ele><time>2026-08-13T20:56:12.000Z</time><hdop>4.687</hdop><vdop>5.0</vdop><extensions><gom:speed>3.634</gom:speed><gom:course>191.692</gom:course><gom:rel_alt>1.625</gom:rel_alt></extensions></trkpt>
   <trkpt lat="59.3398317297" lon="34.6830385585"><ele>166.9</ele><time>2026-08-13T20:56:15.000Z</time><hdop>4.687</hdop><vdop>5.125</vdop><extensions><gom:speed>3.452</gom:speed><gom:course>192.631</gom:course><gom:rel_alt>1.524</gom:rel_alt></extensions></trkpt>
   <trkpt lat="59.3397247347" lon="34.6830129098"><ele>166.373</ele><time>2026-08-13T20:56:18.000Z</time><hdop>4.687</hdop><vdop>4.562</vdop><extensions><gom:speed>3.629</gom:speed><gom:course>191.791</gom:course><gom:rel_alt>1.366</gom:rel_alt></extensions></trkpt>
   <trkpt lat="59.3396197933" lon="34.6830005884"><ele>166.918</ele><time>2026-08-13T20:56:20.999Z</time><hdop>4.687</hdop><vdop>4.062</vdop><extensions><gom:speed>4.046</gom:speed><gom:course>182.282</gom:course></extensions></trkpt>
   <trkpt lat="59.3395185818" lon="34.6829646301"><ele>167.25</ele><time>2026-08-13T20:56:23.999Z</time><hdop>4.687</hdop><vdop>3.937</vdop><extensions><gom:speed>3.744</gom:speed><gom:course>187.94</gom:course><gom:rel_alt>1.315</gom:rel_alt></extensions></trkpt>
   <trkpt lat="59.3394078149" lon="34.6829006761"><ele>165.677</ele><time>2026-08-13T20:56:28.999Z</time><hdop>4.687</hdop><vdop>4.0</vdop><extensions><gom:speed>1.899</gom:speed><gom:course>200.267</gom:course><gom:rel_alt>1.537</gom:rel_alt></extensions></trkpt>
   <trkpt lat="59.3393058491" lon="34.6828740217"><ele>164.981</ele><time>2026-08-13T20:56:32.999Z</time><hdop>4.687</hdop><vdop>4.375</vdop><extensions><gom:speed>1.944</gom:speed><gom:course>196.636</gom:course><gom:rel_alt>1.284</gom:rel_alt></extensions></trkpt>
   <trkpt lat="59.3392024583" lon="34.6828347106"><ele>165.38</ele><time>2026-08-13T20:56:36.999Z</time><hdop>4.687</hdop><vdop>4.25</vdop><extensions><gom:speed>2.023</gom:speed><gom:course>185.737</gom:course><gom:rel_alt>0.821</gom:rel_alt></extensions></trkpt>
   <trkpt lat="59.3391066112" lon="34.6827745285"><ele>163.882</ele><time>2026-08-13T20:56:40.999Z</time><hdop>4.687</hdop><vdop>4.25</vdop><extensions><gom:speed>1.717</gom:speed><gom:course>193.032</gom:course><gom:rel_alt>0.425</gom:rel_alt></extensions></trkpt>
   <trkpt lat="59.339005735" lon="34.6827064675"><ele>164.853</ele><time>2026-08-13T20:56:44.999Z</time><hdop>4.687</hdop><vdop>3.0</vdop><extensions><gom:speed>2.719</gom:speed><gom:course>197.24</gom:course><gom:rel_alt>-0.134</gom:rel_alt></extensions></trkpt>
   <trkpt lat="59.3388973989" lon="34.6826794777"><ele>167.817</ele><time>2026-08-13T20:56:48.999Z</time><hdop>4.687</hdop><vdop>4.25</vdop><extensions><gom:speed>2.372</gom:speed><gom:course>200.097</gom:course><gom:rel_alt>-0.264</gom:rel_alt></extensions></trkpt>
   <trkpt lat="59.3388131189" lon="34.6825949043"><ele>168.241</ele><time>2026-08-13T20:56:51.999Z</time><hdop>4.687</hdop><vdop>4.625</vdop><extensions><gom:speed>2.812</gom:speed><gom:course>208.408</gom:course><gom:rel_alt>-0.031</gom:rel_alt></extensions></trkpt>
   <trkpt lat="59.3387129132" lon="34.6824936509"><ele>169.411</ele><time>2026-08-13T20:56:54.999Z</time><hdop>4.687</hdop><vdop>4.812</vdop><extensions><gom:speed>3.322</gom:speed><gom:course>208.216</gom:course></extensions></trkpt>
   <trkpt lat="59.3386170243" lon="34.6823853567"><ele>169.839</ele><time>2026-08-13T20:56:57.999Z</time><hdop>4.687</hdop><vdop>5.125</vdop><extensions><gom:speed>3.674</gom:speed><gom:course>211.973</gom:course><gom:rel_alt>0.628</gom:rel_alt></extensions></trkpt>
   <trkpt lat="59.3385283856" lon="34.68228008"><ele>169.877</ele><time>2026-08-13T20:57:00.999Z</time><hdop>4.687</hdop><vdop>5.187</vdop><extensions><gom:speed>3.423</gom:speed><gom:course>213.769</gom:course><gom:rel_alt>1.025</gom:rel_alt></extensions></trkpt>
   <trkpt lat="59.3384481708" lon="34.6821651641"><ele>170.628</ele><time>2026-08-13T20:57:03.998Z</time><hdop>4.687</hdop><vdop>5.25</vdop><extensions><gom:speed>3.583</gom:speed><gom:course>215.137</gom:course><gom:rel_alt>1.461</gom:rel_alt></extensions></trkpt>
   <trkpt lat="59.3383560118" lon="34.6820394356"><ele>171.706</ele><time>2026-08-13T20:57:07.998Z</time><hdop>4.687</hdop><vdop>4.812</vdop><extensions><gom:speed>2.48</gom:speed><gom:course>216.131</gom:course><gom:rel_alt>2.259</gom:rel_alt></extensions></trkpt>
   <trkpt lat="59.3382687981" lon="34.6819387689"><ele>173.191</ele><time>2026-08-13T20:57:10.998Z</time><hdop>4.687</hdop><vdop>5.25</vdop><extensions><gom:speed>3.666</gom:speed><gom:course>209.452</gom:course><gom:rel_alt>2.991</gom:rel_alt></extensions></trkpt>
   <trkpt lat="59.3381781478" lon="34.6818381861"><ele>174.123</ele><time>2026-08-13T20:57:13.998Z</time><hdop>4.687</hdop><vdop>5.187</vdop><extensions><gom:speed>3.448</gom:speed><gom:course>209.408</gom:course><gom:rel_alt>3.58</gom:rel_alt></extensions></trkpt>
   <trkpt lat="59.3380937001" lon="34.6817538642"><ele>173.368</ele><time>2026-08-13T20:57:16.998Z</time><hdop>4.687</hdop><vdop>5.187</vdop><extensions><gom:speed>3.233</gom:speed><gom:course>208.281</gom:course><gom:rel_alt>4.349</gom:rel_alt></extensions></trkpt>
   <trkpt lat="59.3379799996" lon="34.6816848811"><ele>173.258</ele><time>2026-08-13T20:57:20.998Z</time><hdop>4.687</hdop><vdop>3.5</vdop><extensions><gom:speed>3.433</gom:speed><gom:course>197.333</gom:course><gom:rel_alt>4.507</gom:rel_alt></extensions></trkpt>
   <trkpt lat="59.3378900618" lon="34.6816588134"><ele>173.27</ele><time>2026-08-13T21:01:02.999Z</time><hdop>4.687</hdop><vdop>5.062</vdop><extensions><gom:speed>2.054</gom:speed><gom:course>189.681</gom:course><gom:rel_alt>3.989</gom:rel_alt></extensions></trkpt>
   <trkpt lat="59.3377973161" lon="34.6816385292"><ele>173.065</ele><time>2026-08-13T21:01:07.999Z</time><hdop>4.687</hdop><vdop>5.187</vdop><extensions><gom:speed>2.344</gom:speed><gom:course>195.438</gom:course><gom:rel_alt>3.981</gom:rel_alt></extensions></trkpt>
   <trkpt lat="59.3376972361" lon="34.6815653552"><ele>172.194</ele><time>2026-08-13T21:01:11.999Z</time><hdop>4.687</hdop><vdop>5.125</vdop><extensions><gom:speed>2.633</gom:speed><gom:course>197.119</gom:course><gom:rel_alt>3.947</gom:rel_alt></extensions></trkpt>
   <trkpt lat="59.3376149677" lon="34.6814915106"><ele>171.56</ele><time>2026-08-13T21:01:15.998Z</time><hdop>4.687</hdop><vdop>5.062</vdop><extensions><gom:speed>2.079</gom:speed><gom:course>202.986</gom:course><gom:rel_alt>4.021</gom:rel_alt></extensions></trkpt>
   <trkpt lat="59.3375097749" lon="34.6814208511"><ele>170.138</ele><time>2026-08-13T21:01:20.998Z</time><hdop>4.687</hdop><vdop>5.062</vdop><extensions><gom:speed>2.466</gom:speed><gom:course>197.899</gom:course><gom:rel_alt>4.011</gom:rel_alt></extensions></trkpt>
   <trkpt lat="59.3374226869" lon="34.6813686319"><ele>170.524</ele><time>2026-08-13T21:01:24.998Z</time><hdop>4.687</hdop><vdop>5.125</vdop><extensions><gom:speed>2.433</gom:speed><gom:course>199.327</gom:course><gom:rel_alt>4.011</gom:rel_alt></extensions></trkpt>
   <trkpt lat="59.3373178712" lon="34.6813088689"><ele>170.907</ele><time>2026-08-13T21:01:28.998Z</time><hdop>4.687</hdop><vdop>5.062</vdop><extensions><gom:speed>2.857</gom:speed><gom:course>192.653</gom:course><gom:rel_alt>3.955</gom:rel_alt></extensions></trkpt>
   <trkpt lat="59.3372285201" lon="34.6812103816"><ele>170.244</ele><time>2026-08-13T21:01:32.998Z</time><hdop>4.687</hdop><vdop>4.687</vdop><extensions><gom:speed>2.734</gom:speed><gom:course>209.902</gom:course><gom:rel_alt>3.791</gom:rel_alt></extensions></trkpt>
   <trkpt lat="59.337134098" lon="34.6811270654"><ele>169.518</ele><time>2026-08-13T21:01:36.998Z</time><hdop>4.687</hdop><vdop>4.875</vdop><extensions><gom:speed>2.555</gom:speed><gom:course>202.211</gom:course><gom:rel_alt>3.619</gom:rel_alt></extensions></trkpt>
   <trkpt lat="59.3370336828" lon="34.6810393907"><ele>169.604</ele><time>2026-08-13T21:01:40.998Z</time><hdop>4.687</hdop><vdop>5.0</vdop><extensions><gom:speed>2.816</gom:speed><gom:course>199.553</gom:course></extensions></trkpt>
   <trkpt lat="59.3369326808" lon="34.6809414901"><ele>170.143</ele><time>2026-08-13T21:01:45.998Z</time><hdop>4.687</hdop><vdop>4.937</vdop><extensions><gom:speed>2.433</gom:speed><gom:course>207.815</gom:course><gom:rel_alt>3.421</gom:rel_alt></extensions></trkpt>
   <trkpt lat="59.3368370433" lon="34.6809182722"><ele>171.474</ele><time>2026-08-13T21:01:49.998Z</time><hdop>4.687</hdop><vdop>4.937</vdop><extensions><gom:speed>2.287</gom:speed><gom:course>181.859</gom:course><gom:rel_alt>3.405</gom:rel_alt></extensions></trkpt>
   <trkpt lat="59.3367359995" lon="34.6809404005"><ele>170.492</ele><time>2026-08-13T21:01:53.998Z</time><hdop>4.687</hdop><vdop>4.937</vdop><extensions><gom:speed>2.822</gom:speed><gom:course>180.92</gom:course><gom:rel_alt>3.334</gom:rel_alt></extensions></trkpt>
   <trkpt lat="59.3366371768" lon="34.6809113152"><ele>170.284</ele><time>2026-08-13T21:01:57.997Z</time><hdop>4.687</hdop><vdop>4.937</vdop><extensions><gom:speed>2.366</gom:speed><gom:course>191.066</gom:course></extensions></trkpt>
   <trkpt lat="59.3365413298" lon="34.6808707468"><ele>170.687</ele><time>2026-08-13T21:02:01.997Z</time><hdop>4.687</hdop><vdop>5.0</vdop><extensions><gom:speed>2.676</gom:speed><gom:course>189.907</gom:course><gom:rel_alt>3.176</gom:rel_alt></extensions></trkpt>
   <trkpt lat="59.3364408308" lon="34.6808566652"><ele>170.412</ele><time>2026-08-13T21:02:05.997Z</time><hdop>4.687</hdop><vdop>5.0</vdop><extensions><gom:speed>2.617</gom:speed><gom:course>184.715</gom:course><gom:rel_alt>3.12</gom:rel_alt></extensions></trkpt>
   <trkpt lat="59.3363497195" lon="34.6808449306"><ele>170.877</ele><time>2026-08-13T21:02:09.997Z</time><hdop>4.687</hdop><vdop>5.0</vdop><extensions><gom:speed>2.508</gom:speed><gom:course>191.197</gom:course><gom:rel_alt>2.874</gom:rel_alt></extensions></trkpt>
   <trkpt lat="59.336245281" lon="34.6808281668"><ele>170.468</ele><time>2026-08-13T21:02:14.997Z</time><hdop>4.687</hdop><vdop>5.125</vdop><extensions><gom:speed>2.512</gom:speed><gom:course>187.325</gom:course></extensions></trkpt>
   <trkpt lat="59.3361417644" lon="34.6807932142"><ele>171.132</ele><time>2026-08-13T21:02:19.997Z</time><hdop>4.687</hdop><vdop>4.937</vdop><extensions><gom:speed>2.041</gom:speed><gom:course>195.911</gom:course><gom:rel_alt>3.183</gom:rel_alt></extensions></trkpt>
   <trkpt lat="59.3360503179" lon="34.6807501312"><ele>170.577</ele><time>2026-08-13T21:02:25.000Z</time><hdop>4.687</hdop><vdop>5.375</vdop><extensions><gom:speed>1.374</gom:speed><gom:course>198.652</gom:course><gom:rel_alt>3.036</gom:rel_alt></extensions></trkpt>
   <trkpt lat="59.3359616373" lon="34.6807126641"><ele>170.353</ele><time>2026-08-13T21:02:29.000Z</time><hdop>4.687</hdop><vdop>5.562</vdop><extensions><gom:speed>1.4</gom:speed><gom:course>193.994</gom:course><gom:rel_alt>3.146</gom:rel_alt></extensions></trkpt>
   <trkpt lat="59.3358547681" lon="34.6806891948"><ele>169.715</ele><time>2026-08-13T21:02:33.999Z</time><hdop>4.687</hdop><vdop>5.625</vdop><extensions><gom:speed>1.262</gom:speed><gom:course>189.819</gom:course><gom:rel_alt>3.305</gom:rel_alt></extensions></trkpt>
   <trkpt lat="59.335765878" lon="34.680649716"><ele>171.097</ele><time>2026-08-13T21:02:37.999Z</time><hdop>4.687</hdop><vdop>5.687</vdop><extensions><gom:speed>1.928</gom:speed><gom:course>198.405</gom:course><gom:rel_alt>3.334</gom:rel_alt></extensions></trkpt>
   <trkpt lat="59.335659805" lon="34.6805665676"><ele>171.242</ele><time>2026-08-13T21:02:42.999Z</time><hdop>4.687</hdop><vdop>5.562</vdop><extensions><gom:speed>2.212</gom:speed><gom:course>204.865</gom:course><gom:rel_alt>3.548</gom:rel_alt></extensions></trkpt>
   <trkpt lat="59.3355721303" lon="34.680470511"><ele>170.351</ele><time>2026-08-13T21:02:46.999Z</time><hdop>4.687</hdop><vdop>3.5</vdop><extensions><gom:speed>2.727</gom:speed><gom:course>209.688</gom:course><gom:rel_alt>3.469</gom:rel_alt></extensions></trkpt>
   <trkpt lat="59.3354871797" lon="34.6803666592"><ele>169.519</ele><time>2026-08-13T21:02:50.999Z</time><hdop>4.687</hdop><vdop>4.625</vdop><extensions><gom:speed>2.561</gom:speed><gom:course>214.742</gom:course><gom:rel_alt>3.294</gom:rel_alt></extensions></trkpt>
   <trkpt lat="59.3353947692" lon="34.6802644"><ele>171.216</ele><time>2026-08-13T21:02:54.999Z</time><hdop>4.687</hdop><vdop>4.875</vdop><extensions><gom:speed>2.485</gom:speed><gom:course>218.894</gom:course><gom:rel_alt>2.983</gom:rel_alt></extensions></trkpt>
   <trkpt lat="59.3353157279" lon="34.6801354025"><ele>172.008</ele><time>2026-08-13T21:02:58.999Z</time><hdop>4.687</hdop><vdop>4.937</vdop><extensions><gom:speed>2.627</gom:speed><gom:course>219.988</gom:course><gom:rel_alt>2.795</gom:rel_alt></extensions></trkpt>
   <trkpt lat="59.3352404584" lon="34.6800274436"><ele>171.233</ele><time>2026-08-13T21:03:02.999Z</time><hdop>4.687</hdop><vdop>5.062</vdop><extensions><gom:speed>2.436</gom:speed><gom:course>214.709</gom:course><gom:rel_alt>2.637</gom:rel_alt></extensions></trkpt>
   <trkpt lat="59.335160495" lon="34.6799135335"><ele>171.68</ele><time>2026-08-13T21:03:07.999Z</time><hdop>4.687</hdop><vdop>5.187</vdop><extensions><gom:speed>2.074</gom:speed><gom:course>212.951</gom:course><gom:rel_alt>2.47</gom:rel_alt></extensions></trkpt>
   <trkpt lat="59.3350681265" lon="34.6798241824"><ele>171.864</ele><time>2026-08-13T21:03:19.998Z</time><hdop>4.687</hdop><vdop>5.062</vdop><extensions><gom:speed>1.946</gom:speed><gom:course>208.457</gom:course><gom:rel_alt>2.164</gom:rel_alt></extensions></trkpt>
   <trkpt lat="59.3349833435" lon="34.6797307242"><ele>171.687</ele><time>2026-08-13T21:03:24.998Z</time><hdop>4.687</hdop><vdop>5.0</vdop><extensions><gom:speed>2.083</gom:speed><gom:course>208.281</gom:course><gom:rel_alt>2.156</gom:rel_alt></extensions></trkpt>
   <trkpt lat="59.3348917712" lon="34.6796319854"><ele>172.076</ele><time>2026-08-13T21:03:29.998Z</time><hdop>4.687</hdop><vdop>5.062</vdop><extensions><gom:speed>2.281</gom:speed><gom:course>213.187</gom:course><gom:rel_alt>2.333</gom:rel_alt></extensions></trkpt>
   <trkpt lat="59.3347980196" lon="34.6795075141"><ele>172.598</ele><time>2026-08-13T21:03:33.998Z</time><hdop>4.687</hdop><vdop>5.0</vdop><extensions><gom:speed>2.787</gom:speed><gom:course>218.79</gom:course><gom:rel_alt>2.642</gom:rel_alt></extensions></trkpt>
   <trkpt lat="59.3347189364" lon="34.6794059254"><ele>171.533</ele><time>2026-08-13T21:03:39.998Z</time><hdop>4.687</hdop><vdop>4.937</vdop><extensions><gom:speed>1.6</gom:speed><gom:course>208.655</gom:course><gom:rel_alt>3.065</gom:rel_alt></extensions></trkpt>
   <trkpt lat="59.3346514621" lon="34.6792856451"><ele>172.202</ele><time>2026-08-13T21:03:44.998Z</time><hdop>4.687</hdop><vdop>5.187</vdop><extensions><gom:speed>1.446</gom:speed><gom:course>217.917</gom:course><gom:rel_alt>3.242</gom:rel_alt></extensions></trkpt>
   <trkpt lat="59.3345707862" lon="34.6791854814"><ele>172.916</ele><time>2026-08-13T21:03:52.998Z</time><hdop>4.687</hdop><vdop>5.312</vdop><extensions><gom:speed>1.976</gom:speed><gom:course>214.115</gom:course><gom:rel_alt>2.843</gom:rel_alt></extensions></trkpt>
   <trkpt lat="59.3344946367" lon="34.6790665422"><ele>172.403</ele><time>2026-08-13T21:03:58.998Z</time><hdop>4.687</hdop><vdop>5.25</vdop><extensions><gom:speed>1.477</gom:speed><gom:course>222.701</gom:course><gom:rel_alt>3.043</gom:rel_alt></extensions></trkpt>
   <trkpt lat="59.3344151762" lon="34.6789367903"><ele>171.638</ele><time>2026-08-13T21:04:04.997Z</time><hdop>4.687</hdop><vdop>5.187</vdop><extensions><gom:speed>1.961</gom:speed><gom:course>213.335</gom:course><gom:rel_alt>2.977</gom:rel_alt></extensions></trkpt>
   <trkpt lat="59.3343417507" lon="34.6788310945"><ele>172.333</ele><time>2026-08-13T21:04:08.997Z</time><hdop>4.687</hdop><vdop>5.312</vdop><extensions><gom:speed>2.406</gom:speed><gom:course>216.719</gom:course><gom:rel_alt>3.165</gom:rel_alt></extensions></trkpt>
   <trkpt lat="59.334265224" lon="34.6786823157"><ele>172.346</ele><time>2026-08-13T21:04:13.997Z</time><hdop>4.687</hdop><vdop>5.187</vdop><extensions><gom:speed>2.267</gom:speed><gom:course>228.887</gom:course><gom:rel_alt>3.257</gom:rel_alt></extensions></trkpt>
   <trkpt lat="59.3341754957" lon="34.6785648853"><ele>173.663</ele><time>2026-08-13T21:04:18.997Z</time><hdop>4.687</hdop><vdop>5.25</vdop><extensions><gom:speed>2.146</gom:speed><gom:course>216.28</gom:course><gom:rel_alt>3.244</gom:rel_alt></extensions></trkpt>
   <trkpt lat="59.3341073089" lon="34.6784469519"><ele>172.996</ele><time>2026-08-13T21:04:22.997Z</time><hdop>4.687</hdop><vdop>5.312</vdop><extensions><gom:speed>2.241</gom:speed><gom:course>219.916</gom:course><gom:rel_alt>3.144</gom:rel_alt></extensions></trkpt>
   <trkpt lat="59.3340130544" lon="34.6783322875"><ele>173.7</ele><time>2026-08-13T21:04:27.997Z</time><hdop>4.687</hdop><vdop>5.187</vdop><extensions><gom:speed>2.681</gom:speed><gom:course>211.457</gom:course><gom:rel_alt>2.972</gom:rel_alt></extensions></trkpt>
   <trkpt lat="59.3339354799" lon="34.6782163657"><ele>172.422</ele><time>2026-08-13T21:04:32.999Z</time><hdop>4.687</hdop><vdop>5.937</vdop><extensions><gom:speed>1.726</gom:speed><gom:course>222.987</gom:course><gom:rel_alt>3.094</gom:rel_alt></extensions></trkpt>
   <trkpt lat="59.3338672093" lon="34.6780884579"><ele>172.85</ele><time>2026-08-13T21:04:37.999Z</time><hdop>4.687</hdop><vdop>5.875</vdop><extensions><gom:speed>1.013</gom:speed><gom:course>232.271</gom:course><gom:rel_alt>3.26</gom:rel_alt></extensions></trkpt>
   <trkpt lat="59.3337960469" lon="34.6779633999"><ele>173.28</ele><time>2026-08-13T21:04:41.999Z</time><hdop>4.687</hdop><vdop>5.0</vdop><extensions><gom:speed>2.482</gom:speed><gom:course>225.646</gom:course><gom:rel_alt>3.078</gom:rel_alt></extensions></trkpt>
   <trkpt lat="59.3337285307" lon="34.6778256852"><ele>172.641</ele><time>2026-08-13T21:04:46.999Z</time><hdop>4.687</hdop><vdop>5.0</vdop><extensions><gom:speed>1.7</gom:speed><gom:course>228.068</gom:course><gom:rel_alt>2.774</gom:rel_alt></extensions></trkpt>
   <trkpt lat="59.3336504952" lon="34.6777057402"><ele>171.895</ele><time>2026-08-13T21:04:51.999Z</time><hdop>4.687</hdop><vdop>4.875</vdop><extensions><gom:speed>2.042</gom:speed><gom:course>218.587</gom:course><gom:rel_alt>2.66</gom:rel_alt></extensions></trkpt>
   <trkpt lat="59.3335803806" lon="34.6775492501"><ele>171.851</ele><time>2026-08-13T21:04:56.999Z</time><hdop>4.687</hdop><vdop>5.062</vdop><extensions><gom:speed>2.331</gom:speed><gom:course>224.415</gom:course><gom:rel_alt>2.256</gom:rel_alt></extensions></trkpt>
   <trkpt lat="59.3335149179" lon="34.6773701288"><ele>172.444</ele><time>2026-08-13T21:05:01.999Z</time><hdop>4.687</hdop><vdop>5.125</vdop><extensions><gom:speed>2.425</gom:speed><gom:course>245.174</gom:course><gom:rel_alt>2.211</gom:rel_alt></extensions></trkpt>
   <trkpt lat="59.3334468568" lon="34.6772122976"><ele>173.712</ele><time>2026-08-13T21:05:07.999Z</time><hdop>4.687</hdop><vdop>5.625</vdop><extensions><gom:speed>1.701</gom:speed><gom:course>234.363</gom:course><gom:rel_alt>2.171</gom:rel_alt></extensions></trkpt>
   <trkpt lat="59.3333804722" lon="34.6770311646"><ele>172.692</ele><time>2026-08-13T21:05:12.999Z</time><hdop>4.687</hdop><vdop>5.375</vdop><extensions><gom:speed>1.906</gom:speed><gom:course>227.618</gom:course><gom:rel_alt>2.415</gom:rel_alt></extensions></trkpt>
   <trkpt lat="59.333322176" lon="34.6768857386"><ele>171.621</ele><time>2026-08-13T21:05:16.999Z</time><hdop>4.687</hdop><vdop>5.5</vdop><extensions><gom:speed>1.965</gom:speed><gom:course>226.843</gom:course><gom:rel_alt>2.541</gom:rel_alt></extensions></trkpt>
   <trkpt lat="59.3332518519" lon="34.6767083775"><ele>171.668</ele><time>2026-08-13T21:05:21.999Z</time><hdop>4.687</hdop><vdop>5.562</vdop><extensions><gom:speed>1.937</gom:speed><gom:course>235.512</gom:course><gom:rel_alt>2.356</gom:rel_alt></extensions></trkpt>
   <trkpt lat="59.3331840842" lon="34.6765781228"><ele>173.577</ele><time>2026-08-13T21:05:24.999Z</time><hdop>4.687</hdop><vdop>5.062</vdop><extensions><gom:speed>3.317</gom:speed><gom:course>223.113</gom:course><gom:rel_alt>2.478</gom:rel_alt></extensions></trkpt>
   <trkpt lat="59.3331280512" lon="34.6764305174"><ele>173.462</ele><time>2026-08-13T21:05:28.998Z</time><hdop>4.687</hdop><vdop>5.125</vdop><extensions><gom:speed>2.287</gom:speed><gom:course>233.051</gom:course><gom:rel_alt>2.888</gom:rel_alt></extensions></trkpt>
   <trkpt lat="59.3330669471" lon="34.6762692496"><ele>172.783</ele><time>2026-08-13T21:05:32.998Z</time><hdop>4.687</hdop><vdop>5.0</vdop><extensions><gom:speed>2.571</gom:speed><gom:course>234.341</gom:course><gom:rel_alt>3.083</gom:rel_alt></extensions></trkpt>
   <trkpt lat="59.3330094891" lon="34.6761304453"><ele>172.691</ele><time>2026-08-13T21:05:36.998Z</time><hdop>4.687</hdop><vdop>5.0</vdop><extensions><gom:speed>2.223</gom:speed><gom:course>229.095</gom:course></extensions></trkpt>
   <trkpt lat="59.3329236585" lon="34.6760317903"><ele>173.28</ele><time>2026-08-13T21:05:40.998Z</time><hdop>4.687</hdop><vdop>4.875</vdop><extensions><gom:speed>2.36</gom:speed><gom:course>208.908</gom:course><gom:rel_alt>3.165</gom:rel_alt></extensions></trkpt>
   <trkpt lat="59.3328264703" lon="34.6759155333"><ele>173.413</ele><time>2026-08-13T21:05:45.998Z</time><hdop>4.687</hdop><vdop>5.625</vdop><extensions><gom:speed>1.491</gom:speed><gom:course>207.199</gom:course><gom:rel_alt>3.183</gom:rel_alt></extensions></trkpt>
   <trkpt lat="59.3327589121" lon="34.6757754717"><ele>172.047</ele><time>2026-08-13T21:05:49.998Z</time><hdop>4.687</hdop><vdop>5.75</vdop><extensions><gom:speed>1.525</gom:speed><gom:course>222.311</gom:course><gom:rel_alt>3.273</gom:rel_alt></extensions></trkpt>
   <trkpt lat="59.3326921084" lon="34.6756352425"><ele>172.37</ele><time>2026-08-13T21:05:52.998Z</time><hdop>4.687</hdop><vdop>5.187</vdop><extensions><gom:speed>3.683</gom:speed><gom:course>230.601</gom:course><gom:rel_alt>3.273</gom:rel_alt></extensions></trkpt>
   <trkpt lat="59.3326324711" lon="34.6754419558"><ele>171.912</ele><time>2026-08-13T21:05:57.998Z</time><hdop>4.687</hdop><vdop>4.937</vdop><extensions><gom:speed>2.379</gom:speed><gom:course>239.961</gom:course><gom:rel_alt>3.139</gom:rel_alt></extensions></trkpt>
   <trkpt lat="59.3325803776" lon="34.6752920035"><ele>171.227</ele><time>2026-08-13T21:06:01.998Z</time><hdop>4.687</hdop><vdop>4.812</vdop><extensions><gom:speed>2.19</gom:speed><gom:course>235.841</gom:course><gom:rel_alt>3.036</gom:rel_alt></extensions></trkpt>
   <trkpt lat="59.3325323074" lon="34.6751137205"><ele>171.72</ele><time>2026-08-13T21:06:05.998Z</time><hdop>4.687</hdop><vdop>5.312</vdop><extensions><gom:speed>2.129</gom:speed><gom:course>246.141</gom:course><gom:rel_alt>3.028</gom:rel_alt></extensions></trkpt>
   <trkpt lat="59.3324813454" lon="34.6749506086"><ele>171.984</ele><time>2026-08-13T21:06:09.997Z</time><hdop>4.687</hdop><vdop>4.937</vdop><extensions><gom:speed>2.259</gom:speed><gom:course>245.152</gom:course><gom:rel_alt>2.845</gom:rel_alt></extensions></trkpt>
   <trkpt lat="59.3324174753" lon="34.6747740857"><ele>172.105</ele><time>2026-08-13T21:06:14.997Z</time><hdop>4.687</hdop><vdop>4.812</vdop><extensions><gom:speed>2.714</gom:speed><gom:course>231.254</gom:course><gom:rel_alt>2.597</gom:rel_alt></extensions></trkpt>
   <trkpt lat="59.3323491209" lon="34.6746393047"><ele>172.078</ele><time>2026-08-13T21:06:19.997Z</time><hdop>4.687</hdop><vdop>5.687</vdop><extensions><gom:speed>1.518</gom:speed><gom:course>223.003</gom:course><gom:rel_alt>3.072</gom:rel_alt></extensions></trkpt>
   <trkpt lat="59.3322744801" lon="34.6744820602"><ele>171.771</ele><time>2026-08-13T21:06:23.997Z</time><hdop>4.687</hdop><vdop>5.0</vdop><extensions><gom:speed>2.434</gom:speed><gom:course>226.722</gom:course><gom:rel_alt>3.604</gom:rel_alt></extensions></trkpt>
   <trkpt lat="59.3322049522" lon="34.6743431721"><ele>171.764</ele><time>2026-08-13T21:06:27.997Z</time><hdop>4.687</hdop><vdop>5.0</vdop><extensions><gom:speed>2.536</gom:speed><gom:course>226.662</gom:course><gom:rel_alt>3.937</gom:rel_alt></extensions></trkpt>
   <trkpt lat="59.3321385675" lon="34.6741902862"><ele>172.462</ele><time>2026-08-13T21:06:31.997Z</time><hdop>4.687</hdop><vdop>4.875</vdop><extensions><gom:speed>2.45</gom:speed><gom:course>225.701</gom:course><gom:rel_alt>4.299</gom:rel_alt></extensions></trkpt>
   <trkpt lat="59.3320778406" lon="34.6740560919"><ele>173.079</ele><time>2026-08-13T21:06:36.000Z</time><hdop>4.687</hdop><vdop>4.75</vdop><extensions><gom:speed>2.673</gom:speed><gom:course>232.397</gom:course><gom:rel_alt>4.386</gom:rel_alt></extensions></trkpt>
   <trkpt lat="59.3320293094" lon="34.6738968358"><ele>171.716</ele><time>2026-08-13T21:06:39.999Z</time><hdop>4.687</hdop><vdop>4.75</vdop><extensions><gom:speed>2.276</gom:speed><gom:course>238.621</gom:course><gom:rel_alt>4.061</gom:rel_alt></extensions></trkpt>
   <trkpt lat="59.3319795628" lon="34.6737267669"><ele>171.408</ele><time>2026-08-13T21:06:43.999Z</time><hdop>4.687</hdop><vdop>4.687</vdop><extensions><gom:speed>2.458</gom:speed><gom:course>236.989</gom:course></extensions></trkpt>
   <trkpt lat="59.3318892478" lon="34.6736056484"><ele>171.888</ele><time>2026-08-13T21:06:48.999Z</time><hdop>4.687</hdop><vdop>4.75</vdop><extensions><gom:speed>2.556</gom:speed><gom:course>202.415</gom:course><gom:rel_alt>3.58</gom:rel_alt></extensions></trkpt>
   <trkpt lat="59.3317843483" lon="34.6735996973"><ele>170.837</ele><time>2026-08-13T21:06:53.999Z</time><hdop>4.687</hdop><vdop>5.375</vdop><extensions><gom:speed>1.878</gom:speed><gom:course>180.574</gom:course><gom:rel_alt>3.289</gom:rel_alt></extensions></trkpt>
   <trkpt lat="59.3316759283" lon="34.6736292854"><ele>170.843</ele><time>2026-08-13T21:06:58.999Z</time><hdop>4.687</hdop><vdop>5.75</vdop><extensions><gom:speed>1.468</gom:speed><gom:course>172.823</gom:course><gom:rel_alt>2.536</gom:rel_alt></extensions></trkpt>
   <trkpt lat="59.3315785306" lon="34.6736658305"><ele>170.432</ele><time>2026-08-13T21:07:02.999Z</time><hdop>4.687</hdop><vdop>5.062</vdop><extensions><gom:speed>2.714</gom:speed><gom:course>169.131</gom:course><gom:rel_alt>2.063</gom:rel_alt></extensions></trkpt>
   <trkpt lat="59.3314722481" lon="34.6736070734"><ele>171.519</ele><time>2026-08-13T21:07:06.999Z</time><hdop>4.687</hdop><vdop>4.937</vdop><extensions><gom:speed>2.739</gom:speed><gom:course>205.354</gom:course><gom:rel_alt>1.846</gom:rel_alt></extensions></trkpt>
   <trkpt lat="59.3313735093" lon="34.6735075802"><ele>172.745</ele><time>2026-08-13T21:07:11.999Z</time><hdop>4.687</hdop><vdop>5.687</vdop><extensions><gom:speed>1.822</gom:speed><gom:course>209.776</gom:course><gom:rel_alt>2.438</gom:rel_alt></extensions></trkpt>
   <trkpt lat="59.3312885168" lon="34.6734440453"><ele>171.309</ele><time>2026-08-13T21:07:15.999Z</time><hdop>4.687</hdop><vdop>5.687</vdop><extensions><gom:speed>1.724</gom:speed><gom:course>203.167</gom:course><gom:rel_alt>2.459</gom:rel_alt></extensions></trkpt>
   <trkpt lat="59.3311964416" lon="34.6732951827"><ele>170.728</ele><time>2026-08-13T21:07:20.999Z</time><hdop>4.687</hdop><vdop>3.937</vdop><extensions><gom:speed>2.788</gom:speed><gom:course>232.386</gom:course><gom:rel_alt>2.391</gom:rel_alt></extensions></trkpt>
   <trkpt lat="59.3311032767" lon="34.6731560432"><ele>171.562</ele><time>2026-08-13T21:07:24.999Z</time><hdop>4.687</hdop><vdop>4.25</vdop><extensions><gom:speed>2.825</gom:speed><gom:course>219.015</gom:course><gom:rel_alt>2.383</gom:rel_alt></extensions></trkpt>
   <trkpt lat="59.3310421307" lon="34.6729599066"><ele>170.053</ele><time>2026-08-13T21:07:28.999Z</time><hdop>4.687</hdop><vdop>3.437</vdop><extensions><gom:speed>2.598</gom:speed><gom:course>237.769</gom:course><gom:rel_alt>2.404</gom:rel_alt></extensions></trkpt>
   <trkpt lat="59.3309886961" lon="34.6727829646"><ele>170.535</ele><time>2026-08-13T21:07:33.998Z</time><hdop>4.687</hdop><vdop>5.25</vdop><extensions><gom:speed>1.662</gom:speed><gom:course>243.131</gom:course><gom:rel_alt>2.396</gom:rel_alt></extensions></trkpt>
   <trkpt lat="59.3309736087" lon="34.6725828886"><ele>170.114</ele><time>2026-08-13T21:07:37.998Z</time><hdop>4.687</hdop><vdop>4.125</vdop><extensions><gom:speed>2.472</gom:speed><gom:course>258.226</gom:course><gom:rel_alt>2.486</gom:rel_alt></extensions></trkpt>
   <trkpt lat="59.3309179528" lon="34.6724191062"><ele>171.816</ele><time>2026-08-13T21:07:44.998Z</time><hdop>4.687</hdop><vdop>4.5</vdop><extensions><gom:speed>1.15</gom:speed><gom:course>234.495</gom:course><gom:rel_alt>2.845</gom:rel_alt></extensions></trkpt>
   <trkpt lat="59.3308506043" lon="34.6722777035"><ele>172.742</ele><time>2026-08-13T21:07:51.998Z</time><hdop>4.687</hdop><vdop>4.937</vdop><extensions><gom:speed>1.647</gom:speed><gom:course>228.942</gom:course></extensions></trkpt>
   <trkpt lat="59.330778017" lon="34.6721482031"><ele>171.753</ele><time>2026-08-13T21:07:57.998Z</time><hdop>4.687</hdop><vdop>3.437</vdop><extensions><gom:speed>1.752</gom:speed><gom:course>206.754</gom:course><gom:rel_alt>3.543</gom:rel_alt></extensions></trkpt>
   <trkpt lat="59.3306788171" lon="34.672103779"><ele>171.549</ele><time>2026-08-13T21:08:02.998Z</time><hdop>4.687</hdop><vdop>3.937</vdop><extensions><gom:speed>2.03</gom:speed><gom:course>200.563</gom:course><gom:rel_alt>4.373</gom:rel_alt></extensions></trkpt>
   <trkpt lat="59.3305844369" lon="34.6721163519"><ele>172.367</ele><time>2026-08-13T21:08:07.998Z</time><hdop>4.687</hdop><vdop>4.187</vdop><extensions><gom:speed>1.26</gom:speed><gom:course>165.582</gom:course></extensions></trkpt>
   <trkpt lat="59.3304860753" lon="34.6720906194"><ele>170.966</ele><time>2026-08-13T21:08:10.998Z</time><hdop>4.687</hdop><vdop>3.562</vdop><extensions><gom:speed>3.758</gom:speed><gom:course>184.342</gom:course><gom:rel_alt>4.98</gom:rel_alt></extensions></trkpt>
   <trkpt lat="59.3303743026" lon="34.6720720954"><ele>170.687</ele><time>2026-08-13T21:08:16.997Z</time><hdop>4.687</hdop><vdop>4.25</vdop><extensions><gom:speed>2.039</gom:speed><gom:course>199.58</gom:course><gom:rel_alt>5.255</gom:rel_alt></extensions></trkpt>
   <trkpt lat="59.3302877595" lon="34.6721443474"><ele>171.413</ele><time>2026-08-13T21:08:19.997Z</time><hdop>4.687</hdop><vdop>4.812</vdop><extensions><gom:speed>2.162</gom:speed><gom:course>168.917</gom:course><gom:rel_alt>5.287</gom:rel_alt></extensions></trkpt>
   <trkpt lat="59.3301959357" lon="34.6721620333"><ele>170.903</ele><time>2026-08-13T21:08:23.997Z</time><hdop>4.687</hdop><vdop>3.625</vdop><extensions><gom:speed>1.888</gom:speed><gom:course>174.525</gom:course><gom:rel_alt>5.427</gom:rel_alt></extensions></trkpt>
   <trkpt lat="59.3300839535" lon="34.6721855026"><ele>170.613</ele><time>2026-08-13T21:08:28.997Z</time><hdop>4.687</hdop><vdop>4.375</vdop><extensions><gom:speed>1.926</gom:speed><gom:course>179.799</gom:course><gom:rel_alt>5.723</gom:rel_alt></extensions></trkpt>
   <trkpt lat="59.3299768328" lon="34.6721492928"><ele>168.597</ele><time>2026-08-13T21:08:33.997Z</time><hdop>4.687</hdop><vdop>4.125</vdop><extensions><gom:speed>1.911</gom:speed><gom:course>197.723</gom:course><gom:rel_alt>6.013</gom:rel_alt></extensions></trkpt>
   <trkpt lat="59.3298671556" lon="34.6721142564"><ele>167.89</ele><time>2026-08-13T21:08:37.997Z</time><hdop>4.687</hdop><vdop>5.0</vdop><extensions><gom:speed>2.75</gom:speed><gom:course>204.837</gom:course><gom:rel_alt>6.323</gom:rel_alt></extensions></trkpt>
   <trkpt lat="59.3297641001" lon="34.6721153461"><ele>169.384</ele><time>2026-08-13T21:08:42.000Z</time><hdop>4.687</hdop><vdop>5.25</vdop><extensions><gom:speed>1.385</gom:speed><gom:course>181.93</gom:course></extensions></trkpt>
   <trkpt lat="59.3296644811" lon="34.6720844168"><ele>170.422</ele><time>2026-08-13T21:08:44.999Z</time><hdop>4.687</hdop><vdop>4.562</vdop><extensions><gom:speed>3.115</gom:speed><gom:course>190.165</gom:course><gom:rel_alt>6.774</gom:rel_alt></extensions></trkpt>
   <trkpt lat="59.3295732022" lon="34.6720567566"><ele>170.164</ele><time>2026-08-13T21:08:48.999Z</time><hdop>4.687</hdop><vdop>5.687</vdop><extensions><gom:speed>1.553</gom:speed><gom:course>192.961</gom:course><gom:rel_alt>6.996</gom:rel_alt></extensions></trkpt>
   <trkpt lat="59.3294492758" lon="34.671975033"><ele>170.653</ele><time>2026-08-13T21:08:52.999Z</time><hdop>4.687</hdop><vdop>4.687</vdop><extensions><gom:speed>3.367</gom:speed><gom:course>197.91</gom:course><gom:rel_alt>7.237</gom:rel_alt></extensions></trkpt>
   <trkpt lat="59.329362565" lon="34.6719138451"><ele>171.217</ele><time>2026-08-13T21:08:56.999Z</time><hdop>4.687</hdop><vdop>5.062</vdop><extensions><gom:speed>0.831</gom:speed><gom:course>205.128</gom:course><gom:rel_alt>7.382</gom:rel_alt></extensions></trkpt>
   <trkpt lat="59.3292707412" lon="34.6718682476"><ele>171.636</ele><time>2026-08-13T21:09:00.999Z</time><hdop>4.687</hdop><vdop>5.437</vdop><extensions><gom:speed>1.263</gom:speed><gom:course>204.134</gom:course><gom:rel_alt>7.411</gom:rel_alt></extensions></trkpt>
   <trkpt lat="59.3291688592" lon="34.6718006894"><ele>170.795</ele><time>2026-08-13T21:09:05.999Z</time><hdop>4.687</hdop><vdop>3.437</vdop><extensions><gom:speed>1.98</gom:speed><gom:course>199.657</gom:course><gom:rel_alt>7.609</gom:rel_alt></extensions></trkpt>
   <trkpt lat="59.3290706652" lon="34.6717032079"><ele>170.141</ele><time>2026-08-13T21:09:08.999Z</time><hdop>4.687</hdop><vdop>3.062</vdop><extensions><gom:speed>3.495</gom:speed><gom:course>202.805</gom:course><gom:rel_alt>7.633</gom:rel_alt></extensions></trkpt>
   <trkpt lat="59.3289926716" lon="34.6716047205"><ele>170.962</ele><time>2026-08-13T21:09:12.999Z</time><hdop>4.687</hdop><vdop>3.0</vdop><extensions><gom:speed>2.264</gom:speed><gom:course>209.891</gom:course><gom:rel_alt>7.541</gom:rel_alt></extensions></trkpt>
   <trkpt lat="59.3288683261" lon="34.6714841049"><ele>170.866</ele><time>2026-08-13T21:09:15.999Z</time><hdop>6.125</hdop><vdop>3.0</vdop><extensions><gom:speed>3.825</gom:speed><gom:course>206.969</gom:course></extensions></trkpt>
   <trkpt lat="59.3287768795" lon="34.6713415288"><ele>170.902</ele><time>2026-08-13T21:09:20.999Z</time><hdop>4.687</hdop><vdop>4.187</vdop><extensions><gom:speed>2.407</gom:speed><gom:course>209.441</gom:course><gom:rel_alt>7.3</gom:rel_alt></extensions></trkpt>
   <trkpt lat="59.3286975448" lon="34.6712558657"><ele>171.012</ele><time>2026-08-13T21:09:23.999Z</time><hdop>4.687</hdop><vdop>4.812</vdop><extensions><gom:speed>2.921</gom:speed><gom:course>204.848</gom:course><gom:rel_alt>7.271</gom:rel_alt></extensions></trkpt>
   <trkpt lat="59.3285980516" lon="34.6711805962"><ele>171.728</ele><time>2026-08-13T21:09:27.999Z</time><hdop>4.687</hdop><vdop>5.25</vdop><extensions><gom:speed>2.789</gom:speed><gom:course>202.92</gom:course><gom:rel_alt>7.189</gom:rel_alt></extensions></trkpt>
   <trkpt lat="59.3285127238" lon="34.6711140439"><ele>170.028</ele><time>2026-08-13T21:09:30.999Z</time><hdop>4.687</hdop><vdop>4.062</vdop><extensions><gom:speed>3.363</gom:speed><gom:course>199.36</gom:course><gom:rel_alt>7.118</gom:rel_alt></extensions></trkpt>
   <trkpt lat="59.3284328443" lon="34.671003319"><ele>170.403</ele><time>2026-08-13T21:09:35.998Z</time><hdop>4.687</hdop><vdop>3.812</vdop><extensions><gom:speed>1.797</gom:speed><gom:course>213.132</gom:course><gom:rel_alt>6.835</gom:rel_alt></extensions></trkpt>
   <trkpt lat="59.3283444571" lon="34.6709254511"><ele>169.9</ele><time>2026-08-13T21:09:41.998Z</time><hdop>4.687</hdop><vdop>3.0</vdop><extensions><gom:speed>1.465</gom:speed><gom:course>205.414</gom:course><gom:rel_alt>6.333</gom:rel_alt></extensions></trkpt>
   <trkpt lat="59.3282483167" lon="34.6708718069"><ele>169.835</ele><time>2026-08-13T21:09:45.998Z</time><hdop>4.687</hdop><vdop>5.375</vdop><extensions><gom:speed>1.661</gom:speed><gom:course>201.662</gom:course><gom:rel_alt>5.945</gom:rel_alt></extensions></trkpt>
   <trkpt lat="59.3281618993" lon="34.6707858924"><ele>169.11</ele><time>2026-08-13T21:09:50.998Z</time><hdop>4.687</hdop><vdop>6.187</vdop><extensions><gom:speed>1.598</gom:speed><gom:course>205.447</gom:course><gom:rel_alt>5.519</gom:rel_alt></extensions></trkpt>
   <trkpt lat="59.3280662198" lon="34.670712886"><ele>168.724</ele><time>2026-08-13T21:09:55.998Z</time><hdop>4.687</hdop><vdop>6.187</vdop><extensions><gom:speed>1.642</gom:speed><gom:course>207.166</gom:course><gom:rel_alt>5.192</gom:rel_alt></extensions></trkpt>
   <trkpt lat="59.3279728454" lon="34.6706166618"><ele>169.537</ele><time>2026-08-13T21:10:00.998Z</time><hdop>4.687</hdop><vdop>5.562</vdop><extensions><gom:speed>1.621</gom:speed><gom:course>207.43</gom:course><gom:rel_alt>4.465</gom:rel_alt></extensions></trkpt>
   <trkpt lat="59.3278844583" lon="34.6705246285"><ele>169.66</ele><time>2026-08-13T21:10:05.998Z</time><hdop>4.687</hdop><vdop>5.812</vdop><extensions><gom:speed>1.605</gom:speed><gom:course>209.056</gom:course></extensions></trkpt>
   <trkpt lat="59.3278064227" lon="34.670401163"><ele>169.864</ele><time>2026-08-13T21:10:10.998Z</time><hdop>4.687</hdop><vdop>5.125</vdop><extensions><gom:speed>1.718</gom:speed><gom:course>222.652</gom:course><gom:rel_alt>3.593</gom:rel_alt></extensions></trkpt>
   <trkpt lat="59.3277295188" lon="34.6702852413"><ele>170.175</ele><time>2026-08-13T21:10:15.998Z</time><hdop>4.687</hdop><vdop>3.562</vdop><extensions><gom:speed>1.471</gom:speed><gom:course>218.955</gom:course><gom:rel_alt>3.263</gom:rel_alt></extensions></trkpt>
   <trkpt lat="59.327634468" lon="34.6702118158"><ele>169.51</ele><time>2026-08-13T21:10:19.997Z</time><hdop>4.687</hdop><vdop>3.687</vdop><extensions><gom:speed>1.964</gom:speed><gom:course>203.892</gom:course><gom:rel_alt>3.072</gom:rel_alt></extensions></trkpt>
   <trkpt lat="59.327545075" lon="34.6701656316"><ele>169.529</ele><time>2026-08-13T21:10:24.997Z</time><hdop>4.687</hdop><vdop>4.187</vdop><extensions><gom:speed>1.223</gom:speed><gom:course>191.862</gom:course><gom:rel_alt>3.139</gom:rel_alt></extensions></trkpt>
   <trkpt lat="59.3274562687" lon="34.6700601034"><ele>170.877</ele><time>2026-08-13T21:10:31.997Z</time><hdop>4.687</hdop><vdop>3.562</vdop><extensions><gom:speed>1.675</gom:speed><gom:course>214.45</gom:course><gom:rel_alt>3.257</gom:rel_alt></extensions></trkpt>
   <trkpt lat="59.3273517464" lon="34.6700295933"><ele>169.206</ele><time>2026-08-13T21:10:36.997Z</time><hdop>4.687</hdop><vdop>4.625</vdop><extensions><gom:speed>1.725</gom:speed><gom:course>181.156</gom:course><gom:rel_alt>3.548</gom:rel_alt></extensions></trkpt>
   <trkpt lat="59.3272435779" lon="34.669987097"><ele>167.299</ele><time>2026-08-13T21:10:41.997Z</time><hdop>4.687</hdop><vdop>4.187</vdop><extensions><gom:speed>1.777</gom:speed><gom:course>184.77</gom:course><gom:rel_alt>3.44</gom:rel_alt></extensions></trkpt>
   <trkpt lat="59.3271390975" lon="34.6699781284"><ele>166.8</ele><time>2026-08-13T21:10:46.999Z</time><hdop>4.687</hdop><vdop>4.0</vdop><extensions><gom:speed>1.873</gom:speed><gom:course>179.783</gom:course><gom:rel_alt>2.948</gom:rel_alt></extensions></trkpt>
   <trkpt lat="59.3270476091" lon="34.6699569222"><ele>166.16</ele><time>2026-08-13T21:10:50.999Z</time><hdop>4.687</hdop><vdop>3.562</vdop><extensions><gom:speed>1.839</gom:speed><gom:course>171.273</gom:course><gom:rel_alt>2.269</gom:rel_alt></extensions></trkpt>
   <trkpt lat="59.3269206651" lon="34.6700435911"><ele>166.971</ele><time>2026-08-13T21:10:54.999Z</time><hdop>4.687</hdop><vdop>3.187</vdop><extensions><gom:speed>3.506</gom:speed><gom:course>163.154</gom:course><gom:rel_alt>1.717</gom:rel_alt></extensions></trkpt>
   <trkpt lat="59.326831817" lon="34.6701471076"><ele>167.488</ele><time>2026-08-13T21:10:57.999Z</time><hdop>4.687</hdop><vdop>3.5</vdop><extensions><gom:speed>3.547</gom:speed><gom:course>153.536</gom:course><gom:rel_alt>1.661</gom:rel_alt></extensions></trkpt>
   <trkpt lat="59.3267547454" lon="34.6702706568"><ele>168.108</ele><time>2026-08-13T21:11:03.999Z</time><hdop>4.687</hdop><vdop>3.625</vdop><extensions><gom:speed>1.919</gom:speed><gom:course>135.716</gom:course><gom:rel_alt>1.577</gom:rel_alt></extensions></trkpt>
   <trkpt lat="59.3267085192" lon="34.6704528794"><ele>166.818</ele><time>2026-08-13T21:11:09.999Z</time><hdop>4.687</hdop><vdop>4.187</vdop><extensions><gom:speed>1.773</gom:speed><gom:course>115.16</gom:course><gom:rel_alt>1.432</gom:rel_alt></extensions></trkpt>
   <trkpt lat="59.3266744886" lon="34.6706540451"><ele>167.242</ele><time>2026-08-13T21:11:14.999Z</time><hdop>4.687</hdop><vdop>4.875</vdop><extensions><gom:speed>1.915</gom:speed><gom:course>108.425</gom:course><gom:rel_alt>1.429</gom:rel_alt></extensions></trkpt>
   <trkpt lat="59.3266203834" lon="34.6708101999"><ele>165.789</ele><time>2026-08-13T21:11:17.999Z</time><hdop>4.687</hdop><vdop>3.187</vdop><extensions><gom:speed>2.988</gom:speed><gom:course>121.389</gom:course><gom:rel_alt>1.146</gom:rel_alt></extensions></trkpt>
   <trkpt lat="59.3265517776" lon="34.6709288877"><ele>166.51</ele><time>2026-08-13T21:11:21.999Z</time><hdop>4.687</hdop><vdop>3.937</vdop><extensions><gom:speed>1.865</gom:speed><gom:course>144.703</gom:course><gom:rel_alt>0.705</gom:rel_alt></extensions></trkpt>
   <trkpt lat="59.3264775977" lon="34.6710748166"><ele>168.229</ele><time>2026-08-13T21:11:34.999Z</time><hdop>4.687</hdop><vdop>4.062</vdop><extensions><gom:speed>1.833</gom:speed><gom:course>142.478</gom:course><gom:rel_alt>0.047</gom:rel_alt></extensions></trkpt>
   <trkpt lat="59.3264118417" lon="34.6712090109"><ele>168.241</ele><time>2026-08-13T21:11:39.999Z</time><hdop>4.687</hdop><vdop>4.75</vdop><extensions><gom:speed>1.841</gom:speed><gom:course>130.415</gom:course><gom:rel_alt>-0.039</gom:rel_alt></extensions></trkpt>
   <trkpt lat="59.3263646935" lon="34.6713613939"><ele>168.599</ele><time>2026-08-13T21:11:44.998Z</time><hdop>4.687</hdop><vdop>5.375</vdop><extensions><gom:speed>2.051</gom:speed><gom:course>131.332</gom:course><gom:rel_alt>-0.108</gom:rel_alt></extensions></trkpt>
   <trkpt lat="59.3262916033" lon="34.6714796625"><ele>169.837</ele><time>2026-08-13T21:11:49.998Z</time><hdop>4.687</hdop><vdop>5.312</vdop><extensions><gom:speed>1.878</gom:speed><gom:course>153.75</gom:course><gom:rel_alt>0.211</gom:rel_alt></extensions></trkpt>
   <trkpt lat="59.3262139869" lon="34.6716228254"><ele>170.384</ele><time>2026-08-13T21:11:54.998Z</time><hdop>4.687</hdop><vdop>5.187</vdop><extensions><gom:speed>2.329</gom:speed><gom:course>141.236</gom:course><gom:rel_alt>0.266</gom:rel_alt></extensions></trkpt>
   <trkpt lat="59.3261398908" lon="34.6717374899"><ele>169.5</ele><time>2026-08-13T21:11:59.998Z</time><hdop>4.687</hdop><vdop>5.75</vdop><extensions><gom:speed>1.449</gom:speed><gom:course>140.566</gom:course><gom:rel_alt>0.771</gom:rel_alt></extensions></trkpt>
   <trkpt lat="59.3260563233" lon="34.6718704268"><ele>169.855</ele><time>2026-08-13T21:12:04.998Z</time><hdop>4.687</hdop><vdop>5.312</vdop><extensions><gom:speed>2.124</gom:speed><gom:course>148.57</gom:course><gom:rel_alt>1.009</gom:rel_alt></extensions></trkpt>
   <trkpt lat="59.3259887651" lon="34.6720176969"><ele>169.845</ele><time>2026-08-13T21:12:09.998Z</time><hdop>4.687</hdop><vdop>5.312</vdop><extensions><gom:speed>2.274</gom:speed><gom:course>122.01</gom:course><gom:rel_alt>1.413</gom:rel_alt></extensions></trkpt>
   <trkpt lat="59.325900839" lon="34.6721176092"><ele>170.23</ele><time>2026-08-13T21:12:14.998Z</time><hdop>4.687</hdop><vdop>5.625</vdop><extensions><gom:speed>2.077</gom:speed><gom:course>161.386</gom:course><gom:rel_alt>1.482</gom:rel_alt></extensions></trkpt>
   <trkpt lat="59.3257959814" lon="34.6721749414"><ele>171.464</ele><time>2026-08-13T21:12:19.998Z</time><hdop>4.687</hdop><vdop>6.062</vdop><extensions><gom:speed>1.708</gom:speed><gom:course>165.429</gom:course><gom:rel_alt>1.516</gom:rel_alt></extensions></trkpt>
   <trkpt lat="59.3256877291" lon="34.6722311001"><ele>171.317</ele><time>2026-08-13T21:12:24.998Z</time><hdop>4.687</hdop><vdop>5.562</vdop><extensions><gom:speed>2.208</gom:speed><gom:course>164.303</gom:course><gom:rel_alt>1.733</gom:rel_alt></extensions></trkpt>
   <trkpt lat="59.3255949833" lon="34.6722815592"><ele>172.111</ele><time>2026-08-13T21:12:28.997Z</time><hdop>4.687</hdop><vdop>6.0</vdop><extensions><gom:speed>1.665</gom:speed><gom:course>172.328</gom:course><gom:rel_alt>1.661</gom:rel_alt></extensions></trkpt>
   <trkpt lat="59.3255070152" lon="34.6723206189"><ele>173.205</ele><time>2026-08-13T21:12:32.997Z</time><hdop>4.687</hdop><vdop>6.125</vdop><extensions><gom:speed>1.66</gom:speed><gom:course>170.307</gom:course><gom:rel_alt>1.683</gom:rel_alt></extensions></trkpt>
   <trkpt lat="59.325416365" lon="34.6723921165"><ele>173.796</ele><time>2026-08-13T21:12:36.997Z</time><hdop>4.687</hdop><vdop>5.75</vdop><extensions><gom:speed>1.709</gom:speed><gom:course>153.409</gom:course><gom:rel_alt>1.786</gom:rel_alt></extensions></trkpt>
   <trkpt lat="59.32532232" lon="34.6724079583"><ele>174.029</ele><time>2026-08-13T21:12:40.997Z</time><hdop>4.687</hdop><vdop>6.0</vdop><extensions><gom:speed>1.759</gom:speed><gom:course>184.161</gom:course><gom:rel_alt>2.248</gom:rel_alt></extensions></trkpt>
   <trkpt lat="59.3252161632" lon="34.6724507898"><ele>173.855</ele><time>2026-08-13T21:12:45.997Z</time><hdop>4.687</hdop><vdop>6.062</vdop><extensions><gom:speed>1.599</gom:speed><gom:course>175.58</gom:course><gom:rel_alt>2.832</gom:rel_alt></extensions></trkpt>
   <trkpt lat="59.3251252615" lon="34.6725082897"><ele>172.432</ele><time>2026-08-13T21:12:50.997Z</time><hdop>4.687</hdop><vdop>5.75</vdop><extensions><gom:speed>1.571</gom:speed><gom:course>167.313</gom:course><gom:rel_alt>2.586</gom:rel_alt></extensions></trkpt>
   <trkpt lat="59.3250440408" lon="34.6726408076"><ele>172.559</ele><time>2026-08-13T21:12:55.999Z</time><hdop>4.687</hdop><vdop>5.875</vdop><extensions><gom:speed>1.586</gom:speed><gom:course>128.816</gom:course><gom:rel_alt>1.667</gom:rel_alt></extensions></trkpt>
   <trkpt lat="59.3250296659" lon="34.6728330046"><ele>174.78</ele><time>2026-08-13T21:13:00.999Z</time><hdop>4.687</hdop><vdop>5.687</vdop><extensions><gom:speed>1.626</gom:speed><gom:course>86.666</gom:course><gom:rel_alt>1.558</gom:rel_alt></extensions></trkpt>
   <trkpt lat="59.3250116029" lon="34.6730325777"><ele>174.473</ele><time>2026-08-13T21:13:05.999Z</time><hdop>4.687</hdop><vdop>5.875</vdop><extensions><gom:speed>1.687</gom:speed><gom:course>92.577</gom:course><gom:rel_alt>2.333</gom:rel_alt></extensions></trkpt>
   <trkpt lat="59.3250099684" lon="34.6732203324"><ele>175.152</ele><time>2026-08-13T21:13:09.999Z</time><hdop>4.687</hdop><vdop>5.687</vdop><extensions><gom:speed>1.796</gom:speed><gom:course>88.161</gom:course><gom:rel_alt>2.563</gom:rel_alt></extensions></trkpt>
   <trkpt lat="59.3250274866" lon="34.6734434586"><ele>174.954</ele><time>2026-08-13T21:13:13.999Z</time><hdop>4.687</hdop><vdop>5.062</vdop><extensions><gom:speed>2.434</gom:speed><gom:course>74.57</gom:course><gom:rel_alt>3.231</gom:rel_alt></extensions></trkpt>
   <trkpt lat="59.3250471002" lon="34.6736360748"><ele>174.738</ele><time>2026-08-13T21:13:17.999Z</time><hdop>4.687</hdop><vdop>5.062</vdop><extensions><gom:speed>2.888</gom:speed><gom:course>72.626</gom:course><gom:rel_alt>3.22</gom:rel_alt></extensions></trkpt>
   <trkpt lat="59.3250784904" lon="34.6738176268"><ele>174.016</ele><time>2026-08-13T21:13:21.999Z</time><hdop>4.687</hdop><vdop>4.75</vdop><extensions><gom:speed>2.375</gom:speed><gom:course>69.132</gom:course><gom:rel_alt>3.152</gom:rel_alt></extensions></trkpt>
   <trkpt lat="59.3251237527" lon="34.6739756256"><ele>174.125</ele><time>2026-08-13T21:13:25.999Z</time><hdop>4.687</hdop><vdop>5.062</vdop><extensions><gom:speed>2.188</gom:speed><gom:course>63.183</gom:course><gom:rel_alt>3.128</gom:rel_alt></extensions></trkpt>
   <trkpt lat="59.325121783" lon="34.6741825748"><ele>175.058</ele><time>2026-08-13T21:13:29.999Z</time><hdop>4.687</hdop><vdop>4.812</vdop><extensions><gom:speed>2.72</gom:speed><gom:course>95.329</gom:course><gom:rel_alt>3.146</gom:rel_alt></extensions></trkpt>
   <trkpt lat="59.3250903928" lon="34.6743754424"><ele>174.17</ele><time>2026-08-13T21:13:33.999Z</time><hdop>4.687</hdop><vdop>4.875</vdop><extensions><gom:speed>2.264</gom:speed><gom:course>104.014</gom:course><gom:rel_alt>3.215</gom:rel_alt></extensions></trkpt>
   <trkpt lat="59.325063864" lon="34.6745815534"><ele>176.04</ele><time>2026-08-13T21:13:38.999Z</time><hdop>4.687</hdop><vdop>5.187</vdop><extensions><gom:speed>1.843</gom:speed><gom:course>103.317</gom:course><gom:rel_alt>2.914</gom:rel_alt></extensions></trkpt>
   <trkpt lat="59.325018937" lon="34.6747747563"><ele>175.159</ele><time>2026-08-13T21:13:42.999Z</time><hdop>4.687</hdop><vdop>5.5</vdop><extensions><gom:speed>2.063</gom:speed><gom:course>122.087</gom:course><gom:rel_alt>3.662</gom:rel_alt></extensions></trkpt>
   <trkpt lat="59.3249632393" lon="34.6749492675"><ele>174.604</ele><time>2026-08-13T21:13:45.999Z</time><hdop>4.687</hdop><vdop>4.937</vdop><extensions><gom:speed>3.047</gom:speed><gom:course>121.543</gom:course><gom:rel_alt>4.211</gom:rel_alt></extensions></trkpt>
   <trkpt lat="59.324906871" lon="34.6750973757"><ele>174.461</ele><time>2026-08-13T21:13:48.998Z</time><hdop>4.687</hdop><vdop>5.0</vdop><extensions><gom:speed>3.2</gom:speed><gom:course>131.75</gom:course><gom:rel_alt>4.811</gom:rel_alt></extensions></trkpt>
   <trkpt lat="59.3248198249" lon="34.6752072625"><ele>173.933</ele><time>2026-08-13T21:13:52.998Z</time><hdop>4.687</hdop><vdop>5.062</vdop><extensions><gom:speed>2.67</gom:speed><gom:course>155.689</gom:course><gom:rel_alt>4.753</gom:rel_alt></extensions></trkpt>
   <trkpt lat="59.3247471538" lon="34.6753256988"><ele>173.996</ele><time>2026-08-13T21:13:57.998Z</time><hdop>4.687</hdop><vdop>6.062</vdop><extensions><gom:speed>1.897</gom:speed><gom:course>138.429</gom:course><gom:rel_alt>4.243</gom:rel_alt></extensions></trkpt>
   <trkpt lat="59.3246865527" lon="34.6754752319"><ele>173.455</ele><time>2026-08-13T21:14:03.998Z</time><hdop>4.687</hdop><vdop>6.062</vdop><extensions><gom:speed>1.331</gom:speed><gom:course>125.751</gom:course><gom:rel_alt>4.092</gom:rel_alt></extensions></trkpt>
   <trkpt lat="59.3245937231" lon="34.6755468972"><ele>174.303</ele><time>2026-08-13T21:14:12.998Z</time><hdop>4.687</hdop><vdop>5.125</vdop><extensions><gom:speed>1.419</gom:speed><gom:course>186.182</gom:course><gom:rel_alt>3.733</gom:rel_alt></extensions></trkpt>
   <trkpt lat="59.3245201719" lon="34.6754193247"><ele>171.711</ele><time>2026-08-13T21:15:53.998Z</time><hdop>4.687</hdop><vdop>3.5</vdop><extensions><gom:speed>1.679</gom:speed><gom:course>217.329</gom:course><gom:rel_alt>3.746</gom:rel_alt></extensions></trkpt>
   <trkpt lat="59.3244313656" lon="34.6753268723"><ele>170.768</ele><time>2026-08-13T21:15:58.998Z</time><hdop>4.687</hdop><vdop>3.812</vdop><extensions><gom:speed>2.064</gom:speed><gom:course>204.986</gom:course></extensions></trkpt>
   <trkpt lat="59.3243544197" lon="34.6752305642"><ele>170.404</ele><time>2026-08-13T21:16:03.998Z</time><hdop>4.687</hdop><vdop>3.0</vdop><extensions><gom:speed>1.792</gom:speed><gom:course>212.929</gom:course><gom:rel_alt>3.437</gom:rel_alt></extensions></trkpt>
   <trkpt lat="59.3242585308" lon="34.675169963"><ele>170.399</ele><time>2026-08-13T21:16:07.998Z</time><hdop>4.687</hdop><vdop>3.0</vdop><extensions><gom:speed>2.585</gom:speed><gom:course>205.134</gom:course><gom:rel_alt>3.368</gom:rel_alt></extensions></trkpt>
   <trkpt lat="59.3241638153" lon="34.6750973757"><ele>170.563</ele><time>2026-08-13T21:16:11.998Z</time><hdop>4.687</hdop><vdop>3.0</vdop><extensions><gom:speed>2.275</gom:speed><gom:course>204.205</gom:course><gom:rel_alt>3.524</gom:rel_alt></extensions></trkpt>
   <trkpt lat="59.3240672138" lon="34.6750252076"><ele>169.644</ele><time>2026-08-13T21:16:15.998Z</time><hdop>4.687</hdop><vdop>4.25</vdop><extensions><gom:speed>3.184</gom:speed><gom:course>204.26</gom:course></extensions></trkpt>
   <trkpt lat="59.323970319" lon="34.6749396283"><ele>169.978</ele><time>2026-08-13T21:16:19.998Z</time><hdop>4.687</hdop><vdop>3.687</vdop><extensions><gom:speed>2.72</gom:speed><gom:course>208.847</gom:course><gom:rel_alt>3.54</gom:rel_alt></extensions></trkpt>
   <trkpt lat="59.3238861647" lon="34.6747838088"><ele>170.417</ele><time>2026-08-13T21:16:24.998Z</time><hdop>4.687</hdop><vdop>4.125</vdop><extensions><gom:speed>2.5</gom:speed><gom:course>212.429</gom:course><gom:rel_alt>3.63</gom:rel_alt></extensions></trkpt>
   <trkpt lat="59.3238123202" lon="34.67465632"><ele>170.23</ele><time>2026-08-13T21:16:28.998Z</time><hdop>4.687</hdop><vdop>4.937</vdop><extensions><gom:speed>2.433</gom:speed><gom:course>218.938</gom:course><gom:rel_alt>3.493</gom:rel_alt></extensions></trkpt>
   <trkpt lat="59.3237203288" lon="34.6745699026"><ele>172.29</ele><time>2026-08-13T21:16:33.998Z</time><hdop>4.687</hdop><vdop>5.187</vdop><extensions><gom:speed>1.987</gom:speed><gom:course>209.984</gom:course><gom:rel_alt>3.292</gom:rel_alt></extensions></trkpt>
   <trkpt lat="59.3236189916" lon="34.6745316811"><ele>171.667</ele><time>2026-08-13T21:16:38.997Z</time><hdop>4.687</hdop><vdop>4.937</vdop><extensions><gom:speed>2.475</gom:speed><gom:course>193.093</gom:course><gom:rel_alt>3.181</gom:rel_alt></extensions></trkpt>
   <trkpt lat="59.3235119127" lon="34.6744772826"><ele>171.599</ele><time>2026-08-13T21:16:42.997Z</time><hdop>4.687</hdop><vdop>4.937</vdop><extensions><gom:speed>2.898</gom:speed><gom:course>194.081</gom:course><gom:rel_alt>2.845</gom:rel_alt></extensions></trkpt>
   <trkpt lat="59.3233996791" lon="34.6744564954"><ele>171.228</ele><time>2026-08-13T21:16:46.997Z</time><hdop>4.687</hdop><vdop>4.937</vdop><extensions><gom:speed>3.01</gom:speed><gom:course>184.49</gom:course><gom:rel_alt>2.486</gom:rel_alt></extensions></trkpt>
   <trkpt lat="59.3233089031" lon="34.6744341996"><ele>169.894</ele><time>2026-08-13T21:16:50.997Z</time><hdop>4.687</hdop><vdop>5.187</vdop><extensions><gom:speed>2.883</gom:speed><gom:course>188.379</gom:course><gom:rel_alt>2.351</gom:rel_alt></extensions></trkpt>
   <trkpt lat="59.3232149419" lon="34.674394637"><ele>169.763</ele><time>2026-08-13T21:16:54.997Z</time><hdop>4.687</hdop><vdop>5.687</vdop><extensions><gom:speed>1.629</gom:speed><gom:course>190.714</gom:course><gom:rel_alt>1.957</gom:rel_alt></extensions></trkpt>
   <trkpt lat="59.3231055162" lon="34.6743385621"><ele>168.903</ele><time>2026-08-13T21:16:59.997Z</time><hdop>4.687</hdop><vdop>5.75</vdop><extensions><gom:speed>1.665</gom:speed><gom:course>191.357</gom:course><gom:rel_alt>1.408</gom:rel_alt></extensions></trkpt>
   <trkpt lat="59.323005101" lon="34.6742999215"><ele>168.434</ele><time>2026-08-13T21:17:03.997Z</time><hdop>4.687</hdop><vdop>5.687</vdop><extensions><gom:speed>1.868</gom:speed><gom:course>189.231</gom:course><gom:rel_alt>0.911</gom:rel_alt></extensions></trkpt>
   <trkpt lat="59.322892071" lon="34.6742673159"><ele>167.481</ele><time>2026-08-13T21:17:07.999Z</time><hdop>4.687</hdop><vdop>5.687</vdop><extensions><gom:speed>1.706</gom:speed><gom:course>189.495</gom:course><gom:rel_alt>0.544</gom:rel_alt></extensions></trkpt>
   <trkpt lat="59.3227901052" lon="34.6742148452"><ele>167.028</ele><time>2026-08-13T21:17:11.999Z</time><hdop>4.687</hdop><vdop>5.75</vdop><extensions><gom:speed>1.793</gom:speed><gom:course>195.444</gom:course><gom:rel_alt>-0.013</gom:rel_alt></extensions></trkpt>
   <trkpt lat="59.3226994549" lon="34.6741687447"><ele>165.814</ele><time>2026-08-13T21:17:16.999Z</time><hdop>4.687</hdop><vdop>5.75</vdop><extensions><gom:speed>1.309</gom:speed><gom:course>197.24</gom:course><gom:rel_alt>-0.523</gom:rel_alt></extensions></trkpt>
   <trkpt lat="59.3226139175" lon="34.6741103228"><ele>164.493</ele><time>2026-08-13T21:20:10.998Z</time><hdop>4.687</hdop><vdop>4.75</vdop><extensions><gom:speed>2.314</gom:speed><gom:course>199.564</gom:course></extensions></trkpt>
   <trkpt lat="59.3225145501" lon="34.6740534097"><ele>164.059</ele><time>2026-08-13T21:20:14.998Z</time><hdop>4.687</hdop><vdop>4.625</vdop><extensions><gom:speed>2.958</gom:speed><gom:course>194.631</gom:course><gom:rel_alt>-0.747</gom:rel_alt></extensions></trkpt>
   <trkpt lat="59.3224257019" lon="34.674015775"><ele>164.48</ele><time>2026-08-13T21:20:17.998Z</time><hdop>4.687</hdop><vdop>4.562</vdop><extensions><gom:speed>3.374</gom:speed><gom:course>191.373</gom:course><gom:rel_alt>-0.787</gom:rel_alt></extensions></trkpt>
   <trkpt lat="59.3223166114" lon="34.6739483845"><ele>164.568</ele><time>2026-08-13T21:20:21.998Z</time><hdop>4.687</hdop><vdop>4.625</vdop><extensions><gom:speed>3.003</gom:speed><gom:course>198.185</gom:course><gom:rel_alt>-0.264</gom:rel_alt></extensions></trkpt>
   <trkpt lat="59.3222155257" lon="34.6738716062"><ele>164.82</ele><time>2026-08-13T21:20:25.998Z</time><hdop>4.687</hdop><vdop>4.625</vdop><extensions><gom:speed>2.871</gom:speed><gom:course>204.178</gom:course><gom:rel_alt>0.002</gom:rel_alt></extensions></trkpt>
   <trkpt lat="59.3221211455" lon="34.6738023717"><ele>164.856</ele><time>2026-08-13T21:20:29.998Z</time><hdop>4.687</hdop><vdop>4.625</vdop><extensions><gom:speed>2.831</gom:speed><gom:course>201.371</gom:course><gom:rel_alt>0.224</gom:rel_alt></extensions></trkpt>
   <trkpt lat="59.3220277292" lon="34.6736984361"><ele>164.385</ele><time>2026-08-13T21:20:33.998Z</time><hdop>4.687</hdop><vdop>4.687</vdop><extensions><gom:speed>3.141</gom:speed><gom:course>209.215</gom:course><gom:rel_alt>0.235</gom:rel_alt></extensions></trkpt>
   <trkpt lat="59.3219369112" lon="34.6735844422"><ele>164.888</ele><time>2026-08-13T21:20:37.998Z</time><hdop>4.687</hdop><vdop>4.625</vdop><extensions><gom:speed>2.966</gom:speed><gom:course>213.571</gom:course><gom:rel_alt>0.06</gom:rel_alt></extensions></trkpt>
   <trkpt lat="59.3218489012" lon="34.6734551933"><ele>165.088</ele><time>2026-08-13T21:20:41.998Z</time><hdop>4.687</hdop><vdop>4.75</vdop><extensions><gom:speed>3.326</gom:speed><gom:course>215.121</gom:course><gom:rel_alt>0.639</gom:rel_alt></extensions></trkpt>
   <trkpt lat="59.3217717039" lon="34.6732943446"><ele>165.004</ele><time>2026-08-13T21:20:45.998Z</time><hdop>4.687</hdop><vdop>4.687</vdop><extensions><gom:speed>2.922</gom:speed><gom:course>226.53</gom:course><gom:rel_alt>0.821</gom:rel_alt></extensions></trkpt>
   <trkpt lat="59.3217034333" lon="34.6731587254"><ele>164.916</ele><time>2026-08-13T21:20:49.997Z</time><hdop>4.687</hdop><vdop>4.75</vdop><extensions><gom:speed>2.967</gom:speed><gom:course>224.036</gom:course><gom:rel_alt>0.7</gom:rel_alt></extensions></trkpt>
   <trkpt lat="59.3216298402" lon="34.6729981281"><ele>165.121</ele><time>2026-08-13T21:20:54.997Z</time><hdop>4.687</hdop><vdop>4.812</vdop><extensions><gom:speed>2.526</gom:speed><gom:course>229.145</gom:course><gom:rel_alt>0.613</gom:rel_alt></extensions></trkpt>
   <trkpt lat="59.3215637489" lon="34.6728561387"><ele>164.85</ele><time>2026-08-13T21:20:58.997Z</time><hdop>4.687</hdop><vdop>4.875</vdop><extensions><gom:speed>2.448</gom:speed><gom:course>230.793</gom:course><gom:rel_alt>0.483</gom:rel_alt></extensions></trkpt>
   <trkpt lat="59.3215080931" lon="34.6727066055"><ele>164.641</ele><time>2026-08-13T21:21:02.997Z</time><hdop>4.687</hdop><vdop>4.812</vdop><extensions><gom:speed>2.867</gom:speed><gom:course>233.094</gom:course><gom:rel_alt>0.298</gom:rel_alt></extensions></trkpt>
   <trkpt lat="59.3214369307" lon="34.6725610118"><ele>164.979</ele><time>2026-08-13T21:21:06.997Z</time><hdop>4.687</hdop><vdop>4.875</vdop><extensions><gom:speed>2.727</gom:speed><gom:course>231.425</gom:course><gom:rel_alt>0.169</gom:rel_alt></extensions></trkpt>
   <trkpt lat="59.3213645111" lon="34.6724226266"><ele>165.333</ele><time>2026-08-13T21:21:11.997Z</time><hdop>4.687</hdop><vdop>5.687</vdop><extensions><gom:speed>1.708</gom:speed><gom:course>226.211</gom:course><gom:rel_alt>0.314</gom:rel_alt></extensions></trkpt>
   <trkpt lat="59.3213009343" lon="34.6722936291"><ele>164.962</ele><time>2026-08-13T21:21:15.997Z</time><hdop>4.687</hdop><vdop>5.812</vdop><extensions><gom:speed>1.768</gom:speed><gom:course>228.085</gom:course><gom:rel_alt>0.322</gom:rel_alt></extensions></trkpt>
   <trkpt lat="59.321232999" lon="34.6721581776"><ele>164.834</ele><time>2026-08-13T21:21:19.999Z</time><hdop>4.687</hdop><vdop>5.937</vdop><extensions><gom:speed>1.815</gom:speed><gom:course>226.508</gom:course><gom:rel_alt>-0.039</gom:rel_alt></extensions></trkpt>
   <trkpt lat="59.3211676202" lon="34.6720291801"><ele>163.089</ele><time>2026-08-13T21:21:23.999Z</time><hdop>4.687</hdop><vdop>5.812</vdop><extensions><gom:speed>1.815</gom:speed><gom:course>228.266</gom:course><gom:rel_alt>0.163</gom:rel_alt></extensions></trkpt>
   <trkpt lat="59.3210870282" lon="34.6718886994"><ele>163.77</ele><time>2026-08-13T21:21:27.999Z</time><hdop>4.687</hdop><vdop>4.937</vdop><extensions><gom:speed>2.15</gom:speed><gom:course>223.091</gom:course><gom:rel_alt>0.232</gom:rel_alt></extensions></trkpt>
   <trkpt lat="59.3210058913" lon="34.6717504818"><ele>164.925</ele><time>2026-08-13T21:21:32.999Z</time><hdop>4.687</hdop><vdop>4.937</vdop><extensions><gom:speed>2.377</gom:speed><gom:course>222.652</gom:course><gom:rel_alt>0.401</gom:rel_alt></extensions></trkpt>
   <trkpt lat="59.3209322144" lon="34.6716238313"><ele>165.678</ele><time>2026-08-13T21:21:37.999Z</time><hdop>4.687</hdop><vdop>5.437</vdop><extensions><gom:speed>1.515</gom:speed><gom:course>218.268</gom:course><gom:rel_alt>0.546</gom:rel_alt></extensions></trkpt>
   <trkpt lat="59.3208591661" lon="34.6714902237"><ele>166.349</ele><time>2026-08-13T21:21:42.999Z</time><hdop>4.687</hdop><vdop>5.812</vdop><extensions><gom:speed>1.571</gom:speed><gom:course>223.932</gom:course><gom:rel_alt>0.737</gom:rel_alt></extensions></trkpt>
   <trkpt lat="59.3207776102" lon="34.6713396847"><ele>168.01</ele><time>2026-08-13T21:21:47.999Z</time><hdop>4.687</hdop><vdop>5.562</vdop><extensions><gom:speed>1.681</gom:speed><gom:course>227.733</gom:course><gom:rel_alt>1.107</gom:rel_alt></extensions></trkpt>
   <trkpt lat="59.3207250557" lon="34.6711881399"><ele>168.122</ele><time>2026-08-13T21:21:51.999Z</time><hdop>4.687</hdop><vdop>5.625</vdop><extensions><gom:speed>1.567</gom:speed><gom:course>236.231</gom:course><gom:rel_alt>1.72</gom:rel_alt></extensions></trkpt>
   <trkpt lat="59.320682769" lon="34.6710200828"><ele>166.519</ele><time>2026-08-13T21:21:55.999Z</time><hdop>4.687</hdop><vdop>5.562</vdop><extensions><gom:speed>1.597</gom:speed><gom:course>242.872</gom:course><gom:rel_alt>1.981</gom:rel_alt></extensions></trkpt>
   <trkpt lat="59.3206424101" lon="34.6708464936"><ele>165.881</ele><time>2026-08-13T21:21:59.999Z</time><hdop>4.687</hdop><vdop>5.687</vdop><extensions><gom:speed>1.712</gom:speed><gom:course>247.926</gom:course><gom:rel_alt>1.897</gom:rel_alt></extensions></trkpt>
   <trkpt lat="59.3205931664" lon="34.6706564758"><ele>166.453</ele><time>2026-08-13T21:22:03.999Z</time><hdop>4.687</hdop><vdop>5.687</vdop><extensions><gom:speed>1.766</gom:speed><gom:course>243.658</gom:course><gom:rel_alt>1.551</gom:rel_alt></extensions></trkpt>
   <trkpt lat="59.3205384745" lon="34.6704628538"><ele>166.82</ele><time>2026-08-13T21:22:06.999Z</time><hdop>4.687</hdop><vdop>4.937</vdop><extensions><gom:speed>3.969</gom:speed><gom:course>241.647</gom:course><gom:rel_alt>1.17</gom:rel_alt></extensions></trkpt>
   <trkpt lat="59.3204930027" lon="34.670273339"><ele>166.12</ele><time>2026-08-13T21:22:10.999Z</time><hdop>4.687</hdop><vdop>5.0</vdop><extensions><gom:speed>2.846</gom:speed><gom:course>243.729</gom:course><gom:rel_alt>0.813</gom:rel_alt></extensions></trkpt>
   <trkpt lat="59.3204465669" lon="34.6700855006"><ele>165.429</ele><time>2026-08-13T21:22:14.999Z</time><hdop>4.687</hdop><vdop>5.062</vdop><extensions><gom:speed>2.657</gom:speed><gom:course>243.405</gom:course><gom:rel_alt>0.472</gom:rel_alt></extensions></trkpt>
   <trkpt lat="59.3203925037" lon="34.6699170243"><ele>166.121</ele><time>2026-08-13T21:22:18.998Z</time><hdop>4.687</hdop><vdop>5.062</vdop><extensions><gom:speed>2.714</gom:speed><gom:course>241.922</gom:course><gom:rel_alt>0.121</gom:rel_alt></extensions></trkpt>
   <trkpt lat="59.3203403682" lon="34.6697407529"><ele>166.871</ele><time>2026-08-13T21:22:23.998Z</time><hdop>4.687</hdop><vdop>5.937</vdop><extensions><gom:speed>1.728</gom:speed><gom:course>241.241</gom:course><gom:rel_alt>0.338</gom:rel_alt></extensions></trkpt>
   <trkpt lat="59.3202991712" lon="34.6695578598"><ele>166.769</ele><time>2026-08-13T21:22:27.998Z</time><hdop>4.687</hdop><vdop>5.937</vdop><extensions><gom:speed>1.928</gom:speed><gom:course>243.576</gom:course><gom:rel_alt>0.467</gom:rel_alt></extensions></trkpt>
   <trkpt lat="59.3202544537" lon="34.6693322189"><ele>165.635</ele><time>2026-08-13T21:22:31.998Z</time><hdop>4.687</hdop><vdop>5.312</vdop><extensions><gom:speed>3.488</gom:speed><gom:course>247.108</gom:course><gom:rel_alt>0.747</gom:rel_alt></extensions></trkpt>
   <trkpt lat="59.3202043299" lon="34.6691275329"><ele>165.833</ele><time>2026-08-13T21:22:35.998Z</time><hdop>4.687</hdop><vdop>5.0</vdop><extensions><gom:speed>2.832</gom:speed><gom:course>245.438</gom:course><gom:rel_alt>0.795</gom:rel_alt></extensions></trkpt>
   <trkpt lat="59.3201622528" lon="34.6689645887"><ele>166.056</ele><time>2026-08-13T21:22:39.998Z</time><hdop>4.687</hdop><vdop>5.375</vdop><extensions><gom:speed>2.6</gom:speed><gom:course>243.993</gom:course><gom:rel_alt>0.684</gom:rel_alt></extensions></trkpt>
   <trkpt lat="59.3201120452" lon="34.6687769178"><ele>165.672</ele><time>2026-08-13T21:22:43.998Z</time><hdop>4.687</hdop><vdop>5.125</vdop><extensions><gom:speed>2.613</gom:speed><gom:course>242.488</gom:course><gom:rel_alt>0.541</gom:rel_alt></extensions></trkpt>
   <trkpt lat="59.3200640169" lon="34.6686003111"><ele>166.506</ele><time>2026-08-13T21:22:47.998Z</time><hdop>4.687</hdop><vdop>5.0</vdop><extensions><gom:speed>2.756</gom:speed><gom:course>241.587</gom:course><gom:rel_alt>0.462</gom:rel_alt></extensions></trkpt>
   <trkpt lat="59.3200238256" lon="34.668417418"><ele>166.069</ele><time>2026-08-13T21:22:51.998Z</time><hdop>4.687</hdop><vdop>5.375</vdop><extensions><gom:speed>2.515</gom:speed><gom:course>241.203</gom:course><gom:rel_alt>0.578</gom:rel_alt></extensions></trkpt>
   <trkpt lat="59.3199840954" lon="34.668228909"><ele>165.998</ele><time>2026-08-13T21:22:56.998Z</time><hdop>4.687</hdop><vdop>5.687</vdop><extensions><gom:speed>1.745</gom:speed><gom:course>255.853</gom:course><gom:rel_alt>0.502</gom:rel_alt></extensions></trkpt>
   <trkpt lat="59.3199190519" lon="34.6680274081"><ele>167.775</ele><time>2026-08-13T21:23:00.997Z</time><hdop>4.687</hdop><vdop>5.0</vdop><extensions><gom:speed>3.225</gom:speed><gom:course>238.604</gom:course><gom:rel_alt>0.628</gom:rel_alt></extensions></trkpt>
   <trkpt lat="59.3198672936" lon="34.6678252366"><ele>166.621</ele><time>2026-08-13T21:23:04.997Z</time><hdop>4.687</hdop><vdop>4.812</vdop><extensions><gom:speed>3.1</gom:speed><gom:course>237.357</gom:course><gom:rel_alt>0.686</gom:rel_alt></extensions></trkpt>
   <trkpt lat="59.3198269347" lon="34.6676674053"><ele>165.773</ele><time>2026-08-13T21:23:07.997Z</time><hdop>4.687</hdop><vdop>4.937</vdop><extensions><gom:speed>3.196</gom:speed><gom:course>241.043</gom:course><gom:rel_alt>0.383</gom:rel_alt></extensions></trkpt>
   <trkpt lat="59.3197918984" lon="34.6675048802"><ele>165.876</ele><time>2026-08-13T21:23:10.997Z</time><hdop>4.687</hdop><vdop>5.125</vdop><extensions><gom:speed>3.274</gom:speed><gom:course>247.849</gom:course><gom:rel_alt>0.055</gom:rel_alt></extensions></trkpt>
   <trkpt lat="59.3197470971" lon="34.6672938239"><ele>165.643</ele><time>2026-08-13T21:23:14.997Z</time><hdop>4.687</hdop><vdop>5.062</vdop><extensions><gom:speed>3.135</gom:speed><gom:course>246.223</gom:course><gom:rel_alt>-0.208</gom:rel_alt></extensions></trkpt>
   <trkpt lat="59.3197016253" lon="34.6671169657"><ele>165.555</ele><time>2026-08-13T21:23:18.997Z</time><hdop>4.687</hdop><vdop>5.0</vdop><extensions><gom:speed>2.589</gom:speed><gom:course>243.438</gom:course><gom:rel_alt>-0.38</gom:rel_alt></extensions></trkpt>
   <trkpt lat="59.3196593805" lon="34.6668988686"><ele>165.508</ele><time>2026-08-13T21:23:23.000Z</time><hdop>4.687</hdop><vdop>4.937</vdop><extensions><gom:speed>3.47</gom:speed><gom:course>259.1</gom:course><gom:rel_alt>-0.428</gom:rel_alt></extensions></trkpt>
   <trkpt lat="59.3196063231" lon="34.6667546161"><ele>165.739</ele><time>2026-08-13T21:23:27.000Z</time><hdop>4.687</hdop><vdop>5.875</vdop><extensions><gom:speed>1.988</gom:speed><gom:course>244.444</gom:course><gom:rel_alt>-0.174</gom:rel_alt></extensions></trkpt>
   <trkpt lat="59.3195528465" lon="34.6665488403"><ele>165.907</ele><time>2026-08-13T21:23:31.000Z</time><hdop>4.687</hdop><vdop>5.812</vdop><extensions><gom:speed>2.036</gom:speed><gom:course>245.24</gom:course><gom:rel_alt>0.264</gom:rel_alt></extensions></trkpt>
   <trkpt lat="59.3195074585" lon="34.6663341798"><ele>167.25</ele><time>2026-08-13T21:23:35.000Z</time><hdop>4.687</hdop><vdop>5.687</vdop><extensions><gom:speed>2.004</gom:speed><gom:course>250.118</gom:course><gom:rel_alt>0.702</gom:rel_alt></extensions></trkpt>
   <trkpt lat="59.3194657585" lon="34.6661507838"><ele>168.387</ele><time>2026-08-13T21:23:37.999Z</time><hdop>4.687</hdop><vdop>4.5</vdop><extensions><gom:speed>1.072</gom:speed><gom:course>249.865</gom:course><gom:rel_alt>1.186</gom:rel_alt></extensions></trkpt>
   <trkpt lat="59.3194316861" lon="34.6659449242"><ele>167.913</ele><time>2026-08-13T21:23:41.999Z</time><hdop>4.687</hdop><vdop>4.812</vdop><extensions><gom:speed>1.446</gom:speed><gom:course>261.006</gom:course><gom:rel_alt>2.034</gom:rel_alt></extensions></trkpt>
   <trkpt lat="59.3194046126" lon="34.6657298446"><ele>166.043</ele><time>2026-08-13T21:23:45.999Z</time><hdop>4.687</hdop><vdop>4.75</vdop><extensions><gom:speed>1.857</gom:speed><gom:course>258.803</gom:course><gom:rel_alt>1.865</gom:rel_alt></extensions></trkpt>
   <trkpt lat="59.319359015" lon="34.6655497175"><ele>166.408</ele><time>2026-08-13T21:23:48.999Z</time><hdop>4.687</hdop><vdop>4.187</vdop><extensions><gom:speed>3.72</gom:speed><gom:course>245.701</gom:course><gom:rel_alt>1.506</gom:rel_alt></extensions></trkpt>
   <trkpt lat="59.3193261579" lon="34.6653446123"><ele>165.895</ele><time>2026-08-13T21:23:51.999Z</time><hdop>4.687</hdop><vdop>4.187</vdop><extensions><gom:speed>3.748</gom:speed><gom:course>254.408</gom:course><gom:rel_alt>1.281</gom:rel_alt></extensions></trkpt>
   <trkpt lat="59.3193041554" lon="34.6651393395"><ele>165.407</ele><time>2026-08-13T21:23:54.999Z</time><hdop>4.687</hdop><vdop>4.75</vdop><extensions><gom:speed>3.416</gom:speed><gom:course>257.133</gom:course><gom:rel_alt>0.694</gom:rel_alt></extensions></trkpt>
   <trkpt lat="59.3192753636" lon="34.6649310492"><ele>165.349</ele><time>2026-08-13T21:23:57.999Z</time><hdop>4.687</hdop><vdop>4.937</vdop><extensions><gom:speed>3.457</gom:speed><gom:course>254.617</gom:course><gom:rel_alt>0.2</gom:rel_alt></extensions></trkpt>
   <trkpt lat="59.3192474519" lon="34.6647524309"><ele>165.55</ele><time>2026-08-13T21:24:00.999Z</time><hdop>4.687</hdop><vdop>4.937</vdop><extensions><gom:speed>3.28</gom:speed><gom:course>255.507</gom:course><gom:rel_alt>-0.084</gom:rel_alt></extensions></trkpt>
   <trkpt lat="59.3192220128" lon="34.6645298913"><ele>166.721</ele><time>2026-08-13T21:24:04.999Z</time><hdop>4.687</hdop><vdop>4.937</vdop><extensions><gom:speed>3.237</gom:speed><gom:course>260.264</gom:course><gom:rel_alt>-0.454</gom:rel_alt></extensions></trkpt>
   <trkpt lat="59.3191993397" lon="34.6643056754"><ele>167.252</ele><time>2026-08-13T21:24:08.999Z</time><hdop>4.687</hdop><vdop>4.812</vdop><extensions><gom:speed>3.013</gom:speed><gom:course>257.062</gom:course><gom:rel_alt>-0.317</gom:rel_alt></extensions></trkpt>
   <trkpt lat="59.3191917122" lon="34.6641091198"><ele>166.882</ele><time>2026-08-13T21:24:12.999Z</time><hdop>4.687</hdop><vdop>4.687</vdop><extensions><gom:speed>2.73</gom:speed><gom:course>262.89</gom:course><gom:rel_alt>-0.087</gom:rel_alt></extensions></trkpt>
   <trkpt lat="59.3191724338" lon="34.6639073674"><ele>167.153</ele><time>2026-08-13T21:24:17.998Z</time><hdop>4.687</hdop><vdop>5.375</vdop><extensions><gom:speed>1.765</gom:speed><gom:course>253.617</gom:course><gom:rel_alt>-0.317</gom:rel_alt></extensions></trkpt>
   <trkpt lat="59.3191198793" lon="34.6637597621"><ele>167.29</ele><time>2026-08-13T21:24:21.998Z</time><hdop>4.687</hdop><vdop>5.5</vdop><extensions><gom:speed>1.756</gom:speed><gom:course>230.309</gom:course><gom:rel_alt>-0.208</gom:rel_alt></extensions></trkpt>
   <trkpt lat="59.319052405" lon="34.663621293"><ele>167.147</ele><time>2026-08-13T21:24:25.998Z</time><hdop>4.687</hdop><vdop>5.687</vdop><extensions><gom:speed>1.721</gom:speed><gom:course>228.689</gom:course><gom:rel_alt>-0.224</gom:rel_alt></extensions></trkpt>
   <trkpt lat="59.3189859365" lon="34.6634970732"><ele>168.587</ele><time>2026-08-13T21:24:29.998Z</time><hdop>4.687</hdop><vdop>5.812</vdop><extensions><gom:speed>1.666</gom:speed><gom:course>224.119</gom:course><gom:rel_alt>-0.11</gom:rel_alt></extensions></trkpt>
   <trkpt lat="59.3189192165" lon="34.6633416727"><ele>169.1</ele><time>2026-08-13T21:24:34.998Z</time><hdop>4.687</hdop><vdop>5.75</vdop><extensions><gom:speed>1.644</gom:speed><gom:course>224.52</gom:course><gom:rel_alt>-0.121</gom:rel_alt></extensions></trkpt>
   <trkpt lat="59.3188697633" lon="34.6631749567"><ele>168.583</ele><time>2026-08-13T21:24:38.998Z</time><hdop>4.687</hdop><vdop>5.875</vdop><extensions><gom:speed>1.636</gom:speed><gom:course>235.918</gom:course><gom:rel_alt>-0.137</gom:rel_alt></extensions></trkpt>
   <trkpt lat="59.3188086592" lon="34.6630179636"><ele>167.683</ele><time>2026-08-13T21:24:42.998Z</time><hdop>4.687</hdop><vdop>6.0</vdop><extensions><gom:speed>1.589</gom:speed><gom:course>231.139</gom:course><gom:rel_alt>-0.15</gom:rel_alt></extensions></trkpt>
   <trkpt lat="59.3187410592" lon="34.6628527563"><ele>168.139</ele><time>2026-08-13T21:24:46.998Z</time><hdop>4.687</hdop><vdop>6.062</vdop><extensions><gom:speed>1.796</gom:speed><gom:course>231.067</gom:course><gom:rel_alt>-0.232</gom:rel_alt></extensions></trkpt>
   <trkpt lat="59.3186661669" lon="34.6626900636"><ele>168.095</ele><time>2026-08-13T21:24:50.998Z</time><hdop>4.687</hdop><vdop>6.125</vdop><extensions><gom:speed>1.537</gom:speed><gom:course>229.452</gom:course><gom:rel_alt>-0.097</gom:rel_alt></extensions></trkpt>
   <trkpt lat="59.3185940406" lon="34.662513876"><ele>167.365</ele><time>2026-08-13T21:24:53.998Z</time><hdop>4.687</hdop><vdop>5.5</vdop><extensions><gom:speed>3.159</gom:speed><gom:course>233.155</gom:course><gom:rel_alt>-0.007</gom:rel_alt></extensions></trkpt>
   <trkpt lat="59.3185439587" lon="34.6623602357"><ele>166.368</ele><time>2026-08-13T21:24:56.998Z</time><hdop>4.687</hdop><vdop>5.5</vdop><extensions><gom:speed>2.775</gom:speed><gom:course>240.587</gom:course><gom:rel_alt>-0.095</gom:rel_alt></extensions></trkpt>
   <trkpt lat="59.3184992832" lon="34.6622023206"><ele>166.192</ele><time>2026-08-13T21:24:59.997Z</time><hdop>4.687</hdop><vdop>5.312</vdop><extensions><gom:speed>2.935</gom:speed><gom:course>242.471</gom:course><gom:rel_alt>-0.24</gom:rel_alt></extensions></trkpt>
   <trkpt lat="59.3184501233" lon="34.6620035019"><ele>165.566</ele><time>2026-08-13T21:25:03.997Z</time><hdop>4.687</hdop><vdop>5.062</vdop><extensions><gom:speed>2.894</gom:speed><gom:course>252.491</gom:course><gom:rel_alt>-0.512</gom:rel_alt></extensions></trkpt>
   <trkpt lat="59.3184085072" lon="34.6617889252"><ele>165.674</ele><time>2026-08-13T21:25:07.997Z</time><hdop>4.687</hdop><vdop>4.937</vdop><extensions><gom:speed>3.089</gom:speed><gom:course>252.81</gom:course><gom:rel_alt>-0.586</gom:rel_alt></extensions></trkpt>
   <trkpt lat="59.3183870495" lon="34.6615882624"><ele>165.515</ele><time>2026-08-13T21:25:11.997Z</time><hdop>4.687</hdop><vdop>5.187</vdop><extensions><gom:speed>2.617</gom:speed><gom:course>261.582</gom:course><gom:rel_alt>-0.346</gom:rel_alt></extensions></trkpt>
   <trkpt lat="59.3183725488" lon="34.6613929641"><ele>164.74</ele><time>2026-08-13T21:25:15.997Z</time><hdop>4.687</hdop><vdop>5.062</vdop><extensions><gom:speed>2.565</gom:speed><gom:course>269.328</gom:course><gom:rel_alt>-0.327</gom:rel_alt></extensions></trkpt>
   <trkpt lat="59.3183746862" lon="34.6611480449"><ele>162.791</ele><time>2026-08-13T21:25:20.997Z</time><hdop>4.687</hdop><vdop>4.687</vdop><extensions><gom:speed>3.015</gom:speed><gom:course>268.345</gom:course><gom:rel_alt>-0.515</gom:rel_alt></extensions></trkpt>
   <trkpt lat="59.3183590959" lon="34.6609398384"><ele>163.904</ele><time>2026-08-13T21:25:24.997Z</time><hdop>4.687</hdop><vdop>4.687</vdop><extensions><gom:speed>2.803</gom:speed><gom:course>267.702</gom:course><gom:rel_alt>-0.75</gom:rel_alt></extensions></trkpt>
   <trkpt lat="59.3183475707" lon="34.6607213222"><ele>164.684</ele><time>2026-08-13T21:25:28.999Z</time><hdop>4.687</hdop><vdop>4.812</vdop><extensions><gom:speed>2.879</gom:speed><gom:course>270.514</gom:course><gom:rel_alt>-0.774</gom:rel_alt></extensions></trkpt>
   <trkpt lat="59.3183392307" lon="34.6605177257"><ele>163.98</ele><time>2026-08-13T21:25:32.999Z</time><hdop>4.687</hdop><vdop>4.625</vdop><extensions><gom:speed>2.725</gom:speed><gom:course>271.685</gom:course><gom:rel_alt>-0.702</gom:rel_alt></extensions></trkpt>
   <trkpt lat="59.3183290467" lon="34.6603366766"><ele>164.046</ele><time>2026-08-13T21:25:36.999Z</time><hdop>4.687</hdop><vdop>5.437</vdop><extensions><gom:speed>1.67</gom:speed><gom:course>262.895</gom:course><gom:rel_alt>-0.66</gom:rel_alt></extensions></trkpt>
   <trkpt lat="59.3183236404" lon="34.6601467427"><ele>163.767</ele><time>2026-08-13T21:25:40.999Z</time><hdop>4.687</hdop><vdop>5.687</vdop><extensions><gom:speed>1.919</gom:speed><gom:course>264.477</gom:course><gom:rel_alt>-0.549</gom:rel_alt></extensions></trkpt>
   <trkpt lat="59.3183014284" lon="34.6599459961"><ele>164.919</ele><time>2026-08-13T21:25:44.999Z</time><hdop>4.687</hdop><vdop>5.875</vdop><extensions><gom:speed>1.971</gom:speed><gom:course>257.842</gom:course><gom:rel_alt>-0.274</gom:rel_alt></extensions></trkpt>
   <trkpt lat="59.3182770789" lon="34.6597468421"><ele>165.195</ele><time>2026-08-13T21:25:47.999Z</time><hdop>4.687</hdop><vdop>5.062</vdop><extensions><gom:speed>3.353</gom:speed><gom:course>256.045</gom:course></extensions></trkpt>
   <trkpt lat="59.3182555374" lon="34.6595396415"><ele>165.581</ele><time>2026-08-13T21:25:52.999Z</time><hdop>4.687</hdop><vdop>5.875</vdop><extensions><gom:speed>1.845</gom:speed><gom:course>262.632</gom:course><gom:rel_alt>0.248</gom:rel_alt></extensions></trkpt>
   <trkpt lat="59.3182602313" lon="34.6593093068"><ele>165.174</ele><time>2026-08-13T21:25:56.999Z</time><hdop>4.687</hdop><vdop>5.0</vdop><extensions><gom:speed>3.446</gom:speed><gom:course>273.552</gom:course><gom:rel_alt>0.237</gom:rel_alt></extensions></trkpt>
   <trkpt lat="59.3183295497" lon="34.6591352146"><ele>164.965</ele><time>2026-08-13T21:26:00.999Z</time><hdop>4.687</hdop><vdop>4.812</vdop><extensions><gom:speed>3.025</gom:speed><gom:course>312.818</gom:course><gom:rel_alt>0.256</gom:rel_alt></extensions></trkpt>
   <trkpt lat="59.3184082138" lon="34.6589819934"><ele>164.169</ele><time>2026-08-13T21:26:04.999Z</time><hdop>4.687</hdop><vdop>4.75</vdop><extensions><gom:speed>3.02</gom:speed><gom:course>315.367</gom:course></extensions></trkpt>
   <trkpt lat="59.3184922424" lon="34.6588436082"><ele>165.115</ele><time>2026-08-13T21:26:08.999Z</time><hdop>4.687</hdop><vdop>4.812</vdop><extensions><gom:speed>2.986</gom:speed><gom:course>321.404</gom:course><gom:rel_alt>-0.044</gom:rel_alt></extensions></trkpt>
   <trkpt lat="59.3185893467" lon="34.658744115"><ele>166.234</ele><time>2026-08-13T21:26:12.999Z</time><hdop>4.687</hdop><vdop>4.437</vdop><extensions><gom:speed>2.856</gom:speed><gom:course>336.851</gom:course><gom:rel_alt>0.277</gom:rel_alt></extensions></trkpt>
   <trkpt lat="59.3187011194" lon="34.6586336415"><ele>166.873</ele><time>2026-08-13T21:26:16.999Z</time><hdop>4.687</hdop><vdop>4.687</vdop><extensions><gom:speed>3.543</gom:speed><gom:course>331.913</gom:course><gom:rel_alt>1.189</gom:rel_alt></extensions></trkpt>
   <trkpt lat="59.318804594" lon="34.6585856132"><ele>167.952</ele><time>2026-08-13T21:26:20.998Z</time><hdop>4.687</hdop><vdop>4.875</vdop><extensions><gom:speed>3.066</gom:speed><gom:course>341.493</gom:course><gom:rel_alt>1.796</gom:rel_alt></extensions></trkpt>
   <trkpt lat="59.3188989323" lon="34.658504644"><ele>168.738</ele><time>2026-08-13T21:26:24.998Z</time><hdop>4.687</hdop><vdop>3.562</vdop><extensions><gom:speed>2.944</gom:speed><gom:course>338.999</gom:course><gom:rel_alt>2.23</gom:rel_alt></extensions></trkpt>
   <trkpt lat="59.318995408" lon="34.6584151253"><ele>169.137</ele><time>2026-08-13T21:26:28.998Z</time><hdop>4.687</hdop><vdop>4.875</vdop><extensions><gom:speed>2.952</gom:speed><gom:course>336.961</gom:course><gom:rel_alt>2.946</gom:rel_alt></extensions></trkpt>
   <trkpt lat="59.3190850944" lon="34.6583647501"><ele>168.999</ele><time>2026-08-13T21:26:32.998Z</time><hdop>4.687</hdop><vdop>4.875</vdop><extensions><gom:speed>2.543</gom:speed><gom:course>343.668</gom:course><gom:rel_alt>3.522</gom:rel_alt></extensions></trkpt>
   <trkpt lat="59.3191775049" lon="34.6583105192"><ele>168.906</ele><time>2026-08-13T21:26:36.998Z</time><hdop>4.687</hdop><vdop>4.937</vdop><extensions><gom:speed>2.697</gom:speed><gom:course>344.937</gom:course><gom:rel_alt>3.532</gom:rel_alt></extensions></trkpt>
   <trkpt lat="59.3192694544" lon="34.6582711242"><ele>168.776</ele><time>2026-08-13T21:26:40.998Z</time><hdop>4.687</hdop><vdop>4.875</vdop><extensions><gom:speed>2.52</gom:speed><gom:course>350.128</gom:course><gom:rel_alt>3.384</gom:rel_alt></extensions></trkpt>
   <trkpt lat="59.3193574224" lon="34.6582308911"><ele>168.104</ele><time>2026-08-13T21:26:45.998Z</time><hdop>4.687</hdop><vdop>5.062</vdop><extensions><gom:speed>1.312</gom:speed><gom:course>335.247</gom:course><gom:rel_alt>3.123</gom:rel_alt></extensions></trkpt>
   <trkpt lat="59.3194648784" lon="34.6582012192"><ele>170.13</ele><time>2026-08-13T21:33:42.997Z</time><hdop>4.687</hdop><vdop>4.75</vdop><extensions><gom:speed>2.159</gom:speed><gom:course>349.008</gom:course><gom:rel_alt>2.557</gom:rel_alt></extensions></trkpt>
   <trkpt lat="59.3195598873" lon="34.6581561245"><ele>170.069</ele><time>2026-08-13T21:33:47.997Z</time><hdop>4.687</hdop><vdop>4.687</vdop><extensions><gom:speed>2.178</gom:speed><gom:course>345.151</gom:course><gom:rel_alt>2.798</gom:rel_alt></extensions></trkpt>
   <trkpt lat="59.3196645773" lon="34.6580985408"><ele>168.896</ele><time>2026-08-13T21:33:52.999Z</time><hdop>4.687</hdop><vdop>4.812</vdop><extensions><gom:speed>2.502</gom:speed><gom:course>343.487</gom:course><gom:rel_alt>3.091</gom:rel_alt></extensions></trkpt>
   <trkpt lat="59.3197538026" lon="34.6580335811"><ele>168.926</ele><time>2026-08-13T21:33:56.999Z</time><hdop>4.687</hdop><vdop>4.812</vdop><extensions><gom:speed>2.565</gom:speed><gom:course>337.296</gom:course></extensions></trkpt>
   <trkpt lat="59.319832844" lon="34.6579283882"><ele>168.409</ele><time>2026-08-13T21:34:00.999Z</time><hdop>4.687</hdop><vdop>4.875</vdop><extensions><gom:speed>2.605</gom:speed><gom:course>319.844</gom:course><gom:rel_alt>3.86</gom:rel_alt></extensions></trkpt>
   <trkpt lat="59.3199091612" lon="34.6578179147"><ele>168.6</ele><time>2026-08-13T21:34:04.999Z</time><hdop>4.687</hdop><vdop>4.937</vdop><extensions><gom:speed>2.571</gom:speed><gom:course>321.157</gom:course><gom:rel_alt>3.812</gom:rel_alt></extensions></trkpt>
   <trkpt lat="59.3199730313" lon="34.6576785237"><ele>168.342</ele><time>2026-08-13T21:34:08.999Z</time><hdop>4.687</hdop><vdop>4.75</vdop><extensions><gom:speed>2.603</gom:speed><gom:course>311.642</gom:course><gom:rel_alt>3.395</gom:rel_alt></extensions></trkpt>
   <trkpt lat="59.3200387035" lon="34.6575382944"><ele>167.794</ele><time>2026-08-13T21:34:12.999Z</time><hdop>4.687</hdop><vdop>4.812</vdop><extensions><gom:speed>2.621</gom:speed><gom:course>313.318</gom:course><gom:rel_alt>3.049</gom:rel_alt></extensions></trkpt>
   <trkpt lat="59.3201009392" lon="34.6573888451"><ele>167.901</ele><time>2026-08-13T21:34:17.999Z</time><hdop>4.687</hdop><vdop>4.875</vdop><extensions><gom:speed>2.008</gom:speed><gom:course>312.0</gom:course><gom:rel_alt>2.991</gom:rel_alt></extensions></trkpt>
   <trkpt lat="59.3201495123" lon="34.6572055329"><ele>167.982</ele><time>2026-08-13T21:34:22.999Z</time><hdop>4.687</hdop><vdop>4.75</vdop><extensions><gom:speed>2.685</gom:speed><gom:course>297.283</gom:course><gom:rel_alt>2.962</gom:rel_alt></extensions></trkpt>
   <trkpt lat="59.3202074731" lon="34.6570274174"><ele>167.51</ele><time>2026-08-13T21:34:27.999Z</time><hdop>4.687</hdop><vdop>4.75</vdop><extensions><gom:speed>2.332</gom:speed><gom:course>303.287</gom:course><gom:rel_alt>2.592</gom:rel_alt></extensions></trkpt>
   <trkpt lat="59.320263129" lon="34.6568655629"><ele>167.655</ele><time>2026-08-13T21:34:32.999Z</time><hdop>4.687</hdop><vdop>5.125</vdop><extensions><gom:speed>2.259</gom:speed><gom:course>307.869</gom:course><gom:rel_alt>2.113</gom:rel_alt></extensions></trkpt>
   <trkpt lat="59.3203342075" lon="34.6567017805"><ele>168.161</ele><time>2026-08-13T21:34:37.999Z</time><hdop>4.687</hdop><vdop>4.562</vdop><extensions><gom:speed>2.49</gom:speed><gom:course>312.851</gom:course><gom:rel_alt>1.49</gom:rel_alt></extensions></trkpt>
   <trkpt lat="59.3204032325" lon="34.6565518282"><ele>167.754</ele><time>2026-08-13T21:34:42.999Z</time><hdop>4.687</hdop><vdop>4.5</vdop><extensions><gom:speed>2.454</gom:speed><gom:course>319.196</gom:course><gom:rel_alt>1.273</gom:rel_alt></extensions></trkpt>
   <trkpt lat="59.3204631631" lon="34.6564079948"><ele>167.827</ele><time>2026-08-13T21:34:47.998Z</time><hdop>4.687</hdop><vdop>5.125</vdop><extensions><gom:speed>1.741</gom:speed><gom:course>311.192</gom:course><gom:rel_alt>1.162</gom:rel_alt></extensions></trkpt>
   <trkpt lat="59.3205139993" lon="34.6562380098"><ele>168.239</ele><time>2026-08-13T21:34:53.998Z</time><hdop>4.687</hdop><vdop>5.0</vdop><extensions><gom:speed>1.616</gom:speed><gom:course>292.713</gom:course><gom:rel_alt>1.247</gom:rel_alt></extensions></trkpt>
   <trkpt lat="59.3205509216" lon="34.6560378499"><ele>168.111</ele><time>2026-08-13T21:34:59.998Z</time><hdop>4.687</hdop><vdop>4.375</vdop><extensions><gom:speed>1.65</gom:speed><gom:course>288.791</gom:course><gom:rel_alt>1.498</gom:rel_alt></extensions></trkpt>
   <trkpt lat="59.3206024284" lon="34.6558608241"><ele>169.035</ele><time>2026-08-13T21:35:05.998Z</time><hdop>4.687</hdop><vdop>4.437</vdop><extensions><gom:speed>1.553</gom:speed><gom:course>301.436</gom:course><gom:rel_alt>1.595</gom:rel_alt></extensions></trkpt>
   <trkpt lat="59.3206432064" lon="34.6556792721"><ele>170.296</ele><time>2026-08-13T21:35:11.998Z</time><hdop>4.687</hdop><vdop>4.75</vdop><extensions><gom:speed>1.776</gom:speed><gom:course>291.713</gom:course><gom:rel_alt>1.664</gom:rel_alt></extensions></trkpt>
   <trkpt lat="59.3206905641" lon="34.6555045933"><ele>171.0</ele><time>2026-08-13T21:35:18.998Z</time><hdop>4.687</hdop><vdop>5.5</vdop><extensions><gom:speed>1.528</gom:speed><gom:course>295.047</gom:course><gom:rel_alt>1.696</gom:rel_alt></extensions></trkpt>
   <trkpt lat="59.3207116865" lon="34.6553286571"><ele>171.561</ele><time>2026-08-13T21:35:23.998Z</time><hdop>4.687</hdop><vdop>4.687</vdop><extensions><gom:speed>1.603</gom:speed><gom:course>290.345</gom:course><gom:rel_alt>1.73</gom:rel_alt></extensions></trkpt>
   <trkpt lat="59.3207459266" lon="34.6551537268"><ele>170.639</ele><time>2026-08-13T21:35:29.997Z</time><hdop>4.687</hdop><vdop>4.562</vdop><extensions><gom:speed>1.357</gom:speed><gom:course>277.156</gom:course><gom:rel_alt>1.915</gom:rel_alt></extensions></trkpt>
   <trkpt lat="59.3207593377" lon="34.6549787127"><ele>171.411</ele><time>2026-08-13T21:35:35.997Z</time><hdop>4.687</hdop><vdop>4.812</vdop><extensions><gom:speed>1.917</gom:speed><gom:course>281.298</gom:course><gom:rel_alt>1.981</gom:rel_alt></extensions></trkpt>
   <trkpt lat="59.3207737126" lon="34.6547736075"><ele>171.97</ele><time>2026-08-13T21:35:41.997Z</time><hdop>4.687</hdop><vdop>5.187</vdop><extensions><gom:speed>1.549</gom:speed><gom:course>285.874</gom:course><gom:rel_alt>2.161</gom:rel_alt></extensions></trkpt>
   <trkpt lat="59.3207973915" lon="34.6545798179"><ele>173.36</ele><time>2026-08-13T21:35:47.997Z</time><hdop>4.687</hdop><vdop>5.0</vdop><extensions><gom:speed>1.517</gom:speed><gom:course>286.494</gom:course><gom:rel_alt>2.103</gom:rel_alt></extensions></trkpt>
   <trkpt lat="59.320850868" lon="34.6544131857"><ele>173.782</ele><time>2026-08-13T21:35:53.997Z</time><hdop>4.687</hdop><vdop>4.125</vdop><extensions><gom:speed>1.441</gom:speed><gom:course>301.925</gom:course><gom:rel_alt>2.581</gom:rel_alt></extensions></trkpt>
   <trkpt lat="59.3209201445" lon="34.654263904"><ele>172.083</ele><time>2026-08-13T21:35:58.999Z</time><hdop>4.687</hdop><vdop>4.562</vdop><extensions><gom:speed>1.32</gom:speed><gom:course>308.693</gom:course><gom:rel_alt>3.065</gom:rel_alt></extensions></trkpt>
   <trkpt lat="59.3209779796" lon="34.6541105151"><ele>171.876</ele><time>2026-08-13T21:36:03.999Z</time><hdop>4.687</hdop><vdop>4.875</vdop><extensions><gom:speed>1.308</gom:speed><gom:course>304.957</gom:course><gom:rel_alt>3.099</gom:rel_alt></extensions></trkpt>
   <trkpt lat="59.3210387065" lon="34.6539617363"><ele>170.766</ele><time>2026-08-13T21:36:07.999Z</time><hdop>4.687</hdop><vdop>4.5</vdop><extensions><gom:speed>2.385</gom:speed><gom:course>303.611</gom:course><gom:rel_alt>3.014</gom:rel_alt></extensions></trkpt>
   <trkpt lat="59.3210757545" lon="34.6538004685"><ele>172.551</ele><time>2026-08-13T21:36:14.999Z</time><hdop>4.687</hdop><vdop>4.875</vdop><extensions><gom:speed>0.777</gom:speed><gom:course>297.168</gom:course><gom:rel_alt>2.906</gom:rel_alt></extensions></trkpt>
   <trkpt lat="59.3210601222" lon="34.6536209282"><ele>177.504</ele><time>2026-08-13T21:37:09.998Z</time><hdop>4.687</hdop><vdop>5.187</vdop><extensions><gom:speed>0.545</gom:speed><gom:course>278.798</gom:course><gom:rel_alt>2.634</gom:rel_alt></extensions></trkpt>
   <trkpt lat="59.3211402532" lon="34.6534983009"><ele>176.322</ele><time>2026-08-13T21:37:18.998Z</time><hdop>4.687</hdop><vdop>5.437</vdop><extensions><gom:speed>1.34</gom:speed><gom:course>327.183</gom:course></extensions></trkpt>
   <trkpt lat="59.3212072666" lon="34.653367627"><ele>176.109</ele><time>2026-08-13T21:37:25.998Z</time><hdop>4.687</hdop><vdop>5.437</vdop><extensions><gom:speed>1.635</gom:speed><gom:course>301.831</gom:course><gom:rel_alt>2.158</gom:rel_alt></extensions></trkpt>
   <trkpt lat="59.3212596535" lon="34.6532198541"><ele>174.794</ele><time>2026-08-13T21:37:31.998Z</time><hdop>4.687</hdop><vdop>5.375</vdop><extensions><gom:speed>1.679</gom:speed><gom:course>307.369</gom:course><gom:rel_alt>1.73</gom:rel_alt></extensions></trkpt>
   <trkpt lat="59.3213224339" lon="34.6530678902"><ele>173.764</ele><time>2026-08-13T21:37:38.997Z</time><hdop>4.687</hdop><vdop>5.562</vdop><extensions><gom:speed>1.153</gom:speed><gom:course>304.029</gom:course><gom:rel_alt>1.495</gom:rel_alt></extensions></trkpt>
   <trkpt lat="59.3213727672" lon="34.65290218"><ele>173.393</ele><time>2026-08-13T21:37:45.997Z</time><hdop>4.687</hdop><vdop>5.25</vdop><extensions><gom:speed>1.798</gom:speed><gom:course>324.282</gom:course><gom:rel_alt>1.292</gom:rel_alt></extensions></trkpt>
   <trkpt lat="59.3214599809" lon="34.6528083026"><ele>173.473</ele><time>2026-08-13T21:37:50.997Z</time><hdop>4.687</hdop><vdop>5.375</vdop><extensions><gom:speed>2.28</gom:speed><gom:course>329.578</gom:course><gom:rel_alt>1.218</gom:rel_alt></extensions></trkpt>
   <trkpt lat="59.3215377231" lon="34.6527101506"><ele>172.845</ele><time>2026-08-13T21:37:55.997Z</time><hdop>4.687</hdop><vdop>5.25</vdop><extensions><gom:speed>1.391</gom:speed><gom:course>325.205</gom:course><gom:rel_alt>1.033</gom:rel_alt></extensions></trkpt>
   <trkpt lat="59.3216316423" lon="34.6526376471"><ele>171.74</ele><time>2026-08-13T21:38:01.997Z</time><hdop>4.687</hdop><vdop>5.125</vdop><extensions><gom:speed>1.259</gom:speed><gom:course>327.985</gom:course><gom:rel_alt>0.827</gom:rel_alt></extensions></trkpt>
   <trkpt lat="59.3217256035" lon="34.652553409"><ele>171.532</ele><time>2026-08-13T21:38:09.999Z</time><hdop>4.687</hdop><vdop>5.062</vdop><extensions><gom:speed>1.529</gom:speed><gom:course>333.368</gom:course><gom:rel_alt>0.871</gom:rel_alt></extensions></trkpt>
   <trkpt lat="59.3218164633" lon="34.6524326257"><ele>172.501</ele><time>2026-08-13T21:38:15.999Z</time><hdop>4.687</hdop><vdop>5.25</vdop><extensions><gom:speed>1.734</gom:speed><gom:course>333.192</gom:course><gom:rel_alt>0.903</gom:rel_alt></extensions></trkpt>
   <trkpt lat="59.3219021682" lon="34.6523333002"><ele>173.826</ele><time>2026-08-13T21:38:20.999Z</time><hdop>4.687</hdop><vdop>4.937</vdop><extensions><gom:speed>2.172</gom:speed><gom:course>328.408</gom:course><gom:rel_alt>0.93</gom:rel_alt></extensions></trkpt>
   <trkpt lat="59.3219909326" lon="34.6522367407"><ele>174.744</ele><time>2026-08-13T21:38:25.999Z</time><hdop>4.687</hdop><vdop>4.937</vdop><extensions><gom:speed>2.19</gom:speed><gom:course>333.297</gom:course></extensions></trkpt>
   <trkpt lat="59.3220800741" lon="34.6521862816"><ele>175.748</ele><time>2026-08-13T21:38:30.999Z</time><hdop>4.687</hdop><vdop>4.812</vdop><extensions><gom:speed>1.654</gom:speed><gom:course>350.09</gom:course><gom:rel_alt>1.667</gom:rel_alt></extensions></trkpt>
   <trkpt lat="59.3221894161" lon="34.6522061467"><ele>176.667</ele><time>2026-08-13T21:38:35.999Z</time><hdop>4.687</hdop><vdop>5.187</vdop><extensions><gom:speed>1.972</gom:speed><gom:course>10.662</gom:course><gom:rel_alt>1.825</gom:rel_alt></extensions></trkpt>
   <trkpt lat="59.3222960339" lon="34.6522295322"><ele>176.885</ele><time>2026-08-13T21:38:40.999Z</time><hdop>4.687</hdop><vdop>4.937</vdop><extensions><gom:speed>2.013</gom:speed><gom:course>7.267</gom:course><gom:rel_alt>2.43</gom:rel_alt></extensions></trkpt>
   <trkpt lat="59.3223908332" lon="34.6522022072"><ele>178.976</ele><time>2026-08-13T21:38:44.999Z</time><hdop>4.687</hdop><vdop>4.937</vdop><extensions><gom:speed>2.259</gom:speed><gom:course>346.596</gom:course><gom:rel_alt>3.02</gom:rel_alt></extensions></trkpt>
   <trkpt lat="59.3224895301" lon="34.6521165442"><ele>177.438</ele><time>2026-08-13T21:38:49.999Z</time><hdop>4.687</hdop><vdop>5.25</vdop><extensions><gom:speed>2.119</gom:speed><gom:course>337.384</gom:course><gom:rel_alt>4.151</gom:rel_alt></extensions></trkpt>
   <trkpt lat="59.3225680266" lon="34.652028618"><ele>177.39</ele><time>2026-08-13T21:38:54.999Z</time><hdop>4.687</hdop><vdop>5.75</vdop><extensions><gom:speed>1.477</gom:speed><gom:course>335.851</gom:course><gom:rel_alt>4.999</gom:rel_alt></extensions></trkpt>
   <trkpt lat="59.3226463555" lon="34.6519380935"><ele>177.037</ele><time>2026-08-13T21:38:58.998Z</time><hdop>4.687</hdop><vdop>5.25</vdop><extensions><gom:speed>2.151</gom:speed><gom:course>325.974</gom:course><gom:rel_alt>5.271</gom:rel_alt></extensions></trkpt>
   <trkpt lat="59.3227252711" lon="34.6518028934"><ele>175.737</ele><time>2026-08-13T21:39:04.998Z</time><hdop>4.687</hdop><vdop>5.062</vdop><extensions><gom:speed>1.811</gom:speed><gom:course>323.497</gom:course><gom:rel_alt>4.89</gom:rel_alt></extensions></trkpt>
   <trkpt lat="59.3227965173" lon="34.651653444"><ele>174.666</ele><time>2026-08-13T21:39:10.998Z</time><hdop>4.687</hdop><vdop>5.125</vdop><extensions><gom:speed>1.989</gom:speed><gom:course>322.195</gom:course><gom:rel_alt>4.029</gom:rel_alt></extensions></trkpt>
   <trkpt lat="59.3228851978" lon="34.6516052481"><ele>173.405</ele><time>2026-08-13T21:39:16.998Z</time><hdop>4.687</hdop><vdop>5.312</vdop><extensions><gom:speed>1.762</gom:speed><gom:course>339.526</gom:course></extensions></trkpt>
   <trkpt lat="59.3229758481" lon="34.6515272964"><ele>175.057</ele><time>2026-08-13T21:39:22.998Z</time><hdop>4.687</hdop><vdop>5.687</vdop><extensions><gom:speed>1.274</gom:speed><gom:course>340.301</gom:course><gom:rel_alt>4.28</gom:rel_alt></extensions></trkpt>
   <trkpt lat="59.3230640677" lon="34.6514745742"><ele>176.356</ele><time>2026-08-13T21:39:27.998Z</time><hdop>4.687</hdop><vdop>5.187</vdop><extensions><gom:speed>1.616</gom:speed><gom:course>334.835</gom:course><gom:rel_alt>4.396</gom:rel_alt></extensions></trkpt>
   <trkpt lat="59.3231520357" lon="34.6513787691"><ele>177.244</ele><time>2026-08-13T21:39:33.998Z</time><hdop>4.687</hdop><vdop>5.187</vdop><extensions><gom:speed>2.207</gom:speed><gom:course>328.424</gom:course><gom:rel_alt>4.42</gom:rel_alt></extensions></trkpt>
   <trkpt lat="59.3232350585" lon="34.6512746658"><ele>176.743</ele><time>2026-08-13T21:39:39.998Z</time><hdop>4.687</hdop><vdop>4.937</vdop><extensions><gom:speed>1.546</gom:speed><gom:course>307.874</gom:course><gom:rel_alt>4.753</gom:rel_alt></extensions></trkpt>
   <trkpt lat="59.3233067657" lon="34.6511465065"><ele>177.037</ele><time>2026-08-13T21:39:47.997Z</time><hdop>4.687</hdop><vdop>5.25</vdop><extensions><gom:speed>1.009</gom:speed><gom:course>305.633</gom:course><gom:rel_alt>4.193</gom:rel_alt></extensions></trkpt>
   <trkpt lat="59.3233986313" lon="34.6510412298"><ele>176.139</ele><time>2026-08-13T21:39:52.997Z</time><hdop>4.687</hdop><vdop>4.937</vdop><extensions><gom:speed>2.222</gom:speed><gom:course>329.397</gom:course><gom:rel_alt>4.185</gom:rel_alt></extensions></trkpt>
   <trkpt lat="59.3234834562" lon="34.6509148307"><ele>175.517</ele><time>2026-08-13T21:39:58.997Z</time><hdop>4.687</hdop><vdop>5.0</vdop><extensions><gom:speed>1.068</gom:speed><gom:course>316.751</gom:course><gom:rel_alt>3.239</gom:rel_alt></extensions></trkpt>
   <trkpt lat="59.3235611564" lon="34.6508062851"><ele>175.996</ele><time>2026-08-13T21:40:03.997Z</time><hdop>4.687</hdop><vdop>4.937</vdop><extensions><gom:speed>1.71</gom:speed><gom:course>320.624</gom:course><gom:rel_alt>2.808</gom:rel_alt></extensions></trkpt>
   <trkpt lat="59.323648412" lon="34.6507113181"><ele>176.834</ele><time>2026-08-13T21:40:09.999Z</time><hdop>4.687</hdop><vdop>4.562</vdop><extensions><gom:speed>1.369</gom:speed><gom:course>319.75</gom:course><gom:rel_alt>2.407</gom:rel_alt></extensions></trkpt>
   <trkpt lat="59.3237436305" lon="34.6506165188"><ele>177.193</ele><time>2026-08-13T21:40:15.999Z</time><hdop>4.687</hdop><vdop>4.625</vdop><extensions><gom:speed>1.557</gom:speed><gom:course>321.541</gom:course><gom:rel_alt>1.844</gom:rel_alt></extensions></trkpt>
   <trkpt lat="59.3238375497" lon="34.6505498827"><ele>175.042</ele><time>2026-08-13T21:40:26.999Z</time><hdop>4.687</hdop><vdop>4.875</vdop><extensions><gom:speed>1.176</gom:speed><gom:course>346.376</gom:course><gom:rel_alt>0.959</gom:rel_alt></extensions></trkpt>
   <trkpt lat="59.323926775" lon="34.6505121641"><ele>174.471</ele><time>2026-08-13T21:40:30.999Z</time><hdop>4.687</hdop><vdop>5.0</vdop><extensions><gom:speed>1.73</gom:speed><gom:course>344.162</gom:course><gom:rel_alt>0.893</gom:rel_alt></extensions></trkpt>
   <trkpt lat="59.3240244242" lon="34.6504736073"><ele>173.424</ele><time>2026-08-13T21:40:36.999Z</time><hdop>4.687</hdop><vdop>5.312</vdop><extensions><gom:speed>1.402</gom:speed><gom:course>346.717</gom:course><gom:rel_alt>0.837</gom:rel_alt></extensions></trkpt>
   <trkpt lat="59.3241345205" lon="34.6504616212"><ele>174.425</ele><time>2026-08-13T21:40:42.999Z</time><hdop>4.687</hdop><vdop>5.312</vdop><extensions><gom:speed>1.824</gom:speed><gom:course>348.854</gom:course><gom:rel_alt>0.731</gom:rel_alt></extensions></trkpt>
   <trkpt lat="59.3242266795" lon="34.6503625471"><ele>174.645</ele><time>2026-08-13T21:40:49.999Z</time><hdop>4.687</hdop><vdop>5.0</vdop><extensions><gom:speed>1.87</gom:speed><gom:course>326.837</gom:course><gom:rel_alt>1.477</gom:rel_alt></extensions></trkpt>
   <trkpt lat="59.3243006079" lon="34.6502144389"><ele>174.39</ele><time>2026-08-13T21:40:55.999Z</time><hdop>4.687</hdop><vdop>5.0</vdop><extensions><gom:speed>1.931</gom:speed><gom:course>307.918</gom:course><gom:rel_alt>1.551</gom:rel_alt></extensions></trkpt>
   <trkpt lat="59.3243594489" lon="34.6500769757"><ele>175.99</ele><time>2026-08-13T21:41:02.999Z</time><hdop>4.687</hdop><vdop>4.875</vdop><extensions><gom:speed>1.06</gom:speed><gom:course>317.075</gom:course><gom:rel_alt>0.93</gom:rel_alt></extensions></trkpt>
   <trkpt lat="59.3244432679" lon="34.6499426138"><ele>174.563</ele><time>2026-08-13T21:41:13.998Z</time><hdop>4.687</hdop><vdop>4.937</vdop><extensions><gom:speed>1.919</gom:speed><gom:course>316.383</gom:course><gom:rel_alt>0.784</gom:rel_alt></extensions></trkpt>
   <trkpt lat="59.3245254944" lon="34.6498193998"><ele>172.324</ele><time>2026-08-13T21:41:19.998Z</time><hdop>4.687</hdop><vdop>4.75</vdop><extensions><gom:speed>1.846</gom:speed><gom:course>326.287</gom:course><gom:rel_alt>0.681</gom:rel_alt></extensions></trkpt>
   <trkpt lat="59.3246032365" lon="34.649705825"><ele>171.842</ele><time>2026-08-13T21:41:25.998Z</time><hdop>4.687</hdop><vdop>4.562</vdop><extensions><gom:speed>1.689</gom:speed><gom:course>324.002</gom:course><gom:rel_alt>0.533</gom:rel_alt></extensions></trkpt>
   <trkpt lat="59.3246786318" lon="34.6495888136"><ele>171.207</ele><time>2026-08-13T21:41:31.998Z</time><hdop>4.687</hdop><vdop>4.625</vdop><extensions><gom:speed>1.621</gom:speed><gom:course>319.783</gom:course><gom:rel_alt>0.454</gom:rel_alt></extensions></trkpt>
   <trkpt lat="59.324740574" lon="34.6494438067"><ele>171.054</ele><time>2026-08-13T21:41:37.998Z</time><hdop>4.687</hdop><vdop>4.687</vdop><extensions><gom:speed>1.744</gom:speed><gom:course>307.072</gom:course><gom:rel_alt>-0.071</gom:rel_alt></extensions></trkpt>
   <trkpt lat="59.3247888119" lon="34.6492841315"><ele>170.746</ele><time>2026-08-13T21:41:42.998Z</time><hdop>4.687</hdop><vdop>4.75</vdop><extensions><gom:speed>1.948</gom:speed><gom:course>312.34</gom:course><gom:rel_alt>-0.142</gom:rel_alt></extensions></trkpt>
   <trkpt lat="59.3248603095" lon="34.6491461653"><ele>169.511</ele><time>2026-08-13T21:41:47.997Z</time><hdop>4.687</hdop><vdop>5.0</vdop><extensions><gom:speed>2.143</gom:speed><gom:course>315.669</gom:course></extensions></trkpt>
   <trkpt lat="59.3249454696" lon="34.6490012422"><ele>169.312</ele><time>2026-08-13T21:41:52.997Z</time><hdop>4.687</hdop><vdop>5.125</vdop><extensions><gom:speed>2.436</gom:speed><gom:course>320.382</gom:course><gom:rel_alt>-0.195</gom:rel_alt></extensions></trkpt>
   <trkpt lat="59.3250279057" lon="34.648866545"><ele>169.582</ele><time>2026-08-13T21:41:57.997Z</time><hdop>4.687</hdop><vdop>5.0</vdop><extensions><gom:speed>2.369</gom:speed><gom:course>323.343</gom:course><gom:rel_alt>-0.1</gom:rel_alt></extensions></trkpt>
   <trkpt lat="59.3250957572" lon="34.648733189"><ele>170.704</ele><time>2026-08-13T21:42:02.997Z</time><hdop>4.687</hdop><vdop>5.562</vdop><extensions><gom:speed>1.472</gom:speed><gom:course>319.393</gom:course><gom:rel_alt>0.303</gom:rel_alt></extensions></trkpt>
   <trkpt lat="59.3251696856" lon="34.6486134954"><ele>169.863</ele><time>2026-08-13T21:42:07.997Z</time><hdop>4.687</hdop><vdop>5.375</vdop><extensions><gom:speed>1.547</gom:speed><gom:course>317.097</gom:course><gom:rel_alt>0.414</gom:rel_alt></extensions></trkpt>
   <trkpt lat="59.3252523311" lon="34.6484827377"><ele>169.615</ele><time>2026-08-13T21:42:12.997Z</time><hdop>4.687</hdop><vdop>5.25</vdop><extensions><gom:speed>1.698</gom:speed><gom:course>319.141</gom:course><gom:rel_alt>0.642</gom:rel_alt></extensions></trkpt>
   <trkpt lat="59.3253392095" lon="34.6483535726"><ele>170.664</ele><time>2026-08-13T21:42:17.999Z</time><hdop>4.687</hdop><vdop>5.25</vdop><extensions><gom:speed>1.609</gom:speed><gom:course>320.855</gom:course><gom:rel_alt>0.982</gom:rel_alt></extensions></trkpt>
   <trkpt lat="59.3254117968" lon="34.6482356392"><ele>171.534</ele><time>2026-08-13T21:42:21.999Z</time><hdop>4.687</hdop><vdop>4.875</vdop><extensions><gom:speed>2.473</gom:speed><gom:course>318.992</gom:course></extensions></trkpt>
   <trkpt lat="59.3254741163" lon="34.648061128"><ele>172.435</ele><time>2026-08-13T21:42:26.999Z</time><hdop>4.687</hdop><vdop>4.75</vdop><extensions><gom:speed>1.973</gom:speed><gom:course>300.865</gom:course><gom:rel_alt>1.265</gom:rel_alt></extensions></trkpt>
   <trkpt lat="59.3255324543" lon="34.6479084097"><ele>173.133</ele><time>2026-08-13T21:42:31.999Z</time><hdop>4.687</hdop><vdop>4.75</vdop><extensions><gom:speed>2.081</gom:speed><gom:course>300.42</gom:course><gom:rel_alt>1.759</gom:rel_alt></extensions></trkpt>
   <trkpt lat="59.3255730646" lon="34.6477419451"><ele>173.087</ele><time>2026-08-13T21:42:36.999Z</time><hdop>4.687</hdop><vdop>5.125</vdop><extensions><gom:speed>1.737</gom:speed><gom:course>294.998</gom:course><gom:rel_alt>2.142</gom:rel_alt></extensions></trkpt>
   <trkpt lat="59.3256311512" lon="34.6475755643"><ele>172.321</ele><time>2026-08-13T21:42:41.999Z</time><hdop>4.687</hdop><vdop>4.875</vdop><extensions><gom:speed>2.061</gom:speed><gom:course>307.143</gom:course><gom:rel_alt>2.335</gom:rel_alt></extensions></trkpt>
   <trkpt lat="59.3256758268" lon="34.6474152185"><ele>173.777</ele><time>2026-08-13T21:42:46.999Z</time><hdop>4.687</hdop><vdop>4.562</vdop><extensions><gom:speed>1.626</gom:speed><gom:course>305.842</gom:course><gom:rel_alt>2.523</gom:rel_alt></extensions></trkpt>
   <trkpt lat="59.32574196" lon="34.6472803537"><ele>174.21</ele><time>2026-08-13T21:42:52.999Z</time><hdop>4.687</hdop><vdop>5.062</vdop><extensions><gom:speed>1.559</gom:speed><gom:course>306.457</gom:course><gom:rel_alt>2.483</gom:rel_alt></extensions></trkpt>
   <trkpt lat="59.3257730988" lon="34.6471137215"><ele>176.137</ele><time>2026-08-13T21:42:59.999Z</time><hdop>4.687</hdop><vdop>5.125</vdop><extensions><gom:speed>1.543</gom:speed><gom:course>310.121</gom:course><gom:rel_alt>2.256</gom:rel_alt></extensions></trkpt>
   <trkpt lat="59.3258078837" lon="34.6469395455"><ele>176.453</ele><time>2026-08-13T21:43:05.999Z</time><hdop>4.687</hdop><vdop>4.75</vdop><extensions><gom:speed>2.198</gom:speed><gom:course>284.259</gom:course><gom:rel_alt>2.533</gom:rel_alt></extensions></trkpt>
   <trkpt lat="59.3258634976" lon="34.6467621006"><ele>176.486</ele><time>2026-08-13T21:43:10.999Z</time><hdop>4.687</hdop><vdop>5.187</vdop><extensions><gom:speed>2.313</gom:speed><gom:course>289.851</gom:course><gom:rel_alt>2.948</gom:rel_alt></extensions></trkpt>
   <trkpt lat="59.3259208298" lon="34.6465958875"><ele>177.137</ele><time>2026-08-13T21:43:15.998Z</time><hdop>4.687</hdop><vdop>4.875</vdop><extensions><gom:speed>2.205</gom:speed><gom:course>302.051</gom:course><gom:rel_alt>2.988</gom:rel_alt></extensions></trkpt>
   <trkpt lat="59.3259808442" lon="34.646446522"><ele>176.795</ele><time>2026-08-13T21:43:20.998Z</time><hdop>4.687</hdop><vdop>5.125</vdop><extensions><gom:speed>1.667</gom:speed><gom:course>310.022</gom:course><gom:rel_alt>2.996</gom:rel_alt></extensions></trkpt>
   <trkpt lat="59.3260297945" lon="34.6462971564"><ele>177.153</ele><time>2026-08-13T21:43:25.998Z</time><hdop>4.687</hdop><vdop>5.437</vdop><extensions><gom:speed>1.532</gom:speed><gom:course>300.92</gom:course><gom:rel_alt>3.03</gom:rel_alt></extensions></trkpt>
   <trkpt lat="59.3260581254" lon="34.6460942306"><ele>178.312</ele><time>2026-08-13T21:43:30.998Z</time><hdop>4.687</hdop><vdop>5.062</vdop><extensions><gom:speed>2.479</gom:speed><gom:course>290.032</gom:course><gom:rel_alt>3.07</gom:rel_alt></extensions></trkpt>
   <trkpt lat="59.3260932456" lon="34.6459255867"><ele>177.968</ele><time>2026-08-13T21:43:34.998Z</time><hdop>4.687</hdop><vdop>4.875</vdop><extensions><gom:speed>2.306</gom:speed><gom:course>293.372</gom:course><gom:rel_alt>3.355</gom:rel_alt></extensions></trkpt>
   <trkpt lat="59.326152799" lon="34.645757781"><ele>176.844</ele><time>2026-08-13T21:43:38.998Z</time><hdop>4.687</hdop><vdop>4.875</vdop><extensions><gom:speed>2.796</gom:speed><gom:course>305.051</gom:course><gom:rel_alt>3.141</gom:rel_alt></extensions></trkpt>
   <trkpt lat="59.326214406" lon="34.6456170488"><ele>174.978</ele><time>2026-08-13T21:43:43.998Z</time><hdop>4.687</hdop><vdop>5.25</vdop><extensions><gom:speed>1.395</gom:speed><gom:course>305.078</gom:course><gom:rel_alt>2.57</gom:rel_alt></extensions></trkpt>
   <trkpt lat="59.3262601292" lon="34.6454453036"><ele>173.826</ele><time>2026-08-13T21:43:47.998Z</time><hdop>4.687</hdop><vdop>5.0</vdop><extensions><gom:speed>2.048</gom:speed><gom:course>296.624</gom:course><gom:rel_alt>2.195</gom:rel_alt></extensions></trkpt>
   <trkpt lat="59.326331585" lon="34.6452387735"><ele>174.639</ele><time>2026-08-13T21:43:52.998Z</time><hdop>4.687</hdop><vdop>5.187</vdop><extensions><gom:speed>3.057</gom:speed><gom:course>299.991</gom:course><gom:rel_alt>1.722</gom:rel_alt></extensions></trkpt>
   <trkpt lat="59.3263865283" lon="34.6450845465"><ele>174.938</ele><time>2026-08-13T21:43:56.997Z</time><hdop>4.687</hdop><vdop>5.562</vdop><extensions><gom:speed>1.61</gom:speed><gom:course>299.365</gom:course><gom:rel_alt>1.836</gom:rel_alt></extensions></trkpt>
   <trkpt lat="59.3264461237" lon="34.6449352648"><ele>175.213</ele><time>2026-08-13T21:44:02.997Z</time><hdop>4.687</hdop><vdop>5.0</vdop><extensions><gom:speed>1.094</gom:speed><gom:course>304.188</gom:course></extensions></trkpt>
   <trkpt lat="59.3264840518" lon="34.6447523717"><ele>174.986</ele><time>2026-08-13T21:44:11.997Z</time><hdop>4.687</hdop><vdop>5.437</vdop><extensions><gom:speed>1.109</gom:speed><gom:course>296.717</gom:course><gom:rel_alt>1.284</gom:rel_alt></extensions></trkpt>
   <trkpt lat="59.3265179985" lon="34.6445743401"><ele>175.188</ele><time>2026-08-13T21:44:17.997Z</time><hdop>4.687</hdop><vdop>5.062</vdop><extensions><gom:speed>1.771</gom:speed><gom:course>291.773</gom:course><gom:rel_alt>1.479</gom:rel_alt></extensions></trkpt>
   <trkpt lat="59.3265702597" lon="34.6443757728"><ele>175.188</ele><time>2026-08-13T21:44:23.000Z</time><hdop>4.687</hdop><vdop>4.812</vdop><extensions><gom:speed>2.622</gom:speed><gom:course>295.877</gom:course><gom:rel_alt>1.331</gom:rel_alt></extensions></trkpt>
   <trkpt lat="59.3266190843" lon="34.6442213781"><ele>175.441</ele><time>2026-08-13T21:44:26.000Z</time><hdop>4.687</hdop><vdop>5.0</vdop><extensions><gom:speed>3.443</gom:speed><gom:course>294.416</gom:course><gom:rel_alt>1.315</gom:rel_alt></extensions></trkpt>
   <trkpt lat="59.3266542044" lon="34.6440573443"><ele>175.258</ele><time>2026-08-13T21:44:29.000Z</time><hdop>4.687</hdop><vdop>4.375</vdop><extensions><gom:speed>3.195</gom:speed><gom:course>291.713</gom:course><gom:rel_alt>1.783</gom:rel_alt></extensions></trkpt>
   <trkpt lat="59.3266891151" lon="34.6438898739"><ele>174.314</ele><time>2026-08-13T21:44:32.999Z</time><hdop>4.687</hdop><vdop>4.375</vdop><extensions><gom:speed>2.342</gom:speed><gom:course>292.768</gom:course><gom:rel_alt>1.899</gom:rel_alt></extensions></trkpt>
   <trkpt lat="59.326708603" lon="34.6437120099"><ele>173.544</ele><time>2026-08-13T21:44:36.999Z</time><hdop>4.687</hdop><vdop>4.187</vdop><extensions><gom:speed>2.473</gom:speed><gom:course>284.78</gom:course></extensions></trkpt>
   <trkpt lat="59.3267299349" lon="34.6435170468"><ele>173.696</ele><time>2026-08-13T21:44:40.999Z</time><hdop>4.687</hdop><vdop>4.437</vdop><extensions><gom:speed>2.645</gom:speed><gom:course>270.965</gom:course><gom:rel_alt>1.064</gom:rel_alt></extensions></trkpt>
   <trkpt lat="59.3267500515" lon="34.6433019672"><ele>173.518</ele><time>2026-08-13T21:44:46.999Z</time><hdop>4.687</hdop><vdop>5.0</vdop><extensions><gom:speed>2.249</gom:speed><gom:course>279.809</gom:course><gom:rel_alt>0.972</gom:rel_alt></extensions></trkpt>
   <trkpt lat="59.3267490038" lon="34.643091749"><ele>174.137</ele><time>2026-08-13T21:44:50.999Z</time><hdop>4.687</hdop><vdop>5.187</vdop><extensions><gom:speed>2.908</gom:speed><gom:course>273.442</gom:course><gom:rel_alt>0.951</gom:rel_alt></extensions></trkpt>
   <trkpt lat="59.3267658514" lon="34.6429163996"><ele>175.542</ele><time>2026-08-13T21:44:53.999Z</time><hdop>4.687</hdop><vdop>4.437</vdop><extensions><gom:speed>3.204</gom:speed><gom:course>285.33</gom:course><gom:rel_alt>1.146</gom:rel_alt></extensions></trkpt>
   <trkpt lat="59.3267939727" lon="34.6427293155"><ele>175.544</ele><time>2026-08-13T21:44:57.999Z</time><hdop>4.687</hdop><vdop>4.187</vdop><extensions><gom:speed>2.748</gom:speed><gom:course>287.296</gom:course><gom:rel_alt>1.878</gom:rel_alt></extensions></trkpt>
   <trkpt lat="59.326847994" lon="34.6425143197"><ele>174.535</ele><time>2026-08-13T21:45:01.999Z</time><hdop>4.687</hdop><vdop>3.937</vdop><extensions><gom:speed>3.132</gom:speed><gom:course>294.745</gom:course><gom:rel_alt>1.86</gom:rel_alt></extensions></trkpt>
   <trkpt lat="59.3269097687" lon="34.6423196919"><ele>175.588</ele><time>2026-08-13T21:45:05.999Z</time><hdop>4.687</hdop><vdop>4.0</vdop><extensions><gom:speed>2.989</gom:speed><gom:course>297.459</gom:course><gom:rel_alt>1.558</gom:rel_alt></extensions></trkpt>
   <trkpt lat="59.326991115" lon="34.6421713322"><ele>174.281</ele><time>2026-08-13T21:45:09.999Z</time><hdop>4.687</hdop><vdop>4.5</vdop><extensions><gom:speed>2.89</gom:speed><gom:course>314.691</gom:course></extensions></trkpt>
   <trkpt lat="59.3270624031" lon="34.6420530636"><ele>174.864</ele><time>2026-08-13T21:45:12.999Z</time><hdop>4.687</hdop><vdop>4.75</vdop><extensions><gom:speed>2.755</gom:speed><gom:course>320.596</gom:course><gom:rel_alt>2.047</gom:rel_alt></extensions></trkpt>
   <trkpt lat="59.3271456354" lon="34.6419301011"><ele>175.029</ele><time>2026-08-13T21:45:15.999Z</time><hdop>4.687</hdop><vdop>4.125</vdop><extensions><gom:speed>3.329</gom:speed><gom:course>322.118</gom:course><gom:rel_alt>2.261</gom:rel_alt></extensions></trkpt>
   <trkpt lat="59.327212984" lon="34.6418030314"><ele>174.523</ele><time>2026-08-13T21:45:18.998Z</time><hdop>4.687</hdop><vdop>4.75</vdop><extensions><gom:speed>3.315</gom:speed><gom:course>321.157</gom:course><gom:rel_alt>2.38</gom:rel_alt></extensions></trkpt>
   <trkpt lat="59.3272542649" lon="34.6416227367"><ele>174.1</ele><time>2026-08-13T21:45:22.998Z</time><hdop>4.687</hdop><vdop>4.875</vdop><extensions><gom:speed>1.971</gom:speed><gom:course>300.81</gom:course><gom:rel_alt>2.187</gom:rel_alt></extensions></trkpt>
   <trkpt lat="59.3273138602" lon="34.641461888"><ele>174.622</ele><time>2026-08-13T21:45:28.998Z</time><hdop>4.687</hdop><vdop>4.875</vdop><extensions><gom:speed>1.883</gom:speed><gom:course>320.075</gom:course><gom:rel_alt>1.646</gom:rel_alt></extensions></trkpt>
   <trkpt lat="59.3274151136" lon="34.6413957547"><ele>174.694</ele><time>2026-08-13T21:45:33.998Z</time><hdop>4.687</hdop><vdop>4.812</vdop><extensions><gom:speed>2.293</gom:speed><gom:course>350.513</gom:course><gom:rel_alt>1.593</gom:rel_alt></extensions></trkpt>
   <trkpt lat="59.3275231563" lon="34.6413457986"><ele>172.586</ele><time>2026-08-13T21:45:38.998Z</time><hdop>4.687</hdop><vdop>5.062</vdop><extensions><gom:speed>2.211</gom:speed><gom:course>338.12</gom:course><gom:rel_alt>1.664</gom:rel_alt></extensions></trkpt>
   <trkpt lat="59.3276041674" lon="34.641255274"><ele>171.857</ele><time>2026-08-13T21:45:43.998Z</time><hdop>4.687</hdop><vdop>5.125</vdop><extensions><gom:speed>2.104</gom:speed><gom:course>326.035</gom:course></extensions></trkpt>
   <trkpt lat="59.3276876093" lon="34.6411213312"><ele>171.23</ele><time>2026-08-13T21:45:48.998Z</time><hdop>4.687</hdop><vdop>5.312</vdop><extensions><gom:speed>2.289</gom:speed><gom:course>315.482</gom:course><gom:rel_alt>1.376</gom:rel_alt></extensions></trkpt>
   <trkpt lat="59.327746115" lon="34.6409862988"><ele>169.977</ele><time>2026-08-13T21:45:52.998Z</time><hdop>4.687</hdop><vdop>5.187</vdop><extensions><gom:speed>2.328</gom:speed><gom:course>304.704</gom:course><gom:rel_alt>1.424</gom:rel_alt></extensions></trkpt>
   <trkpt lat="59.3278033214" lon="34.640835676"><ele>169.04</ele><time>2026-08-13T21:45:57.998Z</time><hdop>4.687</hdop><vdop>5.312</vdop><extensions><gom:speed>2.308</gom:speed><gom:course>310.187</gom:course><gom:rel_alt>1.36</gom:rel_alt></extensions></trkpt>
   <trkpt lat="59.3278649284" lon="34.6406883221"><ele>167.388</ele><time>2026-08-13T21:46:02.997Z</time><hdop>4.687</hdop><vdop>5.125</vdop><extensions><gom:speed>1.905</gom:speed><gom:course>300.546</gom:course><gom:rel_alt>1.239</gom:rel_alt></extensions></trkpt>
   <trkpt lat="59.3279186564" lon="34.6405351847"><ele>167.812</ele><time>2026-08-13T21:46:06.997Z</time><hdop>4.687</hdop><vdop>4.375</vdop><extensions><gom:speed>2.471</gom:speed><gom:course>308.456</gom:course><gom:rel_alt>1.233</gom:rel_alt></extensions></trkpt>
   <trkpt lat="59.3279606079" lon="34.6403418981"><ele>167.908</ele><time>2026-08-13T21:46:11.997Z</time><hdop>4.687</hdop><vdop>4.625</vdop><extensions><gom:speed>1.953</gom:speed><gom:course>303.93</gom:course><gom:rel_alt>1.096</gom:rel_alt></extensions></trkpt>
   <trkpt lat="59.327996189" lon="34.6401445042"><ele>168.042</ele><time>2026-08-13T21:46:17.997Z</time><hdop>4.687</hdop><vdop>4.937</vdop><extensions><gom:speed>1.64</gom:speed><gom:course>294.575</gom:course></extensions></trkpt>
   <trkpt lat="59.3280475282" lon="34.6399729267"><ele>168.994</ele><time>2026-08-13T21:46:22.997Z</time><hdop>4.687</hdop><vdop>5.5</vdop><extensions><gom:speed>1.623</gom:speed><gom:course>290.059</gom:course><gom:rel_alt>1.223</gom:rel_alt></extensions></trkpt>
   <trkpt lat="59.3280810977" lon="34.6398016844"><ele>169.624</ele><time>2026-08-13T21:46:29.000Z</time><hdop>4.687</hdop><vdop>5.125</vdop><extensions><gom:speed>1.774</gom:speed><gom:course>299.409</gom:course><gom:rel_alt>1.167</gom:rel_alt></extensions></trkpt>
   <trkpt lat="59.3281167627" lon="34.6396044582"><ele>170.648</ele><time>2026-08-13T21:46:35.000Z</time><hdop>4.687</hdop><vdop>5.125</vdop><extensions><gom:speed>1.774</gom:speed><gom:course>289.532</gom:course></extensions></trkpt>
   <trkpt lat="59.3281637014" lon="34.639429947"><ele>169.261</ele><time>2026-08-13T21:46:41.000Z</time><hdop>4.687</hdop><vdop>5.0</vdop><extensions><gom:speed>1.175</gom:speed><gom:course>297.514</gom:course><gom:rel_alt>1.178</gom:rel_alt></extensions></trkpt>
   <trkpt lat="59.328206491" lon="34.6392526697"><ele>168.634</ele><time>2026-08-13T21:46:45.999Z</time><hdop>4.687</hdop><vdop>4.937</vdop><extensions><gom:speed>1.921</gom:speed><gom:course>299.903</gom:course><gom:rel_alt>1.062</gom:rel_alt></extensions></trkpt>
   <trkpt lat="59.3282635717" lon="34.6390892226"><ele>169.944</ele><time>2026-08-13T21:46:50.999Z</time><hdop>4.687</hdop><vdop>4.75</vdop><extensions><gom:speed>1.978</gom:speed><gom:course>309.972</gom:course></extensions></trkpt>
   <trkpt lat="59.3282921959" lon="34.6389054913"><ele>170.102</ele><time>2026-08-13T21:46:54.999Z</time><hdop>4.687</hdop><vdop>4.562</vdop><extensions><gom:speed>2.435</gom:speed><gom:course>291.598</gom:course><gom:rel_alt>1.384</gom:rel_alt></extensions></trkpt>
   <trkpt lat="59.3283170483" lon="34.6387223467"><ele>170.766</ele><time>2026-08-13T21:46:59.999Z</time><hdop>4.687</hdop><vdop>5.125</vdop><extensions><gom:speed>1.827</gom:speed><gom:course>285.072</gom:course><gom:rel_alt>1.318</gom:rel_alt></extensions></trkpt>
   <trkpt lat="59.3283182218" lon="34.6385218516"><ele>169.201</ele><time>2026-08-13T21:47:04.999Z</time><hdop>4.687</hdop><vdop>5.0</vdop><extensions><gom:speed>1.762</gom:speed><gom:course>274.612</gom:course><gom:rel_alt>1.286</gom:rel_alt></extensions></trkpt>
   <trkpt lat="59.3283221612" lon="34.6383188419"><ele>169.353</ele><time>2026-08-13T21:47:08.999Z</time><hdop>4.687</hdop><vdop>4.187</vdop><extensions><gom:speed>2.713</gom:speed><gom:course>269.311</gom:course><gom:rel_alt>1.458</gom:rel_alt></extensions></trkpt>
   <trkpt lat="59.3283256816" lon="34.6381211966"><ele>169.204</ele><time>2026-08-13T21:47:12.999Z</time><hdop>4.687</hdop><vdop>4.437</vdop><extensions><gom:speed>2.899</gom:speed><gom:course>271.91</gom:course><gom:rel_alt>1.677</gom:rel_alt></extensions></trkpt>
   <trkpt lat="59.3283293697" lon="34.6379205339"><ele>167.98</ele><time>2026-08-13T21:47:16.999Z</time><hdop>4.687</hdop><vdop>4.187</vdop><extensions><gom:speed>2.648</gom:speed><gom:course>270.899</gom:course><gom:rel_alt>1.891</gom:rel_alt></extensions></trkpt>
   <trkpt lat="59.3283309203" lon="34.6377390657"><ele>169.398</ele><time>2026-08-13T21:47:20.999Z</time><hdop>4.687</hdop><vdop>4.937</vdop><extensions><gom:speed>1.777</gom:speed><gom:course>272.322</gom:course><gom:rel_alt>1.656</gom:rel_alt></extensions></trkpt>
   <trkpt lat="59.3283470974" lon="34.6375524845"><ele>169.322</ele><time>2026-08-13T21:47:24.998Z</time><hdop>4.687</hdop><vdop>4.75</vdop><extensions><gom:speed>1.883</gom:speed><gom:course>282.539</gom:course></extensions></trkpt>
   <trkpt lat="59.3283693095" lon="34.6373602036"><ele>169.442</ele><time>2026-08-13T21:47:28.998Z</time><hdop>4.687</hdop><vdop>5.062</vdop><extensions><gom:speed>1.929</gom:speed><gom:course>282.99</gom:course><gom:rel_alt>1.746</gom:rel_alt></extensions></trkpt>
   <trkpt lat="59.3283970955" lon="34.6371606305"><ele>168.858</ele><time>2026-08-13T21:47:33.998Z</time><hdop>4.687</hdop><vdop>4.937</vdop><extensions><gom:speed>1.792</gom:speed><gom:course>284.401</gom:course><gom:rel_alt>2.364</gom:rel_alt></extensions></trkpt>
   <trkpt lat="59.3284293658" lon="34.6369391806"><ele>168.314</ele><time>2026-08-13T21:47:38.998Z</time><hdop>4.687</hdop><vdop>4.687</vdop><extensions><gom:speed>2.966</gom:speed><gom:course>288.115</gom:course><gom:rel_alt>2.65</gom:rel_alt></extensions></trkpt>
   <trkpt lat="59.3284548887" lon="34.6367673516"><ele>168.586</ele><time>2026-08-13T21:47:42.998Z</time><hdop>4.687</hdop><vdop>4.562</vdop><extensions><gom:speed>2.474</gom:speed><gom:course>283.605</gom:course><gom:rel_alt>2.486</gom:rel_alt></extensions></trkpt>
   <trkpt lat="59.3284638573" lon="34.6365479972"><ele>169.437</ele><time>2026-08-13T21:47:46.998Z</time><hdop>4.687</hdop><vdop>4.875</vdop><extensions><gom:speed>2.929</gom:speed><gom:course>279.919</gom:course><gom:rel_alt>2.208</gom:rel_alt></extensions></trkpt>
   <trkpt lat="59.328474209" lon="34.6363581471"><ele>169.318</ele><time>2026-08-13T21:47:50.998Z</time><hdop>4.687</hdop><vdop>4.812</vdop><extensions><gom:speed>2.528</gom:speed><gom:course>275.387</gom:course><gom:rel_alt>2.348</gom:rel_alt></extensions></trkpt>
   <trkpt lat="59.3284845606" lon="34.6361452468"><ele>169.59</ele><time>2026-08-13T21:47:55.998Z</time><hdop>4.687</hdop><vdop>5.187</vdop><extensions><gom:speed>2.28</gom:speed><gom:course>276.129</gom:course><gom:rel_alt>2.338</gom:rel_alt></extensions></trkpt>
   <trkpt lat="59.3285037971" lon="34.6359394711"><ele>168.59</ele><time>2026-08-13T21:48:00.998Z</time><hdop>4.687</hdop><vdop>4.875</vdop><extensions><gom:speed>2.049</gom:speed><gom:course>276.821</gom:course><gom:rel_alt>2.629</gom:rel_alt></extensions></trkpt>
   <trkpt lat="59.3285116761" lon="34.6357392274"><ele>168.726</ele><time>2026-08-13T21:48:05.997Z</time><hdop>4.687</hdop><vdop>4.875</vdop><extensions><gom:speed>2.0</gom:speed><gom:course>277.584</gom:course><gom:rel_alt>2.438</gom:rel_alt></extensions></trkpt>
   <trkpt lat="59.3285296972" lon="34.635537475"><ele>169.956</ele><time>2026-08-13T21:48:10.997Z</time><hdop>4.687</hdop><vdop>4.937</vdop><extensions><gom:speed>2.172</gom:speed><gom:course>282.957</gom:course><gom:rel_alt>2.33</gom:rel_alt></extensions></trkpt>
   <trkpt lat="59.3285504424" lon="34.6353356388"><ele>170.601</ele><time>2026-08-13T21:48:15.997Z</time><hdop>4.687</hdop><vdop>4.812</vdop><extensions><gom:speed>2.049</gom:speed><gom:course>283.891</gom:course><gom:rel_alt>2.618</gom:rel_alt></extensions></trkpt>
   <trkpt lat="59.32857563" lon="34.6351526618"><ele>170.073</ele><time>2026-08-13T21:48:19.997Z</time><hdop>4.687</hdop><vdop>4.875</vdop><extensions><gom:speed>2.886</gom:speed><gom:course>285.852</gom:course><gom:rel_alt>2.528</gom:rel_alt></extensions></trkpt>
   <trkpt lat="59.3286104987" lon="34.63495619"><ele>170.667</ele><time>2026-08-13T21:48:24.997Z</time><hdop>4.687</hdop><vdop>5.5</vdop><extensions><gom:speed>1.578</gom:speed><gom:course>286.033</gom:course><gom:rel_alt>2.777</gom:rel_alt></extensions></trkpt>
   <trkpt lat="59.3286391229" lon="34.6347750571"><ele>170.767</ele><time>2026-08-13T21:48:28.997Z</time><hdop>4.687</hdop><vdop>5.5</vdop><extensions><gom:speed>1.805</gom:speed><gom:course>282.638</gom:course><gom:rel_alt>3.405</gom:rel_alt></extensions></trkpt>
   <trkpt lat="59.3286628437" lon="34.6345712092"><ele>170.213</ele><time>2026-08-13T21:48:31.997Z</time><hdop>4.687</hdop><vdop>4.5</vdop><extensions><gom:speed>3.044</gom:speed><gom:course>282.122</gom:course></extensions></trkpt>
   <trkpt lat="59.328688199" lon="34.6343774196"><ele>170.316</ele><time>2026-08-13T21:48:35.999Z</time><hdop>4.687</hdop><vdop>4.625</vdop><extensions><gom:speed>2.928</gom:speed><gom:course>281.875</gom:course><gom:rel_alt>3.696</gom:rel_alt></extensions></trkpt>
   <trkpt lat="59.3287143086" lon="34.6341760024"><ele>171.171</ele><time>2026-08-13T21:48:41.999Z</time><hdop>4.687</hdop><vdop>4.875</vdop><extensions><gom:speed>1.906</gom:speed><gom:course>283.555</gom:course><gom:rel_alt>2.903</gom:rel_alt></extensions></trkpt>
   <trkpt lat="59.3287319525" lon="34.6339622639"><ele>170.972</ele><time>2026-08-13T21:48:46.999Z</time><hdop>4.687</hdop><vdop>5.062</vdop><extensions><gom:speed>2.595</gom:speed><gom:course>279.848</gom:course><gom:rel_alt>2.71</gom:rel_alt></extensions></trkpt>
   <trkpt lat="59.3287394124" lon="34.6337717433"><ele>171.467</ele><time>2026-08-13T21:48:51.999Z</time><hdop>4.687</hdop><vdop>5.625</vdop><extensions><gom:speed>1.598</gom:speed><gom:course>276.227</gom:course><gom:rel_alt>3.149</gom:rel_alt></extensions></trkpt>
   <trkpt lat="59.3287753288" lon="34.6335636206"><ele>172.471</ele><time>2026-08-13T21:48:56.999Z</time><hdop>4.687</hdop><vdop>6.0</vdop><extensions><gom:speed>1.734</gom:speed><gom:course>287.34</gom:course><gom:rel_alt>3.741</gom:rel_alt></extensions></trkpt>
   <trkpt lat="59.3288055875" lon="34.6333943062"><ele>171.868</ele><time>2026-08-13T21:49:00.999Z</time><hdop>4.687</hdop><vdop>5.625</vdop><extensions><gom:speed>1.638</gom:speed><gom:course>286.104</gom:course><gom:rel_alt>3.929</gom:rel_alt></extensions></trkpt>
   <trkpt lat="59.328837313" lon="34.6332285121"><ele>171.201</ele><time>2026-08-13T21:49:04.999Z</time><hdop>4.687</hdop><vdop>5.875</vdop><extensions><gom:speed>1.515</gom:speed><gom:course>288.736</gom:course><gom:rel_alt>3.767</gom:rel_alt></extensions></trkpt>
   <trkpt lat="59.3288591898" lon="34.633034052"><ele>170.375</ele><time>2026-08-13T21:49:08.999Z</time><hdop>4.687</hdop><vdop>5.312</vdop><extensions><gom:speed>1.66</gom:speed><gom:course>285.319</gom:course><gom:rel_alt>3.87</gom:rel_alt></extensions></trkpt>
   <trkpt lat="59.3288682422" lon="34.6328120992"><ele>170.497</ele><time>2026-08-13T21:49:12.999Z</time><hdop>4.687</hdop><vdop>4.687</vdop><extensions><gom:speed>2.913</gom:speed><gom:course>276.689</gom:course><gom:rel_alt>3.841</gom:rel_alt></extensions></trkpt>
   <trkpt lat="59.32886929" lon="34.6325928286"><ele>170.795</ele><time>2026-08-13T21:49:16.999Z</time><hdop>4.687</hdop><vdop>4.562</vdop><extensions><gom:speed>2.522</gom:speed><gom:course>272.377</gom:course><gom:rel_alt>3.641</gom:rel_alt></extensions></trkpt>
   <trkpt lat="59.328866985" lon="34.6324003801"><ele>171.212</ele><time>2026-08-13T21:49:22.999Z</time><hdop>4.687</hdop><vdop>4.812</vdop><extensions><gom:speed>1.097</gom:speed><gom:course>271.63</gom:course></extensions></trkpt>
   <trkpt lat="59.3288713016" lon="34.6322214264"><ele>173.558</ele><time>2026-08-13T21:49:30.998Z</time><hdop>4.687</hdop><vdop>5.062</vdop><extensions><gom:speed>1.052</gom:speed><gom:course>277.584</gom:course><gom:rel_alt>2.43</gom:rel_alt></extensions></trkpt>
   <trkpt lat="59.3288865567" lon="34.6320369408"><ele>175.04</ele><time>2026-08-13T21:49:38.998Z</time><hdop>4.687</hdop><vdop>5.187</vdop><extensions><gom:speed>1.423</gom:speed><gom:course>278.568</gom:course><gom:rel_alt>2.814</gom:rel_alt></extensions></trkpt>
   <trkpt lat="59.3289039911" lon="34.6318636868"><ele>174.212</ele><time>2026-08-13T21:49:43.998Z</time><hdop>4.687</hdop><vdop>4.625</vdop><extensions><gom:speed>2.213</gom:speed><gom:course>281.853</gom:course><gom:rel_alt>3.104</gom:rel_alt></extensions></trkpt>
   <trkpt lat="59.3289122891" lon="34.6316810451"><ele>174.283</ele><time>2026-08-13T21:49:48.998Z</time><hdop>4.687</hdop><vdop>4.75</vdop><extensions><gom:speed>2.153</gom:speed><gom:course>278.386</gom:course><gom:rel_alt>3.17</gom:rel_alt></extensions></trkpt>
   <trkpt lat="59.3289371834" lon="34.6314910274"><ele>175.75</ele><time>2026-08-13T21:49:52.998Z</time><hdop>4.687</hdop><vdop>5.187</vdop><extensions><gom:speed>2.757</gom:speed><gom:course>286.934</gom:course><gom:rel_alt>3.234</gom:rel_alt></extensions></trkpt>
   <trkpt lat="59.3289610299" lon="34.6313099783"><ele>175.711</ele><time>2026-08-13T21:49:57.998Z</time><hdop>4.687</hdop><vdop>5.187</vdop><extensions><gom:speed>2.033</gom:speed><gom:course>280.54</gom:course><gom:rel_alt>3.921</gom:rel_alt></extensions></trkpt>
   <trkpt lat="59.3289786319" lon="34.6311356347"><ele>176.167</ele><time>2026-08-13T21:50:01.998Z</time><hdop>4.687</hdop><vdop>4.812</vdop><extensions><gom:speed>2.223</gom:speed><gom:course>288.609</gom:course><gom:rel_alt>4.251</gom:rel_alt></extensions></trkpt>
   <trkpt lat="59.3289915819" lon="34.6309601177"><ele>175.493</ele><time>2026-08-13T21:50:05.998Z</time><hdop>4.687</hdop><vdop>4.625</vdop><extensions><gom:speed>2.414</gom:speed><gom:course>282.127</gom:course><gom:rel_alt>4.415</gom:rel_alt></extensions></trkpt>
   <trkpt lat="59.3290088068" lon="34.6307452895"><ele>174.374</ele><time>2026-08-13T21:50:11.997Z</time><hdop>4.687</hdop><vdop>4.937</vdop><extensions><gom:speed>1.739</gom:speed><gom:course>274.678</gom:course><gom:rel_alt>3.873</gom:rel_alt></extensions></trkpt>
   <trkpt lat="59.3289864271" lon="34.6305533439"><ele>174.916</ele><time>2026-08-13T21:50:16.997Z</time><hdop>4.687</hdop><vdop>5.062</vdop><extensions><gom:speed>1.555</gom:speed><gom:course>251.546</gom:course><gom:rel_alt>3.564</gom:rel_alt></extensions></trkpt>
   <trkpt lat="59.3289437213" lon="34.630364332"><ele>176.497</ele><time>2026-08-13T21:50:22.997Z</time><hdop>4.687</hdop><vdop>5.687</vdop><extensions><gom:speed>1.575</gom:speed><gom:course>244.504</gom:course><gom:rel_alt>3.485</gom:rel_alt></extensions></trkpt>
   <trkpt lat="59.3289347526" lon="34.6301708777"><ele>175.624</ele><time>2026-08-13T21:50:27.997Z</time><hdop>4.687</hdop><vdop>5.75</vdop><extensions><gom:speed>1.663</gom:speed><gom:course>271.262</gom:course><gom:rel_alt>3.617</gom:rel_alt></extensions></trkpt>
   <trkpt lat="59.3289322381" lon="34.6299818657"><ele>174.423</ele><time>2026-08-13T21:50:31.997Z</time><hdop>4.687</hdop><vdop>5.937</vdop><extensions><gom:speed>1.732</gom:speed><gom:course>266.96</gom:course><gom:rel_alt>4.011</gom:rel_alt></extensions></trkpt>
   <trkpt lat="59.328929933" lon="34.6298001461"><ele>173.879</ele><time>2026-08-13T21:50:34.997Z</time><hdop>4.687</hdop><vdop>5.812</vdop><extensions><gom:speed>3.265</gom:speed><gom:course>269.778</gom:course><gom:rel_alt>4.499</gom:rel_alt></extensions></trkpt>
   <trkpt lat="59.3289315675" lon="34.6296074461"><ele>173.862</ele><time>2026-08-13T21:50:37.997Z</time><hdop>4.687</hdop><vdop>5.062</vdop><extensions><gom:speed>3.237</gom:speed><gom:course>272.86</gom:course><gom:rel_alt>4.877</gom:rel_alt></extensions></trkpt>
   <trkpt lat="59.3289369319" lon="34.6294041012"><ele>174.013</ele><time>2026-08-13T21:50:42.999Z</time><hdop>4.687</hdop><vdop>4.875</vdop><extensions><gom:speed>1.925</gom:speed><gom:course>286.379</gom:course><gom:rel_alt>4.819</gom:rel_alt></extensions></trkpt>
   <trkpt lat="59.3289395303" lon="34.6292028517"><ele>174.436</ele><time>2026-08-13T21:50:47.999Z</time><hdop>4.687</hdop><vdop>5.25</vdop><extensions><gom:speed>2.613</gom:speed><gom:course>270.328</gom:course><gom:rel_alt>4.296</gom:rel_alt></extensions></trkpt>
   <trkpt lat="59.3289778356" lon="34.6290281728"><ele>174.766</ele><time>2026-08-13T21:51:00.999Z</time><hdop>4.687</hdop><vdop>5.312</vdop><extensions><gom:speed>1.252</gom:speed><gom:course>310.775</gom:course><gom:rel_alt>4.317</gom:rel_alt></extensions></trkpt>
   <trkpt lat="59.3289793444" lon="34.6288468722"><ele>176.259</ele><time>2026-08-13T21:51:13.999Z</time><hdop>4.687</hdop><vdop>5.375</vdop><extensions><gom:speed>0.89</gom:speed><gom:course>257.171</gom:course><gom:rel_alt>4.719</gom:rel_alt></extensions></trkpt>
   <trkpt lat="59.3289902828" lon="34.6286615483"><ele>176.622</ele><time>2026-08-13T21:51:20.999Z</time><hdop>4.687</hdop><vdop>5.0</vdop><extensions><gom:speed>1.281</gom:speed><gom:course>288.307</gom:course></extensions></trkpt>
   <trkpt lat="59.3290007601" lon="34.6284796611"><ele>176.94</ele><time>2026-08-13T21:51:27.999Z</time><hdop>4.687</hdop><vdop>5.0</vdop><extensions><gom:speed>1.434</gom:speed><gom:course>275.436</gom:course><gom:rel_alt>4.476</gom:rel_alt></extensions></trkpt>
   <trkpt lat="59.3290075495" lon="34.6282831892"><ele>177.8</ele><time>2026-08-13T21:51:33.999Z</time><hdop>4.687</hdop><vdop>5.187</vdop><extensions><gom:speed>1.245</gom:speed><gom:course>285.341</gom:course><gom:rel_alt>4.46</gom:rel_alt></extensions></trkpt>
   <trkpt lat="59.3290122014" lon="34.628106834"><ele>174.949</ele><time>2026-08-13T21:51:37.998Z</time><hdop>4.687</hdop><vdop>5.437</vdop><extensions><gom:speed>2.273</gom:speed><gom:course>256.963</gom:course></extensions></trkpt>
   <trkpt lat="59.329044346" lon="34.6279345859"><ele>176.091</ele><time>2026-08-13T21:51:42.998Z</time><hdop>4.687</hdop><vdop>5.562</vdop><extensions><gom:speed>1.356</gom:speed><gom:course>276.491</gom:course><gom:rel_alt>4.47</gom:rel_alt></extensions></trkpt>
   <trkpt lat="59.32907121" lon="34.6277346775"><ele>174.301</ele><time>2026-08-13T21:51:46.998Z</time><hdop>4.687</hdop><vdop>5.062</vdop><extensions><gom:speed>2.892</gom:speed><gom:course>285.006</gom:course><gom:rel_alt>4.166</gom:rel_alt></extensions></trkpt>
   <trkpt lat="59.3290922486" lon="34.6275595795"><ele>173.24</ele><time>2026-08-13T21:51:50.998Z</time><hdop>4.687</hdop><vdop>4.875</vdop><extensions><gom:speed>2.201</gom:speed><gom:course>279.26</gom:course><gom:rel_alt>3.725</gom:rel_alt></extensions></trkpt>
   <trkpt lat="59.3291202861" lon="34.6273821346"><ele>174.72</ele><time>2026-08-13T21:51:54.998Z</time><hdop>4.687</hdop><vdop>5.25</vdop><extensions><gom:speed>2.215</gom:speed><gom:course>291.576</gom:course></extensions></trkpt>
   <trkpt lat="59.3291245608" lon="34.6271966431"><ele>174.248</ele><time>2026-08-13T21:51:58.998Z</time><hdop>4.687</hdop><vdop>5.25</vdop><extensions><gom:speed>2.634</gom:speed><gom:course>263.961</gom:course><gom:rel_alt>3.445</gom:rel_alt></extensions></trkpt>
   <trkpt lat="59.3291542328" lon="34.6270213775"><ele>173.526</ele><time>2026-08-13T21:52:02.998Z</time><hdop>4.687</hdop><vdop>5.187</vdop><extensions><gom:speed>2.471</gom:speed><gom:course>287.785</gom:course><gom:rel_alt>3.794</gom:rel_alt></extensions></trkpt>
   <trkpt lat="59.3291825217" lon="34.6268160209"><ele>174.153</ele><time>2026-08-13T21:52:06.998Z</time><hdop>4.687</hdop><vdop>4.812</vdop><extensions><gom:speed>2.827</gom:speed><gom:course>289.922</gom:course><gom:rel_alt>3.905</gom:rel_alt></extensions></trkpt>
   <trkpt lat="59.3292133252" lon="34.6266184595"><ele>173.828</ele><time>2026-08-13T21:52:11.998Z</time><hdop>4.687</hdop><vdop>5.687</vdop><extensions><gom:speed>1.773</gom:speed><gom:course>283.753</gom:course></extensions></trkpt>
   <trkpt lat="59.3292710765" lon="34.6263886277"><ele>173.871</ele><time>2026-08-13T21:52:15.998Z</time><hdop>4.687</hdop><vdop>5.187</vdop><extensions><gom:speed>3.97</gom:speed><gom:course>293.938</gom:course><gom:rel_alt>3.76</gom:rel_alt></extensions></trkpt>
   <trkpt lat="59.3293075378" lon="34.626208752"><ele>173.738</ele><time>2026-08-13T21:52:19.997Z</time><hdop>4.687</hdop><vdop>5.187</vdop><extensions><gom:speed>2.578</gom:speed><gom:course>291.609</gom:course><gom:rel_alt>4.209</gom:rel_alt></extensions></trkpt>
   <trkpt lat="59.3293418617" lon="34.6260422874"><ele>173.363</ele><time>2026-08-13T21:52:23.997Z</time><hdop>4.687</hdop><vdop>4.937</vdop><extensions><gom:speed>2.595</gom:speed><gom:course>289.73</gom:course><gom:rel_alt>4.658</gom:rel_alt></extensions></trkpt>
   <trkpt lat="59.3293539316" lon="34.625850258"><ele>173.228</ele><time>2026-08-13T21:52:27.997Z</time><hdop>4.687</hdop><vdop>5.0</vdop><extensions><gom:speed>2.449</gom:speed><gom:course>283.111</gom:course></extensions></trkpt>
   <trkpt lat="59.3293777781" lon="34.6256702986"><ele>174.011</ele><time>2026-08-13T21:52:31.997Z</time><hdop>4.687</hdop><vdop>4.562</vdop><extensions><gom:speed>2.497</gom:speed><gom:course>285.72</gom:course><gom:rel_alt>4.978</gom:rel_alt></extensions></trkpt>
   <trkpt lat="59.3294032172" lon="34.62546863"><ele>174.564</ele><time>2026-08-13T21:52:35.997Z</time><hdop>4.687</hdop><vdop>4.875</vdop><extensions><gom:speed>2.924</gom:speed><gom:course>281.215</gom:course><gom:rel_alt>5.342</gom:rel_alt></extensions></trkpt>
   <trkpt lat="59.3294410196" lon="34.6252895925"><ele>174.017</ele><time>2026-08-13T21:52:39.997Z</time><hdop>4.687</hdop><vdop>5.062</vdop><extensions><gom:speed>2.236</gom:speed><gom:course>293.872</gom:course><gom:rel_alt>5.638</gom:rel_alt></extensions></trkpt>
   <trkpt lat="59.3294727032" lon="34.6250893489"><ele>174.291</ele><time>2026-08-13T21:52:44.997Z</time><hdop>4.687</hdop><vdop>5.125</vdop><extensions><gom:speed>2.544</gom:speed><gom:course>282.001</gom:course></extensions></trkpt>
   <trkpt lat="59.3295281914" lon="34.6249036897"><ele>172.245</ele><time>2026-08-13T21:52:50.000Z</time><hdop>4.687</hdop><vdop>5.187</vdop><extensions><gom:speed>1.56</gom:speed><gom:course>293.883</gom:course><gom:rel_alt>6.079</gom:rel_alt></extensions></trkpt>
   <trkpt lat="59.3295613418" lon="34.6246762887"><ele>172.005</ele><time>2026-08-13T21:52:53.999Z</time><hdop>4.687</hdop><vdop>4.687</vdop><extensions><gom:speed>3.226</gom:speed><gom:course>287.631</gom:course><gom:rel_alt>6.267</gom:rel_alt></extensions></trkpt>
   <trkpt lat="59.3295878286" lon="34.6244989276"><ele>171.886</ele><time>2026-08-13T21:52:57.999Z</time><hdop>4.687</hdop><vdop>4.687</vdop><extensions><gom:speed>2.684</gom:speed><gom:course>287.802</gom:course><gom:rel_alt>6.262</gom:rel_alt></extensions></trkpt>
   <trkpt lat="59.3296134773" lon="34.6243217342"><ele>171.762</ele><time>2026-08-13T21:53:01.999Z</time><hdop>4.687</hdop><vdop>4.812</vdop><extensions><gom:speed>2.367</gom:speed><gom:course>286.939</gom:course></extensions></trkpt>
   <trkpt lat="59.3296505672" lon="34.6240838558"><ele>172.774</ele><time>2026-08-13T21:53:06.999Z</time><hdop>4.687</hdop><vdop>4.875</vdop><extensions><gom:speed>3.199</gom:speed><gom:course>284.758</gom:course><gom:rel_alt>5.929</gom:rel_alt></extensions></trkpt>
   <trkpt lat="59.3297066421" lon="34.6238912396"><ele>172.841</ele><time>2026-08-13T21:53:12.999Z</time><hdop>4.687</hdop><vdop>5.062</vdop><extensions><gom:speed>1.502</gom:speed><gom:course>304.941</gom:course><gom:rel_alt>6.27</gom:rel_alt></extensions></trkpt>
   <trkpt lat="59.3297753737" lon="34.6237422932"><ele>173.4</ele><time>2026-08-13T21:53:16.999Z</time><hdop>4.687</hdop><vdop>5.187</vdop><extensions><gom:speed>1.594</gom:speed><gom:course>311.675</gom:course><gom:rel_alt>6.666</gom:rel_alt></extensions></trkpt>
   <trkpt lat="59.3298444406" lon="34.6236232702"><ele>174.425</ele><time>2026-08-13T21:53:20.999Z</time><hdop>4.687</hdop><vdop>5.0</vdop><extensions><gom:speed>1.384</gom:speed><gom:course>319.58</gom:course><gom:rel_alt>6.817</gom:rel_alt></extensions></trkpt>
   <trkpt lat="59.329929014" lon="34.6234930992"><ele>175.245</ele><time>2026-08-13T21:53:25.999Z</time><hdop>4.687</hdop><vdop>5.062</vdop><extensions><gom:speed>1.531</gom:speed><gom:course>324.266</gom:course><gom:rel_alt>7.078</gom:rel_alt></extensions></trkpt>
   <trkpt lat="59.3300116596" lon="34.6233692985"><ele>177.459</ele><time>2026-08-13T21:53:29.999Z</time><hdop>4.687</hdop><vdop>5.062</vdop><extensions><gom:speed>2.645</gom:speed><gom:course>316.564</gom:course><gom:rel_alt>7.609</gom:rel_alt></extensions></trkpt>
   <trkpt lat="59.3301036929" lon="34.6232502755"><ele>178.625</ele><time>2026-08-13T21:53:34.999Z</time><hdop>4.687</hdop><vdop>5.375</vdop><extensions><gom:speed>1.563</gom:speed><gom:course>326.573</gom:course><gom:rel_alt>8.405</gom:rel_alt></extensions></trkpt>
   <trkpt lat="59.3301904456" lon="34.6231651992"><ele>178.574</ele><time>2026-08-13T21:53:38.999Z</time><hdop>4.687</hdop><vdop>5.75</vdop><extensions><gom:speed>1.321</gom:speed><gom:course>324.689</gom:course><gom:rel_alt>8.603</gom:rel_alt></extensions></trkpt>
   <trkpt lat="59.3302769887" lon="34.6231095433"><ele>177.717</ele><time>2026-08-13T21:53:41.998Z</time><hdop>4.687</hdop><vdop>5.125</vdop><extensions><gom:speed>2.052</gom:speed><gom:course>339.751</gom:course><gom:rel_alt>8.682</gom:rel_alt></extensions></trkpt>
   <trkpt lat="59.3303650825" lon="34.6230372075"><ele>177.282</ele><time>2026-08-13T21:53:45.998Z</time><hdop>4.687</hdop><vdop>5.125</vdop><extensions><gom:speed>1.94</gom:speed><gom:course>328.941</gom:course><gom:rel_alt>8.479</gom:rel_alt></extensions></trkpt>
   <trkpt lat="59.3304738377" lon="34.6229750976"><ele>180.586</ele><time>2026-08-13T21:54:49.997Z</time><hdop>4.687</hdop><vdop>3.0</vdop><extensions><gom:speed>1.816</gom:speed><gom:course>6.833</gom:course><gom:rel_alt>8.785</gom:rel_alt></extensions></trkpt>
   <trkpt lat="59.3304110572" lon="34.62312681"><ele>178.953</ele><time>2026-08-13T22:03:06.997Z</time><hdop>4.687</hdop><vdop>5.75</vdop><extensions><gom:speed>1.387</gom:speed><gom:course>161.331</gom:course><gom:rel_alt>8.431</gom:rel_alt></extensions></trkpt>
   <trkpt lat="59.3303067026" lon="34.6231911831"><ele>180.786</ele><time>2026-08-13T22:03:13.997Z</time><hdop>4.687</hdop><vdop>5.5</vdop><extensions><gom:speed>1.621</gom:speed><gom:course>157.672</gom:course><gom:rel_alt>8.595</gom:rel_alt></extensions></trkpt>
   <trkpt lat="59.3302171419" lon="34.6232790254"><ele>181.03</ele><time>2026-08-13T22:03:19.999Z</time><hdop>4.687</hdop><vdop>5.625</vdop><extensions><gom:speed>1.577</gom:speed><gom:course>158.337</gom:course><gom:rel_alt>8.674</gom:rel_alt></extensions></trkpt>
   <trkpt lat="59.3301278746" lon="34.6233694661"><ele>180.547</ele><time>2026-08-13T22:03:24.999Z</time><hdop>4.687</hdop><vdop>5.812</vdop><extensions><gom:speed>2.009</gom:speed><gom:course>152.399</gom:course><gom:rel_alt>8.413</gom:rel_alt></extensions></trkpt>
   <trkpt lat="59.330032279" lon="34.6234626729"><ele>179.247</ele><time>2026-08-13T22:03:31.999Z</time><hdop>4.687</hdop><vdop>5.937</vdop><extensions><gom:speed>1.521</gom:speed><gom:course>150.657</gom:course><gom:rel_alt>8.119</gom:rel_alt></extensions></trkpt>
   <trkpt lat="59.3299487953" lon="34.623552024"><ele>178.094</ele><time>2026-08-13T22:03:35.999Z</time><hdop>4.687</hdop><vdop>5.812</vdop><extensions><gom:speed>2.473</gom:speed><gom:course>150.564</gom:course><gom:rel_alt>7.641</gom:rel_alt></extensions></trkpt>
   <trkpt lat="59.3298656887" lon="34.6236526068"><ele>177.668</ele><time>2026-08-13T22:03:39.999Z</time><hdop>4.687</hdop><vdop>5.937</vdop><extensions><gom:speed>2.559</gom:speed><gom:course>148.043</gom:course><gom:rel_alt>7.313</gom:rel_alt></extensions></trkpt>
   <trkpt lat="59.3297869407" lon="34.6237622421"><ele>177.304</ele><time>2026-08-13T22:03:43.999Z</time><hdop>4.687</hdop><vdop>5.75</vdop><extensions><gom:speed>2.599</gom:speed><gom:course>142.818</gom:course><gom:rel_alt>7.134</gom:rel_alt></extensions></trkpt>
   <trkpt lat="59.3297257528" lon="34.6238959335"><ele>176.898</ele><time>2026-08-13T22:03:47.999Z</time><hdop>4.687</hdop><vdop>5.75</vdop><extensions><gom:speed>2.492</gom:speed><gom:course>126.762</gom:course><gom:rel_alt>6.901</gom:rel_alt></extensions></trkpt>
   <trkpt lat="59.329674246" lon="34.6240799163"><ele>174.628</ele><time>2026-08-13T22:03:52.999Z</time><hdop>4.687</hdop><vdop>5.875</vdop><extensions><gom:speed>2.354</gom:speed><gom:course>111.957</gom:course><gom:rel_alt>6.65</gom:rel_alt></extensions></trkpt>
   <trkpt lat="59.3296429396" lon="34.6242585346"><ele>175.178</ele><time>2026-08-13T22:03:56.999Z</time><hdop>4.687</hdop><vdop>6.125</vdop><extensions><gom:speed>2.617</gom:speed><gom:course>111.348</gom:course><gom:rel_alt>6.256</gom:rel_alt></extensions></trkpt>
   <trkpt lat="59.3296117171" lon="34.6244738657"><ele>175.009</ele><time>2026-08-13T22:04:01.999Z</time><hdop>4.687</hdop><vdop>5.75</vdop><extensions><gom:speed>2.637</gom:speed><gom:course>110.837</gom:course><gom:rel_alt>6.072</gom:rel_alt></extensions></trkpt>
   <trkpt lat="59.3295869066" lon="34.6246504724"><ele>174.51</ele><time>2026-08-13T22:04:05.999Z</time><hdop>4.687</hdop><vdop>5.812</vdop><extensions><gom:speed>2.532</gom:speed><gom:course>108.755</gom:course><gom:rel_alt>6.412</gom:rel_alt></extensions></trkpt>
   <trkpt lat="59.3295584501" lon="34.6248198707"><ele>174.495</ele><time>2026-08-13T22:04:09.998Z</time><hdop>4.687</hdop><vdop>5.687</vdop><extensions><gom:speed>2.303</gom:speed><gom:course>108.848</gom:course><gom:rel_alt>6.481</gom:rel_alt></extensions></trkpt>
   <trkpt lat="59.3295272694" lon="34.62500268"><ele>175.323</ele><time>2026-08-13T22:04:13.998Z</time><hdop>4.687</hdop><vdop>5.625</vdop><extensions><gom:speed>2.627</gom:speed><gom:course>110.798</gom:course><gom:rel_alt>6.41</gom:rel_alt></extensions></trkpt>
   <trkpt lat="59.3294923168" lon="34.6251688093"><ele>174.506</ele><time>2026-08-13T22:04:17.998Z</time><hdop>4.687</hdop><vdop>5.437</vdop><extensions><gom:speed>2.76</gom:speed><gom:course>105.481</gom:course><gom:rel_alt>6.328</gom:rel_alt></extensions></trkpt>
   <trkpt lat="59.3294613457" lon="34.6253380399"><ele>174.525</ele><time>2026-08-13T22:04:21.998Z</time><hdop>4.687</hdop><vdop>5.5</vdop><extensions><gom:speed>2.519</gom:speed><gom:course>110.485</gom:course><gom:rel_alt>6.003</gom:rel_alt></extensions></trkpt>
   <trkpt lat="59.3294360324" lon="34.6255216036"><ele>174.558</ele><time>2026-08-13T22:04:26.998Z</time><hdop>4.687</hdop><vdop>5.5</vdop><extensions><gom:speed>2.218</gom:speed><gom:course>107.892</gom:course><gom:rel_alt>5.731</gom:rel_alt></extensions></trkpt>
   <trkpt lat="59.3294083721" lon="34.6257216796"><ele>174.118</ele><time>2026-08-13T22:04:31.998Z</time><hdop>4.687</hdop><vdop>5.937</vdop><extensions><gom:speed>2.173</gom:speed><gom:course>107.914</gom:course><gom:rel_alt>5.509</gom:rel_alt></extensions></trkpt>
   <trkpt lat="59.3293865791" lon="34.6259153854"><ele>173.079</ele><time>2026-08-13T22:04:36.998Z</time><hdop>4.687</hdop><vdop>5.687</vdop><extensions><gom:speed>1.895</gom:speed><gom:course>108.09</gom:course><gom:rel_alt>5.242</gom:rel_alt></extensions></trkpt>
   <trkpt lat="59.3293615592" lon="34.6260916568"><ele>173.112</ele><time>2026-08-13T22:04:40.998Z</time><hdop>4.687</hdop><vdop>6.0</vdop><extensions><gom:speed>2.164</gom:speed><gom:course>111.095</gom:course><gom:rel_alt>4.946</gom:rel_alt></extensions></trkpt>
   <trkpt lat="59.3293281992" lon="34.6263005339"><ele>174.144</ele><time>2026-08-13T22:04:45.998Z</time><hdop>4.687</hdop><vdop>5.75</vdop><extensions><gom:speed>2.752</gom:speed><gom:course>106.354</gom:course><gom:rel_alt>4.787</gom:rel_alt></extensions></trkpt>
   <trkpt lat="59.3293005389" lon="34.6264868636"><ele>174.367</ele><time>2026-08-13T22:04:49.998Z</time><hdop>4.687</hdop><vdop>5.687</vdop><extensions><gom:speed>2.628</gom:speed><gom:course>106.799</gom:course><gom:rel_alt>4.425</gom:rel_alt></extensions></trkpt>
   <trkpt lat="59.3292649158" lon="34.6266653981"><ele>174.193</ele><time>2026-08-13T22:04:53.997Z</time><hdop>4.687</hdop><vdop>5.687</vdop><extensions><gom:speed>2.336</gom:speed><gom:course>110.15</gom:course><gom:rel_alt>4.045</gom:rel_alt></extensions></trkpt>
   <trkpt lat="59.3292312625" lon="34.6268719282"><ele>174.23</ele><time>2026-08-13T22:04:57.997Z</time><hdop>4.687</hdop><vdop>5.562</vdop><extensions><gom:speed>3.08</gom:speed><gom:course>109.403</gom:course><gom:rel_alt>3.865</gom:rel_alt></extensions></trkpt>
   <trkpt lat="59.3292039375" lon="34.6270407397"><ele>174.321</ele><time>2026-08-13T22:05:01.997Z</time><hdop>4.687</hdop><vdop>6.062</vdop><extensions><gom:speed>1.955</gom:speed><gom:course>117.44</gom:course><gom:rel_alt>4.111</gom:rel_alt></extensions></trkpt>
   <trkpt lat="59.3291896044" lon="34.6272484433"><ele>173.008</ele><time>2026-08-13T22:05:06.997Z</time><hdop>4.687</hdop><vdop>6.0</vdop><extensions><gom:speed>1.91</gom:speed><gom:course>94.005</gom:course><gom:rel_alt>3.923</gom:rel_alt></extensions></trkpt>
   <trkpt lat="59.3291751456" lon="34.6274466753"><ele>173.596</ele><time>2026-08-13T22:05:11.997Z</time><hdop>4.687</hdop><vdop>6.312</vdop><extensions><gom:speed>1.727</gom:speed><gom:course>104.635</gom:course><gom:rel_alt>3.506</gom:rel_alt></extensions></trkpt>
   <trkpt lat="59.3291529336" lon="34.6276476733"><ele>173.066</ele><time>2026-08-13T22:05:16.997Z</time><hdop>4.687</hdop><vdop>6.375</vdop><extensions><gom:speed>1.62</gom:speed><gom:course>104.509</gom:course><gom:rel_alt>3.302</gom:rel_alt></extensions></trkpt>
   <trkpt lat="59.3291288775" lon="34.6278318238"><ele>173.902</ele><time>2026-08-13T22:05:19.997Z</time><hdop>4.687</hdop><vdop>5.562</vdop><extensions><gom:speed>3.56</gom:speed><gom:course>104.058</gom:course><gom:rel_alt>3.337</gom:rel_alt></extensions></trkpt>
   <trkpt lat="59.3291057016" lon="34.6280355878"><ele>175.135</ele><time>2026-08-13T22:05:23.999Z</time><hdop>4.687</hdop><vdop>5.812</vdop><extensions><gom:speed>2.833</gom:speed><gom:course>106.184</gom:course><gom:rel_alt>3.738</gom:rel_alt></extensions></trkpt>
   <trkpt lat="59.3290931706" lon="34.6282395195"><ele>176.585</ele><time>2026-08-13T22:05:27.999Z</time><hdop>4.687</hdop><vdop>5.875</vdop><extensions><gom:speed>2.765</gom:speed><gom:course>99.109</gom:course><gom:rel_alt>3.926</gom:rel_alt></extensions></trkpt>
   <trkpt lat="59.3290812264" lon="34.6284408528"><ele>176.868</ele><time>2026-08-13T22:05:32.999Z</time><hdop>4.687</hdop><vdop>6.312</vdop><extensions><gom:speed>1.702</gom:speed><gom:course>86.161</gom:course><gom:rel_alt>3.952</gom:rel_alt></extensions></trkpt>
   <trkpt lat="59.3290705814" lon="34.6286461256"><ele>177.48</ele><time>2026-08-13T22:05:37.999Z</time><hdop>4.687</hdop><vdop>6.312</vdop><extensions><gom:speed>1.702</gom:speed><gom:course>96.016</gom:course><gom:rel_alt>3.997</gom:rel_alt></extensions></trkpt>
   <trkpt lat="59.3290449747" lon="34.6288280968"><ele>176.479</ele><time>2026-08-13T22:05:43.999Z</time><hdop>4.687</hdop><vdop>6.437</vdop><extensions><gom:speed>1.587</gom:speed><gom:course>100.85</gom:course><gom:rel_alt>4.201</gom:rel_alt></extensions></trkpt>
   <trkpt lat="59.329044346" lon="34.629006296"><ele>178.975</ele><time>2026-08-13T22:05:52.999Z</time><hdop>4.687</hdop><vdop>5.75</vdop><extensions><gom:speed>1.39</gom:speed><gom:course>113.627</gom:course><gom:rel_alt>4.407</gom:rel_alt></extensions></trkpt>
   <trkpt lat="59.3290041548" lon="34.6291916199"><ele>178.209</ele><time>2026-08-13T22:06:01.999Z</time><hdop>4.687</hdop><vdop>6.0</vdop><extensions><gom:speed>1.659</gom:speed><gom:course>110.507</gom:course><gom:rel_alt>4.412</gom:rel_alt></extensions></trkpt>
   <trkpt lat="59.3289871395" lon="34.6293942943"><ele>176.482</ele><time>2026-08-13T22:06:08.999Z</time><hdop>4.687</hdop><vdop>6.25</vdop><extensions><gom:speed>1.704</gom:speed><gom:course>99.905</gom:course><gom:rel_alt>4.217</gom:rel_alt></extensions></trkpt>
   <trkpt lat="59.3289723455" lon="34.6296071947"><ele>175.881</ele><time>2026-08-13T22:06:14.999Z</time><hdop>4.687</hdop><vdop>6.125</vdop><extensions><gom:speed>1.946</gom:speed><gom:course>96.686</gom:course></extensions></trkpt>
   <trkpt lat="59.3289672744" lon="34.6297837175"><ele>175.438</ele><time>2026-08-13T22:06:18.998Z</time><hdop>4.687</hdop><vdop>5.937</vdop><extensions><gom:speed>2.174</gom:speed><gom:course>91.94</gom:course><gom:rel_alt>4.869</gom:rel_alt></extensions></trkpt>
   <trkpt lat="59.3289639217" lon="34.6299915049"><ele>174.781</ele><time>2026-08-13T22:06:23.998Z</time><hdop>4.687</hdop><vdop>5.75</vdop><extensions><gom:speed>2.268</gom:speed><gom:course>90.248</gom:course><gom:rel_alt>4.74</gom:rel_alt></extensions></trkpt>
   <trkpt lat="59.3289761592" lon="34.6301909104"><ele>175.068</ele><time>2026-08-13T22:06:28.998Z</time><hdop>4.687</hdop><vdop>5.75</vdop><extensions><gom:speed>2.271</gom:speed><gom:course>80.283</gom:course><gom:rel_alt>4.217</gom:rel_alt></extensions></trkpt>
   <trkpt lat="59.3290051187" lon="34.6303724624"><ele>175.064</ele><time>2026-08-13T22:06:35.998Z</time><hdop>4.687</hdop><vdop>5.625</vdop><extensions><gom:speed>1.265</gom:speed><gom:course>69.835</gom:course><gom:rel_alt>3.601</gom:rel_alt></extensions></trkpt>
   <trkpt lat="59.3290571703" lon="34.6305513322"><ele>174.345</ele><time>2026-08-13T22:06:41.998Z</time><hdop>4.687</hdop><vdop>5.437</vdop><extensions><gom:speed>2.076</gom:speed><gom:course>62.507</gom:course><gom:rel_alt>3.434</gom:rel_alt></extensions></trkpt>
   <trkpt lat="59.3290584276" lon="34.6307281904"><ele>175.492</ele><time>2026-08-13T22:06:46.998Z</time><hdop>4.687</hdop><vdop>5.75</vdop><extensions><gom:speed>1.854</gom:speed><gom:course>92.083</gom:course><gom:rel_alt>3.35</gom:rel_alt></extensions></trkpt>
   <trkpt lat="59.3290559969" lon="34.6309342176"><ele>175.487</ele><time>2026-08-13T22:06:51.998Z</time><hdop>4.687</hdop><vdop>5.5</vdop><extensions><gom:speed>2.232</gom:speed><gom:course>94.961</gom:course><gom:rel_alt>3.606</gom:rel_alt></extensions></trkpt>
   <trkpt lat="59.3290364251" lon="34.6311523147"><ele>178.177</ele><time>2026-08-13T22:06:56.998Z</time><hdop>4.687</hdop><vdop>5.562</vdop><extensions><gom:speed>2.413</gom:speed><gom:course>100.021</gom:course><gom:rel_alt>3.91</gom:rel_alt></extensions></trkpt>
   <trkpt lat="59.32901195" lon="34.631352726"><ele>178.009</ele><time>2026-08-13T22:07:02.997Z</time><hdop>4.687</hdop><vdop>6.125</vdop><extensions><gom:speed>1.111</gom:speed><gom:course>104.91</gom:course><gom:rel_alt>4.24</gom:rel_alt></extensions></trkpt>
   <trkpt lat="59.3289992514" lon="34.6315489464"><ele>177.753</ele><time>2026-08-13T22:07:07.997Z</time><hdop>4.687</hdop><vdop>6.062</vdop><extensions><gom:speed>1.143</gom:speed><gom:course>106.508</gom:course><gom:rel_alt>3.981</gom:rel_alt></extensions></trkpt>
   <trkpt lat="59.3289801406" lon="34.6317253016"><ele>177.323</ele><time>2026-08-13T22:07:11.997Z</time><hdop>4.687</hdop><vdop>5.562</vdop><extensions><gom:speed>2.49</gom:speed><gom:course>102.855</gom:course><gom:rel_alt>3.593</gom:rel_alt></extensions></trkpt>
   <trkpt lat="59.3289551207" lon="34.631940046"><ele>177.503</ele><time>2026-08-13T22:07:16.997Z</time><hdop>4.687</hdop><vdop>5.312</vdop><extensions><gom:speed>2.151</gom:speed><gom:course>101.789</gom:course><gom:rel_alt>3.213</gom:rel_alt></extensions></trkpt>
   <trkpt lat="59.3289432184" lon="34.6321267109"><ele>176.404</ele><time>2026-08-13T22:07:23.997Z</time><hdop>4.687</hdop><vdop>5.5</vdop><extensions><gom:speed>1.343</gom:speed><gom:course>82.964</gom:course><gom:rel_alt>3.059</gom:rel_alt></extensions></trkpt>
   <trkpt lat="59.3289488761" lon="34.6323134597"><ele>176.405</ele><time>2026-08-13T22:07:29.999Z</time><hdop>4.687</hdop><vdop>5.812</vdop><extensions><gom:speed>1.199</gom:speed><gom:course>90.671</gom:course><gom:rel_alt>2.597</gom:rel_alt></extensions></trkpt>
   <trkpt lat="59.3289547854" lon="34.6325293776"><ele>176.975</ele><time>2026-08-13T22:07:34.999Z</time><hdop>4.687</hdop><vdop>5.437</vdop><extensions><gom:speed>2.955</gom:speed><gom:course>88.6</gom:course><gom:rel_alt>2.533</gom:rel_alt></extensions></trkpt>
   <trkpt lat="59.3289521451" lon="34.6327317167"><ele>178.112</ele><time>2026-08-13T22:07:39.999Z</time><hdop>4.687</hdop><vdop>5.312</vdop><extensions><gom:speed>2.394</gom:speed><gom:course>89.737</gom:course></extensions></trkpt>
   <trkpt lat="59.3289455234" lon="34.6329083234"><ele>177.43</ele><time>2026-08-13T22:07:43.999Z</time><hdop>4.687</hdop><vdop>5.437</vdop><extensions><gom:speed>2.157</gom:speed><gom:course>92.665</gom:course><gom:rel_alt>3.548</gom:rel_alt></extensions></trkpt>
   <trkpt lat="59.3289152647" lon="34.6330948208"><ele>175.33</ele><time>2026-08-13T22:07:47.999Z</time><hdop>4.687</hdop><vdop>5.5</vdop><extensions><gom:speed>2.454</gom:speed><gom:course>105.426</gom:course><gom:rel_alt>3.741</gom:rel_alt></extensions></trkpt>
   <trkpt lat="59.328888275" lon="34.6332731038"><ele>174.07</ele><time>2026-08-13T22:07:51.999Z</time><hdop>4.687</hdop><vdop>5.312</vdop><extensions><gom:speed>2.416</gom:speed><gom:course>110.183</gom:course><gom:rel_alt>3.857</gom:rel_alt></extensions></trkpt>
   <trkpt lat="59.3288452758" lon="34.633472174"><ele>172.706</ele><time>2026-08-13T22:07:55.999Z</time><hdop>4.687</hdop><vdop>5.25</vdop><extensions><gom:speed>3.016</gom:speed><gom:course>112.485</gom:course><gom:rel_alt>3.688</gom:rel_alt></extensions></trkpt>
   <trkpt lat="59.3288107843" lon="34.6336830627"><ele>173.148</ele><time>2026-08-13T22:08:00.999Z</time><hdop>4.687</hdop><vdop>5.812</vdop><extensions><gom:speed>1.524</gom:speed><gom:course>107.772</gom:course><gom:rel_alt>3.765</gom:rel_alt></extensions></trkpt>
   <trkpt lat="59.3287860996" lon="34.6338538859"><ele>171.491</ele><time>2026-08-13T22:08:04.999Z</time><hdop>4.687</hdop><vdop>5.812</vdop><extensions><gom:speed>1.581</gom:speed><gom:course>101.652</gom:course><gom:rel_alt>3.519</gom:rel_alt></extensions></trkpt>
   <trkpt lat="59.3287653544" lon="34.634049771"><ele>171.121</ele><time>2026-08-13T22:08:07.999Z</time><hdop>4.687</hdop><vdop>5.187</vdop><extensions><gom:speed>2.949</gom:speed><gom:course>97.45</gom:course><gom:rel_alt>3.041</gom:rel_alt></extensions></trkpt>
   <trkpt lat="59.3287406278" lon="34.6342606597"><ele>169.883</ele><time>2026-08-13T22:08:13.999Z</time><hdop>4.687</hdop><vdop>5.312</vdop><extensions><gom:speed>2.018</gom:speed><gom:course>100.768</gom:course><gom:rel_alt>2.478</gom:rel_alt></extensions></trkpt>
   <trkpt lat="59.3287199664" lon="34.6344423793"><ele>170.162</ele><time>2026-08-13T22:08:17.999Z</time><hdop>4.687</hdop><vdop>5.312</vdop><extensions><gom:speed>2.553</gom:speed><gom:course>103.624</gom:course><gom:rel_alt>2.47</gom:rel_alt></extensions></trkpt>
   <trkpt lat="59.3286861873" lon="34.6346482389"><ele>170.695</ele><time>2026-08-13T22:08:21.999Z</time><hdop>4.687</hdop><vdop>5.25</vdop><extensions><gom:speed>2.906</gom:speed><gom:course>107.387</gom:course><gom:rel_alt>2.998</gom:rel_alt></extensions></trkpt>
   <trkpt lat="59.3286615445" lon="34.6348710299"><ele>170.331</ele><time>2026-08-13T22:08:25.998Z</time><hdop>4.687</hdop><vdop>5.187</vdop><extensions><gom:speed>3.337</gom:speed><gom:course>103.558</gom:course><gom:rel_alt>3.453</gom:rel_alt></extensions></trkpt>
   <trkpt lat="59.3286260471" lon="34.6350716088"><ele>169.426</ele><time>2026-08-13T22:08:29.998Z</time><hdop>4.687</hdop><vdop>5.25</vdop><extensions><gom:speed>2.987</gom:speed><gom:course>105.124</gom:course><gom:rel_alt>3.247</gom:rel_alt></extensions></trkpt>
   <trkpt lat="59.3285962914" lon="34.6352563459"><ele>168.595</ele><time>2026-08-13T22:08:33.998Z</time><hdop>4.687</hdop><vdop>5.312</vdop><extensions><gom:speed>2.789</gom:speed><gom:course>108.326</gom:course><gom:rel_alt>2.742</gom:rel_alt></extensions></trkpt>
   <trkpt lat="59.3285859817" lon="34.6354342099"><ele>169.043</ele><time>2026-08-13T22:08:37.998Z</time><hdop>4.687</hdop><vdop>5.312</vdop><extensions><gom:speed>2.624</gom:speed><gom:course>98.713</gom:course><gom:rel_alt>2.1</gom:rel_alt></extensions></trkpt>
   <trkpt lat="59.3285575251" lon="34.6356466912"><ele>167.979</ele><time>2026-08-13T22:08:42.998Z</time><hdop>4.687</hdop><vdop>5.625</vdop><extensions><gom:speed>2.597</gom:speed><gom:course>104.366</gom:course><gom:rel_alt>2.113</gom:rel_alt></extensions></trkpt>
   <trkpt lat="59.3285407613" lon="34.6358339429"><ele>169.282</ele><time>2026-08-13T22:08:47.998Z</time><hdop>4.687</hdop><vdop>5.125</vdop><extensions><gom:speed>1.656</gom:speed><gom:course>97.137</gom:course><gom:rel_alt>1.907</gom:rel_alt></extensions></trkpt>
   <trkpt lat="59.3285318346" lon="34.6360133156"><ele>168.422</ele><time>2026-08-13T22:08:52.998Z</time><hdop>4.687</hdop><vdop>5.437</vdop><extensions><gom:speed>1.914</gom:speed><gom:course>93.138</gom:course><gom:rel_alt>1.87</gom:rel_alt></extensions></trkpt>
   <trkpt lat="59.3285269731" lon="34.6361930236"><ele>168.534</ele><time>2026-08-13T22:08:57.998Z</time><hdop>4.687</hdop><vdop>5.437</vdop><extensions><gom:speed>1.756</gom:speed><gom:course>89.605</gom:course><gom:rel_alt>2.037</gom:rel_alt></extensions></trkpt>
   <trkpt lat="59.3285127657" lon="34.6364169043"><ele>168.92</ele><time>2026-08-13T22:09:02.998Z</time><hdop>4.687</hdop><vdop>5.562</vdop><extensions><gom:speed>2.634</gom:speed><gom:course>96.34</gom:course><gom:rel_alt>1.918</gom:rel_alt></extensions></trkpt>
   <trkpt lat="59.3284791962" lon="34.6366064191"><ele>169.934</ele><time>2026-08-13T22:09:06.998Z</time><hdop>4.687</hdop><vdop>5.625</vdop><extensions><gom:speed>2.879</gom:speed><gom:course>109.694</gom:course><gom:rel_alt>1.886</gom:rel_alt></extensions></trkpt>
   <trkpt lat="59.3284636059" lon="34.6367946766"><ele>170.26</ele><time>2026-08-13T22:09:10.997Z</time><hdop>4.687</hdop><vdop>5.437</vdop><extensions><gom:speed>2.592</gom:speed><gom:course>100.52</gom:course><gom:rel_alt>2.09</gom:rel_alt></extensions></trkpt>
   <trkpt lat="59.3284375381" lon="34.6370000333"><ele>170.924</ele><time>2026-08-13T22:09:14.997Z</time><hdop>4.687</hdop><vdop>5.5</vdop><extensions><gom:speed>2.965</gom:speed><gom:course>107.464</gom:course><gom:rel_alt>2.169</gom:rel_alt></extensions></trkpt>
   <trkpt lat="59.3284097102" lon="34.6371865306"><ele>171.729</ele><time>2026-08-13T22:09:18.997Z</time><hdop>4.687</hdop><vdop>5.625</vdop><extensions><gom:speed>2.908</gom:speed><gom:course>104.937</gom:course><gom:rel_alt>2.697</gom:rel_alt></extensions></trkpt>
   <trkpt lat="59.3283908929" lon="34.6373691723"><ele>170.63</ele><time>2026-08-13T22:09:22.997Z</time><hdop>4.687</hdop><vdop>5.812</vdop><extensions><gom:speed>3.089</gom:speed><gom:course>100.905</gom:course><gom:rel_alt>2.7</gom:rel_alt></extensions></trkpt>
   <trkpt lat="59.3283631488" lon="34.6375732716"><ele>170.924</ele><time>2026-08-13T22:09:27.997Z</time><hdop>4.687</hdop><vdop>6.0</vdop><extensions><gom:speed>1.835</gom:speed><gom:course>96.944</gom:course><gom:rel_alt>2.253</gom:rel_alt></extensions></trkpt>
   <trkpt lat="59.3283550183" lon="34.6377494592"><ele>170.333</ele><time>2026-08-13T22:09:31.997Z</time><hdop>4.687</hdop><vdop>6.312</vdop><extensions><gom:speed>1.756</gom:speed><gom:course>93.05</gom:course><gom:rel_alt>1.833</gom:rel_alt></extensions></trkpt>
   <trkpt lat="59.3283640289" lon="34.6379663829"><ele>170.333</ele><time>2026-08-13T22:09:37.000Z</time><hdop>4.687</hdop><vdop>6.375</vdop><extensions><gom:speed>1.783</gom:speed><gom:course>91.643</gom:course><gom:rel_alt>1.833</gom:rel_alt></extensions></trkpt>
   <trkpt lat="59.3283589997" lon="34.638145588"><ele>170.469</ele><time>2026-08-13T22:09:41.000Z</time><hdop>4.687</hdop><vdop>6.312</vdop><extensions><gom:speed>1.727</gom:speed><gom:course>93.945</gom:course><gom:rel_alt>2.084</gom:rel_alt></extensions></trkpt>
   <trkpt lat="59.3283689742" lon="34.6383287326"><ele>169.628</ele><time>2026-08-13T22:09:45.000Z</time><hdop>4.687</hdop><vdop>6.0</vdop><extensions><gom:speed>1.811</gom:speed><gom:course>83.041</gom:course><gom:rel_alt>2.1</gom:rel_alt></extensions></trkpt>
   <trkpt lat="59.3283679264" lon="34.6385141403"><ele>169.962</ele><time>2026-08-13T22:09:48.999Z</time><hdop>4.687</hdop><vdop>5.875</vdop><extensions><gom:speed>1.753</gom:speed><gom:course>93.236</gom:course><gom:rel_alt>1.955</gom:rel_alt></extensions></trkpt>
   <trkpt lat="59.3283598798" lon="34.6387039904"><ele>170.079</ele><time>2026-08-13T22:09:52.999Z</time><hdop>4.687</hdop><vdop>5.25</vdop><extensions><gom:speed>2.088</gom:speed><gom:course>94.099</gom:course><gom:rel_alt>1.759</gom:rel_alt></extensions></trkpt>
   <trkpt lat="59.32833662" lon="34.6388748135"><ele>170.275</ele><time>2026-08-13T22:09:56.999Z</time><hdop>4.687</hdop><vdop>5.312</vdop><extensions><gom:speed>2.37</gom:speed><gom:course>106.519</gom:course></extensions></trkpt>
   <trkpt lat="59.3282977699" lon="34.6390644122"><ele>170.257</ele><time>2026-08-13T22:10:01.999Z</time><hdop>4.687</hdop><vdop>5.375</vdop><extensions><gom:speed>2.159</gom:speed><gom:course>122.96</gom:course><gom:rel_alt>1.72</gom:rel_alt></extensions></trkpt>
   <trkpt lat="59.3282491968" lon="34.6392492332"><ele>169.404</ele><time>2026-08-13T22:10:06.999Z</time><hdop>4.687</hdop><vdop>5.25</vdop><extensions><gom:speed>2.244</gom:speed><gom:course>118.72</gom:course><gom:rel_alt>1.521</gom:rel_alt></extensions></trkpt>
   <trkpt lat="59.3282095923" lon="34.63946096"><ele>169.1</ele><time>2026-08-13T22:10:11.999Z</time><hdop>4.687</hdop><vdop>5.375</vdop><extensions><gom:speed>2.666</gom:speed><gom:course>105.393</gom:course></extensions></trkpt>
   <trkpt lat="59.3281724185" lon="34.6396443561"><ele>169.462</ele><time>2026-08-13T22:10:16.999Z</time><hdop>4.687</hdop><vdop>5.5</vdop><extensions><gom:speed>1.75</gom:speed><gom:course>113.622</gom:course><gom:rel_alt>1.548</gom:rel_alt></extensions></trkpt>
   <trkpt lat="59.3281312634" lon="34.6398353797"><ele>170.086</ele><time>2026-08-13T22:10:21.999Z</time><hdop>4.687</hdop><vdop>5.562</vdop><extensions><gom:speed>1.826</gom:speed><gom:course>113.018</gom:course><gom:rel_alt>1.297</gom:rel_alt></extensions></trkpt>
   <trkpt lat="59.3281033098" lon="34.6400295883"><ele>170.447</ele><time>2026-08-13T22:10:26.999Z</time><hdop>4.687</hdop><vdop>5.5</vdop><extensions><gom:speed>2.134</gom:speed><gom:course>108.343</gom:course><gom:rel_alt>1.387</gom:rel_alt></extensions></trkpt>
   <trkpt lat="59.3280577122" lon="34.6401987352"><ele>169.814</ele><time>2026-08-13T22:10:31.998Z</time><hdop>4.687</hdop><vdop>5.687</vdop><extensions><gom:speed>1.599</gom:speed><gom:course>114.726</gom:course><gom:rel_alt>1.408</gom:rel_alt></extensions></trkpt>
   <trkpt lat="59.3280138748" lon="34.6403614279"><ele>169.51</ele><time>2026-08-13T22:10:35.998Z</time><hdop>4.687</hdop><vdop>5.437</vdop><extensions><gom:speed>2.58</gom:speed><gom:course>115.358</gom:course><gom:rel_alt>1.371</gom:rel_alt></extensions></trkpt>
   <trkpt lat="59.3279616137" lon="34.6405214384"><ele>168.544</ele><time>2026-08-13T22:10:40.998Z</time><hdop>4.687</hdop><vdop>5.375</vdop><extensions><gom:speed>1.274</gom:speed><gom:course>116.445</gom:course><gom:rel_alt>1.442</gom:rel_alt></extensions></trkpt>
   <trkpt lat="59.327906335" lon="34.6406773418"><ele>168.155</ele><time>2026-08-13T22:10:44.998Z</time><hdop>4.687</hdop><vdop>5.437</vdop><extensions><gom:speed>1.664</gom:speed><gom:course>120.939</gom:course><gom:rel_alt>1.535</gom:rel_alt></extensions></trkpt>
   <trkpt lat="59.327853529" lon="34.6408230193"><ele>167.955</ele><time>2026-08-13T22:10:48.998Z</time><hdop>4.687</hdop><vdop>5.687</vdop><extensions><gom:speed>1.614</gom:speed><gom:course>122.741</gom:course><gom:rel_alt>1.529</gom:rel_alt></extensions></trkpt>
   <trkpt lat="59.3277888207" lon="34.6410008833"><ele>168.466</ele><time>2026-08-13T22:10:53.998Z</time><hdop>4.687</hdop><vdop>5.937</vdop><extensions><gom:speed>1.674</gom:speed><gom:course>130.986</gom:course><gom:rel_alt>1.643</gom:rel_alt></extensions></trkpt>
   <trkpt lat="59.3277324525" lon="34.641138095"><ele>168.628</ele><time>2026-08-13T22:10:57.998Z</time><hdop>4.687</hdop><vdop>6.0</vdop><extensions><gom:speed>1.672</gom:speed><gom:course>132.447</gom:course><gom:rel_alt>1.78</gom:rel_alt></extensions></trkpt>
   <trkpt lat="59.3276612063" lon="34.6412679307"><ele>168.206</ele><time>2026-08-13T22:11:01.998Z</time><hdop>4.687</hdop><vdop>6.062</vdop><extensions><gom:speed>1.633</gom:speed><gom:course>136.463</gom:course><gom:rel_alt>1.738</gom:rel_alt></extensions></trkpt>
   <trkpt lat="59.3275535407" lon="34.6413735427"><ele>166.997</ele><time>2026-08-13T22:11:05.998Z</time><hdop>4.687</hdop><vdop>5.25</vdop><extensions><gom:speed>3.18</gom:speed><gom:course>156.271</gom:course><gom:rel_alt>1.926</gom:rel_alt></extensions></trkpt>
   <trkpt lat="59.3274551791" lon="34.6414420229"><ele>168.085</ele><time>2026-08-13T22:11:10.997Z</time><hdop>4.687</hdop><vdop>6.062</vdop><extensions><gom:speed>1.506</gom:speed><gom:course>160.26</gom:course><gom:rel_alt>1.965</gom:rel_alt></extensions></trkpt>
   <trkpt lat="59.3273687198" lon="34.6415372413"><ele>168.321</ele><time>2026-08-13T22:11:14.997Z</time><hdop>4.687</hdop><vdop>5.937</vdop><extensions><gom:speed>1.991</gom:speed><gom:course>148.938</gom:course><gom:rel_alt>2.023</gom:rel_alt></extensions></trkpt>
   <trkpt lat="59.3272986051" lon="34.6416664902"><ele>169.85</ele><time>2026-08-13T22:11:18.997Z</time><hdop>4.687</hdop><vdop>6.125</vdop><extensions><gom:speed>1.59</gom:speed><gom:course>130.623</gom:course></extensions></trkpt>
   <trkpt lat="59.3272349027" lon="34.6418255787"><ele>170.626</ele><time>2026-08-13T22:11:22.997Z</time><hdop>4.687</hdop><vdop>6.375</vdop><extensions><gom:speed>1.609</gom:speed><gom:course>130.305</gom:course><gom:rel_alt>2.185</gom:rel_alt></extensions></trkpt>
   <trkpt lat="59.3271636146" lon="34.6419777103"><ele>171.921</ele><time>2026-08-13T22:11:26.997Z</time><hdop>4.687</hdop><vdop>6.5</vdop><extensions><gom:speed>1.633</gom:speed><gom:course>125.96</gom:course><gom:rel_alt>2.438</gom:rel_alt></extensions></trkpt>
   <trkpt lat="59.3270932066" lon="34.6421134133"><ele>172.257</ele><time>2026-08-13T22:11:30.997Z</time><hdop>4.687</hdop><vdop>6.562</vdop><extensions><gom:speed>1.625</gom:speed><gom:course>134.397</gom:course><gom:rel_alt>2.607</gom:rel_alt></extensions></trkpt>
   <trkpt lat="59.327019865" lon="34.642259426"><ele>172.756</ele><time>2026-08-13T22:11:34.997Z</time><hdop>4.687</hdop><vdop>6.687</vdop><extensions><gom:speed>1.599</gom:speed><gom:course>125.965</gom:course><gom:rel_alt>2.467</gom:rel_alt></extensions></trkpt>
   <trkpt lat="59.3269439249" lon="34.642452126"><ele>173.017</ele><time>2026-08-13T22:11:38.997Z</time><hdop>4.687</hdop><vdop>6.062</vdop><extensions><gom:speed>3.526</gom:speed><gom:course>125.18</gom:course><gom:rel_alt>2.348</gom:rel_alt></extensions></trkpt>
   <trkpt lat="59.3268848325" lon="34.6426476758"><ele>174.474</ele><time>2026-08-13T22:11:42.999Z</time><hdop>4.687</hdop><vdop>5.875</vdop><extensions><gom:speed>3.269</gom:speed><gom:course>119.873</gom:course><gom:rel_alt>1.984</gom:rel_alt></extensions></trkpt>
   <trkpt lat="59.3268635005" lon="34.6428522781"><ele>175.127</ele><time>2026-08-13T22:11:46.999Z</time><hdop>4.687</hdop><vdop>5.875</vdop><extensions><gom:speed>3.019</gom:speed><gom:course>95.56</gom:course><gom:rel_alt>2.298</gom:rel_alt></extensions></trkpt>
   <trkpt lat="59.3268422524" lon="34.6430267055"><ele>175.593</ele><time>2026-08-13T22:11:49.999Z</time><hdop>4.687</hdop><vdop>5.937</vdop><extensions><gom:speed>3.042</gom:speed><gom:course>101.537</gom:course><gom:rel_alt>2.459</gom:rel_alt></extensions></trkpt>
   <trkpt lat="59.3268309788" lon="34.6432281226"><ele>175.948</ele><time>2026-08-13T22:11:53.999Z</time><hdop>4.687</hdop><vdop>5.937</vdop><extensions><gom:speed>2.417</gom:speed><gom:course>97.351</gom:course><gom:rel_alt>2.206</gom:rel_alt></extensions></trkpt>
   <trkpt lat="59.3268241475" lon="34.6434258517"><ele>176.354</ele><time>2026-08-13T22:11:57.999Z</time><hdop>4.687</hdop><vdop>6.0</vdop><extensions><gom:speed>2.458</gom:speed><gom:course>94.593</gom:course><gom:rel_alt>1.582</gom:rel_alt></extensions></trkpt>
   <trkpt lat="59.326811407" lon="34.6436342258"><ele>176.397</ele><time>2026-08-13T22:12:01.999Z</time><hdop>4.687</hdop><vdop>5.812</vdop><extensions><gom:speed>2.77</gom:speed><gom:course>94.654</gom:course><gom:rel_alt>1.545</gom:rel_alt></extensions></trkpt>
   <trkpt lat="59.3267773765" lon="34.6438400015"><ele>176.748</ele><time>2026-08-13T22:12:05.999Z</time><hdop>4.687</hdop><vdop>5.812</vdop><extensions><gom:speed>2.7</gom:speed><gom:course>105.569</gom:course><gom:rel_alt>1.625</gom:rel_alt></extensions></trkpt>
   <trkpt lat="59.326754913" lon="34.6440344617"><ele>177.041</ele><time>2026-08-13T22:12:09.999Z</time><hdop>4.687</hdop><vdop>6.312</vdop><extensions><gom:speed>1.784</gom:speed><gom:course>106.459</gom:course></extensions></trkpt>
   <trkpt lat="59.3267138417" lon="34.644257085"><ele>177.943</ele><time>2026-08-13T22:12:13.999Z</time><hdop>4.687</hdop><vdop>6.187</vdop><extensions><gom:speed>3.176</gom:speed><gom:course>112.034</gom:course><gom:rel_alt>2.473</gom:rel_alt></extensions></trkpt>
   <trkpt lat="59.3266750754" lon="34.6444398943"><ele>176.923</ele><time>2026-08-13T22:12:16.999Z</time><hdop>4.687</hdop><vdop>5.687</vdop><extensions><gom:speed>3.138</gom:speed><gom:course>113.984</gom:course><gom:rel_alt>2.697</gom:rel_alt></extensions></trkpt>
   <trkpt lat="59.3266220598" lon="34.6446038444"><ele>177.251</ele><time>2026-08-13T22:12:20.999Z</time><hdop>4.687</hdop><vdop>5.687</vdop><extensions><gom:speed>2.544</gom:speed><gom:course>124.301</gom:course><gom:rel_alt>2.108</gom:rel_alt></extensions></trkpt>
   <trkpt lat="59.3265680385" lon="34.6447492704"><ele>177.577</ele><time>2026-08-13T22:12:25.999Z</time><hdop>4.687</hdop><vdop>5.75</vdop><extensions><gom:speed>1.463</gom:speed><gom:course>127.91</gom:course><gom:rel_alt>2.108</gom:rel_alt></extensions></trkpt>
   <trkpt lat="59.3265320801" lon="34.6449286431"><ele>176.472</ele><time>2026-08-13T22:12:31.999Z</time><hdop>4.687</hdop><vdop>5.75</vdop><extensions><gom:speed>2.101</gom:speed><gom:course>106.14</gom:course><gom:rel_alt>2.063</gom:rel_alt></extensions></trkpt>
   <trkpt lat="59.3264784359" lon="34.6450941019"><ele>175.167</ele><time>2026-08-13T22:12:35.998Z</time><hdop>4.687</hdop><vdop>5.625</vdop><extensions><gom:speed>2.967</gom:speed><gom:course>127.547</gom:course><gom:rel_alt>2.034</gom:rel_alt></extensions></trkpt>
   <trkpt lat="59.3264275159" lon="34.645261237"><ele>176.083</ele><time>2026-08-13T22:12:39.998Z</time><hdop>4.687</hdop><vdop>5.625</vdop><extensions><gom:speed>2.97</gom:speed><gom:course>124.735</gom:course><gom:rel_alt>2.481</gom:rel_alt></extensions></trkpt>
   <trkpt lat="59.3263721953" lon="34.6454195712"><ele>175.514</ele><time>2026-08-13T22:12:43.998Z</time><hdop>4.687</hdop><vdop>5.75</vdop><extensions><gom:speed>2.56</gom:speed><gom:course>123.323</gom:course></extensions></trkpt>
   <trkpt lat="59.326299608" lon="34.6456128579"><ele>176.955</ele><time>2026-08-13T22:12:48.998Z</time><hdop>4.687</hdop><vdop>6.0</vdop><extensions><gom:speed>2.853</gom:speed><gom:course>122.334</gom:course><gom:rel_alt>2.124</gom:rel_alt></extensions></trkpt>
   <trkpt lat="59.3262397193" lon="34.6458046358"><ele>175.781</ele><time>2026-08-13T22:12:53.998Z</time><hdop>4.687</hdop><vdop>6.062</vdop><extensions><gom:speed>2.485</gom:speed><gom:course>118.159</gom:course><gom:rel_alt>2.637</gom:rel_alt></extensions></trkpt>
   <trkpt lat="59.3261878772" lon="34.6459983416"><ele>176.958</ele><time>2026-08-13T22:12:57.998Z</time><hdop>4.687</hdop><vdop>5.75</vdop><extensions><gom:speed>2.608</gom:speed><gom:course>112.6</gom:course><gom:rel_alt>3.247</gom:rel_alt></extensions></trkpt>
   <trkpt lat="59.3261413577" lon="34.6461771276"><ele>177.454</ele><time>2026-08-13T22:13:02.998Z</time><hdop>4.687</hdop><vdop>5.875</vdop><extensions><gom:speed>1.784</gom:speed><gom:course>117.599</gom:course><gom:rel_alt>3.524</gom:rel_alt></extensions></trkpt>
   <trkpt lat="59.3261142422" lon="34.6463527285"><ele>179.538</ele><time>2026-08-13T22:13:07.998Z</time><hdop>4.687</hdop><vdop>5.875</vdop><extensions><gom:speed>1.902</gom:speed><gom:course>114.44</gom:course><gom:rel_alt>3.477</gom:rel_alt></extensions></trkpt>
   <trkpt lat="59.3260463069" lon="34.6465113979"><ele>180.119</ele><time>2026-08-13T22:13:12.998Z</time><hdop>4.687</hdop><vdop>5.937</vdop><extensions><gom:speed>2.172</gom:speed><gom:course>135.37</gom:course><gom:rel_alt>3.244</gom:rel_alt></extensions></trkpt>
   <trkpt lat="59.3260011284" lon="34.6466740068"><ele>180.426</ele><time>2026-08-13T22:13:16.998Z</time><hdop>4.687</hdop><vdop>6.062</vdop><extensions><gom:speed>2.368</gom:speed><gom:course>121.224</gom:course><gom:rel_alt>3.318</gom:rel_alt></extensions></trkpt>
   <trkpt lat="59.3259440896" lon="34.6468141522"><ele>179.489</ele><time>2026-08-13T22:13:20.997Z</time><hdop>4.687</hdop><vdop>6.0</vdop><extensions><gom:speed>2.394</gom:speed><gom:course>125.817</gom:course><gom:rel_alt>3.131</gom:rel_alt></extensions></trkpt>
   <trkpt lat="59.3258854582" lon="34.6469917648"><ele>179.597</ele><time>2026-08-13T22:13:25.997Z</time><hdop>4.687</hdop><vdop>6.062</vdop><extensions><gom:speed>2.279</gom:speed><gom:course>129.558</gom:course><gom:rel_alt>3.094</gom:rel_alt></extensions></trkpt>
   <trkpt lat="59.3258357116" lon="34.6471693773"><ele>177.115</ele><time>2026-08-13T22:13:31.997Z</time><hdop>4.687</hdop><vdop>6.187</vdop><extensions><gom:speed>1.757</gom:speed><gom:course>127.454</gom:course><gom:rel_alt>2.829</gom:rel_alt></extensions></trkpt>
   <trkpt lat="59.3257835761" lon="34.6473146357"><ele>176.619</ele><time>2026-08-13T22:13:36.997Z</time><hdop>4.687</hdop><vdop>6.125</vdop><extensions><gom:speed>1.788</gom:speed><gom:course>122.796</gom:course><gom:rel_alt>2.441</gom:rel_alt></extensions></trkpt>
   <trkpt lat="59.3257327399" lon="34.6474855427"><ele>176.99</ele><time>2026-08-13T22:13:41.997Z</time><hdop>4.687</hdop><vdop>5.937</vdop><extensions><gom:speed>1.919</gom:speed><gom:course>127.805</gom:course><gom:rel_alt>2.539</gom:rel_alt></extensions></trkpt>
   <trkpt lat="59.3256760782" lon="34.6476479001"><ele>176.245</ele><time>2026-08-13T22:13:46.999Z</time><hdop>4.687</hdop><vdop>5.625</vdop><extensions><gom:speed>2.109</gom:speed><gom:course>136.161</gom:course><gom:rel_alt>2.713</gom:rel_alt></extensions></trkpt>
   <trkpt lat="59.3256251163" lon="34.6478209026"><ele>174.46</ele><time>2026-08-13T22:13:51.999Z</time><hdop>4.687</hdop><vdop>5.562</vdop><extensions><gom:speed>2.579</gom:speed><gom:course>119.357</gom:course><gom:rel_alt>2.795</gom:rel_alt></extensions></trkpt>
   <trkpt lat="59.3255758726" lon="34.6480011135"><ele>174.579</ele><time>2026-08-13T22:13:57.999Z</time><hdop>4.687</hdop><vdop>5.75</vdop><extensions><gom:speed>2.056</gom:speed><gom:course>120.928</gom:course><gom:rel_alt>2.512</gom:rel_alt></extensions></trkpt>
   <trkpt lat="59.3255231504" lon="34.6481504791"><ele>172.701</ele><time>2026-08-13T22:14:02.999Z</time><hdop>4.687</hdop><vdop>6.562</vdop><extensions><gom:speed>1.63</gom:speed><gom:course>124.147</gom:course><gom:rel_alt>2.224</gom:rel_alt></extensions></trkpt>
   <trkpt lat="59.3254582326" lon="34.6483133394"><ele>172.269</ele><time>2026-08-13T22:14:07.999Z</time><hdop>4.687</hdop><vdop>6.062</vdop><extensions><gom:speed>1.964</gom:speed><gom:course>129.47</gom:course></extensions></trkpt>
   <trkpt lat="59.3253841785" lon="34.6484386489"><ele>171.599</ele><time>2026-08-13T22:14:12.999Z</time><hdop>4.687</hdop><vdop>6.0</vdop><extensions><gom:speed>2.243</gom:speed><gom:course>141.181</gom:course><gom:rel_alt>1.085</gom:rel_alt></extensions></trkpt>
   <trkpt lat="59.3252926062" lon="34.6485444285"><ele>169.684</ele><time>2026-08-13T22:14:17.999Z</time><hdop>4.687</hdop><vdop>4.937</vdop><extensions><gom:speed>2.122</gom:speed><gom:course>157.332</gom:course><gom:rel_alt>1.022</gom:rel_alt></extensions></trkpt>
   <trkpt lat="59.3252032132" lon="34.6486599311"><ele>170.043</ele><time>2026-08-13T22:14:22.999Z</time><hdop>4.687</hdop><vdop>5.812</vdop><extensions><gom:speed>2.04</gom:speed><gom:course>144.944</gom:course><gom:rel_alt>0.552</gom:rel_alt></extensions></trkpt>
   <trkpt lat="59.3251279856" lon="34.6487580832"><ele>169.727</ele><time>2026-08-13T22:14:27.999Z</time><hdop>4.687</hdop><vdop>4.812</vdop><extensions><gom:speed>2.096</gom:speed><gom:course>146.647</gom:course><gom:rel_alt>0.277</gom:rel_alt></extensions></trkpt>
   <trkpt lat="59.3250554402" lon="34.6488876674"><ele>170.305</ele><time>2026-08-13T22:14:31.999Z</time><hdop>4.687</hdop><vdop>5.125</vdop><extensions><gom:speed>2.304</gom:speed><gom:course>138.133</gom:course><gom:rel_alt>0.327</gom:rel_alt></extensions></trkpt>
   <trkpt lat="59.3249683103" lon="34.649035608"><ele>169.795</ele><time>2026-08-13T22:14:36.999Z</time><hdop>4.687</hdop><vdop>5.0</vdop><extensions><gom:speed>2.442</gom:speed><gom:course>141.868</gom:course><gom:rel_alt>0.322</gom:rel_alt></extensions></trkpt>
   <trkpt lat="59.3248944239" lon="34.6491686288"><ele>169.948</ele><time>2026-08-13T22:14:41.998Z</time><hdop>4.687</hdop><vdop>4.625</vdop><extensions><gom:speed>1.936</gom:speed><gom:course>142.912</gom:course></extensions></trkpt>
   <trkpt lat="59.3248358344" lon="34.6493203413"><ele>170.593</ele><time>2026-08-13T22:14:46.998Z</time><hdop>4.687</hdop><vdop>5.125</vdop><extensions><gom:speed>1.493</gom:speed><gom:course>131.035</gom:course><gom:rel_alt>0.229</gom:rel_alt></extensions></trkpt>
   <trkpt lat="59.3247730958" lon="34.649452021"><ele>170.083</ele><time>2026-08-13T22:14:51.998Z</time><hdop>4.687</hdop><vdop>6.0</vdop><extensions><gom:speed>1.429</gom:speed><gom:course>123.125</gom:course><gom:rel_alt>0.295</gom:rel_alt></extensions></trkpt>
   <trkpt lat="59.3247217147" lon="34.6495991234"><ele>171.526</ele><time>2026-08-13T22:14:56.998Z</time><hdop>4.687</hdop><vdop>6.062</vdop><extensions><gom:speed>1.591</gom:speed><gom:course>126.795</gom:course><gom:rel_alt>0.103</gom:rel_alt></extensions></trkpt>
   <trkpt lat="59.3246610717" lon="34.6497378439"><ele>172.312</ele><time>2026-08-13T22:15:01.998Z</time><hdop>4.687</hdop><vdop>5.875</vdop><extensions><gom:speed>1.964</gom:speed><gom:course>128.124</gom:course><gom:rel_alt>0.261</gom:rel_alt></extensions></trkpt>
   <trkpt lat="59.3245878557" lon="34.6498474792"><ele>173.109</ele><time>2026-08-13T22:15:06.998Z</time><hdop>4.687</hdop><vdop>6.562</vdop><extensions><gom:speed>1.512</gom:speed><gom:course>143.802</gom:course><gom:rel_alt>0.768</gom:rel_alt></extensions></trkpt>
   <trkpt lat="59.3245177411" lon="34.6499583718"><ele>173.719</ele><time>2026-08-13T22:15:11.998Z</time><hdop>4.687</hdop><vdop>6.5</vdop><extensions><gom:speed>1.563</gom:speed><gom:course>139.88</gom:course><gom:rel_alt>0.837</gom:rel_alt></extensions></trkpt>
   <trkpt lat="59.3244533681" lon="34.6500977628"><ele>174.371</ele><time>2026-08-13T22:15:16.998Z</time><hdop>4.687</hdop><vdop>5.437</vdop><extensions><gom:speed>1.68</gom:speed><gom:course>118.165</gom:course><gom:rel_alt>0.94</gom:rel_alt></extensions></trkpt>
   <trkpt lat="59.3243640589" lon="34.6501721103"><ele>175.525</ele><time>2026-08-13T22:15:30.997Z</time><hdop>4.687</hdop><vdop>5.937</vdop><extensions><gom:speed>1.12</gom:speed><gom:course>143.857</gom:course><gom:rel_alt>1.173</gom:rel_alt></extensions></trkpt>
   <trkpt lat="59.324295956" lon="34.6502948213"><ele>175.263</ele><time>2026-08-13T22:15:37.997Z</time><hdop>4.687</hdop><vdop>5.687</vdop><extensions><gom:speed>1.818</gom:speed><gom:course>137.594</gom:course><gom:rel_alt>1.136</gom:rel_alt></extensions></trkpt>
   <trkpt lat="59.3242252965" lon="34.6504362241"><ele>174.457</ele><time>2026-08-13T22:15:43.997Z</time><hdop>4.687</hdop><vdop>5.75</vdop><extensions><gom:speed>1.789</gom:speed><gom:course>139.847</gom:course><gom:rel_alt>1.825</gom:rel_alt></extensions></trkpt>
   <trkpt lat="59.3241377475" lon="34.6505306043"><ele>175.41</ele><time>2026-08-13T22:15:50.997Z</time><hdop>4.687</hdop><vdop>6.312</vdop><extensions><gom:speed>1.451</gom:speed><gom:course>159.166</gom:course><gom:rel_alt>1.762</gom:rel_alt></extensions></trkpt>
   <trkpt lat="59.3240421938" lon="34.6505685743"><ele>176.019</ele><time>2026-08-13T22:15:56.999Z</time><hdop>4.687</hdop><vdop>6.375</vdop><extensions><gom:speed>1.53</gom:speed><gom:course>164.588</gom:course><gom:rel_alt>1.601</gom:rel_alt></extensions></trkpt>
   <trkpt lat="59.3239470173" lon="34.6506452687"><ele>177.811</ele><time>2026-08-13T22:16:04.000Z</time><hdop>4.687</hdop><vdop>6.437</vdop><extensions><gom:speed>1.44</gom:speed><gom:course>162.973</gom:course><gom:rel_alt>1.199</gom:rel_alt></extensions></trkpt>
   <trkpt lat="59.3238312213" lon="34.6507038582"><ele>178.088</ele><time>2026-08-13T22:16:09.999Z</time><hdop>4.687</hdop><vdop>3.0</vdop><extensions><gom:speed>2.791</gom:speed><gom:course>164.94</gom:course><gom:rel_alt>1.352</gom:rel_alt></extensions></trkpt>
   <trkpt lat="59.3237348714" lon="34.6507702429"><ele>179.781</ele><time>2026-08-13T22:16:46.999Z</time><hdop>4.687</hdop><vdop>3.125</vdop><extensions><gom:speed>1.087</gom:speed><gom:course>157.035</gom:course><gom:rel_alt>2.037</gom:rel_alt></extensions></trkpt>
   <trkpt lat="59.3236513457" lon="34.6508805487"><ele>180.303</ele><time>2026-08-13T22:16:53.998Z</time><hdop>5.437</hdop><vdop>3.0</vdop><extensions><gom:speed>2.134</gom:speed><gom:course>144.159</gom:course><gom:rel_alt>2.489</gom:rel_alt></extensions></trkpt>
   <trkpt lat="59.3235632519" lon="34.6509706542"><ele>180.978</ele><time>2026-08-13T22:16:59.998Z</time><hdop>4.687</hdop><vdop>3.0</vdop><extensions><gom:speed>1.848</gom:speed><gom:course>162.71</gom:course><gom:rel_alt>3.02</gom:rel_alt></extensions></trkpt>
   <trkpt lat="59.3234597354" lon="34.6510546409"><ele>181.203</ele><time>2026-08-13T22:17:03.998Z</time><hdop>4.687</hdop><vdop>3.5</vdop><extensions><gom:speed>2.133</gom:speed><gom:course>146.323</gom:course><gom:rel_alt>3.395</gom:rel_alt></extensions></trkpt>
   <trkpt lat="59.3233778861" lon="34.6511626836"><ele>181.654</ele><time>2026-08-13T22:17:08.998Z</time><hdop>4.687</hdop><vdop>3.25</vdop><extensions><gom:speed>2.171</gom:speed><gom:course>147.834</gom:course><gom:rel_alt>3.863</gom:rel_alt></extensions></trkpt>
   <trkpt lat="59.3232997249" lon="34.6512713969"><ele>180.839</ele><time>2026-08-13T22:17:15.998Z</time><hdop>4.687</hdop><vdop>3.812</vdop><extensions><gom:speed>1.407</gom:speed><gom:course>146.197</gom:course><gom:rel_alt>4.742</gom:rel_alt></extensions></trkpt>
   <trkpt lat="59.3232110443" lon="34.6513617538"><ele>181.239</ele><time>2026-08-13T22:17:26.998Z</time><hdop>4.687</hdop><vdop>4.625</vdop><extensions><gom:speed>1.546</gom:speed><gom:course>149.8</gom:course><gom:rel_alt>4.666</gom:rel_alt></extensions></trkpt>
   <trkpt lat="59.3231341404" lon="34.6514583971"><ele>179.934</ele><time>2026-08-13T22:17:32.997Z</time><hdop>4.687</hdop><vdop>4.937</vdop><extensions><gom:speed>1.971</gom:speed><gom:course>151.761</gom:course><gom:rel_alt>5.17</gom:rel_alt></extensions></trkpt>
   <trkpt lat="59.3230482259" lon="34.6515410427"><ele>179.43</ele><time>2026-08-13T22:17:38.997Z</time><hdop>4.687</hdop><vdop>5.312</vdop><extensions><gom:speed>1.87</gom:speed><gom:course>156.233</gom:course><gom:rel_alt>5.012</gom:rel_alt></extensions></trkpt>
   <trkpt lat="59.3229522112" lon="34.6516043261"><ele>177.859</ele><time>2026-08-13T22:17:45.997Z</time><hdop>4.687</hdop><vdop>5.437</vdop><extensions><gom:speed>1.531</gom:speed><gom:course>163.847</gom:course><gom:rel_alt>4.872</gom:rel_alt></extensions></trkpt>
   <trkpt lat="59.3228567832" lon="34.651639111"><ele>176.946</ele><time>2026-08-13T22:17:51.997Z</time><hdop>4.687</hdop><vdop>3.75</vdop><extensions><gom:speed>1.369</gom:speed><gom:course>179.601</gom:course><gom:rel_alt>4.663</gom:rel_alt></extensions></trkpt>
   <trkpt lat="59.3227742634" lon="34.6517370954"><ele>176.071</ele><time>2026-08-13T22:17:58.000Z</time><hdop>4.687</hdop><vdop>3.687</vdop><extensions><gom:speed>1.667</gom:speed><gom:course>145.038</gom:course><gom:rel_alt>4.639</gom:rel_alt></extensions></trkpt>
   <trkpt lat="59.3227073758" lon="34.6518600579"><ele>176.471</ele><time>2026-08-13T22:18:03.000Z</time><hdop>4.687</hdop><vdop>4.812</vdop><extensions><gom:speed>1.908</gom:speed><gom:course>141.143</gom:course><gom:rel_alt>4.52</gom:rel_alt></extensions></trkpt>
   <trkpt lat="59.3226300108" lon="34.6519866247"><ele>177.25</ele><time>2026-08-13T22:18:09.000Z</time><hdop>4.687</hdop><vdop>5.187</vdop><extensions><gom:speed>1.8</gom:speed><gom:course>140.209</gom:course><gom:rel_alt>5.017</gom:rel_alt></extensions></trkpt>
   <trkpt lat="59.3225409531" lon="34.6520658337"><ele>176.888</ele><time>2026-08-13T22:18:15.999Z</time><hdop>4.687</hdop><vdop>5.125</vdop><extensions><gom:speed>0.918</gom:speed><gom:course>170.977</gom:course><gom:rel_alt>5.836</gom:rel_alt></extensions></trkpt>
   <trkpt lat="59.3224533622" lon="34.6521522511"><ele>174.99</ele><time>2026-08-13T22:18:23.999Z</time><hdop>4.687</hdop><vdop>3.187</vdop><extensions><gom:speed>1.374</gom:speed><gom:course>151.102</gom:course><gom:rel_alt>5.435</gom:rel_alt></extensions></trkpt>
   <trkpt lat="59.3223616642" lon="34.6522488944"><ele>175.848</ele><time>2026-08-13T22:18:30.999Z</time><hdop>4.687</hdop><vdop>4.812</vdop><extensions><gom:speed>1.518</gom:speed><gom:course>162.561</gom:course><gom:rel_alt>4.764</gom:rel_alt></extensions></trkpt>
   <trkpt lat="59.322251526" lon="34.6522799075"><ele>175.466</ele><time>2026-08-13T22:18:36.999Z</time><hdop>4.687</hdop><vdop>5.75</vdop><extensions><gom:speed>1.94</gom:speed><gom:course>180.425</gom:course><gom:rel_alt>3.588</gom:rel_alt></extensions></trkpt>
   <trkpt lat="59.3221512784" lon="34.6522346452"><ele>175.273</ele><time>2026-08-13T22:18:42.999Z</time><hdop>4.687</hdop><vdop>5.437</vdop><extensions><gom:speed>1.895</gom:speed><gom:course>192.34</gom:course><gom:rel_alt>2.618</gom:rel_alt></extensions></trkpt>
   <trkpt lat="59.3220563953" lon="34.652287535"><ele>174.447</ele><time>2026-08-13T22:18:49.999Z</time><hdop>4.687</hdop><vdop>5.125</vdop><extensions><gom:speed>1.22</gom:speed><gom:course>151.525</gom:course><gom:rel_alt>2.01</gom:rel_alt></extensions></trkpt>
   <trkpt lat="59.3219691816" lon="34.652379233"><ele>173.907</ele><time>2026-08-13T22:18:55.998Z</time><hdop>4.687</hdop><vdop>5.375</vdop><extensions><gom:speed>1.167</gom:speed><gom:course>150.427</gom:course><gom:rel_alt>1.759</gom:rel_alt></extensions></trkpt>
   <trkpt lat="59.3218834347" lon="34.6524536643"><ele>173.525</ele><time>2026-08-13T22:19:00.998Z</time><hdop>4.687</hdop><vdop>4.25</vdop><extensions><gom:speed>2.006</gom:speed><gom:course>155.277</gom:course><gom:rel_alt>1.387</gom:rel_alt></extensions></trkpt>
   <trkpt lat="59.3217991127" lon="34.652560785"><ele>175.183</ele><time>2026-08-13T22:19:05.998Z</time><hdop>4.687</hdop><vdop>5.5</vdop><extensions><gom:speed>1.548</gom:speed><gom:course>155.403</gom:course><gom:rel_alt>1.302</gom:rel_alt></extensions></trkpt>
   <trkpt lat="59.3217095102" lon="34.6526571769"><ele>175.156</ele><time>2026-08-13T22:19:10.998Z</time><hdop>4.687</hdop><vdop>5.312</vdop><extensions><gom:speed>1.839</gom:speed><gom:course>158.848</gom:course><gom:rel_alt>1.194</gom:rel_alt></extensions></trkpt>
   <trkpt lat="59.3216104361" lon="34.6527305186"><ele>173.53</ele><time>2026-08-13T22:19:18.998Z</time><hdop>4.687</hdop><vdop>5.562</vdop><extensions><gom:speed>1.806</gom:speed><gom:course>150.745</gom:course><gom:rel_alt>1.273</gom:rel_alt></extensions></trkpt>
   <trkpt lat="59.3215203306" lon="34.6528482005"><ele>171.948</ele><time>2026-08-13T22:19:24.998Z</time><hdop>4.687</hdop><vdop>6.125</vdop><extensions><gom:speed>1.502</gom:speed><gom:course>146.559</gom:course><gom:rel_alt>1.189</gom:rel_alt></extensions></trkpt>
   <trkpt lat="59.3214316082" lon="34.6529564947"><ele>171.209</ele><time>2026-08-13T22:19:29.998Z</time><hdop>4.687</hdop><vdop>5.812</vdop><extensions><gom:speed>2.353</gom:speed><gom:course>146.999</gom:course><gom:rel_alt>1.35</gom:rel_alt></extensions></trkpt>
   <trkpt lat="59.3213391558" lon="34.6530620229"><ele>170.116</ele><time>2026-08-13T22:19:35.998Z</time><hdop>4.687</hdop><vdop>5.562</vdop><extensions><gom:speed>1.922</gom:speed><gom:course>143.763</gom:course><gom:rel_alt>1.595</gom:rel_alt></extensions></trkpt>
   <trkpt lat="59.3213045805" lon="34.6532366179"><ele>172.504</ele><time>2026-08-13T22:19:42.997Z</time><hdop>4.687</hdop><vdop>5.875</vdop><extensions><gom:speed>1.562</gom:speed><gom:course>121.895</gom:course><gom:rel_alt>1.654</gom:rel_alt></extensions></trkpt>
   <trkpt lat="59.3212565521" lon="34.6533858996"><ele>173.016</ele><time>2026-08-13T22:19:48.997Z</time><hdop>4.687</hdop><vdop>6.437</vdop><extensions><gom:speed>1.521</gom:speed><gom:course>120.461</gom:course><gom:rel_alt>1.862</gom:rel_alt></extensions></trkpt>
   <trkpt lat="59.321213092" lon="34.6535573095"><ele>174.495</ele><time>2026-08-13T22:19:54.997Z</time><hdop>4.687</hdop><vdop>6.25</vdop><extensions><gom:speed>1.421</gom:speed><gom:course>133.057</gom:course><gom:rel_alt>2.15</gom:rel_alt></extensions></trkpt>
   <trkpt lat="59.3211337992" lon="34.6536590658"><ele>176.115</ele><time>2026-08-13T22:20:01.997Z</time><hdop>4.687</hdop><vdop>6.062</vdop><extensions><gom:speed>1.228</gom:speed><gom:course>144.34</gom:course></extensions></trkpt>
   <trkpt lat="59.3211622138" lon="34.6538482454"><ele>177.335</ele><time>2026-08-13T22:20:12.000Z</time><hdop>4.687</hdop><vdop>5.312</vdop><extensions><gom:speed>1.765</gom:speed><gom:course>64.155</gom:course><gom:rel_alt>2.977</gom:rel_alt></extensions></trkpt>
   <trkpt lat="59.3211037501" lon="34.6539847866"><ele>176.879</ele><time>2026-08-13T22:20:17.000Z</time><hdop>4.687</hdop><vdop>5.812</vdop><extensions><gom:speed>1.715</gom:speed><gom:course>128.19</gom:course><gom:rel_alt>2.943</gom:rel_alt></extensions></trkpt>
   <trkpt lat="59.3210623015" lon="34.654184695"><ele>179.102</ele><time>2026-08-13T22:20:21.999Z</time><hdop>4.687</hdop><vdop>6.0</vdop><extensions><gom:speed>2.061</gom:speed><gom:course>114.6</gom:course><gom:rel_alt>3.154</gom:rel_alt></extensions></trkpt>
   <trkpt lat="59.3210011556" lon="34.654331043"><ele>178.379</ele><time>2026-08-13T22:20:25.999Z</time><hdop>4.687</hdop><vdop>5.562</vdop><extensions><gom:speed>2.394</gom:speed><gom:course>127.223</gom:course><gom:rel_alt>3.3</gom:rel_alt></extensions></trkpt>
   <trkpt lat="59.3209248383" lon="34.6544917241"><ele>175.812</ele><time>2026-08-13T22:20:30.999Z</time><hdop>4.687</hdop><vdop>5.937</vdop><extensions><gom:speed>1.866</gom:speed><gom:course>131.244</gom:course><gom:rel_alt>3.281</gom:rel_alt></extensions></trkpt>
   <trkpt lat="59.3208810429" lon="34.6546759583"><ele>174.498</ele><time>2026-08-13T22:20:35.999Z</time><hdop>4.687</hdop><vdop>6.0</vdop><extensions><gom:speed>1.659</gom:speed><gom:course>108.788</gom:course></extensions></trkpt>
   <trkpt lat="59.3208465094" lon="34.6548483741"><ele>174.108</ele><time>2026-08-13T22:20:40.999Z</time><hdop>4.687</hdop><vdop>5.812</vdop><extensions><gom:speed>1.67</gom:speed><gom:course>114.748</gom:course><gom:rel_alt>2.296</gom:rel_alt></extensions></trkpt>
   <trkpt lat="59.3208214056" lon="34.6550247293"><ele>174.632</ele><time>2026-08-13T22:20:45.999Z</time><hdop>4.687</hdop><vdop>5.937</vdop><extensions><gom:speed>2.003</gom:speed><gom:course>99.625</gom:course><gom:rel_alt>2.055</gom:rel_alt></extensions></trkpt>
   <trkpt lat="59.3208089166" lon="34.6552067842"><ele>174.613</ele><time>2026-08-13T22:20:51.999Z</time><hdop>4.687</hdop><vdop>6.437</vdop><extensions><gom:speed>1.782</gom:speed><gom:course>103.69</gom:course><gom:rel_alt>1.92</gom:rel_alt></extensions></trkpt>
   <trkpt lat="59.3207744251" lon="34.6553901803"><ele>173.792</ele><time>2026-08-13T22:20:57.999Z</time><hdop>4.687</hdop><vdop>6.25</vdop><extensions><gom:speed>1.922</gom:speed><gom:course>104.684</gom:course><gom:rel_alt>1.788</gom:rel_alt></extensions></trkpt>
   <trkpt lat="59.320744334" lon="34.6555689663"><ele>173.05</ele><time>2026-08-13T22:21:03.998Z</time><hdop>4.687</hdop><vdop>6.187</vdop><extensions><gom:speed>1.868</gom:speed><gom:course>104.629</gom:course><gom:rel_alt>1.54</gom:rel_alt></extensions></trkpt>
   <trkpt lat="59.3207009158" lon="34.6557575591"><ele>173.524</ele><time>2026-08-13T22:21:11.998Z</time><hdop>4.687</hdop><vdop>6.5</vdop><extensions><gom:speed>1.733</gom:speed><gom:course>109.974</gom:course><gom:rel_alt>1.297</gom:rel_alt></extensions></trkpt>
   <trkpt lat="59.3206539352" lon="34.6559235208"><ele>172.665</ele><time>2026-08-13T22:21:17.998Z</time><hdop>4.687</hdop><vdop>6.375</vdop><extensions><gom:speed>1.405</gom:speed><gom:course>119.159</gom:course><gom:rel_alt>1.405</gom:rel_alt></extensions></trkpt>
   <trkpt lat="59.3206160909" lon="34.6561173104"><ele>173.255</ele><time>2026-08-13T22:21:23.998Z</time><hdop>4.687</hdop><vdop>6.437</vdop><extensions><gom:speed>1.53</gom:speed><gom:course>109.788</gom:course><gom:rel_alt>1.276</gom:rel_alt></extensions></trkpt>
   <trkpt lat="59.3205574595" lon="34.6562758122"><ele>171.49</ele><time>2026-08-13T22:21:28.998Z</time><hdop>4.687</hdop><vdop>5.937</vdop><extensions><gom:speed>1.765</gom:speed><gom:course>121.961</gom:course><gom:rel_alt>1.292</gom:rel_alt></extensions></trkpt>
   <trkpt lat="59.3205107304" lon="34.6564300392"><ele>170.935</ele><time>2026-08-13T22:21:33.998Z</time><hdop>4.687</hdop><vdop>6.0</vdop><extensions><gom:speed>2.079</gom:speed><gom:course>119.934</gom:course><gom:rel_alt>1.067</gom:rel_alt></extensions></trkpt>
   <trkpt lat="59.3204362991" lon="34.6565889601"><ele>169.912</ele><time>2026-08-13T22:21:39.998Z</time><hdop>4.687</hdop><vdop>6.5</vdop><extensions><gom:speed>1.866</gom:speed><gom:course>129.289</gom:course><gom:rel_alt>1.017</gom:rel_alt></extensions></trkpt>
   <trkpt lat="59.3203734767" lon="34.656723322"><ele>169.406</ele><time>2026-08-13T22:21:44.997Z</time><hdop>4.687</hdop><vdop>6.187</vdop><extensions><gom:speed>2.137</gom:speed><gom:course>132.689</gom:course><gom:rel_alt>1.078</gom:rel_alt></extensions></trkpt>
   <trkpt lat="59.3203127499" lon="34.6568745315"><ele>168.571</ele><time>2026-08-13T22:21:49.997Z</time><hdop>4.687</hdop><vdop>5.812</vdop><extensions><gom:speed>2.211</gom:speed><gom:course>127.668</gom:course><gom:rel_alt>1.344</gom:rel_alt></extensions></trkpt>
   <trkpt lat="59.3202487959" lon="34.6570598554"><ele>168.353</ele><time>2026-08-13T22:21:54.997Z</time><hdop>4.687</hdop><vdop>6.062</vdop><extensions><gom:speed>2.775</gom:speed><gom:course>121.631</gom:course><gom:rel_alt>1.783</gom:rel_alt></extensions></trkpt>
   <trkpt lat="59.3201903741" lon="34.6572291698"><ele>167.855</ele><time>2026-08-13T22:21:59.997Z</time><hdop>4.687</hdop><vdop>6.75</vdop><extensions><gom:speed>1.666</gom:speed><gom:course>122.625</gom:course></extensions></trkpt>
   <trkpt lat="59.3201341734" lon="34.6574063633"><ele>168.869</ele><time>2026-08-13T22:22:04.997Z</time><hdop>4.687</hdop><vdop>6.812</vdop><extensions><gom:speed>1.688</gom:speed><gom:course>124.883</gom:course><gom:rel_alt>2.882</gom:rel_alt></extensions></trkpt>
   <trkpt lat="59.3200535814" lon="34.6575904299"><ele>168.303</ele><time>2026-08-13T22:22:08.997Z</time><hdop>4.687</hdop><vdop>6.187</vdop><extensions><gom:speed>4.008</gom:speed><gom:course>128.399</gom:course><gom:rel_alt>3.207</gom:rel_alt></extensions></trkpt>
   <trkpt lat="59.3199709777" lon="34.6577635162"><ele>168.084</ele><time>2026-08-13T22:22:12.999Z</time><hdop>4.687</hdop><vdop>5.75</vdop><extensions><gom:speed>3.103</gom:speed><gom:course>131.777</gom:course><gom:rel_alt>3.429</gom:rel_alt></extensions></trkpt>
   <trkpt lat="59.3198788187" lon="34.6579138037"><ele>168.141</ele><time>2026-08-13T22:22:16.999Z</time><hdop>4.687</hdop><vdop>5.312</vdop><extensions><gom:speed>3.146</gom:speed><gom:course>141.511</gom:course></extensions></trkpt>
   <trkpt lat="59.3198054771" lon="34.6580162305"><ele>167.407</ele><time>2026-08-13T22:22:20.000Z</time><hdop>4.687</hdop><vdop>5.0</vdop><extensions><gom:speed>3.008</gom:speed><gom:course>143.368</gom:course><gom:rel_alt>4.026</gom:rel_alt></extensions></trkpt>
   <trkpt lat="59.3197239212" lon="34.6581086829"><ele>167.161</ele><time>2026-08-13T22:22:23.000Z</time><hdop>4.687</hdop><vdop>4.75</vdop><extensions><gom:speed>3.32</gom:speed><gom:course>152.783</gom:course><gom:rel_alt>4.309</gom:rel_alt></extensions></trkpt>
   <trkpt lat="59.3196132381" lon="34.6581935916"><ele>166.742</ele><time>2026-08-13T22:22:26.999Z</time><hdop>4.687</hdop><vdop>4.562</vdop><extensions><gom:speed>3.319</gom:speed><gom:course>154.135</gom:course><gom:rel_alt>4.206</gom:rel_alt></extensions></trkpt>
   <trkpt lat="59.3195037705" lon="34.6582326513"><ele>166.667</ele><time>2026-08-13T22:22:30.999Z</time><hdop>4.687</hdop><vdop>4.437</vdop><extensions><gom:speed>3.01</gom:speed><gom:course>169.554</gom:course><gom:rel_alt>3.619</gom:rel_alt></extensions></trkpt>
   <trkpt lat="59.3194045287" lon="34.6582820207"><ele>167.088</ele><time>2026-08-13T22:22:34.999Z</time><hdop>4.687</hdop><vdop>4.5</vdop><extensions><gom:speed>2.822</gom:speed><gom:course>166.934</gom:course><gom:rel_alt>3.321</gom:rel_alt></extensions></trkpt>
   <trkpt lat="59.3193082626" lon="34.6583484892"><ele>167.113</ele><time>2026-08-13T22:22:38.999Z</time><hdop>4.687</hdop><vdop>4.437</vdop><extensions><gom:speed>2.685</gom:speed><gom:course>162.77</gom:course><gom:rel_alt>3.144</gom:rel_alt></extensions></trkpt>
   <trkpt lat="59.31921405" lon="34.6583858725"><ele>167.615</ele><time>2026-08-13T22:22:42.999Z</time><hdop>4.687</hdop><vdop>4.562</vdop><extensions><gom:speed>2.549</gom:speed><gom:course>163.215</gom:course><gom:rel_alt>3.25</gom:rel_alt></extensions></trkpt>
   <trkpt lat="59.3191101982" lon="34.6584396843"><ele>168.037</ele><time>2026-08-13T22:22:46.999Z</time><hdop>4.687</hdop><vdop>4.562</vdop><extensions><gom:speed>2.969</gom:speed><gom:course>164.066</gom:course><gom:rel_alt>3.434</gom:rel_alt></extensions></trkpt>
   <trkpt lat="59.3190210148" lon="34.6584939152"><ele>168.575</ele><time>2026-08-13T22:22:50.999Z</time><hdop>4.687</hdop><vdop>5.187</vdop><extensions><gom:speed>1.881</gom:speed><gom:course>164.198</gom:course></extensions></trkpt>
   <trkpt lat="59.3189080686" lon="34.6585812546"><ele>167.256</ele><time>2026-08-13T22:22:54.999Z</time><hdop>4.687</hdop><vdop>4.625</vdop><extensions><gom:speed>3.58</gom:speed><gom:course>158.562</gom:course><gom:rel_alt>3.704</gom:rel_alt></extensions></trkpt>
   <trkpt lat="59.3188023728" lon="34.6586740423"><ele>166.921</ele><time>2026-08-13T22:22:58.999Z</time><hdop>4.687</hdop><vdop>4.437</vdop><extensions><gom:speed>3.257</gom:speed><gom:course>158.985</gom:course><gom:rel_alt>3.199</gom:rel_alt></extensions></trkpt>
   <trkpt lat="59.3187155363" lon="34.6587271836"><ele>166.734</ele><time>2026-08-13T22:23:01.999Z</time><hdop>4.687</hdop><vdop>4.437</vdop><extensions><gom:speed>3.251</gom:speed><gom:course>161.682</gom:course><gom:rel_alt>2.703</gom:rel_alt></extensions></trkpt>
   <trkpt lat="59.318625347" lon="34.6587871142"><ele>166.149</ele><time>2026-08-13T22:23:05.999Z</time><hdop>4.687</hdop><vdop>5.125</vdop><extensions><gom:speed>1.926</gom:speed><gom:course>158.985</gom:course><gom:rel_alt>2.095</gom:rel_alt></extensions></trkpt>
   <trkpt lat="59.3185393906" lon="34.6588622999"><ele>164.808</ele><time>2026-08-13T22:23:09.998Z</time><hdop>4.687</hdop><vdop>5.125</vdop><extensions><gom:speed>1.812</gom:speed><gom:course>152.36</gom:course><gom:rel_alt>1.622</gom:rel_alt></extensions></trkpt>
   <trkpt lat="59.3184582957" lon="34.6589482144"><ele>164.399</ele><time>2026-08-13T22:23:45.998Z</time><hdop>4.687</hdop><vdop>4.437</vdop><extensions><gom:speed>0.005</gom:speed><gom:course>146.164</gom:course><gom:rel_alt>0.649</gom:rel_alt></extensions></trkpt>
   <trkpt lat="59.3183807212" lon="34.6590598613"><ele>162.812</ele><time>2026-08-13T22:26:47.999Z</time><hdop>4.687</hdop><vdop>4.625</vdop><extensions><gom:speed>2.101</gom:speed><gom:course>137.457</gom:course><gom:rel_alt>-0.221</gom:rel_alt></extensions></trkpt>
   <trkpt lat="59.3183058708" lon="34.6592057064"><ele>163.654</ele><time>2026-08-13T22:26:52.999Z</time><hdop>4.687</hdop><vdop>4.437</vdop><extensions><gom:speed>2.28</gom:speed><gom:course>135.754</gom:course><gom:rel_alt>0.021</gom:rel_alt></extensions></trkpt>
   <trkpt lat="59.3182527295" lon="34.6593706623"><ele>163.142</ele><time>2026-08-13T22:26:57.999Z</time><hdop>4.687</hdop><vdop>4.437</vdop><extensions><gom:speed>2.194</gom:speed><gom:course>118.923</gom:course><gom:rel_alt>0.507</gom:rel_alt></extensions></trkpt>
   <trkpt lat="59.3182677331" lon="34.6595507056"><ele>164.327</ele><time>2026-08-13T22:27:50.998Z</time><hdop>4.687</hdop><vdop>4.812</vdop><extensions><gom:speed>0.954</gom:speed><gom:course>77.789</gom:course><gom:rel_alt>0.235</gom:rel_alt></extensions></trkpt>
   <trkpt lat="59.3182371811" lon="34.6593585085"><ele>164.036</ele><time>2026-08-13T22:28:19.997Z</time><hdop>4.687</hdop><vdop>4.687</vdop><extensions><gom:speed>2.456</gom:speed><gom:course>264.889</gom:course><gom:rel_alt>0.177</gom:rel_alt></extensions></trkpt>
   <trkpt lat="59.3182293021" lon="34.659148458"><ele>163.818</ele><time>2026-08-13T22:28:23.997Z</time><hdop>4.687</hdop><vdop>4.5</vdop><extensions><gom:speed>2.9</gom:speed><gom:course>265.988</gom:course><gom:rel_alt>0.317</gom:rel_alt></extensions></trkpt>
   <trkpt lat="59.3182167292" lon="34.6589258347"><ele>162.854</ele><time>2026-08-13T22:28:28.999Z</time><hdop>4.687</hdop><vdop>5.437</vdop><extensions><gom:speed>1.682</gom:speed><gom:course>264.692</gom:course><gom:rel_alt>0.079</gom:rel_alt></extensions></trkpt>
   <trkpt lat="59.3182147176" lon="34.6587109227"><ele>162.244</ele><time>2026-08-13T22:28:31.999Z</time><hdop>4.687</hdop><vdop>4.562</vdop><extensions><gom:speed>3.581</gom:speed><gom:course>270.278</gom:course><gom:rel_alt>-0.319</gom:rel_alt></extensions></trkpt>
   <trkpt lat="59.3182153043" lon="34.6585007046"><ele>162.108</ele><time>2026-08-13T22:28:36.999Z</time><hdop>4.687</hdop><vdop>5.375</vdop><extensions><gom:speed>1.394</gom:speed><gom:course>267.757</gom:course><gom:rel_alt>-0.866</gom:rel_alt></extensions></trkpt>
   <trkpt lat="59.3182049946" lon="34.6582566235"><ele>162.347</ele><time>2026-08-13T22:28:40.999Z</time><hdop>4.687</hdop><vdop>4.875</vdop><extensions><gom:speed>3.792</gom:speed><gom:course>261.28</gom:course><gom:rel_alt>-1.265</gom:rel_alt></extensions></trkpt>
   <trkpt lat="59.318170042" lon="34.6580474112"><ele>163.118</ele><time>2026-08-13T22:28:44.999Z</time><hdop>4.687</hdop><vdop>4.625</vdop><extensions><gom:speed>3.089</gom:speed><gom:course>251.969</gom:course></extensions></trkpt>
   <trkpt lat="59.3181256599" lon="34.6578530349"><ele>163.254</ele><time>2026-08-13T22:28:48.999Z</time><hdop>4.687</hdop><vdop>4.437</vdop><extensions><gom:speed>2.857</gom:speed><gom:course>246.734</gom:course><gom:rel_alt>-0.433</gom:rel_alt></extensions></trkpt>
   <trkpt lat="59.3180862649" lon="34.6576927729"><ele>163.852</ele><time>2026-08-13T22:28:52.999Z</time><hdop>4.687</hdop><vdop>5.125</vdop><extensions><gom:speed>1.993</gom:speed><gom:course>244.207</gom:course><gom:rel_alt>-0.14</gom:rel_alt></extensions></trkpt>
   <trkpt lat="59.3180493426" lon="34.6575009111"><ele>163.662</ele><time>2026-08-13T22:28:56.999Z</time><hdop>4.687</hdop><vdop>5.25</vdop><extensions><gom:speed>1.806</gom:speed><gom:course>250.409</gom:course><gom:rel_alt>0.256</gom:rel_alt></extensions></trkpt>
   <trkpt lat="59.3180197545" lon="34.6573234663"><ele>162.244</ele><time>2026-08-13T22:28:58.999Z</time><hdop>4.687</hdop><vdop>4.5</vdop><extensions><gom:speed>5.062</gom:speed><gom:course>251.739</gom:course><gom:rel_alt>0.24</gom:rel_alt></extensions></trkpt>
   <trkpt lat="59.3179863945" lon="34.6571391482"><ele>161.943</ele><time>2026-08-13T22:29:01.999Z</time><hdop>4.687</hdop><vdop>4.437</vdop><extensions><gom:speed>3.767</gom:speed><gom:course>248.415</gom:course></extensions></trkpt>
   <trkpt lat="59.3179378633" lon="34.6569280919"><ele>162.093</ele><time>2026-08-13T22:29:05.999Z</time><hdop>4.687</hdop><vdop>4.562</vdop><extensions><gom:speed>3.216</gom:speed><gom:course>245.861</gom:course><gom:rel_alt>-0.446</gom:rel_alt></extensions></trkpt>
   <trkpt lat="59.3178946127" lon="34.6567509823"><ele>162.522</ele><time>2026-08-13T22:29:08.999Z</time><hdop>4.687</hdop><vdop>4.562</vdop><extensions><gom:speed>3.728</gom:speed><gom:course>243.872</gom:course><gom:rel_alt>-0.433</gom:rel_alt></extensions></trkpt>
   <trkpt lat="59.3178495181" lon="34.6565645687"><ele>162.715</ele><time>2026-08-13T22:29:11.999Z</time><hdop>4.687</hdop><vdop>4.437</vdop><extensions><gom:speed>3.823</gom:speed><gom:course>245.169</gom:course><gom:rel_alt>-0.058</gom:rel_alt></extensions></trkpt>
   <trkpt lat="59.3178074409" lon="34.6563882135"><ele>163.141</ele><time>2026-08-13T22:29:15.999Z</time><hdop>4.687</hdop><vdop>5.437</vdop><extensions><gom:speed>1.724</gom:speed><gom:course>244.91</gom:course><gom:rel_alt>0.634</gom:rel_alt></extensions></trkpt>
   <trkpt lat="59.3177665791" lon="34.6562090084"><ele>164.247</ele><time>2026-08-13T22:29:18.999Z</time><hdop>4.687</hdop><vdop>3.0</vdop><extensions><gom:speed>3.826</gom:speed><gom:course>246.531</gom:course></extensions></trkpt>
   <trkpt lat="59.3177309141" lon="34.6560427953"><ele>164.393</ele><time>2026-08-13T22:29:20.999Z</time><hdop>4.687</hdop><vdop>3.0</vdop><extensions><gom:speed>4.001</gom:speed><gom:course>249.333</gom:course><gom:rel_alt>1.627</gom:rel_alt></extensions></trkpt>
   <trkpt lat="59.3176898847" lon="34.6558096107"><ele>164.474</ele><time>2026-08-13T22:29:23.998Z</time><hdop>4.687</hdop><vdop>3.0</vdop><extensions><gom:speed>3.924</gom:speed><gom:course>254.721</gom:course><gom:rel_alt>2.058</gom:rel_alt></extensions></trkpt>
   <trkpt lat="59.3176674212" lon="34.6556034997"><ele>164.275</ele><time>2026-08-13T22:29:26.998Z</time><hdop>4.687</hdop><vdop>3.0</vdop><extensions><gom:speed>3.772</gom:speed><gom:course>260.325</gom:course><gom:rel_alt>1.897</gom:rel_alt></extensions></trkpt>
   <trkpt lat="59.317662434" lon="34.6554127276"><ele>164.131</ele><time>2026-08-13T22:29:29.998Z</time><hdop>4.687</hdop><vdop>3.0</vdop><extensions><gom:speed>3.267</gom:speed><gom:course>265.944</gom:course><gom:rel_alt>1.482</gom:rel_alt></extensions></trkpt>
   <trkpt lat="59.3176403477" lon="34.6552086283"><ele>164.017</ele><time>2026-08-13T22:29:33.998Z</time><hdop>4.687</hdop><vdop>3.0</vdop><extensions><gom:speed>3.113</gom:speed><gom:course>256.298</gom:course><gom:rel_alt>1.085</gom:rel_alt></extensions></trkpt>
   <trkpt lat="59.317612855" lon="34.6550191134"><ele>164.289</ele><time>2026-08-13T22:29:36.998Z</time><hdop>4.687</hdop><vdop>3.0</vdop><extensions><gom:speed>3.548</gom:speed><gom:course>256.331</gom:course><gom:rel_alt>1.017</gom:rel_alt></extensions></trkpt>
   <trkpt lat="59.317579998" lon="34.6548415009"><ele>164.118</ele><time>2026-08-13T22:29:39.998Z</time><hdop>4.687</hdop><vdop>3.0</vdop><extensions><gom:speed>3.298</gom:speed><gom:course>245.207</gom:course><gom:rel_alt>0.985</gom:rel_alt></extensions></trkpt>
   <trkpt lat="59.3175336041" lon="34.6546762098"><ele>164.076</ele><time>2026-08-13T22:29:42.998Z</time><hdop>4.687</hdop><vdop>3.0</vdop><extensions><gom:speed>3.574</gom:speed><gom:course>242.257</gom:course><gom:rel_alt>1.014</gom:rel_alt></extensions></trkpt>
   <trkpt lat="59.3175041417" lon="34.6544794865"><ele>163.834</ele><time>2026-08-13T22:29:45.998Z</time><hdop>4.687</hdop><vdop>3.0</vdop><extensions><gom:speed>3.828</gom:speed><gom:course>255.578</gom:course><gom:rel_alt>1.136</gom:rel_alt></extensions></trkpt>
   <trkpt lat="59.3174696083" lon="34.654301874"><ele>164.124</ele><time>2026-08-13T22:29:48.998Z</time><hdop>4.687</hdop><vdop>4.375</vdop><extensions><gom:speed>3.782</gom:speed><gom:course>252.255</gom:course><gom:rel_alt>1.191</gom:rel_alt></extensions></trkpt>
   <trkpt lat="59.3174431634" lon="34.6541010436"><ele>163.959</ele><time>2026-08-13T22:29:51.998Z</time><hdop>4.687</hdop><vdop>4.5</vdop><extensions><gom:speed>3.877</gom:speed><gom:course>257.259</gom:course></extensions></trkpt>
   <trkpt lat="59.3174221667" lon="34.6539024763"><ele>164.11</ele><time>2026-08-13T22:29:54.998Z</time><hdop>4.687</hdop><vdop>4.5</vdop><extensions><gom:speed>3.639</gom:speed><gom:course>259.297</gom:course><gom:rel_alt>1.122</gom:rel_alt></extensions></trkpt>
   <trkpt lat="59.317417389" lon="34.6536974549"><ele>163.913</ele><time>2026-08-13T22:29:57.998Z</time><hdop>4.687</hdop><vdop>4.562</vdop><extensions><gom:speed>3.797</gom:speed><gom:course>265.527</gom:course><gom:rel_alt>0.967</gom:rel_alt></extensions></trkpt>
   <trkpt lat="59.3174159222" lon="34.6535040006"><ele>163.514</ele><time>2026-08-13T22:30:00.998Z</time><hdop>4.687</hdop><vdop>4.625</vdop><extensions><gom:speed>3.678</gom:speed><gom:course>266.175</gom:course><gom:rel_alt>0.813</gom:rel_alt></extensions></trkpt>
   <trkpt lat="59.3174055706" lon="34.6533196826"><ele>163.221</ele><time>2026-08-13T22:30:03.998Z</time><hdop>4.687</hdop><vdop>4.687</vdop><extensions><gom:speed>3.462</gom:speed><gom:course>263.664</gom:course><gom:rel_alt>0.673</gom:rel_alt></extensions></trkpt>
   <trkpt lat="59.3173878847" lon="34.6531289943"><ele>163.624</ele><time>2026-08-13T22:30:06.997Z</time><hdop>4.687</hdop><vdop>4.75</vdop><extensions><gom:speed>3.577</gom:speed><gom:course>260.506</gom:course><gom:rel_alt>0.549</gom:rel_alt></extensions></trkpt>
   <trkpt lat="59.317368313" lon="34.6529207878"><ele>163.946</ele><time>2026-08-13T22:30:10.997Z</time><hdop>4.687</hdop><vdop>4.875</vdop><extensions><gom:speed>2.833</gom:speed><gom:course>258.298</gom:course><gom:rel_alt>0.433</gom:rel_alt></extensions></trkpt>
   <trkpt lat="59.3173486574" lon="34.6527373079"><ele>164.216</ele><time>2026-08-13T22:30:14.997Z</time><hdop>4.687</hdop><vdop>5.062</vdop><extensions><gom:speed>2.786</gom:speed><gom:course>263.62</gom:course><gom:rel_alt>0.351</gom:rel_alt></extensions></trkpt>
   <trkpt lat="59.3173273255" lon="34.6525601983"><ele>164.695</ele><time>2026-08-13T22:30:19.997Z</time><hdop>4.687</hdop><vdop>5.375</vdop><extensions><gom:speed>1.524</gom:speed><gom:course>256.43</gom:course><gom:rel_alt>0.169</gom:rel_alt></extensions></trkpt>
   <trkpt lat="59.3173100169" lon="34.6523550931"><ele>164.374</ele><time>2026-08-13T22:30:24.997Z</time><hdop>4.687</hdop><vdop>5.75</vdop><extensions><gom:speed>1.565</gom:speed><gom:course>263.373</gom:course><gom:rel_alt>0.097</gom:rel_alt></extensions></trkpt>
   <trkpt lat="59.3173022217" lon="34.6521337271"><ele>164.298</ele><time>2026-08-13T22:30:29.997Z</time><hdop>4.687</hdop><vdop>5.75</vdop><extensions><gom:speed>1.592</gom:speed><gom:course>267.905</gom:course><gom:rel_alt>-0.052</gom:rel_alt></extensions></trkpt>
   <trkpt lat="59.3172967315" lon="34.6519388478"><ele>164.394</ele><time>2026-08-13T22:30:33.999Z</time><hdop>4.687</hdop><vdop>5.687</vdop><extensions><gom:speed>1.805</gom:speed><gom:course>265.626</gom:course><gom:rel_alt>0.105</gom:rel_alt></extensions></trkpt>
   <trkpt lat="59.3172950552" lon="34.6517235167"><ele>163.945</ele><time>2026-08-13T22:30:37.999Z</time><hdop>4.687</hdop><vdop>5.625</vdop><extensions><gom:speed>1.84</gom:speed><gom:course>268.801</gom:course><gom:rel_alt>0.499</gom:rel_alt></extensions></trkpt>
   <trkpt lat="59.3172939655" lon="34.6515055034"><ele>163.834</ele><time>2026-08-13T22:30:41.999Z</time><hdop>4.687</hdop><vdop>5.687</vdop><extensions><gom:speed>1.623</gom:speed><gom:course>269.185</gom:course><gom:rel_alt>0.84</gom:rel_alt></extensions></trkpt>
   <trkpt lat="59.3172941332" lon="34.65132831"><ele>163.528</ele><time>2026-08-13T22:30:43.999Z</time><hdop>4.687</hdop><vdop>5.125</vdop><extensions><gom:speed>4.638</gom:speed><gom:course>270.449</gom:course><gom:rel_alt>0.858</gom:rel_alt></extensions></trkpt>
   <trkpt lat="59.317286799" lon="34.6511066925"><ele>164.069</ele><time>2026-08-13T22:30:47.999Z</time><hdop>4.687</hdop><vdop>4.937</vdop><extensions><gom:speed>3.118</gom:speed><gom:course>268.147</gom:course><gom:rel_alt>0.808</gom:rel_alt></extensions></trkpt>
   <trkpt lat="59.3172906966" lon="34.650871161"><ele>164.586</ele><time>2026-08-13T22:30:51.999Z</time><hdop>4.687</hdop><vdop>4.812</vdop><extensions><gom:speed>3.178</gom:speed><gom:course>271.163</gom:course><gom:rel_alt>0.834</gom:rel_alt></extensions></trkpt>
   <trkpt lat="59.3172855836" lon="34.6506482024"><ele>164.157</ele><time>2026-08-13T22:30:55.999Z</time><hdop>4.687</hdop><vdop>5.125</vdop><extensions><gom:speed>2.878</gom:speed><gom:course>271.349</gom:course><gom:rel_alt>0.755</gom:rel_alt></extensions></trkpt>
   <trkpt lat="59.3172794648" lon="34.6504187897"><ele>164.989</ele><time>2026-08-13T22:30:59.999Z</time><hdop>4.687</hdop><vdop>4.812</vdop><extensions><gom:speed>3.301</gom:speed><gom:course>268.812</gom:course></extensions></trkpt>
   <trkpt lat="59.3172788362" lon="34.6502267603"><ele>164.873</ele><time>2026-08-13T22:31:03.999Z</time><hdop>4.687</hdop><vdop>5.25</vdop><extensions><gom:speed>2.344</gom:speed><gom:course>270.877</gom:course><gom:rel_alt>0.533</gom:rel_alt></extensions></trkpt>
   <trkpt lat="59.3172949294" lon="34.6500244211"><ele>164.085</ele><time>2026-08-13T22:31:06.999Z</time><hdop>4.687</hdop><vdop>4.812</vdop><extensions><gom:speed>4.076</gom:speed><gom:course>277.491</gom:course><gom:rel_alt>0.38</gom:rel_alt></extensions></trkpt>
   <trkpt lat="59.3173043591" lon="34.6498074137"><ele>163.364</ele><time>2026-08-13T22:31:10.999Z</time><hdop>4.687</hdop><vdop>4.875</vdop><extensions><gom:speed>2.487</gom:speed><gom:course>282.1</gom:course><gom:rel_alt>0.459</gom:rel_alt></extensions></trkpt>
   <trkpt lat="59.3173345758" lon="34.6496037334"><ele>162.74</ele><time>2026-08-13T22:31:14.999Z</time><hdop>4.687</hdop><vdop>4.937</vdop><extensions><gom:speed>2.502</gom:speed><gom:course>294.284</gom:course><gom:rel_alt>0.171</gom:rel_alt></extensions></trkpt>
   <trkpt lat="59.3173889744" lon="34.6494205888"><ele>162.971</ele><time>2026-08-13T22:31:18.999Z</time><hdop>4.687</hdop><vdop>4.75</vdop><extensions><gom:speed>2.64</gom:speed><gom:course>304.155</gom:course><gom:rel_alt>-0.145</gom:rel_alt></extensions></trkpt>
   <trkpt lat="59.3174598853" lon="34.6492695469"><ele>163.625</ele><time>2026-08-13T22:31:22.999Z</time><hdop>4.687</hdop><vdop>4.75</vdop><extensions><gom:speed>2.824</gom:speed><gom:course>314.829</gom:course><gom:rel_alt>0.026</gom:rel_alt></extensions></trkpt>
   <trkpt lat="59.3175385075" lon="34.6491021603"><ele>164.613</ele><time>2026-08-13T22:31:26.999Z</time><hdop>4.687</hdop><vdop>4.687</vdop><extensions><gom:speed>3.122</gom:speed><gom:course>315.186</gom:course><gom:rel_alt>0.396</gom:rel_alt></extensions></trkpt>
   <trkpt lat="59.3176238353" lon="34.6489678823"><ele>164.994</ele><time>2026-08-13T22:31:30.998Z</time><hdop>4.687</hdop><vdop>4.687</vdop><extensions><gom:speed>2.95</gom:speed><gom:course>316.18</gom:course><gom:rel_alt>0.694</gom:rel_alt></extensions></trkpt>
   <trkpt lat="59.3176646971" lon="34.6487906888"><ele>165.758</ele><time>2026-08-13T22:31:34.998Z</time><hdop>4.687</hdop><vdop>4.937</vdop><extensions><gom:speed>2.868</gom:speed><gom:course>288.697</gom:course><gom:rel_alt>0.803</gom:rel_alt></extensions></trkpt>
   <trkpt lat="59.3176675469" lon="34.6486029342"><ele>165.406</ele><time>2026-08-13T22:31:38.998Z</time><hdop>4.687</hdop><vdop>5.062</vdop><extensions><gom:speed>2.339</gom:speed><gom:course>279.935</gom:course><gom:rel_alt>1.202</gom:rel_alt></extensions></trkpt>
   <trkpt lat="59.3177218617" lon="34.6484161016"><ele>165.907</ele><time>2026-08-13T22:31:43.998Z</time><hdop>4.687</hdop><vdop>5.0</vdop><extensions><gom:speed>2.221</gom:speed><gom:course>299.425</gom:course><gom:rel_alt>1.196</gom:rel_alt></extensions></trkpt>
   <trkpt lat="59.3177636035" lon="34.64820471"><ele>166.174</ele><time>2026-08-13T22:31:48.998Z</time><hdop>4.687</hdop><vdop>5.0</vdop><extensions><gom:speed>2.875</gom:speed><gom:course>289.104</gom:course><gom:rel_alt>1.432</gom:rel_alt></extensions></trkpt>
   <trkpt lat="59.3177992685" lon="34.6480294444"><ele>167.525</ele><time>2026-08-13T22:31:52.998Z</time><hdop>4.687</hdop><vdop>5.0</vdop><extensions><gom:speed>2.649</gom:speed><gom:course>295.119</gom:course><gom:rel_alt>1.706</gom:rel_alt></extensions></trkpt>
   <trkpt lat="59.3178348497" lon="34.6478071563"><ele>167.701</ele><time>2026-08-13T22:31:57.998Z</time><hdop>4.687</hdop><vdop>4.75</vdop><extensions><gom:speed>2.748</gom:speed><gom:course>288.708</gom:course><gom:rel_alt>2.037</gom:rel_alt></extensions></trkpt>
   <trkpt lat="59.3178674134" lon="34.6476339024"><ele>169.131</ele><time>2026-08-13T22:32:02.998Z</time><hdop>4.687</hdop><vdop>5.187</vdop><extensions><gom:speed>1.718</gom:speed><gom:course>293.982</gom:course><gom:rel_alt>2.343</gom:rel_alt></extensions></trkpt>
   <trkpt lat="59.3179110831" lon="34.6474713773"><ele>167.881</ele><time>2026-08-13T22:32:06.998Z</time><hdop>4.687</hdop><vdop>5.5</vdop><extensions><gom:speed>1.752</gom:speed><gom:course>298.59</gom:course><gom:rel_alt>2.927</gom:rel_alt></extensions></trkpt>
   <trkpt lat="59.3179592791" lon="34.6472715527"><ele>168.219</ele><time>2026-08-13T22:32:10.997Z</time><hdop>4.687</hdop><vdop>4.812</vdop><extensions><gom:speed>2.412</gom:speed><gom:course>296.794</gom:course><gom:rel_alt>3.149</gom:rel_alt></extensions></trkpt>
   <trkpt lat="59.3179969138" lon="34.6470733207"><ele>169.404</ele><time>2026-08-13T22:32:14.997Z</time><hdop>4.687</hdop><vdop>4.937</vdop><extensions><gom:speed>3.012</gom:speed><gom:course>285.962</gom:course><gom:rel_alt>3.21</gom:rel_alt></extensions></trkpt>
   <trkpt lat="59.3180298966" lon="34.6468912657"><ele>169.521</ele><time>2026-08-13T22:32:17.997Z</time><hdop>4.687</hdop><vdop>4.875</vdop><extensions><gom:speed>3.232</gom:speed><gom:course>287.577</gom:course><gom:rel_alt>3.45</gom:rel_alt></extensions></trkpt>
   <trkpt lat="59.3180657712" lon="34.6467200235"><ele>170.387</ele><time>2026-08-13T22:32:20.997Z</time><hdop>4.687</hdop><vdop>4.937</vdop><extensions><gom:speed>3.373</gom:speed><gom:course>292.96</gom:course><gom:rel_alt>3.749</gom:rel_alt></extensions></trkpt>
   <trkpt lat="59.3181032802" lon="34.6465528045"><ele>170.973</ele><time>2026-08-13T22:32:23.997Z</time><hdop>4.687</hdop><vdop>5.062</vdop><extensions><gom:speed>3.282</gom:speed><gom:course>292.839</gom:course></extensions></trkpt>
   <trkpt lat="59.3181361791" lon="34.6463856693"><ele>170.76</ele><time>2026-08-13T22:32:26.997Z</time><hdop>4.687</hdop><vdop>5.125</vdop><extensions><gom:speed>3.076</gom:speed><gom:course>296.531</gom:course><gom:rel_alt>4.6</gom:rel_alt></extensions></trkpt>
   <trkpt lat="59.3182045755" lon="34.6462280057"><ele>171.025</ele><time>2026-08-13T22:32:30.997Z</time><hdop>4.687</hdop><vdop>5.062</vdop><extensions><gom:speed>3.191</gom:speed><gom:course>315.372</gom:course><gom:rel_alt>4.661</gom:rel_alt></extensions></trkpt>
   <trkpt lat="59.3182864248" lon="34.6460727729"><ele>172.573</ele><time>2026-08-13T22:32:34.997Z</time><hdop>4.687</hdop><vdop>4.937</vdop><extensions><gom:speed>3.021</gom:speed><gom:course>315.999</gom:course><gom:rel_alt>4.605</gom:rel_alt></extensions></trkpt>
   <trkpt lat="59.318368274" lon="34.6459646463"><ele>172.375</ele><time>2026-08-13T22:32:38.997Z</time><hdop>4.687</hdop><vdop>5.0</vdop><extensions><gom:speed>2.439</gom:speed><gom:course>335.544</gom:course><gom:rel_alt>4.962</gom:rel_alt></extensions></trkpt>
   <trkpt lat="59.3184642049" lon="34.6458402589"><ele>171.41</ele><time>2026-08-13T22:32:42.999Z</time><hdop>4.687</hdop><vdop>5.187</vdop><extensions><gom:speed>2.834</gom:speed><gom:course>327.891</gom:course><gom:rel_alt>5.062</gom:rel_alt></extensions></trkpt>
   <trkpt lat="59.3185535979" lon="34.6457229123"><ele>172.255</ele><time>2026-08-13T22:32:46.999Z</time><hdop>4.687</hdop><vdop>4.812</vdop><extensions><gom:speed>2.735</gom:speed><gom:course>325.43</gom:course><gom:rel_alt>5.26</gom:rel_alt></extensions></trkpt>
   <trkpt lat="59.3186481458" lon="34.6456138637"><ele>172.174</ele><time>2026-08-13T22:32:51.999Z</time><hdop>4.687</hdop><vdop>4.937</vdop><extensions><gom:speed>2.113</gom:speed><gom:course>335.132</gom:course><gom:rel_alt>5.826</gom:rel_alt></extensions></trkpt>
   <trkpt lat="59.3186960484" lon="34.645434491"><ele>171.915</ele><time>2026-08-13T22:32:55.999Z</time><hdop>4.687</hdop><vdop>4.687</vdop><extensions><gom:speed>2.795</gom:speed><gom:course>290.955</gom:course><gom:rel_alt>6.286</gom:rel_alt></extensions></trkpt>
   <trkpt lat="59.3187467589" lon="34.645239947"><ele>171.915</ele><time>2026-08-13T22:32:59.999Z</time><hdop>4.687</hdop><vdop>4.562</vdop><extensions><gom:speed>2.953</gom:speed><gom:course>289.428</gom:course><gom:rel_alt>6.56</gom:rel_alt></extensions></trkpt>
   <trkpt lat="59.3187901352" lon="34.645045403"><ele>170.353</ele><time>2026-08-13T22:33:03.999Z</time><hdop>4.687</hdop><vdop>4.312</vdop><extensions><gom:speed>3.049</gom:speed><gom:course>292.059</gom:course><gom:rel_alt>6.679</gom:rel_alt></extensions></trkpt>
   <trkpt lat="59.3188232018" lon="34.6448313292"><ele>169.76</ele><time>2026-08-13T22:33:07.999Z</time><hdop>4.687</hdop><vdop>4.25</vdop><extensions><gom:speed>3.124</gom:speed><gom:course>292.696</gom:course><gom:rel_alt>6.235</gom:rel_alt></extensions></trkpt>
   <trkpt lat="59.3188641474" lon="34.6446297444"><ele>168.54</ele><time>2026-08-13T22:33:11.999Z</time><hdop>4.687</hdop><vdop>4.25</vdop><extensions><gom:speed>2.767</gom:speed><gom:course>296.783</gom:course><gom:rel_alt>5.427</gom:rel_alt></extensions></trkpt>
   <trkpt lat="59.3189128463" lon="34.6444134075"><ele>167.896</ele><time>2026-08-13T22:33:15.999Z</time><hdop>4.687</hdop><vdop>4.187</vdop><extensions><gom:speed>3.242</gom:speed><gom:course>295.448</gom:course><gom:rel_alt>4.534</gom:rel_alt></extensions></trkpt>
   <trkpt lat="59.318965317" lon="34.6442538999"><ele>167.503</ele><time>2026-08-13T22:33:18.999Z</time><hdop>4.687</hdop><vdop>4.25</vdop><extensions><gom:speed>3.435</gom:speed><gom:course>303.787</gom:course><gom:rel_alt>3.683</gom:rel_alt></extensions></trkpt>
   <trkpt lat="59.3190221463" lon="34.6441109046"><ele>166.931</ele><time>2026-08-13T22:33:21.999Z</time><hdop>4.687</hdop><vdop>4.25</vdop><extensions><gom:speed>3.403</gom:speed><gom:course>307.951</gom:course><gom:rel_alt>2.991</gom:rel_alt></extensions></trkpt>
   <trkpt lat="59.3190804424" lon="34.6439736929"><ele>167.17</ele><time>2026-08-13T22:33:24.999Z</time><hdop>4.687</hdop><vdop>4.312</vdop><extensions><gom:speed>3.262</gom:speed><gom:course>308.797</gom:course><gom:rel_alt>2.51</gom:rel_alt></extensions></trkpt>
   <trkpt lat="59.3191512695" lon="34.6438011933"><ele>166.761</ele><time>2026-08-13T22:33:28.999Z</time><hdop>4.687</hdop><vdop>4.312</vdop><extensions><gom:speed>2.927</gom:speed><gom:course>308.923</gom:course><gom:rel_alt>2.309</gom:rel_alt></extensions></trkpt>
   <trkpt lat="59.3192268743" lon="34.6436445355"><ele>166.4</ele><time>2026-08-13T22:33:33.999Z</time><hdop>4.687</hdop><vdop>4.437</vdop><extensions><gom:speed>2.444</gom:speed><gom:course>313.653</gom:course><gom:rel_alt>1.928</gom:rel_alt></extensions></trkpt>
   <trkpt lat="59.3192813148" lon="34.643496092"><ele>166.38</ele><time>2026-08-13T22:33:38.998Z</time><hdop>4.687</hdop><vdop>4.812</vdop><extensions><gom:speed>2.0</gom:speed><gom:course>307.918</gom:course><gom:rel_alt>1.358</gom:rel_alt></extensions></trkpt>
   <trkpt lat="59.3193361324" lon="34.6433462236"><ele>166.302</ele><time>2026-08-13T22:33:42.998Z</time><hdop>4.687</hdop><vdop>4.437</vdop><extensions><gom:speed>2.783</gom:speed><gom:course>303.54</gom:course><gom:rel_alt>1.241</gom:rel_alt></extensions></trkpt>
   <trkpt lat="59.3193676065" lon="34.6431528531"><ele>165.783</ele><time>2026-08-13T22:33:47.998Z</time><hdop>4.687</hdop><vdop>4.375</vdop><extensions><gom:speed>2.597</gom:speed><gom:course>285.857</gom:course><gom:rel_alt>0.988</gom:rel_alt></extensions></trkpt>
   <trkpt lat="59.319384496" lon="34.6429716364"><ele>166.079</ele><time>2026-08-13T22:33:51.998Z</time><hdop>4.687</hdop><vdop>4.5</vdop><extensions><gom:speed>2.903</gom:speed><gom:course>281.671</gom:course><gom:rel_alt>0.98</gom:rel_alt></extensions></trkpt>
   <trkpt lat="59.3194061213" lon="34.6427987177"><ele>165.662</ele><time>2026-08-13T22:33:55.998Z</time><hdop>4.687</hdop><vdop>4.5</vdop><extensions><gom:speed>2.382</gom:speed><gom:course>284.528</gom:course><gom:rel_alt>0.911</gom:rel_alt></extensions></trkpt>
   <trkpt lat="59.3194182331" lon="34.6426023297"><ele>165.505</ele><time>2026-08-13T22:34:12.998Z</time><hdop>4.687</hdop><vdop>4.5</vdop><extensions><gom:speed>1.75</gom:speed><gom:course>280.77</gom:course><gom:rel_alt>0.61</gom:rel_alt></extensions></trkpt>
   <trkpt lat="59.3194118629" lon="34.6424182631"><ele>167.027</ele><time>2026-08-13T22:34:17.998Z</time><hdop>4.687</hdop><vdop>4.562</vdop><extensions><gom:speed>1.955</gom:speed><gom:course>264.983</gom:course><gom:rel_alt>0.639</gom:rel_alt></extensions></trkpt>
   <trkpt lat="59.3194431274" lon="34.6422255632"><ele>166.823</ele><time>2026-08-13T22:34:23.997Z</time><hdop>4.687</hdop><vdop>4.687</vdop><extensions><gom:speed>1.895</gom:speed><gom:course>298.601</gom:course><gom:rel_alt>1.064</gom:rel_alt></extensions></trkpt>
   <trkpt lat="59.3195010883" lon="34.6420670614"><ele>167.902</ele><time>2026-08-13T22:34:29.997Z</time><hdop>4.687</hdop><vdop>4.687</vdop><extensions><gom:speed>1.61</gom:speed><gom:course>308.808</gom:course><gom:rel_alt>1.17</gom:rel_alt></extensions></trkpt>
   <trkpt lat="59.3195902717" lon="34.641981566"><ele>168.602</ele><time>2026-08-13T22:34:36.997Z</time><hdop>4.687</hdop><vdop>5.25</vdop><extensions><gom:speed>1.35</gom:speed><gom:course>336.296</gom:course><gom:rel_alt>2.029</gom:rel_alt></extensions></trkpt>
   <trkpt lat="59.3196705703" lon="34.6418595254"><ele>168.849</ele><time>2026-08-13T22:34:44.997Z</time><hdop>4.687</hdop><vdop>4.937</vdop><extensions><gom:speed>1.578</gom:speed><gom:course>327.88</gom:course><gom:rel_alt>2.621</gom:rel_alt></extensions></trkpt>
   <trkpt lat="59.3197504499" lon="34.6417405024"><ele>170.053</ele><time>2026-08-13T22:34:51.999Z</time><hdop>4.687</hdop><vdop>5.062</vdop><extensions><gom:speed>1.396</gom:speed><gom:course>328.682</gom:course><gom:rel_alt>2.782</gom:rel_alt></extensions></trkpt>
   <trkpt lat="59.3198302875" lon="34.6416482177"><ele>169.613</ele><time>2026-08-13T22:34:57.999Z</time><hdop>4.687</hdop><vdop>5.437</vdop><extensions><gom:speed>1.565</gom:speed><gom:course>334.077</gom:course><gom:rel_alt>3.033</gom:rel_alt></extensions></trkpt>
   <trkpt lat="59.3198986419" lon="34.6415090781"><ele>170.455</ele><time>2026-08-13T22:35:03.999Z</time><hdop>4.687</hdop><vdop>5.312</vdop><extensions><gom:speed>1.451</gom:speed><gom:course>313.933</gom:course><gom:rel_alt>3.514</gom:rel_alt></extensions></trkpt>
   <trkpt lat="59.3199397552" lon="34.6413273584"><ele>170.19</ele><time>2026-08-13T22:35:11.999Z</time><hdop>4.687</hdop><vdop>4.562</vdop><extensions><gom:speed>1.264</gom:speed><gom:course>288.422</gom:course><gom:rel_alt>3.802</gom:rel_alt></extensions></trkpt>
   <trkpt lat="59.3199633083" lon="34.6411414478"><ele>170.818</ele><time>2026-08-13T22:35:18.999Z</time><hdop>4.687</hdop><vdop>4.5</vdop><extensions><gom:speed>1.443</gom:speed><gom:course>289.494</gom:course><gom:rel_alt>3.44</gom:rel_alt></extensions></trkpt>
   <trkpt lat="59.3199974646" lon="34.6409599796"><ele>172.557</ele><time>2026-08-13T22:35:25.999Z</time><hdop>4.687</hdop><vdop>5.312</vdop><extensions><gom:speed>1.426</gom:speed><gom:course>298.448</gom:course><gom:rel_alt>3.31</gom:rel_alt></extensions></trkpt>
   <trkpt lat="59.3200492228" lon="34.6408046629"><ele>172.703</ele><time>2026-08-13T22:35:32.999Z</time><hdop>4.687</hdop><vdop>5.312</vdop><extensions><gom:speed>1.268</gom:speed><gom:course>305.391</gom:course><gom:rel_alt>3.675</gom:rel_alt></extensions></trkpt>
   <trkpt lat="59.320094988" lon="34.6406370249"><ele>172.649</ele><time>2026-08-13T22:35:40.998Z</time><hdop>4.687</hdop><vdop>5.25</vdop><extensions><gom:speed>1.317</gom:speed><gom:course>303.815</gom:course><gom:rel_alt>3.984</gom:rel_alt></extensions></trkpt>
   <trkpt lat="59.3201170743" lon="34.6404636871"><ele>171.84</ele><time>2026-08-13T22:35:48.998Z</time><hdop>4.687</hdop><vdop>5.0</vdop><extensions><gom:speed>0.916</gom:speed><gom:course>280.869</gom:course><gom:rel_alt>3.651</gom:rel_alt></extensions></trkpt>
   <trkpt lat="59.3201144759" lon="34.640680024"><ele>172.826</ele><time>2026-08-13T22:36:45.997Z</time><hdop>4.687</hdop><vdop>5.562</vdop><extensions><gom:speed>1.439</gom:speed><gom:course>134.485</gom:course><gom:rel_alt>3.598</gom:rel_alt></extensions></trkpt>
   <trkpt lat="59.3200757096" lon="34.6408433035"><ele>172.992</ele><time>2026-08-13T22:36:52.999Z</time><hdop>4.687</hdop><vdop>6.0</vdop><extensions><gom:speed>1.173</gom:speed><gom:course>113.803</gom:course><gom:rel_alt>3.934</gom:rel_alt></extensions></trkpt>
   <trkpt lat="59.3200354346" lon="34.6410203293"><ele>173.052</ele><time>2026-08-13T22:36:59.999Z</time><hdop>4.687</hdop><vdop>6.062</vdop><extensions><gom:speed>1.409</gom:speed><gom:course>115.045</gom:course><gom:rel_alt>3.886</gom:rel_alt></extensions></trkpt>
   <trkpt lat="59.3200043377" lon="34.6411883026"><ele>173.011</ele><time>2026-08-13T22:37:05.999Z</time><hdop>4.687</hdop><vdop>6.562</vdop><extensions><gom:speed>1.729</gom:speed><gom:course>109.299</gom:course><gom:rel_alt>3.564</gom:rel_alt></extensions></trkpt>
   <trkpt lat="59.3199885378" lon="34.641371531"><ele>172.297</ele><time>2026-08-13T22:37:12.999Z</time><hdop>4.687</hdop><vdop>6.562</vdop><extensions><gom:speed>1.591</gom:speed><gom:course>95.126</gom:course><gom:rel_alt>3.651</gom:rel_alt></extensions></trkpt>
   <trkpt lat="59.3199340136" lon="34.6415427733"><ele>171.234</ele><time>2026-08-13T22:37:20.999Z</time><hdop>4.687</hdop><vdop>6.312</vdop><extensions><gom:speed>1.624</gom:speed><gom:course>127.196</gom:course><gom:rel_alt>3.902</gom:rel_alt></extensions></trkpt>
   <trkpt lat="59.3198681318" lon="34.6416677475"><ele>169.975</ele><time>2026-08-13T22:37:27.999Z</time><hdop>4.687</hdop><vdop>6.25</vdop><extensions><gom:speed>1.635</gom:speed><gom:course>141.764</gom:course><gom:rel_alt>3.709</gom:rel_alt></extensions></trkpt>
   <trkpt lat="59.3197802056" lon="34.6417688333"><ele>168.283</ele><time>2026-08-13T22:37:34.999Z</time><hdop>4.687</hdop><vdop>6.375</vdop><extensions><gom:speed>1.574</gom:speed><gom:course>154.426</gom:course><gom:rel_alt>3.234</gom:rel_alt></extensions></trkpt>
   <trkpt lat="59.3197071573" lon="34.6418763731"><ele>168.717</ele><time>2026-08-13T22:37:40.999Z</time><hdop>4.687</hdop><vdop>6.5</vdop><extensions><gom:speed>1.656</gom:speed><gom:course>146.57</gom:course><gom:rel_alt>2.821</gom:rel_alt></extensions></trkpt>
   <trkpt lat="59.3196316364" lon="34.6419966534"><ele>167.938</ele><time>2026-08-13T22:37:46.998Z</time><hdop>4.687</hdop><vdop>6.5</vdop><extensions><gom:speed>1.659</gom:speed><gom:course>141.599</gom:course><gom:rel_alt>2.668</gom:rel_alt></extensions></trkpt>
   <trkpt lat="59.3195463086" lon="34.6420776226"><ele>167.823</ele><time>2026-08-13T22:37:53.998Z</time><hdop>4.687</hdop><vdop>5.625</vdop><extensions><gom:speed>1.333</gom:speed><gom:course>154.695</gom:course><gom:rel_alt>2.219</gom:rel_alt></extensions></trkpt>
   <trkpt lat="59.3194784571" lon="34.6422139961"><ele>166.47</ele><time>2026-08-13T22:38:00.998Z</time><hdop>4.687</hdop><vdop>6.0</vdop><extensions><gom:speed>1.387</gom:speed><gom:course>130.86</gom:course><gom:rel_alt>1.471</gom:rel_alt></extensions></trkpt>
   <trkpt lat="59.3194439656" lon="34.6423980627"><ele>167.333</ele><time>2026-08-13T22:38:09.998Z</time><hdop>4.687</hdop><vdop>5.687</vdop><extensions><gom:speed>1.169</gom:speed><gom:course>87.891</gom:course><gom:rel_alt>1.046</gom:rel_alt></extensions></trkpt>
   <trkpt lat="59.31944099" lon="34.642609119"><ele>165.928</ele><time>2026-08-13T22:38:16.998Z</time><hdop>4.687</hdop><vdop>5.625</vdop><extensions><gom:speed>1.624</gom:speed><gom:course>92.747</gom:course><gom:rel_alt>0.8</gom:rel_alt></extensions></trkpt>
   <trkpt lat="59.319422466" lon="34.6427952811"><ele>165.582</ele><time>2026-08-13T22:38:26.997Z</time><hdop>4.687</hdop><vdop>5.125</vdop><extensions><gom:speed>1.588</gom:speed><gom:course>104.712</gom:course><gom:rel_alt>0.597</gom:rel_alt></extensions></trkpt>
   <trkpt lat="59.3194012598" lon="34.6429885678"><ele>164.911</ele><time>2026-08-13T22:38:31.997Z</time><hdop>4.687</hdop><vdop>5.187</vdop><extensions><gom:speed>2.505</gom:speed><gom:course>103.295</gom:course><gom:rel_alt>0.76</gom:rel_alt></extensions></trkpt>
   <trkpt lat="59.3193787125" lon="34.6431591395"><ele>164.028</ele><time>2026-08-13T22:38:36.997Z</time><hdop>4.687</hdop><vdop>5.0</vdop><extensions><gom:speed>2.08</gom:speed><gom:course>102.74</gom:course><gom:rel_alt>0.948</gom:rel_alt></extensions></trkpt>
   <trkpt lat="59.3193505074" lon="34.6433340699"><ele>164.785</ele><time>2026-08-13T22:38:40.997Z</time><hdop>4.687</hdop><vdop>4.875</vdop><extensions><gom:speed>2.725</gom:speed><gom:course>109.403</gom:course><gom:rel_alt>1.08</gom:rel_alt></extensions></trkpt>
   <trkpt lat="59.3192971566" lon="34.6434886321"><ele>164.7</ele><time>2026-08-13T22:38:44.997Z</time><hdop>4.687</hdop><vdop>4.812</vdop><extensions><gom:speed>2.721</gom:speed><gom:course>130.189</gom:course><gom:rel_alt>1.138</gom:rel_alt></extensions></trkpt>
   <trkpt lat="59.319231191" lon="34.6436530013"><ele>165.44</ele><time>2026-08-13T22:38:48.997Z</time><hdop>4.687</hdop><vdop>5.0</vdop><extensions><gom:speed>2.772</gom:speed><gom:course>131.717</gom:course><gom:rel_alt>1.397</gom:rel_alt></extensions></trkpt>
   <trkpt lat="59.3191709251" lon="34.6437851839"><ele>165.723</ele><time>2026-08-13T22:38:52.997Z</time><hdop>4.687</hdop><vdop>5.187</vdop><extensions><gom:speed>2.233</gom:speed><gom:course>129.745</gom:course></extensions></trkpt>
   <trkpt lat="59.3191042051" lon="34.6439472061"><ele>165.799</ele><time>2026-08-13T22:38:57.999Z</time><hdop>4.687</hdop><vdop>5.687</vdop><extensions><gom:speed>2.429</gom:speed><gom:course>127.783</gom:course><gom:rel_alt>2.034</gom:rel_alt></extensions></trkpt>
   <trkpt lat="59.3190488008" lon="34.6440948114"><ele>165.645</ele><time>2026-08-13T22:39:01.999Z</time><hdop>4.687</hdop><vdop>5.875</vdop><extensions><gom:speed>1.17</gom:speed><gom:course>126.059</gom:course><gom:rel_alt>2.428</gom:rel_alt></extensions></trkpt>
   <trkpt lat="59.3189891635" lon="34.6442810573"><ele>164.6</ele><time>2026-08-13T22:39:05.999Z</time><hdop>4.687</hdop><vdop>5.75</vdop><extensions><gom:speed>2.391</gom:speed><gom:course>119.763</gom:course><gom:rel_alt>2.56</gom:rel_alt></extensions></trkpt>
   <trkpt lat="59.3189358546" lon="34.6444471028"><ele>166.068</ele><time>2026-08-13T22:39:09.999Z</time><hdop>4.687</hdop><vdop>5.937</vdop><extensions><gom:speed>1.164</gom:speed><gom:course>118.796</gom:course></extensions></trkpt>
   <trkpt lat="59.3188933584" lon="34.6446311694"><ele>166.357</ele><time>2026-08-13T22:39:13.999Z</time><hdop>4.687</hdop><vdop>5.437</vdop><extensions><gom:speed>2.442</gom:speed><gom:course>113.842</gom:course><gom:rel_alt>3.675</gom:rel_alt></extensions></trkpt>
   <trkpt lat="59.3188558494" lon="34.6448213548"><ele>168.163</ele><time>2026-08-13T22:39:18.999Z</time><hdop>4.687</hdop><vdop>6.0</vdop><extensions><gom:speed>1.184</gom:speed><gom:course>108.639</gom:course><gom:rel_alt>4.816</gom:rel_alt></extensions></trkpt>
   <trkpt lat="59.3188338469" lon="34.6450326625"><ele>171.273</ele><time>2026-08-13T22:39:22.999Z</time><hdop>4.687</hdop><vdop>5.812</vdop><extensions><gom:speed>2.221</gom:speed><gom:course>104.031</gom:course><gom:rel_alt>5.762</gom:rel_alt></extensions></trkpt>
   <trkpt lat="59.3187882074" lon="34.645271882"><ele>169.23</ele><time>2026-08-13T22:39:26.999Z</time><hdop>4.687</hdop><vdop>5.437</vdop><extensions><gom:speed>3.646</gom:speed><gom:course>110.666</gom:course></extensions></trkpt>
   <trkpt lat="59.3187419393" lon="34.6454546914"><ele>168.858</ele><time>2026-08-13T22:39:30.999Z</time><hdop>4.687</hdop><vdop>5.187</vdop><extensions><gom:speed>2.463</gom:speed><gom:course>117.181</gom:course><gom:rel_alt>6.492</gom:rel_alt></extensions></trkpt>
   <trkpt lat="59.3186822182" lon="34.6455869578"><ele>169.682</ele><time>2026-08-13T22:39:34.999Z</time><hdop>4.687</hdop><vdop>5.187</vdop><extensions><gom:speed>2.321</gom:speed><gom:course>144.933</gom:course><gom:rel_alt>6.283</gom:rel_alt></extensions></trkpt>
   <trkpt lat="59.3186038893" lon="34.6457057294"><ele>168.695</ele><time>2026-08-13T22:39:38.999Z</time><hdop>4.687</hdop><vdop>5.062</vdop><extensions><gom:speed>2.578</gom:speed><gom:course>136.216</gom:course><gom:rel_alt>5.939</gom:rel_alt></extensions></trkpt>
   <trkpt lat="59.3185284103" lon="34.6458053064"><ele>168.928</ele><time>2026-08-13T22:39:42.999Z</time><hdop>4.687</hdop><vdop>5.812</vdop><extensions><gom:speed>1.265</gom:speed><gom:course>150.201</gom:course></extensions></trkpt>
   <trkpt lat="59.3184512549" lon="34.6458982617"><ele>168.875</ele><time>2026-08-13T22:39:45.999Z</time><hdop>4.687</hdop><vdop>5.437</vdop><extensions><gom:speed>2.848</gom:speed><gom:course>151.58</gom:course><gom:rel_alt>5.313</gom:rel_alt></extensions></trkpt>
   <trkpt lat="59.3183797153" lon="34.6460090704"><ele>169.503</ele><time>2026-08-13T22:39:49.999Z</time><hdop>4.687</hdop><vdop>6.062</vdop><extensions><gom:speed>1.361</gom:speed><gom:course>146.389</gom:course><gom:rel_alt>4.922</gom:rel_alt></extensions></trkpt>
   <trkpt lat="59.3182808508" lon="34.6461647224"><ele>169.782</ele><time>2026-08-13T22:39:53.998Z</time><hdop>4.687</hdop><vdop>5.812</vdop><extensions><gom:speed>3.141</gom:speed><gom:course>143.467</gom:course><gom:rel_alt>4.732</gom:rel_alt></extensions></trkpt>
   <trkpt lat="59.3182125802" lon="34.6463547401"><ele>170.202</ele><time>2026-08-13T22:39:58.998Z</time><hdop>4.687</hdop><vdop>6.375</vdop><extensions><gom:speed>1.72</gom:speed><gom:course>120.521</gom:course><gom:rel_alt>4.423</gom:rel_alt></extensions></trkpt>
   <trkpt lat="59.3181813995" lon="34.6465402316"><ele>170.148</ele><time>2026-08-13T22:40:01.998Z</time><hdop>4.687</hdop><vdop>6.375</vdop><extensions><gom:speed>2.745</gom:speed><gom:course>107.706</gom:course><gom:rel_alt>4.51</gom:rel_alt></extensions></trkpt>
   <trkpt lat="59.3181472013" lon="34.6467180956"><ele>170.277</ele><time>2026-08-13T22:40:04.998Z</time><hdop>4.687</hdop><vdop>6.562</vdop><extensions><gom:speed>2.899</gom:speed><gom:course>107.255</gom:course><gom:rel_alt>4.624</gom:rel_alt></extensions></trkpt>
   <trkpt lat="59.3181158949" lon="34.6468933612"><ele>170.545</ele><time>2026-08-13T22:40:07.998Z</time><hdop>4.687</hdop><vdop>6.5</vdop><extensions><gom:speed>2.952</gom:speed><gom:course>106.766</gom:course><gom:rel_alt>4.206</gom:rel_alt></extensions></trkpt>
   <trkpt lat="59.3180890728" lon="34.647100478"><ele>170.982</ele><time>2026-08-13T22:40:11.998Z</time><hdop>4.687</hdop><vdop>6.437</vdop><extensions><gom:speed>1.823</gom:speed><gom:course>103.937</gom:course><gom:rel_alt>3.553</gom:rel_alt></extensions></trkpt>
   <trkpt lat="59.3180430981" lon="34.6472821977"><ele>171.076</ele><time>2026-08-13T22:40:14.998Z</time><hdop>4.687</hdop><vdop>5.5</vdop><extensions><gom:speed>2.717</gom:speed><gom:course>121.318</gom:course><gom:rel_alt>3.149</gom:rel_alt></extensions></trkpt>
   <trkpt lat="59.3180008533" lon="34.647437682"><ele>171.771</ele><time>2026-08-13T22:40:17.998Z</time><hdop>4.687</hdop><vdop>6.0</vdop><extensions><gom:speed>1.856</gom:speed><gom:course>112.996</gom:course><gom:rel_alt>2.972</gom:rel_alt></extensions></trkpt>
   <trkpt lat="59.3179519449" lon="34.6476196531"><ele>171.394</ele><time>2026-08-13T22:40:21.998Z</time><hdop>4.687</hdop><vdop>6.312</vdop><extensions><gom:speed>1.921</gom:speed><gom:course>114.578</gom:course><gom:rel_alt>2.843</gom:rel_alt></extensions></trkpt>
   <trkpt lat="59.3179098678" lon="34.6478029654"><ele>170.566</ele><time>2026-08-13T22:40:25.998Z</time><hdop>4.687</hdop><vdop>6.5</vdop><extensions><gom:speed>1.777</gom:speed><gom:course>110.134</gom:course><gom:rel_alt>2.322</gom:rel_alt></extensions></trkpt>
   <trkpt lat="59.3178724426" lon="34.64799072"><ele>170.645</ele><time>2026-08-13T22:40:29.998Z</time><hdop>4.687</hdop><vdop>6.625</vdop><extensions><gom:speed>1.689</gom:speed><gom:course>108.601</gom:course><gom:rel_alt>1.849</gom:rel_alt></extensions></trkpt>
   <trkpt lat="59.3178392921" lon="34.6481592801"><ele>171.235</ele><time>2026-08-13T22:40:32.998Z</time><hdop>4.687</hdop><vdop>6.75</vdop><extensions><gom:speed>1.713</gom:speed><gom:course>104.294</gom:course><gom:rel_alt>1.685</gom:rel_alt></extensions></trkpt>
   <trkpt lat="59.3177926468" lon="34.6483420894"><ele>170.888</ele><time>2026-08-13T22:40:36.997Z</time><hdop>4.687</hdop><vdop>6.812</vdop><extensions><gom:speed>1.677</gom:speed><gom:course>118.077</gom:course><gom:rel_alt>1.424</gom:rel_alt></extensions></trkpt>
   <trkpt lat="59.3177456663" lon="34.6485336159"><ele>170.099</ele><time>2026-08-13T22:40:40.997Z</time><hdop>4.687</hdop><vdop>6.812</vdop><extensions><gom:speed>1.684</gom:speed><gom:course>112.128</gom:course><gom:rel_alt>1.096</gom:rel_alt></extensions></trkpt>
   <trkpt lat="59.3177273937" lon="34.6487327699"><ele>169.352</ele><time>2026-08-13T22:40:44.997Z</time><hdop>4.687</hdop><vdop>6.5</vdop><extensions><gom:speed>1.684</gom:speed><gom:course>103.602</gom:course><gom:rel_alt>1.022</gom:rel_alt></extensions></trkpt>
   <trkpt lat="59.3176694329" lon="34.6488752622"><ele>168.825</ele><time>2026-08-13T22:40:47.997Z</time><hdop>4.687</hdop><vdop>6.625</vdop><extensions><gom:speed>1.505</gom:speed><gom:course>129.135</gom:course><gom:rel_alt>0.919</gom:rel_alt></extensions></trkpt>
   <trkpt lat="59.3175997373" lon="34.6490037568"><ele>166.87</ele><time>2026-08-13T22:40:50.997Z</time><hdop>4.687</hdop><vdop>6.5</vdop><extensions><gom:speed>1.482</gom:speed><gom:course>136.15</gom:course></extensions></trkpt>
   <trkpt lat="59.3175225819" lon="34.6491730712"><ele>165.008</ele><time>2026-08-13T22:40:54.997Z</time><hdop>4.687</hdop><vdop>6.312</vdop><extensions><gom:speed>1.658</gom:speed><gom:course>130.601</gom:course><gom:rel_alt>0.351</gom:rel_alt></extensions></trkpt>
   <trkpt lat="59.317462316" lon="34.6493049186"><ele>166.263</ele><time>2026-08-13T22:40:57.997Z</time><hdop>4.687</hdop><vdop>6.25</vdop><extensions><gom:speed>1.581</gom:speed><gom:course>128.915</gom:course><gom:rel_alt>-0.018</gom:rel_alt></extensions></trkpt>
   <trkpt lat="59.3174177243" lon="34.6494639233"><ele>167.001</ele><time>2026-08-13T22:41:00.997Z</time><hdop>4.687</hdop><vdop>6.187</vdop><extensions><gom:speed>2.103</gom:speed><gom:course>123.554</gom:course><gom:rel_alt>-0.301</gom:rel_alt></extensions></trkpt>
   <trkpt lat="59.3173773235" lon="34.6497144584"><ele>168.344</ele><time>2026-08-13T22:41:03.999Z</time><hdop>4.687</hdop><vdop>5.687</vdop><extensions><gom:speed>4.805</gom:speed><gom:course>106.305</gom:course><gom:rel_alt>-0.277</gom:rel_alt></extensions></trkpt>
   <trkpt lat="59.317358129" lon="34.649931382"><ele>168.74</ele><time>2026-08-13T22:41:06.999Z</time><hdop>4.687</hdop><vdop>5.437</vdop><extensions><gom:speed>3.508</gom:speed><gom:course>95.835</gom:course><gom:rel_alt>0.018</gom:rel_alt></extensions></trkpt>
   <trkpt lat="59.3173389344" lon="34.6501269318"><ele>168.935</ele><time>2026-08-13T22:41:09.999Z</time><hdop>4.687</hdop><vdop>5.437</vdop><extensions><gom:speed>3.577</gom:speed><gom:course>97.307</gom:course><gom:rel_alt>0.145</gom:rel_alt></extensions></trkpt>
   <trkpt lat="59.3173296305" lon="34.6503291871"><ele>169.011</ele><time>2026-08-13T22:41:12.999Z</time><hdop>4.687</hdop><vdop>5.5</vdop><extensions><gom:speed>3.77</gom:speed><gom:course>88.1</gom:course><gom:rel_alt>0.013</gom:rel_alt></extensions></trkpt>
   <trkpt lat="59.3173279122" lon="34.6505250722"><ele>168.13</ele><time>2026-08-13T22:41:15.999Z</time><hdop>4.687</hdop><vdop>5.5</vdop><extensions><gom:speed>3.48</gom:speed><gom:course>90.116</gom:course><gom:rel_alt>0.121</gom:rel_alt></extensions></trkpt>
   <trkpt lat="59.3173308878" lon="34.6507161796"><ele>167.964</ele><time>2026-08-13T22:41:18.999Z</time><hdop>4.687</hdop><vdop>5.437</vdop><extensions><gom:speed>3.66</gom:speed><gom:course>90.808</gom:course><gom:rel_alt>0.206</gom:rel_alt></extensions></trkpt>
   <trkpt lat="59.3173225478" lon="34.6509301696"><ele>167.973</ele><time>2026-08-13T22:41:21.999Z</time><hdop>4.687</hdop><vdop>5.687</vdop><extensions><gom:speed>3.877</gom:speed><gom:course>91.286</gom:course><gom:rel_alt>0.301</gom:rel_alt></extensions></trkpt>
   <trkpt lat="59.3173243499" lon="34.6511234563"><ele>167.194</ele><time>2026-08-13T22:41:24.999Z</time><hdop>4.687</hdop><vdop>5.375</vdop><extensions><gom:speed>3.575</gom:speed><gom:course>86.276</gom:course></extensions></trkpt>
   <trkpt lat="59.3173253977" lon="34.6513325848"><ele>167.06</ele><time>2026-08-13T22:41:27.999Z</time><hdop>4.687</hdop><vdop>5.625</vdop><extensions><gom:speed>3.806</gom:speed><gom:course>86.694</gom:course><gom:rel_alt>0.607</gom:rel_alt></extensions></trkpt>
   <trkpt lat="59.3173441312" lon="34.6516087685"><ele>166.662</ele><time>2026-08-13T22:41:30.999Z</time><hdop>4.687</hdop><vdop>5.375</vdop><extensions><gom:speed>5.764</gom:speed><gom:course>76.169</gom:course><gom:rel_alt>0.692</gom:rel_alt></extensions></trkpt>
   <trkpt lat="59.3173225897" lon="34.6517920807"><ele>165.72</ele><time>2026-08-13T22:41:33.999Z</time><hdop>4.687</hdop><vdop>5.5</vdop><extensions><gom:speed>4.132</gom:speed><gom:course>88.858</gom:course><gom:rel_alt>0.742</gom:rel_alt></extensions></trkpt>
   <trkpt lat="59.3173266968" lon="34.6520027179"><ele>164.497</ele><time>2026-08-13T22:41:37.999Z</time><hdop>4.687</hdop><vdop>6.187</vdop><extensions><gom:speed>1.436</gom:speed><gom:course>85.848</gom:course><gom:rel_alt>0.449</gom:rel_alt></extensions></trkpt>
   <trkpt lat="59.3173338634" lon="34.6522248384"><ele>164.257</ele><time>2026-08-13T22:41:41.999Z</time><hdop>4.687</hdop><vdop>6.312</vdop><extensions><gom:speed>1.694</gom:speed><gom:course>88.43</gom:course></extensions></trkpt>
   <trkpt lat="59.3173422453" lon="34.6524222322"><ele>163.666</ele><time>2026-08-13T22:41:44.999Z</time><hdop>4.687</hdop><vdop>5.625</vdop><extensions><gom:speed>3.324</gom:speed><gom:course>82.003</gom:course><gom:rel_alt>-0.079</gom:rel_alt></extensions></trkpt>
   <trkpt lat="59.317366008" lon="34.6525922172"><ele>163.602</ele><time>2026-08-13T22:41:48.999Z</time><hdop>4.687</hdop><vdop>5.687</vdop><extensions><gom:speed>2.748</gom:speed><gom:course>71.302</gom:course><gom:rel_alt>-0.076</gom:rel_alt></extensions></trkpt>
   <trkpt lat="59.3173813049" lon="34.6527871803"><ele>163.07</ele><time>2026-08-13T22:41:52.999Z</time><hdop>4.687</hdop><vdop>5.875</vdop><extensions><gom:speed>2.649</gom:speed><gom:course>80.964</gom:course><gom:rel_alt>0.007</gom:rel_alt></extensions></trkpt>
   <trkpt lat="59.3174047324" lon="34.6529757731"><ele>162.371</ele><time>2026-08-13T22:41:56.999Z</time><hdop>4.687</hdop><vdop>6.0</vdop><extensions><gom:speed>1.614</gom:speed><gom:course>74.532</gom:course><gom:rel_alt>0.264</gom:rel_alt></extensions></trkpt>
   <trkpt lat="59.3174230049" lon="34.6531652879"><ele>163.319</ele><time>2026-08-13T22:41:58.998Z</time><hdop>4.687</hdop><vdop>5.375</vdop><extensions><gom:speed>3.95</gom:speed><gom:course>78.339</gom:course></extensions></trkpt>
   <trkpt lat="59.3174370027" lon="34.6533525396"><ele>164.22</ele><time>2026-08-13T22:42:01.998Z</time><hdop>4.687</hdop><vdop>5.312</vdop><extensions><gom:speed>3.539</gom:speed><gom:course>79.135</gom:course><gom:rel_alt>0.306</gom:rel_alt></extensions></trkpt>
   <trkpt lat="59.3174391401" lon="34.6535687927"><ele>164.061</ele><time>2026-08-13T22:42:04.998Z</time><hdop>4.687</hdop><vdop>5.375</vdop><extensions><gom:speed>3.936</gom:speed><gom:course>85.656</gom:course><gom:rel_alt>0.43</gom:rel_alt></extensions></trkpt>
   <trkpt lat="59.3174445883" lon="34.6538073417"><ele>164.149</ele><time>2026-08-13T22:42:07.998Z</time><hdop>4.687</hdop><vdop>5.312</vdop><extensions><gom:speed>4.498</gom:speed><gom:course>88.573</gom:course><gom:rel_alt>0.644</gom:rel_alt></extensions></trkpt>
   <trkpt lat="59.3174614778" lon="34.6540344074"><ele>164.105</ele><time>2026-08-13T22:42:10.998Z</time><hdop>4.687</hdop><vdop>5.125</vdop><extensions><gom:speed>4.245</gom:speed><gom:course>79.866</gom:course><gom:rel_alt>0.89</gom:rel_alt></extensions></trkpt>
   <trkpt lat="59.3174845281" lon="34.6542516664"><ele>164.543</ele><time>2026-08-13T22:42:13.998Z</time><hdop>4.687</hdop><vdop>5.187</vdop><extensions><gom:speed>4.123</gom:speed><gom:course>77.581</gom:course><gom:rel_alt>1.03</gom:rel_alt></extensions></trkpt>
   <trkpt lat="59.3175217437" lon="34.6544744574"><ele>164.463</ele><time>2026-08-13T22:42:16.998Z</time><hdop>4.687</hdop><vdop>5.062</vdop><extensions><gom:speed>4.318</gom:speed><gom:course>72.615</gom:course><gom:rel_alt>1.112</gom:rel_alt></extensions></trkpt>
   <trkpt lat="59.3175569477" lon="34.6546744496"><ele>164.655</ele><time>2026-08-13T22:42:19.998Z</time><hdop>4.687</hdop><vdop>5.0</vdop><extensions><gom:speed>4.02</gom:speed><gom:course>71.214</gom:course><gom:rel_alt>1.146</gom:rel_alt></extensions></trkpt>
   <trkpt lat="59.3176140704" lon="34.6548637968"><ele>164.377</ele><time>2026-08-13T22:42:22.998Z</time><hdop>4.687</hdop><vdop>4.937</vdop><extensions><gom:speed>4.127</gom:speed><gom:course>60.837</gom:course><gom:rel_alt>1.078</gom:rel_alt></extensions></trkpt>
   <trkpt lat="59.317642024" lon="34.6550714165"><ele>164.749</ele><time>2026-08-13T22:42:25.998Z</time><hdop>4.687</hdop><vdop>5.0</vdop><extensions><gom:speed>4.116</gom:speed><gom:course>73.235</gom:course><gom:rel_alt>0.951</gom:rel_alt></extensions></trkpt>
   <trkpt lat="59.3176673374" lon="34.6552642003"><ele>164.724</ele><time>2026-08-13T22:42:28.998Z</time><hdop>4.687</hdop><vdop>5.187</vdop><extensions><gom:speed>3.465</gom:speed><gom:course>77.465</gom:course><gom:rel_alt>0.906</gom:rel_alt></extensions></trkpt>
   <trkpt lat="59.3176799522" lon="34.6554552239"><ele>163.889</ele><time>2026-08-13T22:42:32.998Z</time><hdop>4.687</hdop><vdop>5.625</vdop><extensions><gom:speed>2.076</gom:speed><gom:course>87.342</gom:course><gom:rel_alt>1.141</gom:rel_alt></extensions></trkpt>
   <trkpt lat="59.3176893399" lon="34.6556636818"><ele>163.944</ele><time>2026-08-13T22:42:36.998Z</time><hdop>4.687</hdop><vdop>3.437</vdop><extensions><gom:speed>1.373</gom:speed><gom:course>79.426</gom:course><gom:rel_alt>1.395</gom:rel_alt></extensions></trkpt>
   <trkpt lat="59.3177120968" lon="34.6558373548"><ele>164.105</ele><time>2026-08-13T22:42:38.998Z</time><hdop>4.687</hdop><vdop>3.437</vdop><extensions><gom:speed>4.038</gom:speed><gom:course>74.46</gom:course><gom:rel_alt>1.487</gom:rel_alt></extensions></trkpt>
   <trkpt lat="59.3177421878" lon="34.6560412027"><ele>163.598</ele><time>2026-08-13T22:42:41.997Z</time><hdop>4.687</hdop><vdop>3.375</vdop><extensions><gom:speed>4.334</gom:speed><gom:course>71.181</gom:course><gom:rel_alt>1.934</gom:rel_alt></extensions></trkpt>
   <trkpt lat="59.3177902999" lon="34.6562726271"><ele>163.257</ele><time>2026-08-13T22:42:44.997Z</time><hdop>4.687</hdop><vdop>3.687</vdop><extensions><gom:speed>4.649</gom:speed><gom:course>62.546</gom:course><gom:rel_alt>2.137</gom:rel_alt></extensions></trkpt>
   <trkpt lat="59.3178595763" lon="34.6565749623"><ele>161.433</ele><time>2026-08-13T22:42:47.997Z</time><hdop>4.687</hdop><vdop>4.0</vdop><extensions><gom:speed>4.519</gom:speed><gom:course>61.87</gom:course><gom:rel_alt>1.709</gom:rel_alt></extensions></trkpt>
   <trkpt lat="59.3179135977" lon="34.6567837555"><ele>161.155</ele><time>2026-08-13T22:42:50.997Z</time><hdop>4.687</hdop><vdop>4.0</vdop><extensions><gom:speed>4.409</gom:speed><gom:course>65.034</gom:course><gom:rel_alt>1.056</gom:rel_alt></extensions></trkpt>
   <trkpt lat="59.3179552558" lon="34.6569422573"><ele>160.894</ele><time>2026-08-13T22:42:53.997Z</time><hdop>4.687</hdop><vdop>4.0</vdop><extensions><gom:speed>3.539</gom:speed><gom:course>63.628</gom:course><gom:rel_alt>0.137</gom:rel_alt></extensions></trkpt>
   <trkpt lat="59.3180006019" lon="34.6571368851"><ele>160.865</ele><time>2026-08-13T22:42:57.997Z</time><hdop>4.687</hdop><vdop>4.0</vdop><extensions><gom:speed>3.119</gom:speed><gom:course>66.792</gom:course><gom:rel_alt>-0.591</gom:rel_alt></extensions></trkpt>
   <trkpt lat="59.3180394939" lon="34.6573594246"><ele>161.592</ele><time>2026-08-13T22:43:01.997Z</time><hdop>4.687</hdop><vdop>4.0</vdop><extensions><gom:speed>3.499</gom:speed><gom:course>71.362</gom:course><gom:rel_alt>-0.71</gom:rel_alt></extensions></trkpt>
   <trkpt lat="59.3180755361" lon="34.6575257216"><ele>162.047</ele><time>2026-08-13T22:43:04.997Z</time><hdop>4.687</hdop><vdop>4.0</vdop><extensions><gom:speed>3.469</gom:speed><gom:course>68.198</gom:course><gom:rel_alt>-0.232</gom:rel_alt></extensions></trkpt>
   <trkpt lat="59.3181161045" lon="34.6576829661"><ele>161.541</ele><time>2026-08-13T22:43:08.997Z</time><hdop>4.687</hdop><vdop>5.687</vdop><extensions><gom:speed>1.583</gom:speed><gom:course>69.055</gom:course><gom:rel_alt>0.169</gom:rel_alt></extensions></trkpt>
   <trkpt lat="59.3181666055" lon="34.6578721456"><ele>159.503</ele><time>2026-08-13T22:43:12.999Z</time><hdop>4.687</hdop><vdop>5.625</vdop><extensions><gom:speed>1.677</gom:speed><gom:course>68.099</gom:course><gom:rel_alt>0.031</gom:rel_alt></extensions></trkpt>
   <trkpt lat="59.318193679" lon="34.6580777537"><ele>160.198</ele><time>2026-08-13T22:43:16.999Z</time><hdop>4.687</hdop><vdop>3.562</vdop><extensions><gom:speed>1.696</gom:speed><gom:course>71.758</gom:course><gom:rel_alt>-0.528</gom:rel_alt></extensions></trkpt>
   <trkpt lat="59.3182124126" lon="34.6582507562"><ele>159.824</ele><time>2026-08-13T22:43:18.999Z</time><hdop>4.687</hdop><vdop>3.812</vdop><extensions><gom:speed>3.871</gom:speed><gom:course>78.894</gom:course><gom:rel_alt>-0.708</gom:rel_alt></extensions></trkpt>
   <trkpt lat="59.3182179446" lon="34.6584278658"><ele>159.382</ele><time>2026-08-13T22:43:21.999Z</time><hdop>4.687</hdop><vdop>3.312</vdop><extensions><gom:speed>2.743</gom:speed><gom:course>86.776</gom:course><gom:rel_alt>-1.075</gom:rel_alt></extensions></trkpt>
   <trkpt lat="59.3182099399" lon="34.6586197276"><ele>160.117</ele><time>2026-08-13T22:43:23.999Z</time><hdop>4.687</hdop><vdop>3.125</vdop><extensions><gom:speed>3.824</gom:speed><gom:course>96.362</gom:course><gom:rel_alt>-1.149</gom:rel_alt></extensions></trkpt>
   <trkpt lat="59.3182211716" lon="34.6588549238"><ele>161.185</ele><time>2026-08-13T22:43:26.999Z</time><hdop>4.687</hdop><vdop>3.0</vdop><extensions><gom:speed>4.058</gom:speed><gom:course>87.677</gom:course><gom:rel_alt>-1.006</gom:rel_alt></extensions></trkpt>
   <trkpt lat="59.3182323196" lon="34.6590913773"><ele>161.618</ele><time>2026-08-13T22:43:29.999Z</time><hdop>4.687</hdop><vdop>3.0</vdop><extensions><gom:speed>4.217</gom:speed><gom:course>85.029</gom:course><gom:rel_alt>-0.428</gom:rel_alt></extensions></trkpt>
   <trkpt lat="59.3182415816" lon="34.6592949737"><ele>162.346</ele><time>2026-08-13T22:43:33.999Z</time><hdop>4.687</hdop><vdop>3.125</vdop><extensions><gom:speed>1.973</gom:speed><gom:course>87.529</gom:course><gom:rel_alt>0.145</gom:rel_alt></extensions></trkpt>
   <trkpt lat="59.318243216" lon="34.659471748"><ele>161.923</ele><time>2026-08-13T22:43:37.999Z</time><hdop>4.687</hdop><vdop>5.625</vdop><extensions><gom:speed>1.627</gom:speed><gom:course>85.244</gom:course><gom:rel_alt>0.287</gom:rel_alt></extensions></trkpt>
   <trkpt lat="59.3182672302" lon="34.659653803"><ele>162.263</ele><time>2026-08-13T22:43:41.999Z</time><hdop>4.687</hdop><vdop>5.687</vdop><extensions><gom:speed>1.771</gom:speed><gom:course>76.449</gom:course><gom:rel_alt>0.198</gom:rel_alt></extensions></trkpt>
   <trkpt lat="59.318294639" lon="34.6598522026"><ele>161.994</ele><time>2026-08-13T22:43:45.999Z</time><hdop>4.687</hdop><vdop>5.812</vdop><extensions><gom:speed>1.765</gom:speed><gom:course>76.592</gom:course><gom:rel_alt>0.182</gom:rel_alt></extensions></trkpt>
   <trkpt lat="59.3183126182" lon="34.6600268815"><ele>162.024</ele><time>2026-08-13T22:43:48.999Z</time><hdop>4.687</hdop><vdop>5.75</vdop><extensions><gom:speed>1.906</gom:speed><gom:course>78.899</gom:course><gom:rel_alt>0.031</gom:rel_alt></extensions></trkpt>
   <trkpt lat="59.318325694" lon="34.6602267061"><ele>162.61</ele><time>2026-08-13T22:43:52.999Z</time><hdop>4.687</hdop><vdop>3.312</vdop><extensions><gom:speed>1.713</gom:speed><gom:course>88.056</gom:course><gom:rel_alt>-0.467</gom:rel_alt></extensions></trkpt>
   <trkpt lat="59.3183272027" lon="34.6604104374"><ele>162.566</ele><time>2026-08-13T22:43:55.999Z</time><hdop>4.687</hdop><vdop>3.312</vdop><extensions><gom:speed>2.355</gom:speed><gom:course>92.775</gom:course><gom:rel_alt>-0.882</gom:rel_alt></extensions></trkpt>
   <trkpt lat="59.3183468583" lon="34.6606335636"><ele>163.006</ele><time>2026-08-13T22:43:59.999Z</time><hdop>4.687</hdop><vdop>3.25</vdop><extensions><gom:speed>1.729</gom:speed><gom:course>86.183</gom:course><gom:rel_alt>-0.916</gom:rel_alt></extensions></trkpt>
   <trkpt lat="59.3183542344" lon="34.66083255"><ele>161.683</ele><time>2026-08-13T22:44:02.999Z</time><hdop>4.687</hdop><vdop>3.375</vdop><extensions><gom:speed>3.214</gom:speed><gom:course>87.869</gom:course><gom:rel_alt>-0.816</gom:rel_alt></extensions></trkpt>
   <trkpt lat="59.3183575452" lon="34.6610214781"><ele>161.561</ele><time>2026-08-13T22:44:05.998Z</time><hdop>4.687</hdop><vdop>3.187</vdop><extensions><gom:speed>2.503</gom:speed><gom:course>85.068</gom:course><gom:rel_alt>-0.924</gom:rel_alt></extensions></trkpt>
   <trkpt lat="59.3183698666" lon="34.6612176146"><ele>162.143</ele><time>2026-08-13T22:44:09.998Z</time><hdop>4.687</hdop><vdop>3.562</vdop><extensions><gom:speed>1.49</gom:speed><gom:course>88.655</gom:course><gom:rel_alt>-1.067</gom:rel_alt></extensions></trkpt>
   <trkpt lat="59.3183709143" lon="34.6614185289"><ele>162.354</ele><time>2026-08-13T22:44:13.998Z</time><hdop>4.687</hdop><vdop>5.875</vdop><extensions><gom:speed>1.588</gom:speed><gom:course>84.716</gom:course></extensions></trkpt>
   <trkpt lat="59.3183940903" lon="34.6616740931"><ele>161.873</ele><time>2026-08-13T22:44:17.998Z</time><hdop>4.687</hdop><vdop>5.625</vdop><extensions><gom:speed>3.338</gom:speed><gom:course>78.042</gom:course><gom:rel_alt>-0.599</gom:rel_alt></extensions></trkpt>
   <trkpt lat="59.3184168472" lon="34.6618537173"><ele>161.865</ele><time>2026-08-13T22:44:20.998Z</time><hdop>4.687</hdop><vdop>5.687</vdop><extensions><gom:speed>1.44</gom:speed><gom:course>73.889</gom:course><gom:rel_alt>-0.507</gom:rel_alt></extensions></trkpt>
   <trkpt lat="59.3184494947" lon="34.6620416395"><ele>162.146</ele><time>2026-08-13T22:44:24.998Z</time><hdop>4.687</hdop><vdop>5.812</vdop><extensions><gom:speed>2.086</gom:speed><gom:course>70.912</gom:course><gom:rel_alt>-0.671</gom:rel_alt></extensions></trkpt>
   <trkpt lat="59.3184927872" lon="34.6622168213"><ele>162.395</ele><time>2026-08-13T22:44:29.998Z</time><hdop>4.687</hdop><vdop>5.937</vdop><extensions><gom:speed>1.5</gom:speed><gom:course>62.48</gom:course><gom:rel_alt>-0.827</gom:rel_alt></extensions></trkpt>
   <trkpt lat="59.3185358283" lon="34.6623876445"><ele>162.388</ele><time>2026-08-13T22:44:33.998Z</time><hdop>4.687</hdop><vdop>6.062</vdop><extensions><gom:speed>1.554</gom:speed><gom:course>61.326</gom:course><gom:rel_alt>-0.671</gom:rel_alt></extensions></trkpt>
   <trkpt lat="59.3185973934" lon="34.6625625748"><ele>162.507</ele><time>2026-08-13T22:44:37.998Z</time><hdop>4.687</hdop><vdop>5.875</vdop><extensions><gom:speed>1.53</gom:speed><gom:course>54.932</gom:course><gom:rel_alt>-0.425</gom:rel_alt></extensions></trkpt>
   <trkpt lat="59.3186675918" lon="34.662719987"><ele>162.504</ele><time>2026-08-13T22:44:40.998Z</time><hdop>4.687</hdop><vdop>5.125</vdop><extensions><gom:speed>3.044</gom:speed><gom:course>48.054</gom:course><gom:rel_alt>-0.383</gom:rel_alt></extensions></trkpt>
   <trkpt lat="59.3187460045" lon="34.6628722023"><ele>162.502</ele><time>2026-08-13T22:44:44.998Z</time><hdop>4.687</hdop><vdop>5.062</vdop><extensions><gom:speed>2.994</gom:speed><gom:course>42.852</gom:course><gom:rel_alt>-0.412</gom:rel_alt></extensions></trkpt>
   <trkpt lat="59.3188205196" lon="34.6630288601"><ele>162.484</ele><time>2026-08-13T22:44:48.997Z</time><hdop>4.687</hdop><vdop>5.062</vdop><extensions><gom:speed>2.891</gom:speed><gom:course>41.237</gom:course><gom:rel_alt>-0.539</gom:rel_alt></extensions></trkpt>
   <trkpt lat="59.3188840964" lon="34.6632057183"><ele>162.819</ele><time>2026-08-13T22:44:52.997Z</time><hdop>4.687</hdop><vdop>5.062</vdop><extensions><gom:speed>2.754</gom:speed><gom:course>52.021</gom:course><gom:rel_alt>-0.523</gom:rel_alt></extensions></trkpt>
   <trkpt lat="59.3189427697" lon="34.6633601129"><ele>161.801</ele><time>2026-08-13T22:44:57.997Z</time><hdop>4.687</hdop><vdop>5.812</vdop><extensions><gom:speed>1.554</gom:speed><gom:course>58.107</gom:course><gom:rel_alt>-0.457</gom:rel_alt></extensions></trkpt>
   <trkpt lat="59.3190221044" lon="34.6634933852"><ele>163.483</ele><time>2026-08-13T22:45:01.997Z</time><hdop>4.687</hdop><vdop>5.25</vdop><extensions><gom:speed>2.592</gom:speed><gom:course>40.375</gom:course><gom:rel_alt>-0.412</gom:rel_alt></extensions></trkpt>
   <trkpt lat="59.3190946917" lon="34.6636433374"><ele>163.192</ele><time>2026-08-13T22:45:05.997Z</time><hdop>4.687</hdop><vdop>5.375</vdop><extensions><gom:speed>2.395</gom:speed><gom:course>46.494</gom:course><gom:rel_alt>-0.343</gom:rel_alt></extensions></trkpt>
   <trkpt lat="59.3191557538" lon="34.6638144121"><ele>162.755</ele><time>2026-08-13T22:45:10.997Z</time><hdop>4.687</hdop><vdop>6.062</vdop><extensions><gom:speed>1.548</gom:speed><gom:course>56.206</gom:course><gom:rel_alt>-0.467</gom:rel_alt></extensions></trkpt>
   <trkpt lat="59.3191841266" lon="34.6640237082"><ele>161.698</ele><time>2026-08-13T22:45:15.999Z</time><hdop>4.687</hdop><vdop>6.25</vdop><extensions><gom:speed>1.542</gom:speed><gom:course>79.454</gom:course><gom:rel_alt>-0.412</gom:rel_alt></extensions></trkpt>
   <trkpt lat="59.3191969928" lon="34.664207691"><ele>160.362</ele><time>2026-08-13T22:45:19.999Z</time><hdop>4.687</hdop><vdop>6.187</vdop><extensions><gom:speed>1.751</gom:speed><gom:course>83.409</gom:course><gom:rel_alt>-0.369</gom:rel_alt></extensions></trkpt>
   <trkpt lat="59.3192127508" lon="34.6643936016"><ele>159.347</ele><time>2026-08-13T22:45:23.999Z</time><hdop>4.687</hdop><vdop>6.187</vdop><extensions><gom:speed>1.749</gom:speed><gom:course>80.943</gom:course><gom:rel_alt>-0.206</gom:rel_alt></extensions></trkpt>
   <trkpt lat="59.319232113" lon="34.6645706274"><ele>160.034</ele><time>2026-08-13T22:45:27.999Z</time><hdop>4.687</hdop><vdop>6.25</vdop><extensions><gom:speed>1.724</gom:speed><gom:course>80.031</gom:course><gom:rel_alt>-0.404</gom:rel_alt></extensions></trkpt>
   <trkpt lat="59.3192564205" lon="34.6647470664"><ele>160.181</ele><time>2026-08-13T22:45:30.999Z</time><hdop>4.687</hdop><vdop>5.5</vdop><extensions><gom:speed>3.384</gom:speed><gom:course>74.856</gom:course><gom:rel_alt>-0.594</gom:rel_alt></extensions></trkpt>
   <trkpt lat="59.3192746931" lon="34.6649255172"><ele>161.882</ele><time>2026-08-13T22:45:33.999Z</time><hdop>4.687</hdop><vdop>5.375</vdop><extensions><gom:speed>3.144</gom:speed><gom:course>77.531</gom:course><gom:rel_alt>-0.565</gom:rel_alt></extensions></trkpt>
   <trkpt lat="59.3192971985" lon="34.665112266"><ele>162.076</ele><time>2026-08-13T22:45:36.999Z</time><hdop>4.687</hdop><vdop>5.312</vdop><extensions><gom:speed>3.242</gom:speed><gom:course>76.537</gom:course><gom:rel_alt>-0.237</gom:rel_alt></extensions></trkpt>
   <trkpt lat="59.3193204163" lon="34.6652960811"><ele>162.989</ele><time>2026-08-13T22:45:39.999Z</time><hdop>4.687</hdop><vdop>5.375</vdop><extensions><gom:speed>3.254</gom:speed><gom:course>78.915</gom:course><gom:rel_alt>-0.013</gom:rel_alt></extensions></trkpt>
   <trkpt lat="59.3193526028" lon="34.6654709276"><ele>164.339</ele><time>2026-08-13T22:45:42.999Z</time><hdop>4.687</hdop><vdop>5.25</vdop><extensions><gom:speed>3.297</gom:speed><gom:course>73.422</gom:course><gom:rel_alt>0.393</gom:rel_alt></extensions></trkpt>
   <trkpt lat="59.3193893994" lon="34.6656889409"><ele>164.828</ele><time>2026-08-13T22:45:46.999Z</time><hdop>4.687</hdop><vdop>5.062</vdop><extensions><gom:speed>3.044</gom:speed><gom:course>72.818</gom:course><gom:rel_alt>1.183</gom:rel_alt></extensions></trkpt>
   <trkpt lat="59.3194393136" lon="34.665898237"><ele>165.176</ele><time>2026-08-13T22:45:50.999Z</time><hdop>4.687</hdop><vdop>5.187</vdop><extensions><gom:speed>3.434</gom:speed><gom:course>66.089</gom:course><gom:rel_alt>1.638</gom:rel_alt></extensions></trkpt>
   <trkpt lat="59.3194740985" lon="34.6660741732"><ele>165.43</ele><time>2026-08-13T22:45:53.999Z</time><hdop>4.687</hdop><vdop>5.312</vdop><extensions><gom:speed>3.329</gom:speed><gom:course>66.539</gom:course><gom:rel_alt>1.992</gom:rel_alt></extensions></trkpt>
   <trkpt lat="59.3195084224" lon="34.6662489358"><ele>163.725</ele><time>2026-08-13T22:45:57.999Z</time><hdop>4.687</hdop><vdop>6.0</vdop><extensions><gom:speed>1.71</gom:speed><gom:course>70.555</gom:course><gom:rel_alt>2.105</gom:rel_alt></extensions></trkpt>
   <trkpt lat="59.31955029" lon="34.6664444018"><ele>161.191</ele><time>2026-08-13T22:46:01.999Z</time><hdop>4.687</hdop><vdop>5.937</vdop><extensions><gom:speed>1.676</gom:speed><gom:course>61.304</gom:course><gom:rel_alt>1.244</gom:rel_alt></extensions></trkpt>
   <trkpt lat="59.3195911518" lon="34.6666140515"><ele>160.398</ele><time>2026-08-13T22:46:03.999Z</time><hdop>4.687</hdop><vdop>5.25</vdop><extensions><gom:speed>4.858</gom:speed><gom:course>62.93</gom:course><gom:rel_alt>0.768</gom:rel_alt></extensions></trkpt>
   <trkpt lat="59.31962996" lon="34.6667849586"><ele>161.205</ele><time>2026-08-13T22:46:06.999Z</time><hdop>4.687</hdop><vdop>4.937</vdop><extensions><gom:speed>3.314</gom:speed><gom:course>66.243</gom:course><gom:rel_alt>0.285</gom:rel_alt></extensions></trkpt>
   <trkpt lat="59.3196662956" lon="34.666957961"><ele>161.121</ele><time>2026-08-13T22:46:10.999Z</time><hdop>4.687</hdop><vdop>5.937</vdop><extensions><gom:speed>1.67</gom:speed><gom:course>62.584</gom:course><gom:rel_alt>-0.153</gom:rel_alt></extensions></trkpt>
   <trkpt lat="59.3197095462" lon="34.6671396807"><ele>161.252</ele><time>2026-08-13T22:46:14.998Z</time><hdop>4.687</hdop><vdop>6.312</vdop><extensions><gom:speed>1.655</gom:speed><gom:course>61.744</gom:course><gom:rel_alt>-0.398</gom:rel_alt></extensions></trkpt>
   <trkpt lat="59.3197541798" lon="34.6673394214"><ele>161.944</ele><time>2026-08-13T22:46:18.998Z</time><hdop>4.687</hdop><vdop>6.375</vdop><extensions><gom:speed>1.621</gom:speed><gom:course>70.192</gom:course><gom:rel_alt>-0.509</gom:rel_alt></extensions></trkpt>
   <trkpt lat="59.3197973047" lon="34.6675398328"><ele>162.631</ele><time>2026-08-13T22:46:22.998Z</time><hdop>4.687</hdop><vdop>6.125</vdop><extensions><gom:speed>1.68</gom:speed><gom:course>60.716</gom:course><gom:rel_alt>-0.324</gom:rel_alt></extensions></trkpt>
   <trkpt lat="59.3198387532" lon="34.6677142602"><ele>163.232</ele><time>2026-08-13T22:46:24.998Z</time><hdop>4.687</hdop><vdop>5.25</vdop><extensions><gom:speed>4.338</gom:speed><gom:course>64.221</gom:course><gom:rel_alt>-0.245</gom:rel_alt></extensions></trkpt>
   <trkpt lat="59.319887955" lon="34.6678647991"><ele>163.339</ele><time>2026-08-13T22:46:27.998Z</time><hdop>4.687</hdop><vdop>5.187</vdop><extensions><gom:speed>3.18</gom:speed><gom:course>60.332</gom:course><gom:rel_alt>0.084</gom:rel_alt></extensions></trkpt>
   <trkpt lat="59.3199307027" lon="34.6680356223"><ele>164.123</ele><time>2026-08-13T22:46:31.998Z</time><hdop>4.687</hdop><vdop>6.0</vdop><extensions><gom:speed>1.671</gom:speed><gom:course>63.414</gom:course><gom:rel_alt>0.372</gom:rel_alt></extensions></trkpt>
   <trkpt lat="59.3199749592" lon="34.6682398893"><ele>164.295</ele><time>2026-08-13T22:46:35.998Z</time><hdop>4.687</hdop><vdop>5.937</vdop><extensions><gom:speed>1.665</gom:speed><gom:course>66.27</gom:course><gom:rel_alt>0.594</gom:rel_alt></extensions></trkpt>
   <trkpt lat="59.3200294415" lon="34.6684324216"><ele>165.253</ele><time>2026-08-13T22:46:38.998Z</time><hdop>4.687</hdop><vdop>5.0</vdop><extensions><gom:speed>3.03</gom:speed><gom:course>61.815</gom:course><gom:rel_alt>0.388</gom:rel_alt></extensions></trkpt>
   <trkpt lat="59.3200721473" lon="34.6686142251"><ele>165.043</ele><time>2026-08-13T22:46:42.998Z</time><hdop>4.687</hdop><vdop>5.687</vdop><extensions><gom:speed>1.63</gom:speed><gom:course>66.94</gom:course><gom:rel_alt>0.472</gom:rel_alt></extensions></trkpt>
   <trkpt lat="59.3201142664" lon="34.6687937655"><ele>164.245</ele><time>2026-08-13T22:46:46.998Z</time><hdop>4.687</hdop><vdop>5.75</vdop><extensions><gom:speed>1.569</gom:speed><gom:course>69.006</gom:course><gom:rel_alt>0.502</gom:rel_alt></extensions></trkpt>
   <trkpt lat="59.3201539128" lon="34.6689582184"><ele>164.241</ele><time>2026-08-13T22:46:50.998Z</time><hdop>4.687</hdop><vdop>5.937</vdop><extensions><gom:speed>1.632</gom:speed><gom:course>67.369</gom:course><gom:rel_alt>0.261</gom:rel_alt></extensions></trkpt>
   <trkpt lat="59.32019687" lon="34.6691440452"><ele>164.506</ele><time>2026-08-13T22:46:54.997Z</time><hdop>4.687</hdop><vdop>5.875</vdop><extensions><gom:speed>1.872</gom:speed><gom:course>67.561</gom:course><gom:rel_alt>0.361</gom:rel_alt></extensions></trkpt>
   <trkpt lat="59.3202392825" lon="34.6693254296"><ele>165.072</ele><time>2026-08-13T22:46:58.997Z</time><hdop>4.687</hdop><vdop>5.937</vdop><extensions><gom:speed>1.858</gom:speed><gom:course>66.677</gom:course><gom:rel_alt>0.517</gom:rel_alt></extensions></trkpt>
   <trkpt lat="59.3202826169" lon="34.6695055567"><ele>164.943</ele><time>2026-08-13T22:47:02.997Z</time><hdop>4.687</hdop><vdop>5.875</vdop><extensions><gom:speed>1.861</gom:speed><gom:course>70.692</gom:course></extensions></trkpt>
   <trkpt lat="59.3203232691" lon="34.6696818281"><ele>164.208</ele><time>2026-08-13T22:47:06.997Z</time><hdop>4.687</hdop><vdop>5.937</vdop><extensions><gom:speed>1.736</gom:speed><gom:course>71.928</gom:course><gom:rel_alt>0.208</gom:rel_alt></extensions></trkpt>
   <trkpt lat="59.320385421" lon="34.6698883582"><ele>164.593</ele><time>2026-08-13T22:47:10.997Z</time><hdop>4.687</hdop><vdop>5.25</vdop><extensions><gom:speed>3.326</gom:speed><gom:course>61.315</gom:course><gom:rel_alt>0.071</gom:rel_alt></extensions></trkpt>
   <trkpt lat="59.3204443038" lon="34.670075107"><ele>165.764</ele><time>2026-08-13T22:47:14.997Z</time><hdop>4.687</hdop><vdop>5.312</vdop><extensions><gom:speed>2.934</gom:speed><gom:course>61.238</gom:course><gom:rel_alt>-0.071</gom:rel_alt></extensions></trkpt>
   <trkpt lat="59.3204924579" lon="34.6702730876"><ele>165.077</ele><time>2026-08-13T22:47:18.997Z</time><hdop>4.687</hdop><vdop>5.312</vdop><extensions><gom:speed>3.055</gom:speed><gom:course>65.907</gom:course><gom:rel_alt>0.219</gom:rel_alt></extensions></trkpt>
   <trkpt lat="59.3205356247" lon="34.6704465091"><ele>165.576</ele><time>2026-08-13T22:47:23.000Z</time><hdop>4.687</hdop><vdop>5.875</vdop><extensions><gom:speed>1.879</gom:speed><gom:course>71.967</gom:course><gom:rel_alt>0.618</gom:rel_alt></extensions></trkpt>
   <trkpt lat="59.3205877601" lon="34.6706500217"><ele>165.776</ele><time>2026-08-13T22:47:26.000Z</time><hdop>4.687</hdop><vdop>5.125</vdop><extensions><gom:speed>4.301</gom:speed><gom:course>65.452</gom:course><gom:rel_alt>0.858</gom:rel_alt></extensions></trkpt>
   <trkpt lat="59.3206428292" lon="34.6708469127"><ele>166.386</ele><time>2026-08-13T22:47:29.999Z</time><hdop>4.687</hdop><vdop>4.937</vdop><extensions><gom:speed>3.031</gom:speed><gom:course>60.299</gom:course><gom:rel_alt>1.387</gom:rel_alt></extensions></trkpt>
   <trkpt lat="59.3207261872" lon="34.6710071746"><ele>167.669</ele><time>2026-08-13T22:47:34.000Z</time><hdop>4.687</hdop><vdop>4.937</vdop><extensions><gom:speed>3.406</gom:speed><gom:course>35.206</gom:course><gom:rel_alt>1.772</gom:rel_alt></extensions></trkpt>
   <trkpt lat="59.3207649954" lon="34.6712142076"><ele>166.687</ele><time>2026-08-13T22:47:37.999Z</time><hdop>4.687</hdop><vdop>5.125</vdop><extensions><gom:speed>3.086</gom:speed><gom:course>56.344</gom:course><gom:rel_alt>1.899</gom:rel_alt></extensions></trkpt>
   <trkpt lat="59.3208372474" lon="34.6714002021"><ele>164.892</ele><time>2026-08-13T22:47:41.999Z</time><hdop>4.687</hdop><vdop>5.0</vdop><extensions><gom:speed>3.145</gom:speed><gom:course>49.494</gom:course><gom:rel_alt>1.926</gom:rel_alt></extensions></trkpt>
   <trkpt lat="59.3209068591" lon="34.6715545129"><ele>165.663</ele><time>2026-08-13T22:47:45.999Z</time><hdop>4.687</hdop><vdop>5.187</vdop><extensions><gom:speed>2.328</gom:speed><gom:course>48.153</gom:course><gom:rel_alt>1.424</gom:rel_alt></extensions></trkpt>
   <trkpt lat="59.320987535" lon="34.6716967538"><ele>165.166</ele><time>2026-08-13T22:47:49.999Z</time><hdop>4.687</hdop><vdop>5.125</vdop><extensions><gom:speed>3.145</gom:speed><gom:course>38.579</gom:course><gom:rel_alt>1.117</gom:rel_alt></extensions></trkpt>
   <trkpt lat="59.3210526624" lon="34.6718250808"><ele>164.736</ele><time>2026-08-13T22:47:53.999Z</time><hdop>4.687</hdop><vdop>5.0</vdop><extensions><gom:speed>2.608</gom:speed><gom:course>43.089</gom:course></extensions></trkpt>
   <trkpt lat="59.3211278899" lon="34.6719633822"><ele>164.363</ele><time>2026-08-13T22:47:58.999Z</time><hdop>4.687</hdop><vdop>5.0</vdop><extensions><gom:speed>2.112</gom:speed><gom:course>48.576</gom:course><gom:rel_alt>0.8</gom:rel_alt></extensions></trkpt>
   <trkpt lat="59.321207979" lon="34.6721187826"><ele>164.247</ele><time>2026-08-13T22:48:03.999Z</time><hdop>4.687</hdop><vdop>5.937</vdop><extensions><gom:speed>1.814</gom:speed><gom:course>45.209</gom:course><gom:rel_alt>0.583</gom:rel_alt></extensions></trkpt>
   <trkpt lat="59.321286266" lon="34.6722741831"><ele>163.251</ele><time>2026-08-13T22:48:08.999Z</time><hdop>4.687</hdop><vdop>6.0</vdop><extensions><gom:speed>1.773</gom:speed><gom:course>48.527</gom:course><gom:rel_alt>0.351</gom:rel_alt></extensions></trkpt>
   <trkpt lat="59.3213516448" lon="34.6724126522"><ele>163.287</ele><time>2026-08-13T22:48:12.999Z</time><hdop>4.687</hdop><vdop>5.937</vdop><extensions><gom:speed>1.828</gom:speed><gom:course>46.066</gom:course><gom:rel_alt>0.208</gom:rel_alt></extensions></trkpt>
   <trkpt lat="59.3214255313" lon="34.672570651"><ele>162.734</ele><time>2026-08-13T22:48:16.999Z</time><hdop>4.687</hdop><vdop>5.875</vdop><extensions><gom:speed>1.836</gom:speed><gom:course>49.109</gom:course><gom:rel_alt>0.647</gom:rel_alt></extensions></trkpt>
   <trkpt lat="59.3214857134" lon="34.672713311"><ele>163.123</ele><time>2026-08-13T22:48:20.998Z</time><hdop>4.687</hdop><vdop>5.812</vdop><extensions><gom:speed>1.759</gom:speed><gom:course>49.774</gom:course><gom:rel_alt>0.47</gom:rel_alt></extensions></trkpt>
   <trkpt lat="59.321548871" lon="34.672862006"><ele>163.403</ele><time>2026-08-13T22:48:24.998Z</time><hdop>4.687</hdop><vdop>5.375</vdop><extensions><gom:speed>1.765</gom:speed><gom:course>58.178</gom:course><gom:rel_alt>0.171</gom:rel_alt></extensions></trkpt>
   <trkpt lat="59.3216092207" lon="34.6729987148"><ele>163.812</ele><time>2026-08-13T22:48:27.998Z</time><hdop>4.687</hdop><vdop>4.625</vdop><extensions><gom:speed>3.296</gom:speed><gom:course>51.109</gom:course></extensions></trkpt>
   <trkpt lat="59.3216780362" lon="34.6731436379"><ele>163.373</ele><time>2026-08-13T22:48:32.998Z</time><hdop>4.687</hdop><vdop>5.5</vdop><extensions><gom:speed>1.801</gom:speed><gom:course>51.526</gom:course><gom:rel_alt>0.546</gom:rel_alt></extensions></trkpt>
   <trkpt lat="59.3217454267" lon="34.6732869685"><ele>163.769</ele><time>2026-08-13T22:48:36.998Z</time><hdop>4.687</hdop><vdop>5.25</vdop><extensions><gom:speed>2.479</gom:speed><gom:course>48.774</gom:course><gom:rel_alt>0.642</gom:rel_alt></extensions></trkpt>
   <trkpt lat="59.3218121047" lon="34.6734162174"><ele>163.615</ele><time>2026-08-13T22:48:40.998Z</time><hdop>4.687</hdop><vdop>5.562</vdop><extensions><gom:speed>1.778</gom:speed><gom:course>47.346</gom:course><gom:rel_alt>0.821</gom:rel_alt></extensions></trkpt>
   <trkpt lat="59.3218983545" lon="34.6735504117"><ele>163.706</ele><time>2026-08-13T22:48:44.998Z</time><hdop>4.687</hdop><vdop>4.812</vdop><extensions><gom:speed>2.691</gom:speed><gom:course>37.09</gom:course></extensions></trkpt>
   <trkpt lat="59.3219739592" lon="34.6736596279"><ele>164.494</ele><time>2026-08-13T22:48:48.998Z</time><hdop>4.687</hdop><vdop>4.812</vdop><extensions><gom:speed>2.014</gom:speed><gom:course>32.492</gom:course><gom:rel_alt>0.602</gom:rel_alt></extensions></trkpt>
   <trkpt lat="59.3220634361" lon="34.6737556845"><ele>163.619</ele><time>2026-08-13T22:48:52.998Z</time><hdop>4.687</hdop><vdop>5.375</vdop><extensions><gom:speed>2.282</gom:speed><gom:course>25.164</gom:course><gom:rel_alt>0.248</gom:rel_alt></extensions></trkpt>
   <trkpt lat="59.3221604147" lon="34.6738428563"><ele>164.259</ele><time>2026-08-13T22:48:56.998Z</time><hdop>4.687</hdop><vdop>5.375</vdop><extensions><gom:speed>2.391</gom:speed><gom:course>23.544</gom:course><gom:rel_alt>0.113</gom:rel_alt></extensions></trkpt>
   <trkpt lat="59.322269589" lon="34.6739316207"><ele>164.023</ele><time>2026-08-13T22:49:00.998Z</time><hdop>4.687</hdop><vdop>4.937</vdop><extensions><gom:speed>3.24</gom:speed><gom:course>23.796</gom:course></extensions></trkpt>
   <trkpt lat="59.3223732312" lon="34.6739844266"><ele>164.395</ele><time>2026-08-13T22:49:04.997Z</time><hdop>4.687</hdop><vdop>4.937</vdop><extensions><gom:speed>2.953</gom:speed><gom:course>14.919</gom:course><gom:rel_alt>0.071</gom:rel_alt></extensions></trkpt>
   <trkpt lat="59.3224777954" lon="34.6740307786"><ele>163.276</ele><time>2026-08-13T22:49:09.997Z</time><hdop>4.687</hdop><vdop>5.875</vdop><extensions><gom:speed>1.853</gom:speed><gom:course>11.755</gom:course><gom:rel_alt>-0.282</gom:rel_alt></extensions></trkpt>
   <trkpt lat="59.322592418" lon="34.6740999293"><ele>162.527</ele><time>2026-08-13T22:49:13.997Z</time><hdop>4.687</hdop><vdop>4.875</vdop><extensions><gom:speed>3.487</gom:speed><gom:course>18.38</gom:course><gom:rel_alt>-0.731</gom:rel_alt></extensions></trkpt>
   <trkpt lat="59.3226902767" lon="34.6741697505"><ele>163.297</ele><time>2026-08-13T22:49:17.997Z</time><hdop>4.687</hdop><vdop>4.75</vdop><extensions><gom:speed>2.869</gom:speed><gom:course>20.704</gom:course></extensions></trkpt>
   <trkpt lat="59.3227940027" lon="34.6742205449"><ele>163.453</ele><time>2026-08-13T22:53:03.998Z</time><hdop>4.687</hdop><vdop>5.062</vdop><extensions><gom:speed>1.883</gom:speed><gom:course>14.238</gom:course><gom:rel_alt>-0.753</gom:rel_alt></extensions></trkpt>
   <trkpt lat="59.3228847368" lon="34.6742475346"><ele>163.182</ele><time>2026-08-13T22:53:08.998Z</time><hdop>4.687</hdop><vdop>5.187</vdop><extensions><gom:speed>1.986</gom:speed><gom:course>9.464</gom:course><gom:rel_alt>-0.425</gom:rel_alt></extensions></trkpt>
   <trkpt lat="59.3229780274" lon="34.6742423378"><ele>164.002</ele><time>2026-08-13T22:53:13.997Z</time><hdop>4.687</hdop><vdop>5.25</vdop><extensions><gom:speed>2.328</gom:speed><gom:course>10.338</gom:course><gom:rel_alt>0.034</gom:rel_alt></extensions></trkpt>
   <trkpt lat="59.323073623" lon="34.6742663101"><ele>164.727</ele><time>2026-08-13T22:53:18.997Z</time><hdop>4.687</hdop><vdop>5.187</vdop><extensions><gom:speed>2.202</gom:speed><gom:course>9.838</gom:course><gom:rel_alt>0.367</gom:rel_alt></extensions></trkpt>
   <trkpt lat="59.3231729067" lon="34.6743202057"><ele>164.823</ele><time>2026-08-13T22:53:23.997Z</time><hdop>4.687</hdop><vdop>4.937</vdop><extensions><gom:speed>1.984</gom:speed><gom:course>12.733</gom:course><gom:rel_alt>0.824</gom:rel_alt></extensions></trkpt>
   <trkpt lat="59.3232813266" lon="34.6743501291"><ele>165.287</ele><time>2026-08-13T22:53:28.997Z</time><hdop>4.687</hdop><vdop>5.0</vdop><extensions><gom:speed>2.18</gom:speed><gom:course>11.107</gom:course><gom:rel_alt>1.334</gom:rel_alt></extensions></trkpt>
   <trkpt lat="59.3233742819" lon="34.6743746881"><ele>166.562</ele><time>2026-08-13T22:53:32.997Z</time><hdop>4.687</hdop><vdop>5.375</vdop><extensions><gom:speed>2.49</gom:speed><gom:course>6.097</gom:course><gom:rel_alt>1.519</gom:rel_alt></extensions></trkpt>
   <trkpt lat="59.3234889044" lon="34.6743827347"><ele>167.659</ele><time>2026-08-13T22:53:37.997Z</time><hdop>4.687</hdop><vdop>5.375</vdop><extensions><gom:speed>2.629</gom:speed><gom:course>6.427</gom:course><gom:rel_alt>1.955</gom:rel_alt></extensions></trkpt>
   <trkpt lat="59.3235857992" lon="34.6744171005"><ele>168.346</ele><time>2026-08-13T22:53:41.999Z</time><hdop>4.687</hdop><vdop>5.25</vdop><extensions><gom:speed>2.611</gom:speed><gom:course>10.14</gom:course><gom:rel_alt>2.164</gom:rel_alt></extensions></trkpt>
   <trkpt lat="59.3236929619" lon="34.674465967"><ele>169.602</ele><time>2026-08-13T22:53:47.999Z</time><hdop>4.687</hdop><vdop>5.437</vdop><extensions><gom:speed>2.213</gom:speed><gom:course>16.661</gom:course><gom:rel_alt>2.478</gom:rel_alt></extensions></trkpt>
   <trkpt lat="59.3237874259" lon="34.6745376323"><ele>169.553</ele><time>2026-08-13T22:53:51.999Z</time><hdop>4.687</hdop><vdop>5.437</vdop><extensions><gom:speed>2.545</gom:speed><gom:course>16.935</gom:course><gom:rel_alt>2.679</gom:rel_alt></extensions></trkpt>
   <trkpt lat="59.32386521" lon="34.6746417355"><ele>169.778</ele><time>2026-08-13T22:53:55.999Z</time><hdop>4.687</hdop><vdop>5.562</vdop><extensions><gom:speed>2.654</gom:speed><gom:course>30.8</gom:course><gom:rel_alt>3.02</gom:rel_alt></extensions></trkpt>
   <trkpt lat="59.3239444609" lon="34.6747760136"><ele>168.825</ele><time>2026-08-13T22:54:00.999Z</time><hdop>4.687</hdop><vdop>6.25</vdop><extensions><gom:speed>1.846</gom:speed><gom:course>41.699</gom:course><gom:rel_alt>3.144</gom:rel_alt></extensions></trkpt>
   <trkpt lat="59.3240327642" lon="34.6749044243"><ele>169.001</ele><time>2026-08-13T22:54:05.999Z</time><hdop>4.687</hdop><vdop>6.25</vdop><extensions><gom:speed>1.862</gom:speed><gom:course>33.596</gom:course></extensions></trkpt>
   <trkpt lat="59.3241106321" lon="34.6750130538"><ele>168.418</ele><time>2026-08-13T22:54:09.999Z</time><hdop>4.687</hdop><vdop>6.062</vdop><extensions><gom:speed>2.465</gom:speed><gom:course>35.288</gom:course><gom:rel_alt>3.228</gom:rel_alt></extensions></trkpt>
   <trkpt lat="59.3242154059" lon="34.6751014829"><ele>169.294</ele><time>2026-08-13T22:54:14.999Z</time><hdop>4.687</hdop><vdop>5.75</vdop><extensions><gom:speed>2.482</gom:speed><gom:course>20.297</gom:course><gom:rel_alt>3.215</gom:rel_alt></extensions></trkpt>
   <trkpt lat="59.3243009013" lon="34.6751773391"><ele>169.341</ele><time>2026-08-13T22:54:18.999Z</time><hdop>4.687</hdop><vdop>5.687</vdop><extensions><gom:speed>2.487</gom:speed><gom:course>23.472</gom:course><gom:rel_alt>3.252</gom:rel_alt></extensions></trkpt>
   <trkpt lat="59.3243993048" lon="34.6752661873"><ele>169.63</ele><time>2026-08-13T22:54:23.999Z</time><hdop>4.687</hdop><vdop>5.687</vdop><extensions><gom:speed>2.208</gom:speed><gom:course>29.07</gom:course><gom:rel_alt>3.244</gom:rel_alt></extensions></trkpt>
   <trkpt lat="59.3244791006" lon="34.6753477432"><ele>167.189</ele><time>2026-08-13T22:54:27.999Z</time><hdop>4.687</hdop><vdop>5.5</vdop><extensions><gom:speed>2.384</gom:speed><gom:course>23.95</gom:course><gom:rel_alt>3.379</gom:rel_alt></extensions></trkpt>
   <trkpt lat="59.3245690803" lon="34.6755123638"><ele>165.969</ele><time>2026-08-13T22:54:32.999Z</time><hdop>4.687</hdop><vdop>5.937</vdop><extensions><gom:speed>2.407</gom:speed><gom:course>44.352</gom:course><gom:rel_alt>3.736</gom:rel_alt></extensions></trkpt>
   <trkpt lat="59.3246480797" lon="34.6756680157"><ele>166.719</ele><time>2026-08-13T22:54:36.998Z</time><hdop>4.687</hdop><vdop>5.75</vdop><extensions><gom:speed>2.381</gom:speed><gom:course>49.197</gom:course><gom:rel_alt>3.535</gom:rel_alt></extensions></trkpt>
   <trkpt lat="59.3247234749" lon="34.6758025453"><ele>166.78</ele><time>2026-08-13T22:54:40.998Z</time><hdop>4.687</hdop><vdop>5.562</vdop><extensions><gom:speed>2.689</gom:speed><gom:course>44.813</gom:course><gom:rel_alt>3.445</gom:rel_alt></extensions></trkpt>
   <trkpt lat="59.3247892729" lon="34.675951324"><ele>167.03</ele><time>2026-08-13T22:54:44.998Z</time><hdop>4.687</hdop><vdop>5.375</vdop><extensions><gom:speed>2.794</gom:speed><gom:course>50.449</gom:course><gom:rel_alt>3.482</gom:rel_alt></extensions></trkpt>
   <trkpt lat="59.3248513409" lon="34.6761036232"><ele>167.406</ele><time>2026-08-13T22:54:48.998Z</time><hdop>4.687</hdop><vdop>5.562</vdop><extensions><gom:speed>2.616</gom:speed><gom:course>55.086</gom:course><gom:rel_alt>3.619</gom:rel_alt></extensions></trkpt>
   <trkpt lat="59.3249168454" lon="34.6762726862"><ele>167.533</ele><time>2026-08-13T22:54:52.998Z</time><hdop>4.687</hdop><vdop>5.25</vdop><extensions><gom:speed>2.715</gom:speed><gom:course>53.696</gom:course><gom:rel_alt>3.649</gom:rel_alt></extensions></trkpt>
   <trkpt lat="59.324964748" lon="34.6764361333"><ele>167.203</ele><time>2026-08-13T22:54:56.998Z</time><hdop>4.687</hdop><vdop>5.75</vdop><extensions><gom:speed>2.515</gom:speed><gom:course>55.602</gom:course></extensions></trkpt>
   <trkpt lat="59.3250049392" lon="34.6766269054"><ele>166.041</ele><time>2026-08-13T22:55:00.998Z</time><hdop>4.687</hdop><vdop>5.375</vdop><extensions><gom:speed>2.74</gom:speed><gom:course>60.98</gom:course><gom:rel_alt>3.664</gom:rel_alt></extensions></trkpt>
   <trkpt lat="59.3250433703" lon="34.6767918613"><ele>167.396</ele><time>2026-08-13T22:55:04.998Z</time><hdop>4.687</hdop><vdop>5.25</vdop><extensions><gom:speed>2.311</gom:speed><gom:course>65.441</gom:course><gom:rel_alt>3.662</gom:rel_alt></extensions></trkpt>
   <trkpt lat="59.3250761016" lon="34.676991183"><ele>168.986</ele><time>2026-08-13T22:55:09.998Z</time><hdop>4.687</hdop><vdop>5.687</vdop><extensions><gom:speed>1.551</gom:speed><gom:course>79.415</gom:course><gom:rel_alt>3.545</gom:rel_alt></extensions></trkpt>
   <trkpt lat="59.3250937455" lon="34.677209783"><ele>168.757</ele><time>2026-08-13T22:55:14.998Z</time><hdop>4.687</hdop><vdop>5.312</vdop><extensions><gom:speed>2.491</gom:speed><gom:course>83.991</gom:course><gom:rel_alt>3.218</gom:rel_alt></extensions></trkpt>
   <trkpt lat="59.3251309612" lon="34.677386725"><ele>168.983</ele><time>2026-08-13T22:55:19.997Z</time><hdop>4.687</hdop><vdop>5.437</vdop><extensions><gom:speed>1.8</gom:speed><gom:course>67.44</gom:course><gom:rel_alt>2.946</gom:rel_alt></extensions></trkpt>
   <trkpt lat="59.3251975554" lon="34.6775461488"><ele>169.306</ele><time>2026-08-13T22:55:23.997Z</time><hdop>4.687</hdop><vdop>5.5</vdop><extensions><gom:speed>2.684</gom:speed><gom:course>54.053</gom:course><gom:rel_alt>2.954</gom:rel_alt></extensions></trkpt>
   <trkpt lat="59.3252356511" lon="34.6777254377"><ele>168.398</ele><time>2026-08-13T22:55:27.997Z</time><hdop>4.687</hdop><vdop>5.0</vdop><extensions><gom:speed>2.709</gom:speed><gom:course>75.433</gom:course><gom:rel_alt>2.874</gom:rel_alt></extensions></trkpt>
   <trkpt lat="59.3252398421" lon="34.6779426128"><ele>168.25</ele><time>2026-08-13T22:55:31.997Z</time><hdop>4.687</hdop><vdop>4.812</vdop><extensions><gom:speed>3.078</gom:speed><gom:course>77.251</gom:course><gom:rel_alt>2.703</gom:rel_alt></extensions></trkpt>
   <trkpt lat="59.3252644011" lon="34.6781467121"><ele>167.631</ele><time>2026-08-13T22:55:35.997Z</time><hdop>4.687</hdop><vdop>4.75</vdop><extensions><gom:speed>3.055</gom:speed><gom:course>76.74</gom:course><gom:rel_alt>2.438</gom:rel_alt></extensions></trkpt>
   <trkpt lat="59.3252820869" lon="34.6783689164"><ele>168.017</ele><time>2026-08-13T22:55:39.997Z</time><hdop>4.687</hdop><vdop>5.125</vdop><extensions><gom:speed>3.073</gom:speed><gom:course>83.371</gom:course><gom:rel_alt>1.965</gom:rel_alt></extensions></trkpt>
   <trkpt lat="59.3252934444" lon="34.6785811462"><ele>168.066</ele><time>2026-08-13T22:55:43.997Z</time><hdop>4.687</hdop><vdop>5.187</vdop><extensions><gom:speed>2.67</gom:speed><gom:course>82.019</gom:course><gom:rel_alt>1.326</gom:rel_alt></extensions></trkpt>
   <trkpt lat="59.3253148182" lon="34.6787871733"><ele>167.305</ele><time>2026-08-13T22:55:48.999Z</time><hdop>4.687</hdop><vdop>5.75</vdop><extensions><gom:speed>2.182</gom:speed><gom:course>72.455</gom:course><gom:rel_alt>0.679</gom:rel_alt></extensions></trkpt>
   <trkpt lat="59.3253322526" lon="34.678988339"><ele>165.761</ele><time>2026-08-13T22:55:51.999Z</time><hdop>4.687</hdop><vdop>4.562</vdop><extensions><gom:speed>3.319</gom:speed><gom:course>79.52</gom:course><gom:rel_alt>0.317</gom:rel_alt></extensions></trkpt>
   <trkpt lat="59.3253456636" lon="34.6791637723"><ele>164.522</ele><time>2026-08-13T22:55:54.999Z</time><hdop>4.687</hdop><vdop>4.625</vdop><extensions><gom:speed>3.099</gom:speed><gom:course>79.185</gom:course><gom:rel_alt>-0.036</gom:rel_alt></extensions></trkpt>
   <trkpt lat="59.3253418498" lon="34.6793503534"><ele>163.937</ele><time>2026-08-13T22:55:57.999Z</time><hdop>4.687</hdop><vdop>4.75</vdop><extensions><gom:speed>3.231</gom:speed><gom:course>88.858</gom:course><gom:rel_alt>-0.356</gom:rel_alt></extensions></trkpt>
   <trkpt lat="59.3253302828" lon="34.6795350067"><ele>163.423</ele><time>2026-08-13T22:56:00.999Z</time><hdop>4.687</hdop><vdop>4.875</vdop><extensions><gom:speed>3.454</gom:speed><gom:course>95.697</gom:course><gom:rel_alt>-0.557</gom:rel_alt></extensions></trkpt>
   <trkpt lat="59.3253323364" lon="34.6797156368"><ele>162.796</ele><time>2026-08-13T22:56:03.999Z</time><hdop>4.687</hdop><vdop>4.937</vdop><extensions><gom:speed>3.271</gom:speed><gom:course>86.677</gom:course><gom:rel_alt>-0.76</gom:rel_alt></extensions></trkpt>
   <trkpt lat="59.3253447835" lon="34.6799090911"><ele>163.127</ele><time>2026-08-13T22:56:08.999Z</time><hdop>4.687</hdop><vdop>4.937</vdop><extensions><gom:speed>2.088</gom:speed><gom:course>80.959</gom:course><gom:rel_alt>-1.202</gom:rel_alt></extensions></trkpt>
   <trkpt lat="59.325375126" lon="34.6801317983"><ele>162.948</ele><time>2026-08-13T22:57:18.998Z</time><hdop>4.687</hdop><vdop>5.625</vdop><extensions><gom:speed>3.148</gom:speed><gom:course>72.681</gom:course><gom:rel_alt>-1.429</gom:rel_alt></extensions></trkpt>
   <trkpt lat="59.325425166" lon="34.6803271804"><ele>162.91</ele><time>2026-08-13T22:57:22.998Z</time><hdop>4.687</hdop><vdop>5.5</vdop><extensions><gom:speed>3.339</gom:speed><gom:course>61.321</gom:course><gom:rel_alt>-1.344</gom:rel_alt></extensions></trkpt>
   <trkpt lat="59.3254754993" lon="34.6804909628"><ele>162.552</ele><time>2026-08-13T22:57:25.997Z</time><hdop>4.687</hdop><vdop>5.562</vdop><extensions><gom:speed>3.609</gom:speed><gom:course>57.365</gom:course><gom:rel_alt>-1.329</gom:rel_alt></extensions></trkpt>
   <trkpt lat="59.325522396" lon="34.6806444355"><ele>162.269</ele><time>2026-08-13T22:57:28.997Z</time><hdop>4.687</hdop><vdop>5.437</vdop><extensions><gom:speed>3.504</gom:speed><gom:course>58.563</gom:course><gom:rel_alt>-1.503</gom:rel_alt></extensions></trkpt>
   <trkpt lat="59.325579393" lon="34.680816935"><ele>162.557</ele><time>2026-08-13T22:57:32.997Z</time><hdop>4.687</hdop><vdop>5.062</vdop><extensions><gom:speed>2.838</gom:speed><gom:course>55.547</gom:course><gom:rel_alt>-1.738</gom:rel_alt></extensions></trkpt>
   <trkpt lat="59.3256295587" lon="34.6809933741"><ele>162.506</ele><time>2026-08-13T22:57:36.997Z</time><hdop>4.687</hdop><vdop>4.812</vdop><extensions><gom:speed>2.521</gom:speed><gom:course>57.184</gom:course><gom:rel_alt>-1.873</gom:rel_alt></extensions></trkpt>
   <trkpt lat="59.3256857174" lon="34.6811685559"><ele>162.819</ele><time>2026-08-13T22:57:40.997Z</time><hdop>4.687</hdop><vdop>4.937</vdop><extensions><gom:speed>2.739</gom:speed><gom:course>53.872</gom:course><gom:rel_alt>-1.984</gom:rel_alt></extensions></trkpt>
   <trkpt lat="59.3257229331" lon="34.6813615073"><ele>162.466</ele><time>2026-08-13T22:57:44.997Z</time><hdop>4.687</hdop><vdop>5.25</vdop><extensions><gom:speed>2.439</gom:speed><gom:course>67.528</gom:course><gom:rel_alt>-2.111</gom:rel_alt></extensions></trkpt>
   <trkpt lat="59.3257744818" lon="34.6815578953"><ele>163.574</ele><time>2026-08-13T22:57:49.997Z</time><hdop>4.687</hdop><vdop>5.437</vdop><extensions><gom:speed>2.448</gom:speed><gom:course>63.804</gom:course><gom:rel_alt>-2.166</gom:rel_alt></extensions></trkpt>
   <trkpt lat="59.3258070036" lon="34.6817605697"><ele>164.085</ele><time>2026-08-13T22:57:53.999Z</time><hdop>4.687</hdop><vdop>5.125</vdop><extensions><gom:speed>2.684</gom:speed><gom:course>69.588</gom:course><gom:rel_alt>-2.039</gom:rel_alt></extensions></trkpt>
   <trkpt lat="59.3258162656" lon="34.6819584664"><ele>164.73</ele><time>2026-08-13T22:57:58.999Z</time><hdop>4.687</hdop><vdop>5.437</vdop><extensions><gom:speed>1.784</gom:speed><gom:course>79.229</gom:course><gom:rel_alt>-1.886</gom:rel_alt></extensions></trkpt>
   <trkpt lat="59.3258467757" lon="34.682124931"><ele>164.514</ele><time>2026-08-13T22:58:03.999Z</time><hdop>4.687</hdop><vdop>6.125</vdop><extensions><gom:speed>1.488</gom:speed><gom:course>71.544</gom:course></extensions></trkpt>
   <trkpt lat="59.3258817282" lon="34.6823154517"><ele>164.284</ele><time>2026-08-13T22:58:07.999Z</time><hdop>4.687</hdop><vdop>5.437</vdop><extensions><gom:speed>2.584</gom:speed><gom:course>66.869</gom:course><gom:rel_alt>-1.762</gom:rel_alt></extensions></trkpt>
   <trkpt lat="59.3259318939" lon="34.6824886218"><ele>164.732</ele><time>2026-08-13T22:58:13.999Z</time><hdop>4.687</hdop><vdop>5.5</vdop><extensions><gom:speed>1.717</gom:speed><gom:course>54.58</gom:course><gom:rel_alt>-1.767</gom:rel_alt></extensions></trkpt>
   <trkpt lat="59.3259801318" lon="34.6826431841"><ele>164.849</ele><time>2026-08-13T22:58:18.999Z</time><hdop>4.687</hdop><vdop>5.875</vdop><extensions><gom:speed>1.823</gom:speed><gom:course>59.98</gom:course><gom:rel_alt>-2.029</gom:rel_alt></extensions></trkpt>
   <trkpt lat="59.3260141204" lon="34.6828073017"><ele>164.409</ele><time>2026-08-13T22:58:24.999Z</time><hdop>4.687</hdop><vdop>6.375</vdop><extensions><gom:speed>1.339</gom:speed><gom:course>66.742</gom:course><gom:rel_alt>-2.288</gom:rel_alt></extensions></trkpt>
   <trkpt lat="59.3260349494" lon="34.6829944696"><ele>163.16</ele><time>2026-08-13T22:58:30.999Z</time><hdop>4.687</hdop><vdop>6.0</vdop><extensions><gom:speed>1.497</gom:speed><gom:course>82.7</gom:course><gom:rel_alt>-2.486</gom:rel_alt></extensions></trkpt>
   <trkpt lat="59.3260063252" lon="34.6831694"><ele>162.532</ele><time>2026-08-13T22:58:35.999Z</time><hdop>4.687</hdop><vdop>6.0</vdop><extensions><gom:speed>1.483</gom:speed><gom:course>108.002</gom:course><gom:rel_alt>-2.795</gom:rel_alt></extensions></trkpt>
   <trkpt lat="59.3260183533" lon="34.6833561488"><ele>164.229</ele><time>2026-08-13T22:58:40.999Z</time><hdop>4.687</hdop><vdop>6.125</vdop><extensions><gom:speed>1.673</gom:speed><gom:course>80.8</gom:course><gom:rel_alt>-2.827</gom:rel_alt></extensions></trkpt>
   <trkpt lat="59.3260340693" lon="34.6835445739"><ele>163.383</ele><time>2026-08-13T22:58:45.998Z</time><hdop>4.687</hdop><vdop>6.062</vdop><extensions><gom:speed>1.596</gom:speed><gom:course>83.59</gom:course><gom:rel_alt>-2.607</gom:rel_alt></extensions></trkpt>
   <trkpt lat="59.3260849056" lon="34.6837287244"><ele>163.425</ele><time>2026-08-13T22:58:49.998Z</time><hdop>4.687</hdop><vdop>5.25</vdop><extensions><gom:speed>2.793</gom:speed><gom:course>56.629</gom:course><gom:rel_alt>-2.454</gom:rel_alt></extensions></trkpt>
   <trkpt lat="59.3260817623" lon="34.6839178201"><ele>163.547</ele><time>2026-08-13T22:58:54.998Z</time><hdop>4.687</hdop><vdop>5.062</vdop><extensions><gom:speed>1.767</gom:speed><gom:course>89.342</gom:course><gom:rel_alt>-2.082</gom:rel_alt></extensions></trkpt>
   <trkpt lat="59.3261073272" lon="34.6841220871"><ele>164.508</ele><time>2026-08-13T22:58:59.998Z</time><hdop>4.687</hdop><vdop>4.937</vdop><extensions><gom:speed>1.683</gom:speed><gom:course>70.231</gom:course><gom:rel_alt>-1.865</gom:rel_alt></extensions></trkpt>
   <trkpt lat="59.3261293716" lon="34.6843175531"><ele>164.178</ele><time>2026-08-13T22:59:04.998Z</time><hdop>4.687</hdop><vdop>5.25</vdop><extensions><gom:speed>1.586</gom:speed><gom:course>75.493</gom:course><gom:rel_alt>-1.44</gom:rel_alt></extensions></trkpt>
   <trkpt lat="59.3261773999" lon="34.6844744623"><ele>164.804</ele><time>2026-08-13T22:59:08.998Z</time><hdop>4.687</hdop><vdop>4.875</vdop><extensions><gom:speed>1.783</gom:speed><gom:course>62.062</gom:course><gom:rel_alt>-1.413</gom:rel_alt></extensions></trkpt>
   <trkpt lat="59.3262253444" lon="34.6846567687"><ele>164.023</ele><time>2026-08-13T22:59:12.998Z</time><hdop>4.687</hdop><vdop>4.937</vdop><extensions><gom:speed>1.351</gom:speed><gom:course>59.662</gom:course><gom:rel_alt>-1.487</gom:rel_alt></extensions></trkpt>
   <trkpt lat="59.3263042181" lon="34.6848547492"><ele>164.315</ele><time>2026-08-13T22:59:17.998Z</time><hdop>4.687</hdop><vdop>5.062</vdop><extensions><gom:speed>2.929</gom:speed><gom:course>58.931</gom:course><gom:rel_alt>-1.627</gom:rel_alt></extensions></trkpt>
   <trkpt lat="59.3263486421" lon="34.6850205433"><ele>163.451</ele><time>2026-08-13T22:59:20.998Z</time><hdop>4.687</hdop><vdop>5.312</vdop><extensions><gom:speed>3.035</gom:speed><gom:course>59.634</gom:course><gom:rel_alt>-1.556</gom:rel_alt></extensions></trkpt>
   <trkpt lat="59.326396419" lon="34.6852317672"><ele>162.594</ele><time>2026-08-13T22:59:25.998Z</time><hdop>4.687</hdop><vdop>5.375</vdop><extensions><gom:speed>2.734</gom:speed><gom:course>70.434</gom:course><gom:rel_alt>-1.614</gom:rel_alt></extensions></trkpt>
   <trkpt lat="59.3264698026" lon="34.6853954658"><ele>163.778</ele><time>2026-08-13T22:59:29.997Z</time><hdop>4.687</hdop><vdop>5.5</vdop><extensions><gom:speed>2.737</gom:speed><gom:course>55.888</gom:course><gom:rel_alt>-1.635</gom:rel_alt></extensions></trkpt>
   <trkpt lat="59.3265276377" lon="34.68555841"><ele>164.408</ele><time>2026-08-13T22:59:33.997Z</time><hdop>4.687</hdop><vdop>5.375</vdop><extensions><gom:speed>2.727</gom:speed><gom:course>55.882</gom:course><gom:rel_alt>-1.706</gom:rel_alt></extensions></trkpt>
   <trkpt lat="59.3265805275" lon="34.6857250422"><ele>163.634</ele><time>2026-08-13T22:59:37.997Z</time><hdop>4.687</hdop><vdop>5.375</vdop><extensions><gom:speed>2.648</gom:speed><gom:course>57.525</gom:course><gom:rel_alt>-1.762</gom:rel_alt></extensions></trkpt>
   <trkpt lat="59.3266402905" lon="34.6858833764"><ele>163.393</ele><time>2026-08-13T22:59:41.997Z</time><hdop>4.687</hdop><vdop>5.187</vdop><extensions><gom:speed>2.692</gom:speed><gom:course>52.229</gom:course><gom:rel_alt>-1.836</gom:rel_alt></extensions></trkpt>
   <trkpt lat="59.3266848403" lon="34.6860417105"><ele>163.75</ele><time>2026-08-13T22:59:47.997Z</time><hdop>4.687</hdop><vdop>5.187</vdop><extensions><gom:speed>1.282</gom:speed><gom:course>59.596</gom:course><gom:rel_alt>-2.248</gom:rel_alt></extensions></trkpt>
   <trkpt lat="59.3267223493" lon="34.6862169761"><ele>163.868</ele><time>2026-08-13T22:59:58.999Z</time><hdop>4.687</hdop><vdop>5.437</vdop><extensions><gom:speed>0.944</gom:speed><gom:course>67.292</gom:course><gom:rel_alt>-2.441</gom:rel_alt></extensions></trkpt>
   <trkpt lat="59.326763714" lon="34.6863942534"><ele>165.31</ele><time>2026-08-13T23:00:05.999Z</time><hdop>4.687</hdop><vdop>5.375</vdop><extensions><gom:speed>1.963</gom:speed><gom:course>67.38</gom:course><gom:rel_alt>-2.486</gom:rel_alt></extensions></trkpt>
   <trkpt lat="59.3267877701" lon="34.6865678426"><ele>164.962</ele><time>2026-08-13T23:00:12.999Z</time><hdop>4.687</hdop><vdop>5.75</vdop><extensions><gom:speed>1.191</gom:speed><gom:course>83.53</gom:course><gom:rel_alt>-2.338</gom:rel_alt></extensions></trkpt>
   <trkpt lat="59.326842001" lon="34.6867613807"><ele>168.763</ele><time>2026-08-13T23:00:26.999Z</time><hdop>4.687</hdop><vdop>5.75</vdop><extensions><gom:speed>1.885</gom:speed><gom:course>63.556</gom:course><gom:rel_alt>-2.761</gom:rel_alt></extensions></trkpt>
   <trkpt lat="59.3268796357" lon="34.686924744"><ele>167.502</ele><time>2026-08-13T23:00:32.999Z</time><hdop>4.687</hdop><vdop>5.562</vdop><extensions><gom:speed>1.392</gom:speed><gom:course>74.153</gom:course><gom:rel_alt>-2.425</gom:rel_alt></extensions></trkpt>
   <trkpt lat="59.3269218386" lon="34.6871092297"><ele>167.642</ele><time>2026-08-13T23:00:38.999Z</time><hdop>4.687</hdop><vdop>5.75</vdop><extensions><gom:speed>1.913</gom:speed><gom:course>64.968</gom:course><gom:rel_alt>-2.383</gom:rel_alt></extensions></trkpt>
   <trkpt lat="59.3269583418" lon="34.6872712519"><ele>167.155</ele><time>2026-08-13T23:00:42.999Z</time><hdop>4.687</hdop><vdop>5.75</vdop><extensions><gom:speed>2.741</gom:speed><gom:course>63.941</gom:course><gom:rel_alt>-1.971</gom:rel_alt></extensions></trkpt>
   <trkpt lat="59.3270218766" lon="34.6874491997"><ele>167.897</ele><time>2026-08-13T23:00:46.999Z</time><hdop>4.687</hdop><vdop>5.687</vdop><extensions><gom:speed>3.104</gom:speed><gom:course>56.525</gom:course><gom:rel_alt>-1.58</gom:rel_alt></extensions></trkpt>
   <trkpt lat="59.3270793346" lon="34.6876335178"><ele>166.772</ele><time>2026-08-13T23:00:50.999Z</time><hdop>4.687</hdop><vdop>5.875</vdop><extensions><gom:speed>3.187</gom:speed><gom:course>56.294</gom:course><gom:rel_alt>-1.078</gom:rel_alt></extensions></trkpt>
   <trkpt lat="59.3271338588" lon="34.6877767645"><ele>166.598</ele><time>2026-08-13T23:00:54.998Z</time><hdop>4.687</hdop><vdop>5.875</vdop><extensions><gom:speed>1.272</gom:speed><gom:course>51.219</gom:course><gom:rel_alt>-0.982</gom:rel_alt></extensions></trkpt>
   <trkpt lat="59.3271945019" lon="34.6879237831"><ele>165.697</ele><time>2026-08-13T23:00:57.998Z</time><hdop>4.687</hdop><vdop>5.625</vdop><extensions><gom:speed>3.567</gom:speed><gom:course>47.285</gom:course><gom:rel_alt>-0.829</gom:rel_alt></extensions></trkpt>
   <trkpt lat="59.3272685979" lon="34.6880397886"><ele>165.25</ele><time>2026-08-13T23:01:00.998Z</time><hdop>4.687</hdop><vdop>5.562</vdop><extensions><gom:speed>3.319</gom:speed><gom:course>36.821</gom:course><gom:rel_alt>-0.583</gom:rel_alt></extensions></trkpt>
   <trkpt lat="59.3273577395" lon="34.6881680317"><ele>164.911</ele><time>2026-08-13T23:01:05.998Z</time><hdop>4.687</hdop><vdop>6.0</vdop><extensions><gom:speed>1.32</gom:speed><gom:course>41.127</gom:course><gom:rel_alt>-0.499</gom:rel_alt></extensions></trkpt>
   <trkpt lat="59.327439463" lon="34.6882833667"><ele>163.024</ele><time>2026-08-13T23:01:09.998Z</time><hdop>4.687</hdop><vdop>5.937</vdop><extensions><gom:speed>2.12</gom:speed><gom:course>35.453</gom:course></extensions></trkpt>
   <trkpt lat="59.3275139781" lon="34.6883876376"><ele>163.176</ele><time>2026-08-13T23:01:13.998Z</time><hdop>4.687</hdop><vdop>6.062</vdop><extensions><gom:speed>1.33</gom:speed><gom:course>39.265</gom:course><gom:rel_alt>-0.79</gom:rel_alt></extensions></trkpt>
   <trkpt lat="59.3275933129" lon="34.6885533478"><ele>163.544</ele><time>2026-08-13T23:01:17.998Z</time><hdop>4.687</hdop><vdop>6.0</vdop><extensions><gom:speed>2.603</gom:speed><gom:course>49.741</gom:course><gom:rel_alt>-0.742</gom:rel_alt></extensions></trkpt>
   <trkpt lat="59.3276666545" lon="34.6887021266"><ele>162.737</ele><time>2026-08-13T23:01:20.998Z</time><hdop>4.687</hdop><vdop>5.375</vdop><extensions><gom:speed>3.026</gom:speed><gom:course>46.494</gom:course><gom:rel_alt>-0.887</gom:rel_alt></extensions></trkpt>
   <trkpt lat="59.3277564666" lon="34.6888405118"><ele>163.977</ele><time>2026-08-13T23:01:25.998Z</time><hdop>4.687</hdop><vdop>5.875</vdop><extensions><gom:speed>1.383</gom:speed><gom:course>40.88</gom:course><gom:rel_alt>-0.953</gom:rel_alt></extensions></trkpt>
   <trkpt lat="59.3278228094" lon="34.6889707666"><ele>164.248</ele><time>2026-08-13T23:01:28.998Z</time><hdop>4.687</hdop><vdop>5.437</vdop><extensions><gom:speed>3.037</gom:speed><gom:course>42.627</gom:course><gom:rel_alt>-0.953</gom:rel_alt></extensions></trkpt>
   <trkpt lat="59.3278830333" lon="34.689109068"><ele>163.237</ele><time>2026-08-13T23:01:32.998Z</time><hdop>4.687</hdop><vdop>6.0</vdop><extensions><gom:speed>1.265</gom:speed><gom:course>51.905</gom:course><gom:rel_alt>-1.043</gom:rel_alt></extensions></trkpt>
   <trkpt lat="59.3279449756" lon="34.689256841"><ele>162.552</ele><time>2026-08-13T23:01:35.997Z</time><hdop>4.687</hdop><vdop>5.562</vdop><extensions><gom:speed>3.18</gom:speed><gom:course>53.471</gom:course><gom:rel_alt>-0.956</gom:rel_alt></extensions></trkpt>
   <trkpt lat="59.3280203708" lon="34.6894340344"><ele>162.699</ele><time>2026-08-13T23:01:39.997Z</time><hdop>4.687</hdop><vdop>4.875</vdop><extensions><gom:speed>2.741</gom:speed><gom:course>52.559</gom:course><gom:rel_alt>-1.038</gom:rel_alt></extensions></trkpt>
   <trkpt lat="59.3280677286" lon="34.6895938773"><ele>162.598</ele><time>2026-08-13T23:01:42.997Z</time><hdop>4.687</hdop><vdop>5.375</vdop><extensions><gom:speed>3.236</gom:speed><gom:course>58.541</gom:course><gom:rel_alt>-1.152</gom:rel_alt></extensions></trkpt>
   <trkpt lat="59.3281303414" lon="34.6897424884"><ele>163.437</ele><time>2026-08-13T23:01:45.997Z</time><hdop>4.687</hdop><vdop>5.437</vdop><extensions><gom:speed>3.451</gom:speed><gom:course>50.977</gom:course><gom:rel_alt>-1.136</gom:rel_alt></extensions></trkpt>
   <trkpt lat="59.3281885118" lon="34.6899165806"><ele>163.451</ele><time>2026-08-13T23:01:49.997Z</time><hdop>4.687</hdop><vdop>5.312</vdop><extensions><gom:speed>2.548</gom:speed><gom:course>58.816</gom:course><gom:rel_alt>-1.194</gom:rel_alt></extensions></trkpt>
   <trkpt lat="59.3282341932" lon="34.6900853921"><ele>163.761</ele><time>2026-08-13T23:01:53.997Z</time><hdop>4.687</hdop><vdop>5.062</vdop><extensions><gom:speed>1.511</gom:speed><gom:course>67.407</gom:course><gom:rel_alt>-1.302</gom:rel_alt></extensions></trkpt>
   <trkpt lat="59.3282932437" lon="34.6902368531"><ele>162.527</ele><time>2026-08-13T23:01:57.997Z</time><hdop>4.687</hdop><vdop>5.937</vdop><extensions><gom:speed>1.668</gom:speed><gom:course>55.333</gom:course><gom:rel_alt>-1.434</gom:rel_alt></extensions></trkpt>
   <trkpt lat="59.3283584968" lon="34.6904085983"><ele>162.597</ele><time>2026-08-13T23:02:02.999Z</time><hdop>4.687</hdop><vdop>6.125</vdop><extensions><gom:speed>1.475</gom:speed><gom:course>53.279</gom:course><gom:rel_alt>-2.095</gom:rel_alt></extensions></trkpt>
   <trkpt lat="59.3284266836" lon="34.6905885577"><ele>163.356</ele><time>2026-08-13T23:02:07.999Z</time><hdop>4.687</hdop><vdop>6.187</vdop><extensions><gom:speed>1.539</gom:speed><gom:course>55.619</gom:course><gom:rel_alt>-1.963</gom:rel_alt></extensions></trkpt>
   <trkpt lat="59.3284747538" lon="34.6907735463"><ele>161.505</ele><time>2026-08-13T23:02:11.999Z</time><hdop>4.687</hdop><vdop>5.562</vdop><extensions><gom:speed>2.563</gom:speed><gom:course>64.452</gom:course><gom:rel_alt>-1.78</gom:rel_alt></extensions></trkpt>
   <trkpt lat="59.3285339719" lon="34.6909265161"><ele>161.509</ele><time>2026-08-13T23:02:14.999Z</time><hdop>4.687</hdop><vdop>5.437</vdop><extensions><gom:speed>2.785</gom:speed><gom:course>59.272</gom:course><gom:rel_alt>-1.897</gom:rel_alt></extensions></trkpt>
   <trkpt lat="59.3286016558" lon="34.6911079005"><ele>162.84</ele><time>2026-08-13T23:02:18.999Z</time><hdop>4.687</hdop><vdop>5.125</vdop><extensions><gom:speed>3.041</gom:speed><gom:course>54.284</gom:course><gom:rel_alt>-1.963</gom:rel_alt></extensions></trkpt>
   <trkpt lat="59.3286730277" lon="34.6912838366"><ele>164.25</ele><time>2026-08-13T23:02:22.999Z</time><hdop>4.687</hdop><vdop>5.25</vdop><extensions><gom:speed>3.332</gom:speed><gom:course>50.845</gom:course><gom:rel_alt>-1.693</gom:rel_alt></extensions></trkpt>
   <trkpt lat="59.3287158173" lon="34.6914719265"><ele>164.172</ele><time>2026-08-13T23:02:26.999Z</time><hdop>4.687</hdop><vdop>5.562</vdop><extensions><gom:speed>2.756</gom:speed><gom:course>64.864</gom:course><gom:rel_alt>-1.643</gom:rel_alt></extensions></trkpt>
   <trkpt lat="59.3287635104" lon="34.6916251477"><ele>165.745</ele><time>2026-08-13T23:02:30.999Z</time><hdop>4.687</hdop><vdop>6.062</vdop><extensions><gom:speed>1.887</gom:speed><gom:course>63.771</gom:course><gom:rel_alt>-1.659</gom:rel_alt></extensions></trkpt>
   <trkpt lat="59.3287943139" lon="34.6918289118"><ele>164.402</ele><time>2026-08-13T23:02:34.999Z</time><hdop>4.687</hdop><vdop>5.687</vdop><extensions><gom:speed>2.344</gom:speed><gom:course>69.379</gom:course><gom:rel_alt>-1.529</gom:rel_alt></extensions></trkpt>
   <trkpt lat="59.3288411687" lon="34.692020103"><ele>164.173</ele><time>2026-08-13T23:02:38.999Z</time><hdop>4.687</hdop><vdop>5.687</vdop><extensions><gom:speed>2.359</gom:speed><gom:course>65.501</gom:course><gom:rel_alt>-1.463</gom:rel_alt></extensions></trkpt>
   <trkpt lat="59.3288948548" lon="34.6921936922"><ele>164.345</ele><time>2026-08-13T23:02:42.999Z</time><hdop>4.687</hdop><vdop>5.562</vdop><extensions><gom:speed>2.373</gom:speed><gom:course>60.42</gom:course><gom:rel_alt>-1.471</gom:rel_alt></extensions></trkpt>
   <trkpt lat="59.3289440566" lon="34.6923626714"><ele>164.18</ele><time>2026-08-13T23:02:46.999Z</time><hdop>4.687</hdop><vdop>4.75</vdop><extensions><gom:speed>2.365</gom:speed><gom:course>54.405</gom:course><gom:rel_alt>-1.432</gom:rel_alt></extensions></trkpt>
   <trkpt lat="59.328997575" lon="34.6925144676"><ele>164.001</ele><time>2026-08-13T23:02:49.999Z</time><hdop>4.687</hdop><vdop>5.687</vdop><extensions><gom:speed>2.465</gom:speed><gom:course>53.8</gom:course><gom:rel_alt>-1.286</gom:rel_alt></extensions></trkpt>
   <trkpt lat="59.3290513449" lon="34.6927028928"><ele>165.103</ele><time>2026-08-13T23:02:53.999Z</time><hdop>4.687</hdop><vdop>5.687</vdop><extensions><gom:speed>2.383</gom:speed><gom:course>63.238</gom:course><gom:rel_alt>-1.27</gom:rel_alt></extensions></trkpt>
   <trkpt lat="59.3291176039" lon="34.6928518392"><ele>165.454</ele><time>2026-08-13T23:02:56.999Z</time><hdop>4.687</hdop><vdop>5.625</vdop><extensions><gom:speed>3.424</gom:speed><gom:course>51.944</gom:course><gom:rel_alt>-1.149</gom:rel_alt></extensions></trkpt>
   <trkpt lat="59.3291966871" lon="34.693020064"><ele>164.885</ele><time>2026-08-13T23:03:01.998Z</time><hdop>4.687</hdop><vdop>5.875</vdop><extensions><gom:speed>2.262</gom:speed><gom:course>48.236</gom:course><gom:rel_alt>-0.768</gom:rel_alt></extensions></trkpt>
   <trkpt lat="59.3292817634" lon="34.6931861095"><ele>164.631</ele><time>2026-08-13T23:03:05.998Z</time><hdop>4.687</hdop><vdop>6.0</vdop><extensions><gom:speed>3.23</gom:speed><gom:course>45.956</gom:course><gom:rel_alt>-0.66</gom:rel_alt></extensions></trkpt>
   <trkpt lat="59.3293685161" lon="34.693326674"><ele>165.154</ele><time>2026-08-13T23:03:08.998Z</time><hdop>4.687</hdop><vdop>5.687</vdop><extensions><gom:speed>3.508</gom:speed><gom:course>38.842</gom:course><gom:rel_alt>-0.583</gom:rel_alt></extensions></trkpt>
   <trkpt lat="59.3294431989" lon="34.6934495527"><ele>166.142</ele><time>2026-08-13T23:03:11.998Z</time><hdop>4.687</hdop><vdop>5.625</vdop><extensions><gom:speed>3.567</gom:speed><gom:course>40.287</gom:course><gom:rel_alt>-0.539</gom:rel_alt></extensions></trkpt>
   <trkpt lat="59.3295211087" lon="34.6935499679"><ele>165.204</ele><time>2026-08-13T23:03:14.998Z</time><hdop>4.687</hdop><vdop>5.5</vdop><extensions><gom:speed>3.325</gom:speed><gom:course>31.481</gom:course><gom:rel_alt>-0.731</gom:rel_alt></extensions></trkpt>
   <trkpt lat="59.3296066879" lon="34.6936601062"><ele>165.058</ele><time>2026-08-13T23:03:17.998Z</time><hdop>4.687</hdop><vdop>5.625</vdop><extensions><gom:speed>3.37</gom:speed><gom:course>31.047</gom:course><gom:rel_alt>-0.967</gom:rel_alt></extensions></trkpt>
   <trkpt lat="59.3297012777" lon="34.6937658858"><ele>165.754</ele><time>2026-08-13T23:03:21.998Z</time><hdop>4.687</hdop><vdop>5.5</vdop><extensions><gom:speed>3.237</gom:speed><gom:course>23.912</gom:course><gom:rel_alt>-1.344</gom:rel_alt></extensions></trkpt>
   <trkpt lat="59.3297957836" lon="34.6939076238"><ele>165.404</ele><time>2026-08-13T23:03:25.998Z</time><hdop>4.687</hdop><vdop>5.562</vdop><extensions><gom:speed>3.247</gom:speed><gom:course>38.117</gom:course><gom:rel_alt>-1.49</gom:rel_alt></extensions></trkpt>
   <trkpt lat="59.3298763756" lon="34.694051541"><ele>164.119</ele><time>2026-08-13T23:03:29.998Z</time><hdop>4.687</hdop><vdop>4.75</vdop><extensions><gom:speed>2.701</gom:speed><gom:course>37.029</gom:course><gom:rel_alt>-1.654</gom:rel_alt></extensions></trkpt>
   <trkpt lat="59.3299331211" lon="34.6941936143"><ele>164.457</ele><time>2026-08-13T23:03:33.998Z</time><hdop>4.687</hdop><vdop>5.5</vdop><extensions><gom:speed>1.182</gom:speed><gom:course>49.658</gom:course><gom:rel_alt>-1.566</gom:rel_alt></extensions></trkpt>
   <trkpt lat="59.3299738153" lon="34.6943758369"><ele>163.257</ele><time>2026-08-13T23:03:37.998Z</time><hdop>4.687</hdop><vdop>5.312</vdop><extensions><gom:speed>2.092</gom:speed><gom:course>63.611</gom:course><gom:rel_alt>-1.625</gom:rel_alt></extensions></trkpt>
   <trkpt lat="59.3300223465" lon="34.6945399545"><ele>163.616</ele><time>2026-08-13T23:03:41.997Z</time><hdop>4.687</hdop><vdop>5.562</vdop><extensions><gom:speed>1.299</gom:speed><gom:course>61.381</gom:course></extensions></trkpt>
   <trkpt lat="59.3300997115" lon="34.6947397791"><ele>162.892</ele><time>2026-08-13T23:03:45.997Z</time><hdop>4.687</hdop><vdop>5.312</vdop><extensions><gom:speed>3.672</gom:speed><gom:course>54.102</gom:course><gom:rel_alt>-1.854</gom:rel_alt></extensions></trkpt>
   <trkpt lat="59.3301461053" lon="34.6949035615"><ele>161.888</ele><time>2026-08-13T23:03:50.997Z</time><hdop>4.687</hdop><vdop>5.5</vdop><extensions><gom:speed>1.699</gom:speed><gom:course>53.828</gom:course><gom:rel_alt>-1.873</gom:rel_alt></extensions></trkpt>
   <trkpt lat="59.3302418685" lon="34.6950695232"><ele>161.69</ele><time>2026-08-13T23:03:54.997Z</time><hdop>4.687</hdop><vdop>5.937</vdop><extensions><gom:speed>3.037</gom:speed><gom:course>44.742</gom:course><gom:rel_alt>-1.968</gom:rel_alt></extensions></trkpt>
   <trkpt lat="59.3303117317" lon="34.6951905579"><ele>162.258</ele><time>2026-08-13T23:03:58.997Z</time><hdop>4.687</hdop><vdop>6.375</vdop><extensions><gom:speed>1.218</gom:speed><gom:course>46.736</gom:course></extensions></trkpt>
   <trkpt lat="59.3303771944" lon="34.6953319606"><ele>162.229</ele><time>2026-08-13T23:04:01.997Z</time><hdop>4.687</hdop><vdop>5.75</vdop><extensions><gom:speed>3.19</gom:speed><gom:course>47.121</gom:course><gom:rel_alt>-1.765</gom:rel_alt></extensions></trkpt>
   <trkpt lat="59.3304367059" lon="34.6954667416"><ele>162.654</ele><time>2026-08-13T23:04:05.997Z</time><hdop>4.687</hdop><vdop>5.562</vdop><extensions><gom:speed>2.701</gom:speed><gom:course>44.638</gom:course><gom:rel_alt>-1.704</gom:rel_alt></extensions></trkpt>
   <trkpt lat="59.3305188066" lon="34.6956047915"><ele>163.719</ele><time>2026-08-13T23:04:09.999Z</time><hdop>4.687</hdop><vdop>5.375</vdop><extensions><gom:speed>2.86</gom:speed><gom:course>39.655</gom:course><gom:rel_alt>-1.659</gom:rel_alt></extensions></trkpt>
   <trkpt lat="59.3306146537" lon="34.6957682386"><ele>164.005</ele><time>2026-08-13T23:04:14.999Z</time><hdop>4.687</hdop><vdop>5.375</vdop><extensions><gom:speed>3.082</gom:speed><gom:course>35.667</gom:course><gom:rel_alt>-1.635</gom:rel_alt></extensions></trkpt>
   <trkpt lat="59.3307044239" lon="34.6958975714"><ele>164.476</ele><time>2026-08-13T23:04:18.999Z</time><hdop>4.687</hdop><vdop>5.375</vdop><extensions><gom:speed>3.091</gom:speed><gom:course>35.019</gom:course><gom:rel_alt>-1.709</gom:rel_alt></extensions></trkpt>
   <trkpt lat="59.3308056353" lon="34.69598994"><ele>163.739</ele><time>2026-08-13T23:04:22.999Z</time><hdop>4.687</hdop><vdop>5.437</vdop><extensions><gom:speed>2.962</gom:speed><gom:course>23.879</gom:course><gom:rel_alt>-1.709</gom:rel_alt></extensions></trkpt>
   <trkpt lat="59.3308902507" lon="34.6961340249"><ele>164.582</ele><time>2026-08-13T23:04:26.999Z</time><hdop>4.687</hdop><vdop>5.687</vdop><extensions><gom:speed>2.935</gom:speed><gom:course>46.72</gom:course><gom:rel_alt>-1.944</gom:rel_alt></extensions></trkpt>
   <trkpt lat="59.3309529054" lon="34.6962774392"><ele>165.198</ele><time>2026-08-13T23:04:30.999Z</time><hdop>4.687</hdop><vdop>6.25</vdop><extensions><gom:speed>1.773</gom:speed><gom:course>47.631</gom:course><gom:rel_alt>-2.01</gom:rel_alt></extensions></trkpt>
   <trkpt lat="59.3310117044" lon="34.6964530401"><ele>162.962</ele><time>2026-08-13T23:04:35.999Z</time><hdop>4.687</hdop><vdop>6.312</vdop><extensions><gom:speed>1.812</gom:speed><gom:course>46.807</gom:course><gom:rel_alt>-1.934</gom:rel_alt></extensions></trkpt>
   <trkpt lat="59.3310914163" lon="34.6965760026"><ele>162.477</ele><time>2026-08-13T23:04:39.999Z</time><hdop>4.687</hdop><vdop>6.312</vdop><extensions><gom:speed>1.967</gom:speed><gom:course>39.002</gom:course><gom:rel_alt>-1.799</gom:rel_alt></extensions></trkpt>
   <trkpt lat="59.3311905323" lon="34.6966723107"><ele>163.306</ele><time>2026-08-13T23:04:42.999Z</time><hdop>4.687</hdop><vdop>5.75</vdop><extensions><gom:speed>3.257</gom:speed><gom:course>24.274</gom:course><gom:rel_alt>-1.685</gom:rel_alt></extensions></trkpt>
   <trkpt lat="59.331295348" lon="34.6967816107"><ele>164.449</ele><time>2026-08-13T23:04:46.999Z</time><hdop>4.687</hdop><vdop>6.0</vdop><extensions><gom:speed>3.086</gom:speed><gom:course>30.97</gom:course><gom:rel_alt>-1.413</gom:rel_alt></extensions></trkpt>
   <trkpt lat="59.3313742217" lon="34.6969249413"><ele>162.343</ele><time>2026-08-13T23:04:51.999Z</time><hdop>4.687</hdop><vdop>6.75</vdop><extensions><gom:speed>1.601</gom:speed><gom:course>47.186</gom:course><gom:rel_alt>-1.307</gom:rel_alt></extensions></trkpt>
   <trkpt lat="59.3314420732" lon="34.6970726304"><ele>161.706</ele><time>2026-08-13T23:04:55.999Z</time><hdop>4.687</hdop><vdop>6.312</vdop><extensions><gom:speed>1.711</gom:speed><gom:course>48.076</gom:course><gom:rel_alt>-1.471</gom:rel_alt></extensions></trkpt>
   <trkpt lat="59.3315108049" lon="34.6972189784"><ele>160.91</ele><time>2026-08-13T23:04:59.999Z</time><hdop>4.687</hdop><vdop>6.375</vdop><extensions><gom:speed>1.77</gom:speed><gom:course>47.736</gom:course><gom:rel_alt>-1.757</gom:rel_alt></extensions></trkpt>
   <trkpt lat="59.3315707774" lon="34.6974114269"><ele>161.074</ele><time>2026-08-13T23:05:03.999Z</time><hdop>4.687</hdop><vdop>5.875</vdop><extensions><gom:speed>3.007</gom:speed><gom:course>62.732</gom:course><gom:rel_alt>-1.868</gom:rel_alt></extensions></trkpt>
   <trkpt lat="59.3316134413" lon="34.6975699287"><ele>161.948</ele><time>2026-08-13T23:05:07.998Z</time><hdop>4.687</hdop><vdop>5.687</vdop><extensions><gom:speed>2.158</gom:speed><gom:course>71.544</gom:course><gom:rel_alt>-1.886</gom:rel_alt></extensions></trkpt>
   <trkpt lat="59.3316549317" lon="34.697735136"><ele>162.688</ele><time>2026-08-13T23:05:11.998Z</time><hdop>4.687</hdop><vdop>5.5</vdop><extensions><gom:speed>2.238</gom:speed><gom:course>61.59</gom:course><gom:rel_alt>-2.018</gom:rel_alt></extensions></trkpt>
   <trkpt lat="59.3316933627" lon="34.6979406603"><ele>163.044</ele><time>2026-08-13T23:05:16.998Z</time><hdop>4.687</hdop><vdop>4.75</vdop><extensions><gom:speed>2.11</gom:speed><gom:course>74.719</gom:course><gom:rel_alt>-1.783</gom:rel_alt></extensions></trkpt>
   <trkpt lat="59.3317439475" lon="34.6980925404"><ele>162.729</ele><time>2026-08-13T23:05:20.998Z</time><hdop>4.687</hdop><vdop>3.0</vdop><extensions><gom:speed>2.386</gom:speed><gom:course>56.201</gom:course><gom:rel_alt>-1.672</gom:rel_alt></extensions></trkpt>
   <trkpt lat="59.3318096197" lon="34.69821961"><ele>162.382</ele><time>2026-08-13T23:05:25.998Z</time><hdop>4.687</hdop><vdop>3.0</vdop><extensions><gom:speed>1.83</gom:speed><gom:course>51.883</gom:course><gom:rel_alt>-1.627</gom:rel_alt></extensions></trkpt>
   <trkpt lat="59.3318734479" lon="34.6984298282"><ele>162.546</ele><time>2026-08-13T23:05:31.998Z</time><hdop>4.687</hdop><vdop>3.25</vdop><extensions><gom:speed>2.687</gom:speed><gom:course>57.437</gom:course><gom:rel_alt>-1.535</gom:rel_alt></extensions></trkpt>
   <trkpt lat="59.3319426405" lon="34.6985776849"><ele>164.742</ele><time>2026-08-13T23:05:36.998Z</time><hdop>4.687</hdop><vdop>5.375</vdop><extensions><gom:speed>2.076</gom:speed><gom:course>46.56</gom:course><gom:rel_alt>-1.588</gom:rel_alt></extensions></trkpt>
   <trkpt lat="59.3320246993" lon="34.6986713946"><ele>166.051</ele><time>2026-08-13T23:05:41.998Z</time><hdop>4.687</hdop><vdop>6.062</vdop><extensions><gom:speed>2.056</gom:speed><gom:course>24.159</gom:course><gom:rel_alt>-1.947</gom:rel_alt></extensions></trkpt>
   <trkpt lat="59.3321042436" lon="34.6987960335"><ele>165.367</ele><time>2026-08-13T23:05:46.998Z</time><hdop>4.687</hdop><vdop>6.187</vdop><extensions><gom:speed>2.148</gom:speed><gom:course>55.52</gom:course><gom:rel_alt>-1.751</gom:rel_alt></extensions></trkpt>
   <trkpt lat="59.332144351" lon="34.6989814412"><ele>164.81</ele><time>2026-08-13T23:05:50.997Z</time><hdop>4.687</hdop><vdop>6.062</vdop><extensions><gom:speed>2.252</gom:speed><gom:course>67.956</gom:course><gom:rel_alt>-1.854</gom:rel_alt></extensions></trkpt>
   <trkpt lat="59.3321802675" lon="34.6991479058"><ele>163.637</ele><time>2026-08-13T23:05:54.997Z</time><hdop>4.687</hdop><vdop>6.562</vdop><extensions><gom:speed>1.751</gom:speed><gom:course>72.966</gom:course><gom:rel_alt>-1.735</gom:rel_alt></extensions></trkpt>
   <trkpt lat="59.3322277509" lon="34.6993200701"><ele>162.882</ele><time>2026-08-13T23:05:58.997Z</time><hdop>4.687</hdop><vdop>6.25</vdop><extensions><gom:speed>1.752</gom:speed><gom:course>61.562</gom:course><gom:rel_alt>-1.775</gom:rel_alt></extensions></trkpt>
   <trkpt lat="59.332268487" lon="34.6995179668"><ele>162.351</ele><time>2026-08-13T23:06:03.997Z</time><hdop>4.687</hdop><vdop>5.687</vdop><extensions><gom:speed>1.699</gom:speed><gom:course>67.687</gom:course><gom:rel_alt>-2.272</gom:rel_alt></extensions></trkpt>
   <trkpt lat="59.3323228436" lon="34.6996828389"><ele>162.383</ele><time>2026-08-13T23:06:06.997Z</time><hdop>4.687</hdop><vdop>5.312</vdop><extensions><gom:speed>3.087</gom:speed><gom:course>57.272</gom:course><gom:rel_alt>-2.174</gom:rel_alt></extensions></trkpt>
   <trkpt lat="59.3323882225" lon="34.6998721861"><ele>163.707</ele><time>2026-08-13T23:06:10.997Z</time><hdop>4.687</hdop><vdop>5.375</vdop><extensions><gom:speed>2.899</gom:speed><gom:course>58.448</gom:course><gom:rel_alt>-2.076</gom:rel_alt></extensions></trkpt>
   <trkpt lat="59.3324492846" lon="34.700050553"><ele>163.308</ele><time>2026-08-13T23:06:14.999Z</time><hdop>4.687</hdop><vdop>5.625</vdop><extensions><gom:speed>2.972</gom:speed><gom:course>50.345</gom:course><gom:rel_alt>-2.031</gom:rel_alt></extensions></trkpt>
   <trkpt lat="59.3325138672" lon="34.7002314344"><ele>163.736</ele><time>2026-08-13T23:06:18.999Z</time><hdop>4.687</hdop><vdop>5.75</vdop><extensions><gom:speed>2.966</gom:speed><gom:course>46.203</gom:course><gom:rel_alt>-2.09</gom:rel_alt></extensions></trkpt>
   <trkpt lat="59.332560261" lon="34.7004169259"><ele>163.786</ele><time>2026-08-13T23:06:22.999Z</time><hdop>4.687</hdop><vdop>5.375</vdop><extensions><gom:speed>2.922</gom:speed><gom:course>60.03</gom:course><gom:rel_alt>-2.132</gom:rel_alt></extensions></trkpt>
   <trkpt lat="59.332642278" lon="34.7006031718"><ele>164.144</ele><time>2026-08-13T23:06:26.999Z</time><hdop>4.687</hdop><vdop>5.25</vdop><extensions><gom:speed>3.318</gom:speed><gom:course>52.196</gom:course><gom:rel_alt>-2.016</gom:rel_alt></extensions></trkpt>
   <trkpt lat="59.3326999874" lon="34.7007635176"><ele>164.103</ele><time>2026-08-13T23:06:30.999Z</time><hdop>4.687</hdop><vdop>6.125</vdop><extensions><gom:speed>1.841</gom:speed><gom:course>56.657</gom:course></extensions></trkpt>
   <trkpt lat="59.3327612591" lon="34.7009003941"><ele>164.969</ele><time>2026-08-13T23:06:35.999Z</time><hdop>4.687</hdop><vdop>6.25</vdop><extensions><gom:speed>1.585</gom:speed><gom:course>44.912</gom:course><gom:rel_alt>-2.687</gom:rel_alt></extensions></trkpt>
   <trkpt lat="59.3328267637" lon="34.7010651823"><ele>166.84</ele><time>2026-08-13T23:06:44.999Z</time><hdop>4.687</hdop><vdop>5.875</vdop><extensions><gom:speed>2.154</gom:speed><gom:course>55.338</gom:course><gom:rel_alt>-2.742</gom:rel_alt></extensions></trkpt>
   <trkpt lat="59.3328851855" lon="34.701219577"><ele>165.253</ele><time>2026-08-13T23:06:48.999Z</time><hdop>4.687</hdop><vdop>5.687</vdop><extensions><gom:speed>2.605</gom:speed><gom:course>48.51</gom:course><gom:rel_alt>-2.605</gom:rel_alt></extensions></trkpt>
   <trkpt lat="59.3329483851" lon="34.7013590519"><ele>164.765</ele><time>2026-08-13T23:06:52.999Z</time><hdop>4.687</hdop><vdop>5.687</vdop><extensions><gom:speed>2.448</gom:speed><gom:course>46.516</gom:course><gom:rel_alt>-2.623</gom:rel_alt></extensions></trkpt>
   <trkpt lat="59.3330238222" lon="34.7015316352"><ele>162.546</ele><time>2026-08-13T23:06:56.999Z</time><hdop>4.687</hdop><vdop>5.75</vdop><extensions><gom:speed>3.249</gom:speed><gom:course>47.675</gom:course><gom:rel_alt>-2.89</gom:rel_alt></extensions></trkpt>
   <trkpt lat="59.3330860159" lon="34.7016896341"><ele>161.857</ele><time>2026-08-13T23:07:00.999Z</time><hdop>4.687</hdop><vdop>5.625</vdop><extensions><gom:speed>2.689</gom:speed><gom:course>45.698</gom:course><gom:rel_alt>-3.247</gom:rel_alt></extensions></trkpt>
   <trkpt lat="59.3331507242" lon="34.7018257562"><ele>163.182</ele><time>2026-08-13T23:07:04.999Z</time><hdop>4.687</hdop><vdop>5.812</vdop><extensions><gom:speed>2.792</gom:speed><gom:course>44.27</gom:course></extensions></trkpt>
   <trkpt lat="59.3332281311" lon="34.701949054"><ele>163.202</ele><time>2026-08-13T23:07:09.999Z</time><hdop>4.687</hdop><vdop>5.75</vdop><extensions><gom:speed>2.026</gom:speed><gom:course>32.783</gom:course><gom:rel_alt>-3.403</gom:rel_alt></extensions></trkpt>
   <trkpt lat="59.3333185299" lon="34.702044021"><ele>163.454</ele><time>2026-08-13T23:07:14.998Z</time><hdop>4.687</hdop><vdop>5.75</vdop><extensions><gom:speed>2.916</gom:speed><gom:course>28.004</gom:course><gom:rel_alt>-3.321</gom:rel_alt></extensions></trkpt>
   <trkpt lat="59.3333959368" lon="34.702190369"><ele>163.17</ele><time>2026-08-13T23:07:18.998Z</time><hdop>4.687</hdop><vdop>5.812</vdop><extensions><gom:speed>3.116</gom:speed><gom:course>47.027</gom:course><gom:rel_alt>-3.059</gom:rel_alt></extensions></trkpt>
   <trkpt lat="59.3334371758" lon="34.7023620304"><ele>162.51</ele><time>2026-08-13T23:07:22.998Z</time><hdop>4.687</hdop><vdop>5.5</vdop><extensions><gom:speed>2.616</gom:speed><gom:course>71.307</gom:course><gom:rel_alt>-2.866</gom:rel_alt></extensions></trkpt>
   <trkpt lat="59.3334615252" lon="34.7025341947"><ele>162.123</ele><time>2026-08-13T23:07:26.998Z</time><hdop>4.687</hdop><vdop>6.062</vdop><extensions><gom:speed>1.688</gom:speed><gom:course>76.965</gom:course><gom:rel_alt>-2.393</gom:rel_alt></extensions></trkpt>
   <trkpt lat="59.3334892274" lon="34.7027436584"><ele>161.816</ele><time>2026-08-13T23:07:30.998Z</time><hdop>4.687</hdop><vdop>5.312</vdop><extensions><gom:speed>2.724</gom:speed><gom:course>72.532</gom:course><gom:rel_alt>-2.005</gom:rel_alt></extensions></trkpt>
   <trkpt lat="59.3334808874" lon="34.7029272221"><ele>161.868</ele><time>2026-08-13T23:07:52.998Z</time><hdop>4.687</hdop><vdop>5.437</vdop><extensions><gom:speed>1.753</gom:speed><gom:course>92.16</gom:course><gom:rel_alt>-1.883</gom:rel_alt></extensions></trkpt>
   <trkpt lat="59.3334772412" lon="34.7031049185"><ele>162.639</ele><time>2026-08-13T23:07:56.997Z</time><hdop>4.687</hdop><vdop>5.5</vdop><extensions><gom:speed>2.506</gom:speed><gom:course>95.351</gom:course><gom:rel_alt>-1.812</gom:rel_alt></extensions></trkpt>
   <trkpt lat="59.3334582981" lon="34.7032872249"><ele>161.559</ele><time>2026-08-13T23:08:00.997Z</time><hdop>4.687</hdop><vdop>5.625</vdop><extensions><gom:speed>2.681</gom:speed><gom:course>99.12</gom:course><gom:rel_alt>-1.897</gom:rel_alt></extensions></trkpt>
   <trkpt lat="59.3334484494" lon="34.7034821879"><ele>161.282</ele><time>2026-08-13T23:08:04.997Z</time><hdop>4.687</hdop><vdop>5.437</vdop><extensions><gom:speed>2.832</gom:speed><gom:course>90.435</gom:course><gom:rel_alt>-1.868</gom:rel_alt></extensions></trkpt>
   <trkpt lat="59.3334422468" lon="34.7037036378"><ele>161.553</ele><time>2026-08-13T23:08:08.997Z</time><hdop>4.687</hdop><vdop>5.375</vdop><extensions><gom:speed>3.324</gom:speed><gom:course>92.044</gom:course><gom:rel_alt>-1.625</gom:rel_alt></extensions></trkpt>
   <trkpt lat="59.3334424563" lon="34.7039287757"><ele>160.741</ele><time>2026-08-13T23:08:12.997Z</time><hdop>4.687</hdop><vdop>5.5</vdop><extensions><gom:speed>3.093</gom:speed><gom:course>92.544</gom:course></extensions></trkpt>
   <trkpt lat="59.3334459348" lon="34.7041198831"><ele>160.316</ele><time>2026-08-13T23:08:16.997Z</time><hdop>4.687</hdop><vdop>5.937</vdop><extensions><gom:speed>1.815</gom:speed><gom:course>87.595</gom:course><gom:rel_alt>-1.373</gom:rel_alt></extensions></trkpt>
   <trkpt lat="59.333456496" lon="34.7043099009"><ele>160.618</ele><time>2026-08-13T23:08:21.000Z</time><hdop>4.687</hdop><vdop>6.187</vdop><extensions><gom:speed>1.71</gom:speed><gom:course>84.782</gom:course><gom:rel_alt>-1.434</gom:rel_alt></extensions></trkpt>
   <trkpt lat="59.3334722121" lon="34.7045159281"><ele>162.177</ele><time>2026-08-13T23:08:24.999Z</time><hdop>4.687</hdop><vdop>6.125</vdop><extensions><gom:speed>1.797</gom:speed><gom:course>85.557</gom:course><gom:rel_alt>-1.54</gom:rel_alt></extensions></trkpt>
   <trkpt lat="59.3334914067" lon="34.7047959674"><ele>162.169</ele><time>2026-08-13T23:08:29.000Z</time><hdop>4.687</hdop><vdop>4.562</vdop><extensions><gom:speed>3.742</gom:speed><gom:course>80.08</gom:course></extensions></trkpt>
   <trkpt lat="59.333518103" lon="34.7050190937"><ele>162.968</ele><time>2026-08-13T23:08:31.999Z</time><hdop>4.687</hdop><vdop>4.25</vdop><extensions><gom:speed>3.21</gom:speed><gom:course>80.629</gom:course><gom:rel_alt>-1.051</gom:rel_alt></extensions></trkpt>
   <trkpt lat="59.3335428296" lon="34.7052448184"><ele>163.213</ele><time>2026-08-13T23:08:34.999Z</time><hdop>4.687</hdop><vdop>4.187</vdop><extensions><gom:speed>3.329</gom:speed><gom:course>75.587</gom:course><gom:rel_alt>-0.834</gom:rel_alt></extensions></trkpt>
   <trkpt lat="59.3335721244" lon="34.7054236882"><ele>163.852</ele><time>2026-08-13T23:08:37.999Z</time><hdop>4.687</hdop><vdop>4.25</vdop><extensions><gom:speed>3.242</gom:speed><gom:course>67.555</gom:course><gom:rel_alt>-0.554</gom:rel_alt></extensions></trkpt>
   <trkpt lat="59.333589894" lon="34.7056142088"><ele>163.858</ele><time>2026-08-13T23:08:42.999Z</time><hdop>4.687</hdop><vdop>4.75</vdop><extensions><gom:speed>1.532</gom:speed><gom:course>72.917</gom:course><gom:rel_alt>-0.192</gom:rel_alt></extensions></trkpt>
   <trkpt lat="59.3336045204" lon="34.7058028016"><ele>163.288</ele><time>2026-08-13T23:08:46.999Z</time><hdop>4.687</hdop><vdop>4.5</vdop><extensions><gom:speed>2.644</gom:speed><gom:course>83.662</gom:course><gom:rel_alt>-0.108</gom:rel_alt></extensions></trkpt>
   <trkpt lat="59.3336343181" lon="34.7060338907"><ele>163.654</ele><time>2026-08-13T23:08:51.999Z</time><hdop>4.687</hdop><vdop>4.375</vdop><extensions><gom:speed>2.464</gom:speed><gom:course>81.816</gom:course><gom:rel_alt>-0.047</gom:rel_alt></extensions></trkpt>
   <trkpt lat="59.3336602182" lon="34.7062156104"><ele>163.268</ele><time>2026-08-13T23:08:54.999Z</time><hdop>4.687</hdop><vdop>4.25</vdop><extensions><gom:speed>3.189</gom:speed><gom:course>75.806</gom:course><gom:rel_alt>0.021</gom:rel_alt></extensions></trkpt>
   <trkpt lat="59.3336792451" lon="34.7064111602"><ele>161.844</ele><time>2026-08-13T23:08:58.999Z</time><hdop>4.687</hdop><vdop>4.437</vdop><extensions><gom:speed>2.047</gom:speed><gom:course>80.305</gom:course><gom:rel_alt>0.026</gom:rel_alt></extensions></trkpt>
   <trkpt lat="59.3337039717" lon="34.706601597"><ele>161.227</ele><time>2026-08-13T23:09:02.999Z</time><hdop>4.687</hdop><vdop>6.5</vdop><extensions><gom:speed>1.679</gom:speed><gom:course>74.988</gom:course></extensions></trkpt>
   <trkpt lat="59.3337245493" lon="34.7067972306"><ele>161.075</ele><time>2026-08-13T23:09:06.999Z</time><hdop>4.687</hdop><vdop>6.5</vdop><extensions><gom:speed>1.573</gom:speed><gom:course>77.723</gom:course><gom:rel_alt>-0.414</gom:rel_alt></extensions></trkpt>
   <trkpt lat="59.3337658302" lon="34.7069898468"><ele>160.542</ele><time>2026-08-13T23:09:10.999Z</time><hdop>4.687</hdop><vdop>6.5</vdop><extensions><gom:speed>1.571</gom:speed><gom:course>68.303</gom:course><gom:rel_alt>-0.504</gom:rel_alt></extensions></trkpt>
   <trkpt lat="59.3338014952" lon="34.7071798645"><ele>159.955</ele><time>2026-08-13T23:09:13.999Z</time><hdop>4.687</hdop><vdop>5.5</vdop><extensions><gom:speed>2.743</gom:speed><gom:course>68.138</gom:course><gom:rel_alt>-0.599</gom:rel_alt></extensions></trkpt>
   <trkpt lat="59.3338332626" lon="34.7073739894"><ele>158.983</ele><time>2026-08-13T23:09:17.998Z</time><hdop>4.687</hdop><vdop>6.312</vdop><extensions><gom:speed>1.546</gom:speed><gom:course>69.308</gom:course><gom:rel_alt>-0.959</gom:rel_alt></extensions></trkpt>
   <trkpt lat="59.3338928579" lon="34.7075809386"><ele>159.959</ele><time>2026-08-13T23:09:21.998Z</time><hdop>4.687</hdop><vdop>6.25</vdop><extensions><gom:speed>1.923</gom:speed><gom:course>57.085</gom:course><gom:rel_alt>-1.138</gom:rel_alt></extensions></trkpt>
   <trkpt lat="59.3339350608" lon="34.7077820204"><ele>160.436</ele><time>2026-08-13T23:09:24.998Z</time><hdop>4.687</hdop><vdop>5.937</vdop><extensions><gom:speed>4.047</gom:speed><gom:course>66.012</gom:course><gom:rel_alt>-1.241</gom:rel_alt></extensions></trkpt>
   <trkpt lat="59.3339775151" lon="34.7079541009"><ele>160.7</ele><time>2026-08-13T23:09:27.998Z</time><hdop>4.687</hdop><vdop>5.562</vdop><extensions><gom:speed>2.959</gom:speed><gom:course>62.694</gom:course><gom:rel_alt>-1.162</gom:rel_alt></extensions></trkpt>
   <trkpt lat="59.3340245376" lon="34.7081748802"><ele>162.571</ele><time>2026-08-13T23:09:31.998Z</time><hdop>4.687</hdop><vdop>5.375</vdop><extensions><gom:speed>3.274</gom:speed><gom:course>68.099</gom:course><gom:rel_alt>-1.138</gom:rel_alt></extensions></trkpt>
   <trkpt lat="59.3340785171" lon="34.7083846793"><ele>162.509</ele><time>2026-08-13T23:09:35.998Z</time><hdop>4.687</hdop><vdop>5.625</vdop><extensions><gom:speed>3.223</gom:speed><gom:course>63.298</gom:course><gom:rel_alt>-0.98</gom:rel_alt></extensions></trkpt>
   <trkpt lat="59.3341091529" lon="34.7085720148"><ele>162.179</ele><time>2026-08-13T23:09:39.998Z</time><hdop>4.687</hdop><vdop>6.25</vdop><extensions><gom:speed>1.804</gom:speed><gom:course>69.434</gom:course><gom:rel_alt>-0.922</gom:rel_alt></extensions></trkpt>
   <trkpt lat="59.334136897" lon="34.7087849152"><ele>162.142</ele><time>2026-08-13T23:09:43.998Z</time><hdop>4.687</hdop><vdop>6.375</vdop><extensions><gom:speed>1.99</gom:speed><gom:course>73.829</gom:course><gom:rel_alt>-0.911</gom:rel_alt></extensions></trkpt>
   <trkpt lat="59.3341524035" lon="34.7089607675"><ele>161.781</ele><time>2026-08-13T23:09:46.998Z</time><hdop>4.687</hdop><vdop>6.375</vdop><extensions><gom:speed>2.007</gom:speed><gom:course>81.602</gom:course><gom:rel_alt>-1.181</gom:rel_alt></extensions></trkpt>
   <trkpt lat="59.3341726458" lon="34.7091869112"><ele>162.695</ele><time>2026-08-13T23:09:50.998Z</time><hdop>4.687</hdop><vdop>5.875</vdop><extensions><gom:speed>3.286</gom:speed><gom:course>81.151</gom:course><gom:rel_alt>-1.524</gom:rel_alt></extensions></trkpt>
   <trkpt lat="59.3341785551" lon="34.7093711455"><ele>162.482</ele><time>2026-08-13T23:09:54.998Z</time><hdop>4.687</hdop><vdop>6.187</vdop><extensions><gom:speed>1.384</gom:speed><gom:course>91.105</gom:course><gom:rel_alt>-1.447</gom:rel_alt></extensions></trkpt>
   <trkpt lat="59.3341897449" lon="34.7095500153"><ele>162.772</ele><time>2026-08-13T23:09:57.998Z</time><hdop>4.687</hdop><vdop>5.937</vdop><extensions><gom:speed>1.325</gom:speed><gom:course>84.799</gom:course><gom:rel_alt>-1.241</gom:rel_alt></extensions></trkpt>
   <trkpt lat="59.33420127" lon="34.7097446431"><ele>163.14</ele><time>2026-08-13T23:10:01.997Z</time><hdop>4.687</hdop><vdop>6.187</vdop><extensions><gom:speed>1.953</gom:speed><gom:course>84.178</gom:course><gom:rel_alt>-1.226</gom:rel_alt></extensions></trkpt>
   <trkpt lat="59.3342118312" lon="34.7099517599"><ele>162.47</ele><time>2026-08-13T23:10:05.997Z</time><hdop>4.687</hdop><vdop>5.937</vdop><extensions><gom:speed>2.948</gom:speed><gom:course>82.069</gom:course><gom:rel_alt>-1.244</gom:rel_alt></extensions></trkpt>
   <trkpt lat="59.3342366417" lon="34.7101526741"><ele>162.154</ele><time>2026-08-13T23:10:10.997Z</time><hdop>4.687</hdop><vdop>6.25</vdop><extensions><gom:speed>1.592</gom:speed><gom:course>78.657</gom:course></extensions></trkpt>
   <trkpt lat="59.3342451912" lon="34.7103397582"><ele>163.006</ele><time>2026-08-13T23:10:14.997Z</time><hdop>4.687</hdop><vdop>6.312</vdop><extensions><gom:speed>1.396</gom:speed><gom:course>84.59</gom:course><gom:rel_alt>-1.447</gom:rel_alt></extensions></trkpt>
   <trkpt lat="59.3342570516" lon="34.7105721046"><ele>164.111</ele><time>2026-08-13T23:10:18.997Z</time><hdop>4.687</hdop><vdop>5.937</vdop><extensions><gom:speed>3.137</gom:speed><gom:course>86.375</gom:course><gom:rel_alt>-1.302</gom:rel_alt></extensions></trkpt>
   <trkpt lat="59.3342837061" lon="34.71080026"><ele>164.229</ele><time>2026-08-13T23:10:23.997Z</time><hdop>4.687</hdop><vdop>5.875</vdop><extensions><gom:speed>1.558</gom:speed><gom:course>65.463</gom:course><gom:rel_alt>-0.996</gom:rel_alt></extensions></trkpt>
   <trkpt lat="59.3343174851" lon="34.7110270743"><ele>163.901</ele><time>2026-08-13T23:10:27.999Z</time><hdop>4.687</hdop><vdop>6.062</vdop><extensions><gom:speed>2.57</gom:speed><gom:course>74.065</gom:course></extensions></trkpt>
   <trkpt lat="59.3343308543" lon="34.7112276532"><ele>163.652</ele><time>2026-08-13T23:10:31.999Z</time><hdop>4.687</hdop><vdop>6.375</vdop><extensions><gom:speed>1.295</gom:speed><gom:course>77.537</gom:course><gom:rel_alt>-0.684</gom:rel_alt></extensions></trkpt>
   <trkpt lat="59.334345313" lon="34.7114500251"><ele>163.587</ele><time>2026-08-13T23:10:35.999Z</time><hdop>4.687</hdop><vdop>6.25</vdop><extensions><gom:speed>1.7</gom:speed><gom:course>83.579</gom:course><gom:rel_alt>-0.536</gom:rel_alt></extensions></trkpt>
   <trkpt lat="59.334368028" lon="34.7116295655"><ele>163.514</ele><time>2026-08-13T23:10:37.999Z</time><hdop>4.687</hdop><vdop>5.75</vdop><extensions><gom:speed>4.021</gom:speed><gom:course>76.949</gom:course><gom:rel_alt>-0.467</gom:rel_alt></extensions></trkpt>
   <trkpt lat="59.3343892761" lon="34.7118298929"><ele>164.554</ele><time>2026-08-13T23:10:40.999Z</time><hdop>4.687</hdop><vdop>5.437</vdop><extensions><gom:speed>3.67</gom:speed><gom:course>75.642</gom:course><gom:rel_alt>-0.24</gom:rel_alt></extensions></trkpt>
   <trkpt lat="59.3344070039" lon="34.7120531868"><ele>164.45</ele><time>2026-08-13T23:10:43.999Z</time><hdop>4.687</hdop><vdop>5.312</vdop><extensions><gom:speed>3.856</gom:speed><gom:course>82.569</gom:course></extensions></trkpt>
   <trkpt lat="59.3344227618" lon="34.7122398518"><ele>163.664</ele><time>2026-08-13T23:10:46.999Z</time><hdop>4.687</hdop><vdop>5.5</vdop><extensions><gom:speed>3.505</gom:speed><gom:course>84.585</gom:course><gom:rel_alt>0.311</gom:rel_alt></extensions></trkpt>
   <trkpt lat="59.3344325268" lon="34.7124254272"><ele>164.102</ele><time>2026-08-13T23:10:49.999Z</time><hdop>4.687</hdop><vdop>5.562</vdop><extensions><gom:speed>3.497</gom:speed><gom:course>83.546</gom:course><gom:rel_alt>0.264</gom:rel_alt></extensions></trkpt>
   <trkpt lat="59.3344433394" lon="34.712633466"><ele>163.531</ele><time>2026-08-13T23:10:52.999Z</time><hdop>4.687</hdop><vdop>6.125</vdop><extensions><gom:speed>4.041</gom:speed><gom:course>83.931</gom:course><gom:rel_alt>-0.05</gom:rel_alt></extensions></trkpt>
   <trkpt lat="59.3344394418" lon="34.7128116653"><ele>162.982</ele><time>2026-08-13T23:10:55.999Z</time><hdop>4.687</hdop><vdop>6.062</vdop><extensions><gom:speed>3.383</gom:speed><gom:course>91.209</gom:course><gom:rel_alt>-0.335</gom:rel_alt></extensions></trkpt>
   <trkpt lat="59.334442124" lon="34.713042"><ele>162.913</ele><time>2026-08-13T23:10:59.999Z</time><hdop>4.687</hdop><vdop>6.0</vdop><extensions><gom:speed>3.004</gom:speed><gom:course>93.335</gom:course><gom:rel_alt>-0.708</gom:rel_alt></extensions></trkpt>
   <trkpt lat="59.3344594327" lon="34.7132339455"><ele>163.946</ele><time>2026-08-13T23:11:03.999Z</time><hdop>4.687</hdop><vdop>5.5</vdop><extensions><gom:speed>3.182</gom:speed><gom:course>85.996</gom:course><gom:rel_alt>-0.998</gom:rel_alt></extensions></trkpt>
   <trkpt lat="59.3344683594" lon="34.7134577424"><ele>163.548</ele><time>2026-08-13T23:11:07.999Z</time><hdop>4.687</hdop><vdop>5.687</vdop><extensions><gom:speed>3.077</gom:speed><gom:course>86.123</gom:course><gom:rel_alt>-0.964</gom:rel_alt></extensions></trkpt>
   <trkpt lat="59.3344751487" lon="34.7136676252"><ele>163.301</ele><time>2026-08-13T23:11:11.999Z</time><hdop>4.687</hdop><vdop>5.812</vdop><extensions><gom:speed>1.989</gom:speed><gom:course>86.419</gom:course><gom:rel_alt>-1.009</gom:rel_alt></extensions></trkpt>
   <trkpt lat="59.3344729275" lon="34.7138499316"><ele>163.068</ele><time>2026-08-13T23:11:15.999Z</time><hdop>4.687</hdop><vdop>6.375</vdop><extensions><gom:speed>1.643</gom:speed><gom:course>91.429</gom:course><gom:rel_alt>-1.014</gom:rel_alt></extensions></trkpt>
   <trkpt lat="59.3344861709" lon="34.7140430507"><ele>162.98</ele><time>2026-08-13T23:11:19.999Z</time><hdop>4.687</hdop><vdop>6.375</vdop><extensions><gom:speed>1.559</gom:speed><gom:course>83.365</gom:course><gom:rel_alt>-0.943</gom:rel_alt></extensions></trkpt>
   <trkpt lat="59.3345007974" lon="34.7142247703"><ele>162.745</ele><time>2026-08-13T23:11:23.998Z</time><hdop>4.687</hdop><vdop>6.375</vdop><extensions><gom:speed>1.553</gom:speed><gom:course>77.388</gom:course><gom:rel_alt>-1.189</gom:rel_alt></extensions></trkpt>
   <trkpt lat="59.3345212073" lon="34.7144157939"><ele>162.45</ele><time>2026-08-13T23:11:26.998Z</time><hdop>4.687</hdop><vdop>5.25</vdop><extensions><gom:speed>3.288</gom:speed><gom:course>82.091</gom:course><gom:rel_alt>-1.484</gom:rel_alt></extensions></trkpt>
   <trkpt lat="59.3344919125" lon="34.7146169596"><ele>161.829</ele><time>2026-08-13T23:11:30.998Z</time><hdop>4.687</hdop><vdop>5.625</vdop><extensions><gom:speed>2.133</gom:speed><gom:course>101.806</gom:course><gom:rel_alt>-1.751</gom:rel_alt></extensions></trkpt>
   <trkpt lat="59.3344930441" lon="34.7148441091"><ele>160.667</ele><time>2026-08-13T23:11:34.998Z</time><hdop>4.687</hdop><vdop>5.937</vdop><extensions><gom:speed>1.364</gom:speed><gom:course>85.837</gom:course></extensions></trkpt>
   <trkpt lat="59.3344970674" lon="34.7150209673"><ele>160.33</ele><time>2026-08-13T23:11:37.998Z</time><hdop>4.687</hdop><vdop>5.937</vdop><extensions><gom:speed>1.513</gom:speed><gom:course>86.875</gom:course><gom:rel_alt>-2.063</gom:rel_alt></extensions></trkpt>
   <trkpt lat="59.3344971093" lon="34.7152376395"><ele>160.436</ele><time>2026-08-13T23:11:40.998Z</time><hdop>4.687</hdop><vdop>5.625</vdop><extensions><gom:speed>3.855</gom:speed><gom:course>86.727</gom:course><gom:rel_alt>-2.211</gom:rel_alt></extensions></trkpt>
   <trkpt lat="59.3344975703" lon="34.7154503722"><ele>160.066</ele><time>2026-08-13T23:11:43.998Z</time><hdop>4.687</hdop><vdop>5.312</vdop><extensions><gom:speed>3.928</gom:speed><gom:course>87.644</gom:course><gom:rel_alt>-2.166</gom:rel_alt></extensions></trkpt>
   <trkpt lat="59.3345032281" lon="34.715630164"><ele>160.686</ele><time>2026-08-13T23:11:46.998Z</time><hdop>4.687</hdop><vdop>5.312</vdop><extensions><gom:speed>3.337</gom:speed><gom:course>86.254</gom:course><gom:rel_alt>-2.113</gom:rel_alt></extensions></trkpt>
   <trkpt lat="59.3345033538" lon="34.7158193436"><ele>160.462</ele><time>2026-08-13T23:11:49.998Z</time><hdop>4.687</hdop><vdop>5.437</vdop><extensions><gom:speed>3.564</gom:speed><gom:course>90.133</gom:course><gom:rel_alt>-2.039</gom:rel_alt></extensions></trkpt>
   <trkpt lat="59.3344982409" lon="34.7159967885"><ele>160.526</ele><time>2026-08-13T23:11:52.998Z</time><hdop>4.687</hdop><vdop>5.375</vdop><extensions><gom:speed>3.325</gom:speed><gom:course>93.181</gom:course><gom:rel_alt>-2.111</gom:rel_alt></extensions></trkpt>
   <trkpt lat="59.3344987857" lon="34.7161823638"><ele>160.936</ele><time>2026-08-13T23:11:55.998Z</time><hdop>4.687</hdop><vdop>5.375</vdop><extensions><gom:speed>3.41</gom:speed><gom:course>88.402</gom:course><gom:rel_alt>-2.161</gom:rel_alt></extensions></trkpt>
   <trkpt lat="59.334495852" lon="34.7163819369"><ele>160.779</ele><time>2026-08-13T23:11:58.998Z</time><hdop>4.687</hdop><vdop>5.375</vdop><extensions><gom:speed>3.763</gom:speed><gom:course>91.665</gom:course><gom:rel_alt>-1.91</gom:rel_alt></extensions></trkpt>
   <trkpt lat="59.3345000849" lon="34.7165842761"><ele>160.787</ele><time>2026-08-13T23:12:02.998Z</time><hdop>4.687</hdop><vdop>6.0</vdop><extensions><gom:speed>1.49</gom:speed><gom:course>84.716</gom:course><gom:rel_alt>-1.535</gom:rel_alt></extensions></trkpt>
   <trkpt lat="59.334502348" lon="34.7167693485"><ele>161.015</ele><time>2026-08-13T23:12:05.998Z</time><hdop>4.687</hdop><vdop>6.062</vdop><extensions><gom:speed>2.391</gom:speed><gom:course>88.666</gom:course><gom:rel_alt>-1.344</gom:rel_alt></extensions></trkpt>
   <trkpt lat="59.3345064132" lon="34.7169658203"><ele>161.218</ele><time>2026-08-13T23:12:07.997Z</time><hdop>4.687</hdop><vdop>5.312</vdop><extensions><gom:speed>4.277</gom:speed><gom:course>87.76</gom:course><gom:rel_alt>-1.202</gom:rel_alt></extensions></trkpt>
   <trkpt lat="59.3345088021" lon="34.7171446901"><ele>161.042</ele><time>2026-08-13T23:12:10.997Z</time><hdop>4.687</hdop><vdop>5.375</vdop><extensions><gom:speed>3.75</gom:speed><gom:course>85.848</gom:course><gom:rel_alt>-1.104</gom:rel_alt></extensions></trkpt>
   <trkpt lat="59.334510688" lon="34.717377707"><ele>160.313</ele><time>2026-08-13T23:12:14.997Z</time><hdop>4.687</hdop><vdop>5.312</vdop><extensions><gom:speed>3.524</gom:speed><gom:course>83.821</gom:course><gom:rel_alt>-1.101</gom:rel_alt></extensions></trkpt>
   <trkpt lat="59.3345045692" lon="34.717569485"><ele>160.442</ele><time>2026-08-13T23:12:17.997Z</time><hdop>4.687</hdop><vdop>5.312</vdop><extensions><gom:speed>3.622</gom:speed><gom:course>95.549</gom:course><gom:rel_alt>-1.067</gom:rel_alt></extensions></trkpt>
   <trkpt lat="59.3344958101" lon="34.7177851513"><ele>161.044</ele><time>2026-08-13T23:12:21.997Z</time><hdop>4.687</hdop><vdop>5.625</vdop><extensions><gom:speed>3.614</gom:speed><gom:course>94.807</gom:course><gom:rel_alt>-1.022</gom:rel_alt></extensions></trkpt>
   <trkpt lat="59.3344807227" lon="34.7179693017"><ele>161.004</ele><time>2026-08-13T23:12:24.997Z</time><hdop>4.687</hdop><vdop>5.312</vdop><extensions><gom:speed>3.062</gom:speed><gom:course>96.379</gom:course><gom:rel_alt>-1.025</gom:rel_alt></extensions></trkpt>
   <trkpt lat="59.3344658029" lon="34.7181432262"><ele>160.827</ele><time>2026-08-13T23:12:27.997Z</time><hdop>4.687</hdop><vdop>5.187</vdop><extensions><gom:speed>3.282</gom:speed><gom:course>103.586</gom:course><gom:rel_alt>-1.062</gom:rel_alt></extensions></trkpt>
   <trkpt lat="59.3344549903" lon="34.7183249459"><ele>160.838</ele><time>2026-08-13T23:12:31.999Z</time><hdop>4.687</hdop><vdop>6.0</vdop><extensions><gom:speed>1.66</gom:speed><gom:course>100.603</gom:course><gom:rel_alt>-1.181</gom:rel_alt></extensions></trkpt>
   <trkpt lat="59.3344290902" lon="34.7185449708"><ele>160.799</ele><time>2026-08-13T23:12:35.000Z</time><hdop>4.687</hdop><vdop>5.5</vdop><extensions><gom:speed>4.311</gom:speed><gom:course>102.009</gom:course><gom:rel_alt>-1.215</gom:rel_alt></extensions></trkpt>
   <trkpt lat="59.3343989572" lon="34.7187400177"><ele>160.715</ele><time>2026-08-13T23:12:37.999Z</time><hdop>4.687</hdop><vdop>5.187</vdop><extensions><gom:speed>3.67</gom:speed><gom:course>104.981</gom:course><gom:rel_alt>-1.321</gom:rel_alt></extensions></trkpt>
   <trkpt lat="59.3343621607" lon="34.7189522475"><ele>160.714</ele><time>2026-08-13T23:12:40.999Z</time><hdop>4.687</hdop><vdop>5.25</vdop><extensions><gom:speed>4.267</gom:speed><gom:course>106.453</gom:course><gom:rel_alt>-1.281</gom:rel_alt></extensions></trkpt>
   <trkpt lat="59.334325867" lon="34.7191686683"><ele>160.926</ele><time>2026-08-13T23:12:43.999Z</time><hdop>4.687</hdop><vdop>5.25</vdop><extensions><gom:speed>4.257</gom:speed><gom:course>109.013</gom:course><gom:rel_alt>-1.12</gom:rel_alt></extensions></trkpt>
   <trkpt lat="59.3342883999" lon="34.7193637152"><ele>160.855</ele><time>2026-08-13T23:12:46.999Z</time><hdop>4.687</hdop><vdop>5.312</vdop><extensions><gom:speed>3.974</gom:speed><gom:course>111.897</gom:course><gom:rel_alt>-1.043</gom:rel_alt></extensions></trkpt>
   <trkpt lat="59.3342484602" lon="34.7195533138"><ele>160.302</ele><time>2026-08-13T23:12:49.999Z</time><hdop>4.687</hdop><vdop>5.25</vdop><extensions><gom:speed>3.737</gom:speed><gom:course>110.364</gom:course><gom:rel_alt>-1.091</gom:rel_alt></extensions></trkpt>
   <trkpt lat="59.334228134" lon="34.719751462"><ele>160.814</ele><time>2026-08-13T23:12:52.999Z</time><hdop>4.687</hdop><vdop>5.187</vdop><extensions><gom:speed>3.974</gom:speed><gom:course>99.746</gom:course><gom:rel_alt>-1.167</gom:rel_alt></extensions></trkpt>
   <trkpt lat="59.3341866855" lon="34.7199723251"><ele>160.612</ele><time>2026-08-13T23:12:55.999Z</time><hdop>4.687</hdop><vdop>5.25</vdop><extensions><gom:speed>4.832</gom:speed><gom:course>108.942</gom:course><gom:rel_alt>-1.239</gom:rel_alt></extensions></trkpt>
   <trkpt lat="59.3341530322" lon="34.720168797"><ele>160.309</ele><time>2026-08-13T23:12:57.999Z</time><hdop>4.687</hdop><vdop>5.25</vdop><extensions><gom:speed>5.838</gom:speed><gom:course>109.035</gom:course><gom:rel_alt>-1.207</gom:rel_alt></extensions></trkpt>
   <trkpt lat="59.3341117513" lon="34.7203667775"><ele>160.671</ele><time>2026-08-13T23:12:59.999Z</time><hdop>4.687</hdop><vdop>5.312</vdop><extensions><gom:speed>5.871</gom:speed><gom:course>111.403</gom:course></extensions></trkpt>
   <trkpt lat="59.334067453" lon="34.7205412887"><ele>160.677</ele><time>2026-08-13T23:13:01.999Z</time><hdop>4.687</hdop><vdop>5.375</vdop><extensions><gom:speed>5.481</gom:speed><gom:course>115.363</gom:course><gom:rel_alt>-1.041</gom:rel_alt></extensions></trkpt>
   <trkpt lat="59.3340316203" lon="34.7207168058"><ele>160.825</ele><time>2026-08-13T23:13:03.999Z</time><hdop>4.687</hdop><vdop>5.437</vdop><extensions><gom:speed>5.384</gom:speed><gom:course>112.518</gom:course><gom:rel_alt>-1.041</gom:rel_alt></extensions></trkpt>
   <trkpt lat="59.3339811613" lon="34.720942279"><ele>161.009</ele><time>2026-08-13T23:13:06.999Z</time><hdop>4.687</hdop><vdop>5.5</vdop><extensions><gom:speed>4.718</gom:speed><gom:course>112.847</gom:course><gom:rel_alt>-1.059</gom:rel_alt></extensions></trkpt>
   <trkpt lat="59.3339487233" lon="34.7211760503"><ele>160.741</ele><time>2026-08-13T23:13:09.999Z</time><hdop>4.687</hdop><vdop>5.375</vdop><extensions><gom:speed>4.426</gom:speed><gom:course>106.442</gom:course><gom:rel_alt>-0.988</gom:rel_alt></extensions></trkpt>
   <trkpt lat="59.3339056403" lon="34.7214059659"><ele>160.111</ele><time>2026-08-13T23:13:12.999Z</time><hdop>4.687</hdop><vdop>5.125</vdop><extensions><gom:speed>4.669</gom:speed><gom:course>105.981</gom:course><gom:rel_alt>-0.961</gom:rel_alt></extensions></trkpt>
   <trkpt lat="59.3338653234" lon="34.7216575068"><ele>160.22</ele><time>2026-08-13T23:13:15.999Z</time><hdop>4.687</hdop><vdop>5.0</vdop><extensions><gom:speed>4.922</gom:speed><gom:course>107.431</gom:course><gom:rel_alt>-0.919</gom:rel_alt></extensions></trkpt>
   <trkpt lat="59.3338402615" lon="34.7218343649"><ele>160.321</ele><time>2026-08-13T23:13:17.999Z</time><hdop>4.687</hdop><vdop>5.25</vdop><extensions><gom:speed>5.193</gom:speed><gom:course>106.53</gom:course><gom:rel_alt>-0.901</gom:rel_alt></extensions></trkpt>
   <trkpt lat="59.3338160797" lon="34.7220049367"><ele>161.123</ele><time>2026-08-13T23:13:19.999Z</time><hdop>4.687</hdop><vdop>5.312</vdop><extensions><gom:speed>5.062</gom:speed><gom:course>107.211</gom:course><gom:rel_alt>-0.774</gom:rel_alt></extensions></trkpt>
   <trkpt lat="59.3337970947" lon="34.7222014923"><ele>161.298</ele><time>2026-08-13T23:13:21.999Z</time><hdop>4.687</hdop><vdop>5.375</vdop><extensions><gom:speed>5.615</gom:speed><gom:course>103.284</gom:course><gom:rel_alt>-0.626</gom:rel_alt></extensions></trkpt>
   <trkpt lat="59.3337698954" lon="34.722394779"><ele>161.303</ele><time>2026-08-13T23:13:23.999Z</time><hdop>4.687</hdop><vdop>5.375</vdop><extensions><gom:speed>5.728</gom:speed><gom:course>104.097</gom:course><gom:rel_alt>-0.346</gom:rel_alt></extensions></trkpt>
   <trkpt lat="59.3337379184" lon="34.722803732"><ele>161.576</ele><time>2026-08-13T23:13:27.998Z</time><hdop>4.687</hdop><vdop>4.0</vdop><extensions><gom:speed>5.699</gom:speed><gom:course>104.058</gom:course><gom:rel_alt>-0.274</gom:rel_alt></extensions></trkpt>
   <trkpt lat="59.3337155388" lon="34.7229882177"><ele>161.528</ele><time>2026-08-13T23:13:29.998Z</time><hdop>4.687</hdop><vdop>4.0</vdop><extensions><gom:speed>5.579</gom:speed><gom:course>100.542</gom:course><gom:rel_alt>-0.472</gom:rel_alt></extensions></trkpt>
   <trkpt lat="59.3336686001" lon="34.7232218214"><ele>161.356</ele><time>2026-08-13T23:13:32.998Z</time><hdop>4.687</hdop><vdop>4.0</vdop><extensions><gom:speed>5.049</gom:speed><gom:course>112.496</gom:course></extensions></trkpt>
   <trkpt lat="59.3336382576" lon="34.7234218974"><ele>161.866</ele><time>2026-08-13T23:13:35.998Z</time><hdop>4.687</hdop><vdop>4.0</vdop><extensions><gom:speed>4.029</gom:speed><gom:course>108.277</gom:course><gom:rel_alt>-1.035</gom:rel_alt></extensions></trkpt>
   <trkpt lat="59.3336291632" lon="34.7236035332"><ele>162.609</ele><time>2026-08-13T23:13:37.998Z</time><hdop>4.687</hdop><vdop>4.0</vdop><extensions><gom:speed>4.669</gom:speed><gom:course>97.378</gom:course><gom:rel_alt>-1.297</gom:rel_alt></extensions></trkpt>
   <trkpt lat="59.3335937916" lon="34.723807884"><ele>162.595</ele><time>2026-08-13T23:13:40.998Z</time><hdop>4.687</hdop><vdop>4.0</vdop><extensions><gom:speed>4.069</gom:speed><gom:course>101.597</gom:course><gom:rel_alt>-1.384</gom:rel_alt></extensions></trkpt>
   <trkpt lat="59.3335625271" lon="34.7240104746"><ele>162.27</ele><time>2026-08-13T23:13:43.998Z</time><hdop>4.687</hdop><vdop>4.0</vdop><extensions><gom:speed>4.209</gom:speed><gom:course>109.683</gom:course><gom:rel_alt>-1.329</gom:rel_alt></extensions></trkpt>
   <trkpt lat="59.3335241799" lon="34.7242518734"><ele>162.048</ele><time>2026-08-13T23:13:46.998Z</time><hdop>4.687</hdop><vdop>4.0</vdop><extensions><gom:speed>4.619</gom:speed><gom:course>106.519</gom:course><gom:rel_alt>-1.22</gom:rel_alt></extensions></trkpt>
   <trkpt lat="59.3334942146" lon="34.7244291507"><ele>163.744</ele><time>2026-08-13T23:13:49.998Z</time><hdop>4.687</hdop><vdop>3.875</vdop><extensions><gom:speed>3.158</gom:speed><gom:course>109.562</gom:course></extensions></trkpt>
   <trkpt lat="59.3334411572" lon="34.7245807793"><ele>164.124</ele><time>2026-08-13T23:13:54.998Z</time><hdop>4.687</hdop><vdop>5.625</vdop><extensions><gom:speed>2.204</gom:speed><gom:course>130.931</gom:course><gom:rel_alt>0.066</gom:rel_alt></extensions></trkpt>
   <trkpt lat="59.3334951785" lon="34.7244348504"><ele>163.835</ele><time>2026-08-13T23:14:11.997Z</time><hdop>4.687</hdop><vdop>5.75</vdop><extensions><gom:speed>2.106</gom:speed><gom:course>272.629</gom:course><gom:rel_alt>0.842</gom:rel_alt></extensions></trkpt>
   <trkpt lat="59.3335155465" lon="34.7242527955"><ele>162.742</ele><time>2026-08-13T23:14:15.997Z</time><hdop>4.687</hdop><vdop>5.375</vdop><extensions><gom:speed>2.891</gom:speed><gom:course>285.214</gom:course><gom:rel_alt>0.171</gom:rel_alt></extensions></trkpt>
   <trkpt lat="59.3335458052" lon="34.7240438346"><ele>162.048</ele><time>2026-08-13T23:14:19.997Z</time><hdop>4.687</hdop><vdop>5.187</vdop><extensions><gom:speed>3.039</gom:speed><gom:course>285.456</gom:course><gom:rel_alt>-0.689</gom:rel_alt></extensions></trkpt>
   <trkpt lat="59.3335775726" lon="34.7238561638"><ele>162.067</ele><time>2026-08-13T23:14:22.997Z</time><hdop>4.687</hdop><vdop>5.125</vdop><extensions><gom:speed>3.886</gom:speed><gom:course>287.154</gom:course><gom:rel_alt>-1.059</gom:rel_alt></extensions></trkpt>
   <trkpt lat="59.3335921571" lon="34.7236788865"><ele>162.252</ele><time>2026-08-13T23:14:25.997Z</time><hdop>4.687</hdop><vdop>5.187</vdop><extensions><gom:speed>3.437</gom:speed><gom:course>278.754</gom:course><gom:rel_alt>-1.112</gom:rel_alt></extensions></trkpt>
   <trkpt lat="59.3336209909" lon="34.7234726079"><ele>162.641</ele><time>2026-08-13T23:14:28.997Z</time><hdop>4.687</hdop><vdop>5.25</vdop><extensions><gom:speed>3.916</gom:speed><gom:course>285.929</gom:course><gom:rel_alt>-1.202</gom:rel_alt></extensions></trkpt>
   <trkpt lat="59.333653345" lon="34.7232675866"><ele>162.431</ele><time>2026-08-13T23:14:31.997Z</time><hdop>4.687</hdop><vdop>5.187</vdop><extensions><gom:speed>3.875</gom:speed><gom:course>285.994</gom:course><gom:rel_alt>-1.218</gom:rel_alt></extensions></trkpt>
   <trkpt lat="59.3336916503" lon="34.7230411913"><ele>162.888</ele><time>2026-08-13T23:14:34.997Z</time><hdop>4.687</hdop><vdop>5.0</vdop><extensions><gom:speed>4.726</gom:speed><gom:course>291.081</gom:course><gom:rel_alt>-1.167</gom:rel_alt></extensions></trkpt>
   <trkpt lat="59.3337141557" lon="34.7228697814"><ele>163.205</ele><time>2026-08-13T23:14:36.997Z</time><hdop>4.687</hdop><vdop>5.125</vdop><extensions><gom:speed>4.912</gom:speed><gom:course>285.121</gom:course><gom:rel_alt>-1.022</gom:rel_alt></extensions></trkpt>
   <trkpt lat="59.3337313806" lon="34.7226968628"><ele>163.221</ele><time>2026-08-13T23:14:38.999Z</time><hdop>4.687</hdop><vdop>5.125</vdop><extensions><gom:speed>4.979</gom:speed><gom:course>281.891</gom:course><gom:rel_alt>-0.821</gom:rel_alt></extensions></trkpt>
   <trkpt lat="59.333761723" lon="34.7224499319"><ele>162.668</ele><time>2026-08-13T23:14:41.999Z</time><hdop>4.687</hdop><vdop>4.937</vdop><extensions><gom:speed>4.91</gom:speed><gom:course>282.127</gom:course><gom:rel_alt>-0.679</gom:rel_alt></extensions></trkpt>
   <trkpt lat="59.333780289" lon="34.7222770971"><ele>162.882</ele><time>2026-08-13T23:14:43.999Z</time><hdop>4.687</hdop><vdop>4.875</vdop><extensions><gom:speed>4.992</gom:speed><gom:course>281.748</gom:course><gom:rel_alt>-0.586</gom:rel_alt></extensions></trkpt>
   <trkpt lat="59.3338129784" lon="34.7220195212"><ele>162.715</ele><time>2026-08-13T23:14:46.999Z</time><hdop>4.687</hdop><vdop>4.937</vdop><extensions><gom:speed>5.052</gom:speed><gom:course>284.033</gom:course><gom:rel_alt>-0.311</gom:rel_alt></extensions></trkpt>
   <trkpt lat="59.3338337655" lon="34.721844507"><ele>162.105</ele><time>2026-08-13T23:14:48.999Z</time><hdop>4.687</hdop><vdop>5.0</vdop><extensions><gom:speed>5.126</gom:speed><gom:course>283.599</gom:course><gom:rel_alt>-0.203</gom:rel_alt></extensions></trkpt>
   <trkpt lat="59.3338556004" lon="34.7216702473"><ele>162.123</ele><time>2026-08-13T23:14:50.999Z</time><hdop>4.687</hdop><vdop>5.0</vdop><extensions><gom:speed>5.094</gom:speed><gom:course>283.638</gom:course><gom:rel_alt>-0.256</gom:rel_alt></extensions></trkpt>
   <trkpt lat="59.3338952887" lon="34.721424909"><ele>161.99</ele><time>2026-08-13T23:14:53.999Z</time><hdop>4.687</hdop><vdop>4.937</vdop><extensions><gom:speed>4.89</gom:speed><gom:course>287.181</gom:course><gom:rel_alt>-0.478</gom:rel_alt></extensions></trkpt>
   <trkpt lat="59.3339264693" lon="34.7212195523"><ele>161.53</ele><time>2026-08-13T23:14:56.999Z</time><hdop>4.687</hdop><vdop>5.0</vdop><extensions><gom:speed>4.052</gom:speed><gom:course>285.539</gom:course><gom:rel_alt>-0.758</gom:rel_alt></extensions></trkpt>
   <trkpt lat="59.3339704743" lon="34.7210219071"><ele>161.976</ele><time>2026-08-13T23:14:59.999Z</time><hdop>4.687</hdop><vdop>5.062</vdop><extensions><gom:speed>4.19</gom:speed><gom:course>297.959</gom:course><gom:rel_alt>-0.959</gom:rel_alt></extensions></trkpt>
   <trkpt lat="59.3340094083" lon="34.7207870461"><ele>161.653</ele><time>2026-08-13T23:15:02.999Z</time><hdop>4.687</hdop><vdop>5.062</vdop><extensions><gom:speed>4.673</gom:speed><gom:course>289.214</gom:course><gom:rel_alt>-1.006</gom:rel_alt></extensions></trkpt>
   <trkpt lat="59.3340543772" lon="34.720551347"><ele>161.562</ele><time>2026-08-13T23:15:05.999Z</time><hdop>4.687</hdop><vdop>5.125</vdop><extensions><gom:speed>4.731</gom:speed><gom:course>293.647</gom:course><gom:rel_alt>-0.85</gom:rel_alt></extensions></trkpt>
   <trkpt lat="59.3341099073" lon="34.7203278017"><ele>161.226</ele><time>2026-08-13T23:15:08.999Z</time><hdop>4.687</hdop><vdop>5.062</vdop><extensions><gom:speed>4.709</gom:speed><gom:course>293.306</gom:course><gom:rel_alt>-0.94</gom:rel_alt></extensions></trkpt>
   <trkpt lat="59.3341622523" lon="34.7200905938"><ele>160.964</ele><time>2026-08-13T23:15:11.999Z</time><hdop>4.687</hdop><vdop>5.062</vdop><extensions><gom:speed>4.897</gom:speed><gom:course>292.57</gom:course><gom:rel_alt>-1.08</gom:rel_alt></extensions></trkpt>
   <trkpt lat="59.3341963247" lon="34.7198463451"><ele>161.281</ele><time>2026-08-13T23:15:14.999Z</time><hdop>4.687</hdop><vdop>5.062</vdop><extensions><gom:speed>4.81</gom:speed><gom:course>283.737</gom:course></extensions></trkpt>
   <trkpt lat="59.3342336661" lon="34.7196162619"><ele>161.628</ele><time>2026-08-13T23:15:17.999Z</time><hdop>4.687</hdop><vdop>5.0</vdop><extensions><gom:speed>4.537</gom:speed><gom:course>287.994</gom:course><gom:rel_alt>-1.101</gom:rel_alt></extensions></trkpt>
   <trkpt lat="59.3342713428" lon="34.7194018528"><ele>161.826</ele><time>2026-08-13T23:15:21.999Z</time><hdop>4.687</hdop><vdop>5.687</vdop><extensions><gom:speed>2.002</gom:speed><gom:course>291.378</gom:course><gom:rel_alt>-0.953</gom:rel_alt></extensions></trkpt>
   <trkpt lat="59.3343090194" lon="34.7191892877"><ele>161.665</ele><time>2026-08-13T23:15:24.999Z</time><hdop>4.687</hdop><vdop>3.312</vdop><extensions><gom:speed>2.669</gom:speed><gom:course>287.978</gom:course><gom:rel_alt>-0.76</gom:rel_alt></extensions></trkpt>
   <trkpt lat="59.3343450197" lon="34.7189859428"><ele>161.788</ele><time>2026-08-13T23:15:26.999Z</time><hdop>4.687</hdop><vdop>3.125</vdop><extensions><gom:speed>4.718</gom:speed><gom:course>289.488</gom:course><gom:rel_alt>-0.639</gom:rel_alt></extensions></trkpt>
   <trkpt lat="59.3343769547" lon="34.7188154549"><ele>161.639</ele><time>2026-08-13T23:15:28.999Z</time><hdop>4.687</hdop><vdop>3.125</vdop><extensions><gom:speed>4.685</gom:speed><gom:course>290.081</gom:course><gom:rel_alt>-0.565</gom:rel_alt></extensions></trkpt>
   <trkpt lat="59.3343997535" lon="34.718644967"><ele>161.624</ele><time>2026-08-13T23:15:30.999Z</time><hdop>4.687</hdop><vdop>3.125</vdop><extensions><gom:speed>4.597</gom:speed><gom:course>284.39</gom:course><gom:rel_alt>-0.565</gom:rel_alt></extensions></trkpt>
   <trkpt lat="59.3344392742" lon="34.7184032329"><ele>161.555</ele><time>2026-08-13T23:15:33.998Z</time><hdop>4.687</hdop><vdop>3.125</vdop><extensions><gom:speed>4.473</gom:speed><gom:course>288.521</gom:course><gom:rel_alt>-0.668</gom:rel_alt></extensions></trkpt>
   <trkpt lat="59.3344630369" lon="34.7181994688"><ele>161.847</ele><time>2026-08-13T23:15:37.998Z</time><hdop>4.687</hdop><vdop>3.062</vdop><extensions><gom:speed>3.292</gom:speed><gom:course>281.446</gom:course><gom:rel_alt>-1.062</gom:rel_alt></extensions></trkpt>
   <trkpt lat="59.3344677307" lon="34.7180038352"><ele>161.599</ele><time>2026-08-13T23:15:40.998Z</time><hdop>4.687</hdop><vdop>3.0</vdop><extensions><gom:speed>3.717</gom:speed><gom:course>273.854</gom:course><gom:rel_alt>-1.07</gom:rel_alt></extensions></trkpt>
   <trkpt lat="59.3344897752" lon="34.7177792002"><ele>161.791</ele><time>2026-08-13T23:15:44.998Z</time><hdop>4.687</hdop><vdop>3.0</vdop><extensions><gom:speed>3.522</gom:speed><gom:course>275.678</gom:course><gom:rel_alt>-0.993</gom:rel_alt></extensions></trkpt>
   <trkpt lat="59.334497738" lon="34.7175771125"><ele>161.887</ele><time>2026-08-13T23:15:47.998Z</time><hdop>4.687</hdop><vdop>3.0</vdop><extensions><gom:speed>3.868</gom:speed><gom:course>275.436</gom:course><gom:rel_alt>-0.948</gom:rel_alt></extensions></trkpt>
   <trkpt lat="59.3345073771" lon="34.7173831553"><ele>162.23</ele><time>2026-08-13T23:15:50.998Z</time><hdop>4.687</hdop><vdop>3.0</vdop><extensions><gom:speed>3.664</gom:speed><gom:course>274.904</gom:course><gom:rel_alt>-0.901</gom:rel_alt></extensions></trkpt>
   <trkpt lat="59.3344987438" lon="34.7171938081"><ele>161.933</ele><time>2026-08-13T23:15:53.998Z</time><hdop>4.687</hdop><vdop>3.062</vdop><extensions><gom:speed>3.561</gom:speed><gom:course>267.262</gom:course><gom:rel_alt>-0.895</gom:rel_alt></extensions></trkpt>
   <trkpt lat="59.3344979056" lon="34.7169737831"><ele>161.761</ele><time>2026-08-13T23:15:57.998Z</time><hdop>4.687</hdop><vdop>5.312</vdop><extensions><gom:speed>2.561</gom:speed><gom:course>268.026</gom:course><gom:rel_alt>-1.059</gom:rel_alt></extensions></trkpt>
   <trkpt lat="59.3344961454" lon="34.7167181351"><ele>161.302</ele><time>2026-08-13T23:16:01.998Z</time><hdop>4.687</hdop><vdop>3.062</vdop><extensions><gom:speed>4.063</gom:speed><gom:course>267.834</gom:course><gom:rel_alt>-0.94</gom:rel_alt></extensions></trkpt>
   <trkpt lat="59.3344910743" lon="34.7165123593"><ele>161.27</ele><time>2026-08-13T23:16:04.998Z</time><hdop>4.687</hdop><vdop>3.0</vdop><extensions><gom:speed>4.242</gom:speed><gom:course>266.537</gom:course><gom:rel_alt>-1.03</gom:rel_alt></extensions></trkpt>
   <trkpt lat="59.3344908229" lon="34.7163006325"><ele>161.161</ele><time>2026-08-13T23:16:07.998Z</time><hdop>4.687</hdop><vdop>3.437</vdop><extensions><gom:speed>4.055</gom:speed><gom:course>269.976</gom:course><gom:rel_alt>-1.194</gom:rel_alt></extensions></trkpt>
   <trkpt lat="59.3344948881" lon="34.7161131293"><ele>160.642</ele><time>2026-08-13T23:16:10.998Z</time><hdop>4.687</hdop><vdop>3.125</vdop><extensions><gom:speed>3.359</gom:speed><gom:course>271.399</gom:course><gom:rel_alt>-1.492</gom:rel_alt></extensions></trkpt>
   <trkpt lat="59.3344980313" lon="34.7158740774"><ele>160.2</ele><time>2026-08-13T23:16:14.997Z</time><hdop>4.687</hdop><vdop>3.25</vdop><extensions><gom:speed>3.075</gom:speed><gom:course>271.987</gom:course><gom:rel_alt>-1.846</gom:rel_alt></extensions></trkpt>
   <trkpt lat="59.3344941337" lon="34.7156839758"><ele>160.631</ele><time>2026-08-13T23:16:16.997Z</time><hdop>4.687</hdop><vdop>3.125</vdop><extensions><gom:speed>4.015</gom:speed><gom:course>268.641</gom:course><gom:rel_alt>-1.936</gom:rel_alt></extensions></trkpt>
   <trkpt lat="59.3344849556" lon="34.715453725"><ele>160.258</ele><time>2026-08-13T23:16:19.997Z</time><hdop>4.687</hdop><vdop>3.125</vdop><extensions><gom:speed>3.651</gom:speed><gom:course>268.455</gom:course><gom:rel_alt>-1.902</gom:rel_alt></extensions></trkpt>
   <trkpt lat="59.3344842012" lon="34.7152333647"><ele>160.356</ele><time>2026-08-13T23:16:22.997Z</time><hdop>4.687</hdop><vdop>3.0</vdop><extensions><gom:speed>3.485</gom:speed><gom:course>268.444</gom:course></extensions></trkpt>
   <trkpt lat="59.334480597" lon="34.7150450234"><ele>159.936</ele><time>2026-08-13T23:16:25.997Z</time><hdop>4.687</hdop><vdop>3.187</vdop><extensions><gom:speed>3.231</gom:speed><gom:course>266.592</gom:course><gom:rel_alt>-2.047</gom:rel_alt></extensions></trkpt>
   <trkpt lat="59.3344692395" lon="34.7148649801"><ele>159.775</ele><time>2026-08-13T23:16:28.997Z</time><hdop>4.687</hdop><vdop>3.062</vdop><extensions><gom:speed>3.746</gom:speed><gom:course>262.879</gom:course><gom:rel_alt>-2.134</gom:rel_alt></extensions></trkpt>
   <trkpt lat="59.3344671859" lon="34.7146874514"><ele>160.259</ele><time>2026-08-13T23:16:31.997Z</time><hdop>4.687</hdop><vdop>4.812</vdop><extensions><gom:speed>3.764</gom:speed><gom:course>271.998</gom:course><gom:rel_alt>-2.058</gom:rel_alt></extensions></trkpt>
   <trkpt lat="59.3344845365" lon="34.7144918178"><ele>159.539</ele><time>2026-08-13T23:16:35.997Z</time><hdop>4.687</hdop><vdop>4.625</vdop><extensions><gom:speed>2.793</gom:speed><gom:course>281.232</gom:course><gom:rel_alt>-1.897</gom:rel_alt></extensions></trkpt>
   <trkpt lat="59.3344771604" lon="34.7143092599"><ele>160.849</ele><time>2026-08-13T23:16:39.997Z</time><hdop>4.687</hdop><vdop>5.062</vdop><extensions><gom:speed>1.768</gom:speed><gom:course>254.886</gom:course><gom:rel_alt>-1.767</gom:rel_alt></extensions></trkpt>
   <trkpt lat="59.3344640008" lon="34.7140992932"><ele>161.173</ele><time>2026-08-13T23:16:44.999Z</time><hdop>4.687</hdop><vdop>5.687</vdop><extensions><gom:speed>1.651</gom:speed><gom:course>268.108</gom:course><gom:rel_alt>-1.22</gom:rel_alt></extensions></trkpt>
   <trkpt lat="59.3344567505" lon="34.7138152305"><ele>160.784</ele><time>2026-08-13T23:16:48.999Z</time><hdop>4.687</hdop><vdop>5.062</vdop><extensions><gom:speed>4.436</gom:speed><gom:course>267.74</gom:course><gom:rel_alt>-0.679</gom:rel_alt></extensions></trkpt>
   <trkpt lat="59.3344491229" lon="34.7135574032"><ele>160.137</ele><time>2026-08-13T23:16:53.999Z</time><hdop>4.687</hdop><vdop>5.25</vdop><extensions><gom:speed>3.956</gom:speed><gom:course>268.081</gom:course><gom:rel_alt>-0.692</gom:rel_alt></extensions></trkpt>
   <trkpt lat="59.3344346222" lon="34.7133464307"><ele>161.215</ele><time>2026-08-13T23:16:57.999Z</time><hdop>4.687</hdop><vdop>5.25</vdop><extensions><gom:speed>2.905</gom:speed><gom:course>266.263</gom:course><gom:rel_alt>-0.787</gom:rel_alt></extensions></trkpt>
   <trkpt lat="59.3344194091" lon="34.7131532278"><ele>161.792</ele><time>2026-08-13T23:17:00.999Z</time><hdop>4.687</hdop><vdop>5.125</vdop><extensions><gom:speed>3.48</gom:speed><gom:course>262.731</gom:course><gom:rel_alt>-0.787</gom:rel_alt></extensions></trkpt>
   <trkpt lat="59.3344113205" lon="34.7129736036"><ele>161.919</ele><time>2026-08-13T23:17:04.999Z</time><hdop>4.687</hdop><vdop>5.125</vdop><extensions><gom:speed>2.252</gom:speed><gom:course>262.802</gom:course><gom:rel_alt>-0.911</gom:rel_alt></extensions></trkpt>
   <trkpt lat="59.3344126616" lon="34.7127447777"><ele>163.668</ele><time>2026-08-13T23:17:09.999Z</time><hdop>4.687</hdop><vdop>5.812</vdop><extensions><gom:speed>2.118</gom:speed><gom:course>277.189</gom:course><gom:rel_alt>-0.758</gom:rel_alt></extensions></trkpt>
   <trkpt lat="59.3343944729" lon="34.7124612179"><ele>163.451</ele><time>2026-08-13T23:17:13.999Z</time><hdop>4.687</hdop><vdop>5.5</vdop><extensions><gom:speed>4.537</gom:speed><gom:course>264.565</gom:course><gom:rel_alt>-0.346</gom:rel_alt></extensions></trkpt>
   <trkpt lat="59.3343877255" lon="34.7122296259"><ele>164.118</ele><time>2026-08-13T23:17:16.999Z</time><hdop>4.687</hdop><vdop>5.375</vdop><extensions><gom:speed>3.943</gom:speed><gom:course>266.246</gom:course><gom:rel_alt>0.066</gom:rel_alt></extensions></trkpt>
   <trkpt lat="59.3343710874" lon="34.7120146301"><ele>164.206</ele><time>2026-08-13T23:17:19.999Z</time><hdop>4.687</hdop><vdop>5.125</vdop><extensions><gom:speed>3.812</gom:speed><gom:course>259.693</gom:course><gom:rel_alt>0.438</gom:rel_alt></extensions></trkpt>
   <trkpt lat="59.3343531082" lon="34.7118012268"><ele>163.31</ele><time>2026-08-13T23:17:22.999Z</time><hdop>4.687</hdop><vdop>5.125</vdop><extensions><gom:speed>3.711</gom:speed><gom:course>264.153</gom:course><gom:rel_alt>0.575</gom:rel_alt></extensions></trkpt>
   <trkpt lat="59.334327753" lon="34.7116086945"><ele>163.138</ele><time>2026-08-13T23:17:25.999Z</time><hdop>4.687</hdop><vdop>5.312</vdop><extensions><gom:speed>2.648</gom:speed><gom:course>259.984</gom:course><gom:rel_alt>0.372</gom:rel_alt></extensions></trkpt>
   <trkpt lat="59.3343078459" lon="34.7114014101"><ele>162.752</ele><time>2026-08-13T23:17:29.999Z</time><hdop>4.687</hdop><vdop>5.812</vdop><extensions><gom:speed>1.931</gom:speed><gom:course>264.027</gom:course></extensions></trkpt>
   <trkpt lat="59.3342834546" lon="34.7112014178"><ele>163.596</ele><time>2026-08-13T23:17:33.999Z</time><hdop>4.687</hdop><vdop>5.687</vdop><extensions><gom:speed>1.962</gom:speed><gom:course>256.353</gom:course><gom:rel_alt>-0.364</gom:rel_alt></extensions></trkpt>
   <trkpt lat="59.3342509747" lon="34.7109631203"><ele>164.0</ele><time>2026-08-13T23:17:37.999Z</time><hdop>4.687</hdop><vdop>5.062</vdop><extensions><gom:speed>3.758</gom:speed><gom:course>257.133</gom:course><gom:rel_alt>-0.509</gom:rel_alt></extensions></trkpt>
   <trkpt lat="59.3342228534" lon="34.7107443527"><ele>163.81</ele><time>2026-08-13T23:17:41.998Z</time><hdop>4.687</hdop><vdop>5.125</vdop><extensions><gom:speed>2.908</gom:speed><gom:course>262.725</gom:course><gom:rel_alt>-0.573</gom:rel_alt></extensions></trkpt>
   <trkpt lat="59.3342107416" lon="34.7105532453"><ele>164.11</ele><time>2026-08-13T23:17:44.998Z</time><hdop>4.687</hdop><vdop>5.187</vdop><extensions><gom:speed>3.466</gom:speed><gom:course>266.032</gom:course><gom:rel_alt>-0.805</gom:rel_alt></extensions></trkpt>
   <trkpt lat="59.3342049581" lon="34.7103609644"><ele>164.17</ele><time>2026-08-13T23:17:47.998Z</time><hdop>4.687</hdop><vdop>4.937</vdop><extensions><gom:speed>3.257</gom:speed><gom:course>268.328</gom:course><gom:rel_alt>-0.887</gom:rel_alt></extensions></trkpt>
   <trkpt lat="59.334191086" lon="34.7101835195"><ele>163.662</ele><time>2026-08-13T23:17:50.998Z</time><hdop>4.687</hdop><vdop>5.25</vdop><extensions><gom:speed>3.192</gom:speed><gom:course>261.308</gom:course><gom:rel_alt>-1.08</gom:rel_alt></extensions></trkpt>
   <trkpt lat="59.334172562" lon="34.7099602256"><ele>163.707</ele><time>2026-08-13T23:17:54.998Z</time><hdop>4.687</hdop><vdop>5.187</vdop><extensions><gom:speed>3.333</gom:speed><gom:course>260.715</gom:course><gom:rel_alt>-1.27</gom:rel_alt></extensions></trkpt>
   <trkpt lat="59.3341569717" lon="34.7097680286"><ele>163.896</ele><time>2026-08-13T23:17:58.998Z</time><hdop>4.687</hdop><vdop>5.125</vdop><extensions><gom:speed>2.333</gom:speed><gom:course>262.286</gom:course><gom:rel_alt>-1.115</gom:rel_alt></extensions></trkpt>
   <trkpt lat="59.3341482964" lon="34.7095792681"><ele>163.857</ele><time>2026-08-13T23:18:03.998Z</time><hdop>4.687</hdop><vdop>5.25</vdop><extensions><gom:speed>2.757</gom:speed><gom:course>262.11</gom:course></extensions></trkpt>
   <trkpt lat="59.3341425548" lon="34.7093760908"><ele>163.053</ele><time>2026-08-13T23:18:07.998Z</time><hdop>4.687</hdop><vdop>5.625</vdop><extensions><gom:speed>1.845</gom:speed><gom:course>269.24</gom:course><gom:rel_alt>-1.138</gom:rel_alt></extensions></trkpt>
   <trkpt lat="59.334130443" lon="34.7091649506"><ele>162.8</ele><time>2026-08-13T23:18:11.998Z</time><hdop>4.687</hdop><vdop>5.75</vdop><extensions><gom:speed>1.983</gom:speed><gom:course>263.357</gom:course><gom:rel_alt>-1.096</gom:rel_alt></extensions></trkpt>
   <trkpt lat="59.3341182473" lon="34.7089726698"><ele>163.448</ele><time>2026-08-13T23:18:15.998Z</time><hdop>4.687</hdop><vdop>5.875</vdop><extensions><gom:speed>1.964</gom:speed><gom:course>258.166</gom:course><gom:rel_alt>-1.447</gom:rel_alt></extensions></trkpt>
   <trkpt lat="59.3340946103" lon="34.7087694925"><ele>163.199</ele><time>2026-08-13T23:18:18.998Z</time><hdop>4.687</hdop><vdop>5.25</vdop><extensions><gom:speed>3.828</gom:speed><gom:course>255.738</gom:course><gom:rel_alt>-1.347</gom:rel_alt></extensions></trkpt>
   <trkpt lat="59.334060496" lon="34.708556173"><ele>163.113</ele><time>2026-08-13T23:18:22.997Z</time><hdop>4.687</hdop><vdop>5.062</vdop><extensions><gom:speed>3.06</gom:speed><gom:course>254.969</gom:course><gom:rel_alt>-0.988</gom:rel_alt></extensions></trkpt>
   <trkpt lat="59.3340224421" lon="34.7083567675"><ele>162.501</ele><time>2026-08-13T23:18:26.997Z</time><hdop>4.687</hdop><vdop>5.062</vdop><extensions><gom:speed>2.914</gom:speed><gom:course>249.206</gom:course><gom:rel_alt>-0.763</gom:rel_alt></extensions></trkpt>
   <trkpt lat="59.3339814546" lon="34.7081542608"><ele>162.29</ele><time>2026-08-13T23:18:30.997Z</time><hdop>4.687</hdop><vdop>5.125</vdop><extensions><gom:speed>3.112</gom:speed><gom:course>249.464</gom:course><gom:rel_alt>-1.011</gom:rel_alt></extensions></trkpt>
   <trkpt lat="59.3339468793" lon="34.7079864551"><ele>161.687</ele><time>2026-08-13T23:18:34.997Z</time><hdop>4.687</hdop><vdop>5.937</vdop><extensions><gom:speed>1.756</gom:speed><gom:course>252.793</gom:course><gom:rel_alt>-1.038</gom:rel_alt></extensions></trkpt>
   <trkpt lat="59.3339071491" lon="34.7077978622"><ele>162.228</ele><time>2026-08-13T23:18:38.997Z</time><hdop>4.687</hdop><vdop>5.937</vdop><extensions><gom:speed>1.931</gom:speed><gom:course>250.036</gom:course><gom:rel_alt>-1.019</gom:rel_alt></extensions></trkpt>
   <trkpt lat="59.3338671674" lon="34.7076118678"><ele>162.705</ele><time>2026-08-13T23:18:42.997Z</time><hdop>4.687</hdop><vdop>5.937</vdop><extensions><gom:speed>1.769</gom:speed><gom:course>248.097</gom:course><gom:rel_alt>-1.064</gom:rel_alt></extensions></trkpt>
   <trkpt lat="59.3338196839" lon="34.7074141387"><ele>163.676</ele><time>2026-08-13T23:18:46.997Z</time><hdop>4.687</hdop><vdop>5.937</vdop><extensions><gom:speed>1.952</gom:speed><gom:course>245.498</gom:course><gom:rel_alt>-0.882</gom:rel_alt></extensions></trkpt>
   <trkpt lat="59.3337879165" lon="34.7072125539"><ele>163.272</ele><time>2026-08-13T23:18:50.999Z</time><hdop>4.687</hdop><vdop>5.75</vdop><extensions><gom:speed>1.858</gom:speed><gom:course>252.727</gom:course><gom:rel_alt>-0.576</gom:rel_alt></extensions></trkpt>
   <trkpt lat="59.3337513714" lon="34.7070024196"><ele>163.027</ele><time>2026-08-13T23:18:54.999Z</time><hdop>4.687</hdop><vdop>5.812</vdop><extensions><gom:speed>1.815</gom:speed><gom:course>254.238</gom:course></extensions></trkpt>
   <trkpt lat="59.3337257647" lon="34.7068190236"><ele>162.68</ele><time>2026-08-13T23:18:58.999Z</time><hdop>4.687</hdop><vdop>6.187</vdop><extensions><gom:speed>1.636</gom:speed><gom:course>256.699</gom:course><gom:rel_alt>-0.496</gom:rel_alt></extensions></trkpt>
   <trkpt lat="59.3337999864" lon="34.7067133278"><ele>166.101</ele><time>2026-08-13T23:19:12.999Z</time><hdop>4.687</hdop><vdop>5.062</vdop><extensions><gom:speed>1.492</gom:speed><gom:course>11.206</gom:course><gom:rel_alt>-0.377</gom:rel_alt></extensions></trkpt>
   <trkpt lat="59.3339185904" lon="34.7067331929"><ele>164.816</ele><time>2026-08-13T23:19:17.999Z</time><hdop>4.687</hdop><vdop>5.437</vdop><extensions><gom:speed>2.709</gom:speed><gom:course>7.086</gom:course><gom:rel_alt>-0.221</gom:rel_alt></extensions></trkpt>
   <trkpt lat="59.3340156528" lon="34.7067772817"><ele>164.232</ele><time>2026-08-13T23:19:22.999Z</time><hdop>4.687</hdop><vdop>5.937</vdop><extensions><gom:speed>2.165</gom:speed><gom:course>10.821</gom:course><gom:rel_alt>-0.163</gom:rel_alt></extensions></trkpt>
   <trkpt lat="59.3341146012" lon="34.706802176"><ele>163.892</ele><time>2026-08-13T23:21:21.999Z</time><hdop>4.687</hdop><vdop>5.5</vdop><extensions><gom:speed>1.972</gom:speed><gom:course>10.371</gom:course><gom:rel_alt>-0.06</gom:rel_alt></extensions></trkpt>
   <trkpt lat="59.334216106" lon="34.7068579156"><ele>164.124</ele><time>2026-08-13T23:21:27.999Z</time><hdop>4.687</hdop><vdop>5.5</vdop><extensions><gom:speed>1.965</gom:speed><gom:course>13.249</gom:course><gom:rel_alt>-0.081</gom:rel_alt></extensions></trkpt>
   <trkpt lat="59.3343093128" lon="34.7068931196"><ele>163.438</ele><time>2026-08-13T23:21:33.999Z</time><hdop>4.687</hdop><vdop>5.625</vdop><extensions><gom:speed>1.61</gom:speed><gom:course>14.831</gom:course><gom:rel_alt>-0.261</gom:rel_alt></extensions></trkpt>
   <trkpt lat="59.3344124521" lon="34.7068578318"><ele>164.228</ele><time>2026-08-13T23:21:39.999Z</time><hdop>4.687</hdop><vdop>5.562</vdop><extensions><gom:speed>1.989</gom:speed><gom:course>353.045</gom:course><gom:rel_alt>-0.528</gom:rel_alt></extensions></trkpt>
   <trkpt lat="59.3345017194" lon="34.7068353683"><ele>163.62</ele><time>2026-08-13T23:21:44.999Z</time><hdop>4.687</hdop><vdop>5.625</vdop><extensions><gom:speed>1.914</gom:speed><gom:course>351.787</gom:course><gom:rel_alt>-0.631</gom:rel_alt></extensions></trkpt>
   <trkpt lat="59.3346032242" lon="34.706837799"><ele>163.392</ele><time>2026-08-13T23:21:50.999Z</time><hdop>4.687</hdop><vdop>5.875</vdop><extensions><gom:speed>1.565</gom:speed><gom:course>3.653</gom:course><gom:rel_alt>-0.795</gom:rel_alt></extensions></trkpt>
   <trkpt lat="59.3346954251" lon="34.7069156669"><ele>162.804</ele><time>2026-08-13T23:21:55.998Z</time><hdop>4.687</hdop><vdop>5.437</vdop><extensions><gom:speed>1.949</gom:speed><gom:course>28.004</gom:course><gom:rel_alt>-1.12</gom:rel_alt></extensions></trkpt>
   <trkpt lat="59.3347816749" lon="34.7070294932"><ele>163.065</ele><time>2026-08-13T23:22:00.998Z</time><hdop>4.687</hdop><vdop>5.437</vdop><extensions><gom:speed>2.316</gom:speed><gom:course>34.887</gom:course></extensions></trkpt>
   <trkpt lat="59.3348510352" lon="34.7071781043"><ele>162.58</ele><time>2026-08-13T23:22:05.998Z</time><hdop>4.687</hdop><vdop>5.125</vdop><extensions><gom:speed>2.181</gom:speed><gom:course>45.143</gom:course><gom:rel_alt>-1.371</gom:rel_alt></extensions></trkpt>
   <trkpt lat="59.3349150729" lon="34.7073357679"><ele>162.468</ele><time>2026-08-13T23:22:10.998Z</time><hdop>4.687</hdop><vdop>5.312</vdop><extensions><gom:speed>2.287</gom:speed><gom:course>48.609</gom:course><gom:rel_alt>-1.207</gom:rel_alt></extensions></trkpt>
   <trkpt lat="59.3349785239" lon="34.70747189"><ele>162.517</ele><time>2026-08-13T23:22:15.998Z</time><hdop>4.687</hdop><vdop>4.75</vdop><extensions><gom:speed>1.961</gom:speed><gom:course>40.567</gom:course><gom:rel_alt>-1.202</gom:rel_alt></extensions></trkpt>
   <trkpt lat="59.3350627621" lon="34.7076025639"><ele>162.435</ele><time>2026-08-13T23:22:20.998Z</time><hdop>4.687</hdop><vdop>4.687</vdop><extensions><gom:speed>2.14</gom:speed><gom:course>31.278</gom:course><gom:rel_alt>-1.062</gom:rel_alt></extensions></trkpt>
   <trkpt lat="59.335148928" lon="34.7077138756"><ele>162.378</ele><time>2026-08-13T23:22:25.998Z</time><hdop>4.687</hdop><vdop>4.812</vdop><extensions><gom:speed>2.252</gom:speed><gom:course>32.168</gom:course><gom:rel_alt>-1.109</gom:rel_alt></extensions></trkpt>
   <trkpt lat="59.3352342139" lon="34.7078158833"><ele>162.489</ele><time>2026-08-13T23:22:30.998Z</time><hdop>4.687</hdop><vdop>5.125</vdop><extensions><gom:speed>2.315</gom:speed><gom:course>34.019</gom:course><gom:rel_alt>-1.099</gom:rel_alt></extensions></trkpt>
   <trkpt lat="59.3353130457" lon="34.7079186455"><ele>163.536</ele><time>2026-08-13T23:22:35.998Z</time><hdop>4.687</hdop><vdop>5.062</vdop><extensions><gom:speed>2.225</gom:speed><gom:course>37.101</gom:course><gom:rel_alt>-0.99</gom:rel_alt></extensions></trkpt>
   <trkpt lat="59.3353890695" lon="34.7080394287"><ele>164.526</ele><time>2026-08-13T23:22:40.997Z</time><hdop>4.687</hdop><vdop>4.937</vdop><extensions><gom:speed>2.22</gom:speed><gom:course>40.435</gom:course><gom:rel_alt>-0.737</gom:rel_alt></extensions></trkpt>
   <trkpt lat="59.3354751936" lon="34.7081533388"><ele>165.095</ele><time>2026-08-13T23:22:45.997Z</time><hdop>4.687</hdop><vdop>5.0</vdop><extensions><gom:speed>2.239</gom:speed><gom:course>32.811</gom:course><gom:rel_alt>-0.105</gom:rel_alt></extensions></trkpt>
   <trkpt lat="59.3355508822" lon="34.7082683385"><ele>164.755</ele><time>2026-08-13T23:22:50.997Z</time><hdop>4.687</hdop><vdop>5.312</vdop><extensions><gom:speed>2.137</gom:speed><gom:course>43.336</gom:course></extensions></trkpt>
   <trkpt lat="59.3356187337" lon="34.7084275108"><ele>164.867</ele><time>2026-08-13T23:22:55.997Z</time><hdop>4.687</hdop><vdop>5.437</vdop><extensions><gom:speed>2.273</gom:speed><gom:course>49.461</gom:course><gom:rel_alt>-0.351</gom:rel_alt></extensions></trkpt>
   <trkpt lat="59.3356748505" lon="34.7085687459"><ele>163.819</ele><time>2026-08-13T23:23:00.997Z</time><hdop>4.687</hdop><vdop>5.5</vdop><extensions><gom:speed>1.527</gom:speed><gom:course>48.049</gom:course><gom:rel_alt>-0.583</gom:rel_alt></extensions></trkpt>
   <trkpt lat="59.3357400198" lon="34.7087186981"><ele>162.645</ele><time>2026-08-13T23:24:19.998Z</time><hdop>4.687</hdop><vdop>5.5</vdop><extensions><gom:speed>2.163</gom:speed><gom:course>44.682</gom:course><gom:rel_alt>-0.901</gom:rel_alt></extensions></trkpt>
   <trkpt lat="59.3358167562" lon="34.7088564966"><ele>162.668</ele><time>2026-08-13T23:24:23.998Z</time><hdop>4.687</hdop><vdop>5.437</vdop><extensions><gom:speed>2.81</gom:speed><gom:course>42.572</gom:course><gom:rel_alt>-1.07</gom:rel_alt></extensions></trkpt>
   <trkpt lat="59.3358931572" lon="34.7089976479"><ele>162.154</ele><time>2026-08-13T23:24:27.998Z</time><hdop>4.687</hdop><vdop>5.187</vdop><extensions><gom:speed>2.883</gom:speed><gom:course>41.501</gom:course><gom:rel_alt>-1.144</gom:rel_alt></extensions></trkpt>
   <trkpt lat="59.3359714861" lon="34.7091446664"><ele>162.533</ele><time>2026-08-13T23:24:31.998Z</time><hdop>4.687</hdop><vdop>5.375</vdop><extensions><gom:speed>3.039</gom:speed><gom:course>42.012</gom:course><gom:rel_alt>-1.302</gom:rel_alt></extensions></trkpt>
   <trkpt lat="59.3360536287" lon="34.7092854824"><ele>162.349</ele><time>2026-08-13T23:24:35.998Z</time><hdop>4.687</hdop><vdop>5.312</vdop><extensions><gom:speed>3.082</gom:speed><gom:course>37.788</gom:course><gom:rel_alt>-1.569</gom:rel_alt></extensions></trkpt>
   <trkpt lat="59.3361351847" lon="34.7094180841"><ele>162.116</ele><time>2026-08-13T23:24:39.998Z</time><hdop>4.687</hdop><vdop>5.062</vdop><extensions><gom:speed>2.954</gom:speed><gom:course>39.661</gom:course><gom:rel_alt>-1.749</gom:rel_alt></extensions></trkpt>
   <trkpt lat="59.3362315346" lon="34.709503831"><ele>161.439</ele><time>2026-08-13T23:24:43.997Z</time><hdop>4.687</hdop><vdop>5.0</vdop><extensions><gom:speed>2.999</gom:speed><gom:course>22.632</gom:course><gom:rel_alt>-1.701</gom:rel_alt></extensions></trkpt>
   <trkpt lat="59.3363354702" lon="34.7095766697"><ele>161.258</ele><time>2026-08-13T23:24:47.997Z</time><hdop>4.687</hdop><vdop>5.187</vdop><extensions><gom:speed>2.993</gom:speed><gom:course>14.474</gom:course><gom:rel_alt>-1.511</gom:rel_alt></extensions></trkpt>
   <trkpt lat="59.3364231449" lon="34.7096202556"><ele>162.003</ele><time>2026-08-13T23:24:50.997Z</time><hdop>4.687</hdop><vdop>5.25</vdop><extensions><gom:speed>3.287</gom:speed><gom:course>12.678</gom:course><gom:rel_alt>-1.387</gom:rel_alt></extensions></trkpt>
   <trkpt lat="59.3365356301" lon="34.7096642606"><ele>162.414</ele><time>2026-08-13T23:24:54.997Z</time><hdop>4.687</hdop><vdop>5.187</vdop><extensions><gom:speed>3.173</gom:speed><gom:course>11.59</gom:course><gom:rel_alt>-0.887</gom:rel_alt></extensions></trkpt>
   <trkpt lat="59.3366236401" lon="34.7097022306"><ele>162.25</ele><time>2026-08-13T23:24:57.997Z</time><hdop>4.687</hdop><vdop>5.312</vdop><extensions><gom:speed>3.364</gom:speed><gom:course>10.404</gom:course><gom:rel_alt>-0.491</gom:rel_alt></extensions></trkpt>
   <trkpt lat="59.3367099318" lon="34.7097572997"><ele>162.202</ele><time>2026-08-13T23:25:00.997Z</time><hdop>4.687</hdop><vdop>5.312</vdop><extensions><gom:speed>3.354</gom:speed><gom:course>17.682</gom:course><gom:rel_alt>-0.327</gom:rel_alt></extensions></trkpt>
   <trkpt lat="59.3367994924" lon="34.7098158054"><ele>161.747</ele><time>2026-08-13T23:25:03.997Z</time><hdop>4.687</hdop><vdop>5.437</vdop><extensions><gom:speed>3.473</gom:speed><gom:course>19.078</gom:course><gom:rel_alt>-0.517</gom:rel_alt></extensions></trkpt>
   <trkpt lat="59.3368943336" lon="34.7099085931"><ele>159.948</ele><time>2026-08-13T23:25:09.000Z</time><hdop>4.687</hdop><vdop>6.312</vdop><extensions><gom:speed>1.741</gom:speed><gom:course>30.471</gom:course><gom:rel_alt>-0.871</gom:rel_alt></extensions></trkpt>
   <trkpt lat="59.3369912284" lon="34.7099882212"><ele>159.473</ele><time>2026-08-13T23:25:12.999Z</time><hdop>4.687</hdop><vdop>6.375</vdop><extensions><gom:speed>1.829</gom:speed><gom:course>23.384</gom:course><gom:rel_alt>-0.893</gom:rel_alt></extensions></trkpt>
   <trkpt lat="59.3370966309" lon="34.7100848645"><ele>158.948</ele><time>2026-08-13T23:25:15.999Z</time><hdop>4.687</hdop><vdop>5.5</vdop><extensions><gom:speed>4.494</gom:speed><gom:course>25.571</gom:course><gom:rel_alt>-0.819</gom:rel_alt></extensions></trkpt>
   <trkpt lat="59.3371806175" lon="34.7101631515"><ele>158.917</ele><time>2026-08-13T23:25:19.999Z</time><hdop>4.687</hdop><vdop>6.5</vdop><extensions><gom:speed>1.756</gom:speed><gom:course>28.779</gom:course><gom:rel_alt>-0.676</gom:rel_alt></extensions></trkpt>
   <trkpt lat="59.3372742434" lon="34.710248144"><ele>158.203</ele><time>2026-08-13T23:25:23.999Z</time><hdop>4.687</hdop><vdop>6.437</vdop><extensions><gom:speed>1.818</gom:speed><gom:course>26.175</gom:course></extensions></trkpt>
   <trkpt lat="59.3373707191" lon="34.7103392553"><ele>158.356</ele><time>2026-08-13T23:25:27.999Z</time><hdop>4.687</hdop><vdop>6.375</vdop><extensions><gom:speed>1.948</gom:speed><gom:course>26.29</gom:course><gom:rel_alt>-0.539</gom:rel_alt></extensions></trkpt>
   <trkpt lat="59.3374674463" lon="34.7104223199"><ele>158.676</ele><time>2026-08-13T23:25:30.999Z</time><hdop>4.687</hdop><vdop>5.812</vdop><extensions><gom:speed>3.778</gom:speed><gom:course>24.499</gom:course><gom:rel_alt>-0.356</gom:rel_alt></extensions></trkpt>
   <trkpt lat="59.3375704598" lon="34.7105044626"><ele>158.951</ele><time>2026-08-13T23:25:34.999Z</time><hdop>4.687</hdop><vdop>6.312</vdop><extensions><gom:speed>1.805</gom:speed><gom:course>24.659</gom:course><gom:rel_alt>-0.1</gom:rel_alt></extensions></trkpt>
   <trkpt lat="59.3376798437" lon="34.7105923049"><ele>159.456</ele><time>2026-08-13T23:25:37.999Z</time><hdop>4.687</hdop><vdop>5.312</vdop><extensions><gom:speed>3.599</gom:speed><gom:course>22.769</gom:course><gom:rel_alt>0.081</gom:rel_alt></extensions></trkpt>
   <trkpt lat="59.3377643333" lon="34.7106611204"><ele>160.035</ele><time>2026-08-13T23:25:40.999Z</time><hdop>4.687</hdop><vdop>5.375</vdop><extensions><gom:speed>3.293</gom:speed><gom:course>24.659</gom:course></extensions></trkpt>
   <trkpt lat="59.3378475656" lon="34.7107399941"><ele>160.842</ele><time>2026-08-13T23:25:43.999Z</time><hdop>4.687</hdop><vdop>5.312</vdop><extensions><gom:speed>3.155</gom:speed><gom:course>28.092</gom:course><gom:rel_alt>0.303</gom:rel_alt></extensions></trkpt>
   <trkpt lat="59.3379352403" lon="34.7108028583"><ele>161.052</ele><time>2026-08-13T23:25:46.999Z</time><hdop>4.687</hdop><vdop>5.437</vdop><extensions><gom:speed>3.19</gom:speed><gom:course>24.708</gom:course><gom:rel_alt>0.206</gom:rel_alt></extensions></trkpt>
   <trkpt lat="59.3380184307" lon="34.7108821511"><ele>161.274</ele><time>2026-08-13T23:25:49.999Z</time><hdop>4.687</hdop><vdop>5.375</vdop><extensions><gom:speed>3.164</gom:speed><gom:course>25.29</gom:course><gom:rel_alt>0.221</gom:rel_alt></extensions></trkpt>
   <trkpt lat="59.3381049738" lon="34.7109298442"><ele>161.722</ele><time>2026-08-13T23:25:52.999Z</time><hdop>4.687</hdop><vdop>5.375</vdop><extensions><gom:speed>3.17</gom:speed><gom:course>18.396</gom:course><gom:rel_alt>0.369</gom:rel_alt></extensions></trkpt>
   <trkpt lat="59.3382092866" lon="34.7110569138"><ele>162.089</ele><time>2026-08-13T23:25:56.999Z</time><hdop>4.687</hdop><vdop>5.437</vdop><extensions><gom:speed>3.622</gom:speed><gom:course>33.492</gom:course><gom:rel_alt>0.409</gom:rel_alt></extensions></trkpt>
   <trkpt lat="59.338305427" lon="34.7111699857"><ele>160.612</ele><time>2026-08-13T23:26:01.999Z</time><hdop>4.687</hdop><vdop>6.375</vdop><extensions><gom:speed>1.656</gom:speed><gom:course>35.035</gom:course><gom:rel_alt>0.43</gom:rel_alt></extensions></trkpt>
   <trkpt lat="59.3383819119" lon="34.71127082"><ele>159.691</ele><time>2026-08-13T23:26:05.998Z</time><hdop>4.687</hdop><vdop>6.5</vdop><extensions><gom:speed>1.708</gom:speed><gom:course>39.111</gom:course><gom:rel_alt>0.161</gom:rel_alt></extensions></trkpt>
   <trkpt lat="59.3384643898" lon="34.7113567345"><ele>159.413</ele><time>2026-08-13T23:26:09.998Z</time><hdop>4.687</hdop><vdop>6.437</vdop><extensions><gom:speed>1.658</gom:speed><gom:course>30.443</gom:course><gom:rel_alt>0.126</gom:rel_alt></extensions></trkpt>
   <trkpt lat="59.3385526513" lon="34.7114496898"><ele>160.008</ele><time>2026-08-13T23:26:12.998Z</time><hdop>4.687</hdop><vdop>5.687</vdop><extensions><gom:speed>3.519</gom:speed><gom:course>27.806</gom:course><gom:rel_alt>0.071</gom:rel_alt></extensions></trkpt>
   <trkpt lat="59.3386470734" lon="34.7115406335"><ele>160.178</ele><time>2026-08-13T23:26:16.998Z</time><hdop>4.687</hdop><vdop>5.562</vdop><extensions><gom:speed>2.888</gom:speed><gom:course>27.762</gom:course><gom:rel_alt>0.029</gom:rel_alt></extensions></trkpt>
   <trkpt lat="59.3387598938" lon="34.7116530348"><ele>161.481</ele><time>2026-08-13T23:26:20.998Z</time><hdop>4.687</hdop><vdop>5.0</vdop><extensions><gom:speed>3.47</gom:speed><gom:course>29.152</gom:course><gom:rel_alt>-0.245</gom:rel_alt></extensions></trkpt>
   <trkpt lat="59.3388562438" lon="34.7117774222"><ele>161.628</ele><time>2026-08-13T23:26:24.998Z</time><hdop>4.687</hdop><vdop>5.062</vdop><extensions><gom:speed>2.986</gom:speed><gom:course>37.315</gom:course><gom:rel_alt>-0.118</gom:rel_alt></extensions></trkpt>
   <trkpt lat="59.3389515879" lon="34.7119059168"><ele>161.6</ele><time>2026-08-13T23:26:28.998Z</time><hdop>4.687</hdop><vdop>5.437</vdop><extensions><gom:speed>3.233</gom:speed><gom:course>33.344</gom:course><gom:rel_alt>-0.33</gom:rel_alt></extensions></trkpt>
   <trkpt lat="59.3390492371" lon="34.7120255266"><ele>161.068</ele><time>2026-08-13T23:26:32.998Z</time><hdop>4.687</hdop><vdop>5.812</vdop><extensions><gom:speed>3.105</gom:speed><gom:course>32.19</gom:course><gom:rel_alt>-0.599</gom:rel_alt></extensions></trkpt>
   <trkpt lat="59.3391304158" lon="34.7121409454"><ele>160.254</ele><time>2026-08-13T23:26:36.998Z</time><hdop>4.687</hdop><vdop>5.75</vdop><extensions><gom:speed>2.749</gom:speed><gom:course>35.859</gom:course><gom:rel_alt>-1.117</gom:rel_alt></extensions></trkpt>
   <trkpt lat="59.3392207308" lon="34.7122675959"><ele>160.667</ele><time>2026-08-13T23:26:40.998Z</time><hdop>4.687</hdop><vdop>5.625</vdop><extensions><gom:speed>3.124</gom:speed><gom:course>34.882</gom:course><gom:rel_alt>-1.027</gom:rel_alt></extensions></trkpt>
   <trkpt lat="59.3393070225" lon="34.7123887144"><ele>161.723</ele><time>2026-08-13T23:26:44.998Z</time><hdop>4.687</hdop><vdop>5.687</vdop><extensions><gom:speed>2.975</gom:speed><gom:course>35.272</gom:course><gom:rel_alt>-0.488</gom:rel_alt></extensions></trkpt>
   <trkpt lat="59.3394012351" lon="34.7125123475"><ele>162.655</ele><time>2026-08-13T23:26:48.997Z</time><hdop>4.687</hdop><vdop>5.562</vdop><extensions><gom:speed>3.131</gom:speed><gom:course>31.08</gom:course><gom:rel_alt>-0.224</gom:rel_alt></extensions></trkpt>
   <trkpt lat="59.3395012731" lon="34.7126293589"><ele>163.073</ele><time>2026-08-13T23:26:52.997Z</time><hdop>4.687</hdop><vdop>5.5</vdop><extensions><gom:speed>3.175</gom:speed><gom:course>29.96</gom:course><gom:rel_alt>0.438</gom:rel_alt></extensions></trkpt>
   <trkpt lat="59.3396070109" lon="34.7127285168"><ele>163.038</ele><time>2026-08-13T23:26:56.997Z</time><hdop>4.687</hdop><vdop>4.5</vdop><extensions><gom:speed>3.257</gom:speed><gom:course>23.132</gom:course><gom:rel_alt>1.315</gom:rel_alt></extensions></trkpt>
   <trkpt lat="59.3397160175" lon="34.7128271718"><ele>162.919</ele><time>2026-08-13T23:27:00.997Z</time><hdop>4.687</hdop><vdop>5.312</vdop><extensions><gom:speed>3.444</gom:speed><gom:course>24.488</gom:course><gom:rel_alt>1.548</gom:rel_alt></extensions></trkpt>
   <trkpt lat="59.3398111521" lon="34.7129353822"><ele>162.975</ele><time>2026-08-13T23:27:04.997Z</time><hdop>4.687</hdop><vdop>5.312</vdop><extensions><gom:speed>3.184</gom:speed><gom:course>30.751</gom:course></extensions></trkpt>
   <trkpt lat="59.3399121121" lon="34.7130506333"><ele>162.495</ele><time>2026-08-13T23:27:08.997Z</time><hdop>4.687</hdop><vdop>5.375</vdop><extensions><gom:speed>3.345</gom:speed><gom:course>31.415</gom:course><gom:rel_alt>1.384</gom:rel_alt></extensions></trkpt>
   <trkpt lat="59.3400102223" lon="34.7131699078"><ele>161.589</ele><time>2026-08-13T23:27:12.997Z</time><hdop>4.687</hdop><vdop>5.125</vdop><extensions><gom:speed>3.24</gom:speed><gom:course>28.416</gom:course><gom:rel_alt>1.146</gom:rel_alt></extensions></trkpt>
   <trkpt lat="59.3401005373" lon="34.713301336"><ele>162.009</ele><time>2026-08-13T23:27:16.999Z</time><hdop>4.687</hdop><vdop>4.375</vdop><extensions><gom:speed>3.308</gom:speed><gom:course>37.496</gom:course><gom:rel_alt>0.7</gom:rel_alt></extensions></trkpt>
   <trkpt lat="59.3401945823" lon="34.7134140726"><ele>161.876</ele><time>2026-08-13T23:27:21.999Z</time><hdop>4.687</hdop><vdop>6.125</vdop><extensions><gom:speed>1.549</gom:speed><gom:course>39.397</gom:course></extensions></trkpt>
   <trkpt lat="59.3402729531" lon="34.7135335148"><ele>161.734</ele><time>2026-08-13T23:27:25.999Z</time><hdop>4.687</hdop><vdop>6.375</vdop><extensions><gom:speed>1.582</gom:speed><gom:course>34.316</gom:course><gom:rel_alt>1.508</gom:rel_alt></extensions></trkpt>
   <trkpt lat="59.3403553053" lon="34.7136634343"><ele>161.976</ele><time>2026-08-13T23:27:28.999Z</time><hdop>4.687</hdop><vdop>5.687</vdop><extensions><gom:speed>4.247</gom:speed><gom:course>40.034</gom:course><gom:rel_alt>1.45</gom:rel_alt></extensions></trkpt>
   <trkpt lat="59.340432754" lon="34.7137763385"><ele>163.461</ele><time>2026-08-13T23:27:31.999Z</time><hdop>4.687</hdop><vdop>5.375</vdop><extensions><gom:speed>3.19</gom:speed><gom:course>38.491</gom:course><gom:rel_alt>1.508</gom:rel_alt></extensions></trkpt>
   <trkpt lat="59.3405056766" lon="34.7138939366"><ele>164.271</ele><time>2026-08-13T23:27:34.999Z</time><hdop>4.687</hdop><vdop>5.375</vdop><extensions><gom:speed>3.385</gom:speed><gom:course>41.578</gom:course><gom:rel_alt>2.127</gom:rel_alt></extensions></trkpt>
   <trkpt lat="59.3405855981" lon="34.7140360099"><ele>163.985</ele><time>2026-08-13T23:27:37.999Z</time><hdop>4.687</hdop><vdop>5.437</vdop><extensions><gom:speed>4.347</gom:speed><gom:course>44.715</gom:course><gom:rel_alt>2.549</gom:rel_alt></extensions></trkpt>
   <trkpt lat="59.3406621248" lon="34.7141646721"><ele>163.831</ele><time>2026-08-13T23:27:42.999Z</time><hdop>4.687</hdop><vdop>6.187</vdop><extensions><gom:speed>1.584</gom:speed><gom:course>43.171</gom:course><gom:rel_alt>2.903</gom:rel_alt></extensions></trkpt>
   <trkpt lat="59.3407293058" lon="34.7142914064"><ele>163.655</ele><time>2026-08-13T23:27:46.999Z</time><hdop>4.687</hdop><vdop>5.937</vdop><extensions><gom:speed>1.593</gom:speed><gom:course>52.048</gom:course><gom:rel_alt>2.959</gom:rel_alt></extensions></trkpt>
   <trkpt lat="59.3408133344" lon="34.7144312166"><ele>162.464</ele><time>2026-08-13T23:27:50.999Z</time><hdop>4.687</hdop><vdop>4.187</vdop><extensions><gom:speed>2.878</gom:speed><gom:course>40.941</gom:course><gom:rel_alt>2.932</gom:rel_alt></extensions></trkpt>
   <trkpt lat="59.3408942197" lon="34.714538924"><ele>160.505</ele><time>2026-08-13T23:27:54.999Z</time><hdop>4.687</hdop><vdop>5.687</vdop><extensions><gom:speed>1.388</gom:speed><gom:course>41.979</gom:course><gom:rel_alt>2.88</gom:rel_alt></extensions></trkpt>
   <trkpt lat="59.3409913241" lon="34.7146799077"><ele>161.575</ele><time>2026-08-13T23:27:57.999Z</time><hdop>4.687</hdop><vdop>5.062</vdop><extensions><gom:speed>3.864</gom:speed><gom:course>42.144</gom:course><gom:rel_alt>2.88</gom:rel_alt></extensions></trkpt>
   <trkpt lat="59.3410796693" lon="34.7148005232"><ele>162.444</ele><time>2026-08-13T23:28:00.999Z</time><hdop>4.687</hdop><vdop>4.875</vdop><extensions><gom:speed>3.732</gom:speed><gom:course>36.711</gom:course><gom:rel_alt>2.998</gom:rel_alt></extensions></trkpt>
   <trkpt lat="59.3411568248" lon="34.7149327059"><ele>163.287</ele><time>2026-08-13T23:28:04.999Z</time><hdop>4.687</hdop><vdop>5.75</vdop><extensions><gom:speed>1.52</gom:speed><gom:course>46.412</gom:course><gom:rel_alt>3.331</gom:rel_alt></extensions></trkpt>
   <trkpt lat="59.3412301245" lon="34.7150364738"><ele>163.826</ele><time>2026-08-13T23:28:07.999Z</time><hdop>4.687</hdop><vdop>6.125</vdop><extensions><gom:speed>1.644</gom:speed><gom:course>38.436</gom:course><gom:rel_alt>3.564</gom:rel_alt></extensions></trkpt>
   <trkpt lat="59.3413320903" lon="34.7151900303"><ele>163.735</ele><time>2026-08-13T23:28:10.998Z</time><hdop>4.687</hdop><vdop>5.562</vdop><extensions><gom:speed>4.293</gom:speed><gom:course>38.238</gom:course><gom:rel_alt>3.794</gom:rel_alt></extensions></trkpt>
   <trkpt lat="59.3414226568" lon="34.7153232187"><ele>164.804</ele><time>2026-08-13T23:28:14.998Z</time><hdop>4.687</hdop><vdop>5.562</vdop><extensions><gom:speed>3.073</gom:speed><gom:course>40.512</gom:course><gom:rel_alt>3.765</gom:rel_alt></extensions></trkpt>
   <trkpt lat="59.3415219824" lon="34.7154559043"><ele>165.885</ele><time>2026-08-13T23:28:18.998Z</time><hdop>4.687</hdop><vdop>5.5</vdop><extensions><gom:speed>3.359</gom:speed><gom:course>38.205</gom:course><gom:rel_alt>3.744</gom:rel_alt></extensions></trkpt>
   <trkpt lat="59.341594402" lon="34.7155662939"><ele>166.446</ele><time>2026-08-13T23:28:21.998Z</time><hdop>4.687</hdop><vdop>5.375</vdop><extensions><gom:speed>3.29</gom:speed><gom:course>39.804</gom:course><gom:rel_alt>3.976</gom:rel_alt></extensions></trkpt>
   <trkpt lat="59.3416691686" lon="34.7156799525"><ele>166.488</ele><time>2026-08-13T23:28:24.998Z</time><hdop>4.687</hdop><vdop>5.437</vdop><extensions><gom:speed>3.503</gom:speed><gom:course>38.222</gom:course><gom:rel_alt>4.153</gom:rel_alt></extensions></trkpt>
   <trkpt lat="59.3417364753" lon="34.7158004843"><ele>166.136</ele><time>2026-08-13T23:28:27.998Z</time><hdop>4.687</hdop><vdop>5.312</vdop><extensions><gom:speed>3.48</gom:speed><gom:course>43.605</gom:course><gom:rel_alt>4.299</gom:rel_alt></extensions></trkpt>
   <trkpt lat="59.3418023989" lon="34.7159204293"><ele>166.248</ele><time>2026-08-13T23:28:30.998Z</time><hdop>4.687</hdop><vdop>5.312</vdop><extensions><gom:speed>3.257</gom:speed><gom:course>43.473</gom:course><gom:rel_alt>4.299</gom:rel_alt></extensions></trkpt>
   <trkpt lat="59.3418842482" lon="34.7160524443"><ele>166.345</ele><time>2026-08-13T23:28:34.998Z</time><hdop>4.687</hdop><vdop>5.312</vdop><extensions><gom:speed>3.413</gom:speed><gom:course>44.374</gom:course><gom:rel_alt>4.174</gom:rel_alt></extensions></trkpt>
   <trkpt lat="59.3419536504" lon="34.7161711321"><ele>166.799</ele><time>2026-08-13T23:28:37.998Z</time><hdop>4.687</hdop><vdop>5.375</vdop><extensions><gom:speed>3.421</gom:speed><gom:course>41.918</gom:course><gom:rel_alt>4.132</gom:rel_alt></extensions></trkpt>
   <trkpt lat="59.3420272016" lon="34.7162862156"><ele>166.107</ele><time>2026-08-13T23:28:40.998Z</time><hdop>4.687</hdop><vdop>5.437</vdop><extensions><gom:speed>3.348</gom:speed><gom:course>37.87</gom:course><gom:rel_alt>3.997</gom:rel_alt></extensions></trkpt>
   <trkpt lat="59.3421145829" lon="34.7164266125"><ele>166.011</ele><time>2026-08-13T23:28:44.998Z</time><hdop>4.687</hdop><vdop>5.5</vdop><extensions><gom:speed>3.27</gom:speed><gom:course>38.156</gom:course><gom:rel_alt>3.643</gom:rel_alt></extensions></trkpt>
   <trkpt lat="59.3421828116" lon="34.7165417798"><ele>165.605</ele><time>2026-08-13T23:28:47.998Z</time><hdop>4.687</hdop><vdop>5.375</vdop><extensions><gom:speed>3.333</gom:speed><gom:course>39.815</gom:course><gom:rel_alt>3.442</gom:rel_alt></extensions></trkpt>
   <trkpt lat="59.3422531358" lon="34.7166675084"><ele>165.495</ele><time>2026-08-13T23:28:50.998Z</time><hdop>4.687</hdop><vdop>5.312</vdop><extensions><gom:speed>3.448</gom:speed><gom:course>41.336</gom:course><gom:rel_alt>3.321</gom:rel_alt></extensions></trkpt>
   <trkpt lat="59.3423411877" lon="34.7168162871"><ele>165.354</ele><time>2026-08-13T23:28:54.997Z</time><hdop>4.687</hdop><vdop>5.25</vdop><extensions><gom:speed>3.203</gom:speed><gom:course>40.814</gom:course><gom:rel_alt>3.596</gom:rel_alt></extensions></trkpt>
   <trkpt lat="59.3424240428" lon="34.7169789799"><ele>165.167</ele><time>2026-08-13T23:28:58.997Z</time><hdop>4.687</hdop><vdop>5.25</vdop><extensions><gom:speed>3.318</gom:speed><gom:course>43.132</gom:course><gom:rel_alt>3.786</gom:rel_alt></extensions></trkpt>
   <trkpt lat="59.3425107955" lon="34.7171489649"><ele>164.684</ele><time>2026-08-13T23:29:02.997Z</time><hdop>4.687</hdop><vdop>5.375</vdop><extensions><gom:speed>3.342</gom:speed><gom:course>47.796</gom:course><gom:rel_alt>3.704</gom:rel_alt></extensions></trkpt>
   <trkpt lat="59.3425681277" lon="34.7172949776"><ele>165.047</ele><time>2026-08-13T23:29:05.997Z</time><hdop>4.687</hdop><vdop>5.375</vdop><extensions><gom:speed>3.405</gom:speed><gom:course>50.911</gom:course><gom:rel_alt>3.633</gom:rel_alt></extensions></trkpt>
   <trkpt lat="59.3426405054" lon="34.7174660523"><ele>164.34</ele><time>2026-08-13T23:29:09.997Z</time><hdop>4.687</hdop><vdop>5.312</vdop><extensions><gom:speed>3.487</gom:speed><gom:course>50.576</gom:course><gom:rel_alt>3.545</gom:rel_alt></extensions></trkpt>
   <trkpt lat="59.3426975862" lon="34.7176098857"><ele>164.264</ele><time>2026-08-13T23:29:12.997Z</time><hdop>4.687</hdop><vdop>5.375</vdop><extensions><gom:speed>3.508</gom:speed><gom:course>52.103</gom:course><gom:rel_alt>3.384</gom:rel_alt></extensions></trkpt>
   <trkpt lat="59.3427586065" lon="34.7177460078"><ele>163.602</ele><time>2026-08-13T23:29:15.997Z</time><hdop>4.687</hdop><vdop>5.125</vdop><extensions><gom:speed>3.419</gom:speed><gom:course>48.472</gom:course><gom:rel_alt>3.054</gom:rel_alt></extensions></trkpt>
   <trkpt lat="59.3428307327" lon="34.7179014921"><ele>162.89</ele><time>2026-08-13T23:29:19.999Z</time><hdop>4.687</hdop><vdop>5.437</vdop><extensions><gom:speed>3.203</gom:speed><gom:course>48.483</gom:course><gom:rel_alt>2.399</gom:rel_alt></extensions></trkpt>
   <trkpt lat="59.3429101932" lon="34.7181022387"><ele>162.44</ele><time>2026-08-13T23:29:24.999Z</time><hdop>4.687</hdop><vdop>5.625</vdop><extensions><gom:speed>3.547</gom:speed><gom:course>55.855</gom:course><gom:rel_alt>1.947</gom:rel_alt></extensions></trkpt>
   <trkpt lat="59.3429716325" lon="34.7182396181"><ele>162.891</ele><time>2026-08-13T23:29:28.999Z</time><hdop>4.687</hdop><vdop>6.125</vdop><extensions><gom:speed>1.214</gom:speed><gom:course>46.725</gom:course><gom:rel_alt>1.841</gom:rel_alt></extensions></trkpt>
   <trkpt lat="59.3430694074" lon="34.7184108604"><ele>163.785</ele><time>2026-08-13T23:29:32.999Z</time><hdop>4.687</hdop><vdop>5.687</vdop><extensions><gom:speed>3.418</gom:speed><gom:course>41.748</gom:course><gom:rel_alt>1.373</gom:rel_alt></extensions></trkpt>
   <trkpt lat="59.3431528493" lon="34.7185375948"><ele>163.122</ele><time>2026-08-13T23:29:35.999Z</time><hdop>4.687</hdop><vdop>5.5</vdop><extensions><gom:speed>3.847</gom:speed><gom:course>36.7</gom:course><gom:rel_alt>1.36</gom:rel_alt></extensions></trkpt>
   <trkpt lat="59.3432218742" lon="34.7186559472"><ele>162.618</ele><time>2026-08-13T23:29:38.999Z</time><hdop>4.687</hdop><vdop>5.5</vdop><extensions><gom:speed>3.331</gom:speed><gom:course>43.204</gom:course><gom:rel_alt>1.418</gom:rel_alt></extensions></trkpt>
   <trkpt lat="59.343297479" lon="34.718759799"><ele>162.81</ele><time>2026-08-13T23:29:41.999Z</time><hdop>4.687</hdop><vdop>5.5</vdop><extensions><gom:speed>3.264</gom:speed><gom:course>34.75</gom:course><gom:rel_alt>1.286</gom:rel_alt></extensions></trkpt>
   <trkpt lat="59.3433765204" lon="34.7188810852"><ele>162.795</ele><time>2026-08-13T23:29:45.999Z</time><hdop>4.687</hdop><vdop>5.5</vdop><extensions><gom:speed>2.697</gom:speed><gom:course>38.265</gom:course><gom:rel_alt>0.856</gom:rel_alt></extensions></trkpt>
   <trkpt lat="59.3434755944" lon="34.7189786505"><ele>163.712</ele><time>2026-08-13T23:29:50.999Z</time><hdop>4.687</hdop><vdop>5.625</vdop><extensions><gom:speed>2.778</gom:speed><gom:course>19.539</gom:course><gom:rel_alt>0.626</gom:rel_alt></extensions></trkpt>
   <trkpt lat="59.3435786919" lon="34.7190287743"><ele>164.336</ele><time>2026-08-13T23:29:54.999Z</time><hdop>4.687</hdop><vdop>5.437</vdop><extensions><gom:speed>3.039</gom:speed><gom:course>15.436</gom:course></extensions></trkpt>
   <trkpt lat="59.3436913865" lon="34.7191007748"><ele>164.547</ele><time>2026-08-13T23:29:58.999Z</time><hdop>4.687</hdop><vdop>5.187</vdop><extensions><gom:speed>3.285</gom:speed><gom:course>11.09</gom:course><gom:rel_alt>1.469</gom:rel_alt></extensions></trkpt>
   <trkpt lat="59.3437811567" lon="34.7191343863"><ele>164.502</ele><time>2026-08-13T23:30:01.999Z</time><hdop>4.687</hdop><vdop>5.437</vdop><extensions><gom:speed>3.219</gom:speed><gom:course>9.75</gom:course><gom:rel_alt>1.865</gom:rel_alt></extensions></trkpt>
   <trkpt lat="59.3438756627" lon="34.7191524074"><ele>165.099</ele><time>2026-08-13T23:30:04.999Z</time><hdop>4.687</hdop><vdop>5.375</vdop><extensions><gom:speed>3.508</gom:speed><gom:course>2.114</gom:course><gom:rel_alt>2.296</gom:rel_alt></extensions></trkpt>
   <trkpt lat="59.3439814004" lon="34.7191511501"><ele>165.384</ele><time>2026-08-13T23:30:09.999Z</time><hdop>4.687</hdop><vdop>5.75</vdop><extensions><gom:speed>2.612</gom:speed><gom:course>1.235</gom:course><gom:rel_alt>2.869</gom:rel_alt></extensions></trkpt>
   <trkpt lat="59.3440969449" lon="34.7191665728"><ele>165.655</ele><time>2026-08-13T23:30:13.998Z</time><hdop>4.687</hdop><vdop>5.625</vdop><extensions><gom:speed>3.398</gom:speed><gom:course>2.175</gom:course><gom:rel_alt>2.946</gom:rel_alt></extensions></trkpt>
   <trkpt lat="59.3441865475" lon="34.7191906289"><ele>165.109</ele><time>2026-08-13T23:30:16.998Z</time><hdop>4.687</hdop><vdop>5.562</vdop><extensions><gom:speed>3.414</gom:speed><gom:course>6.042</gom:course><gom:rel_alt>2.998</gom:rel_alt></extensions></trkpt>
   <trkpt lat="59.344275689" lon="34.7192270901"><ele>164.801</ele><time>2026-08-13T23:30:19.998Z</time><hdop>4.687</hdop><vdop>5.437</vdop><extensions><gom:speed>3.346</gom:speed><gom:course>10.239</gom:course><gom:rel_alt>2.882</gom:rel_alt></extensions></trkpt>
   <trkpt lat="59.3443895153" lon="34.7192850929"><ele>165.272</ele><time>2026-08-13T23:30:23.998Z</time><hdop>4.687</hdop><vdop>5.437</vdop><extensions><gom:speed>3.226</gom:speed><gom:course>14.425</gom:course><gom:rel_alt>2.742</gom:rel_alt></extensions></trkpt>
   <trkpt lat="59.3444898047" lon="34.7193736058"><ele>164.381</ele><time>2026-08-13T23:30:28.998Z</time><hdop>4.687</hdop><vdop>6.375</vdop><extensions><gom:speed>1.919</gom:speed><gom:course>25.834</gom:course></extensions></trkpt>
   <trkpt lat="59.3445693909" lon="34.7195170202"><ele>163.21</ele><time>2026-08-13T23:30:32.998Z</time><hdop>4.687</hdop><vdop>6.25</vdop><extensions><gom:speed>1.891</gom:speed><gom:course>44.824</gom:course><gom:rel_alt>2.909</gom:rel_alt></extensions></trkpt>
   <trkpt lat="59.344650863" lon="34.7196480293"><ele>162.459</ele><time>2026-08-13T23:30:36.998Z</time><hdop>4.687</hdop><vdop>6.125</vdop><extensions><gom:speed>1.966</gom:speed><gom:course>44.418</gom:course><gom:rel_alt>2.959</gom:rel_alt></extensions></trkpt>
   <trkpt lat="59.3447345144" lon="34.719756072"><ele>161.197</ele><time>2026-08-13T23:30:40.998Z</time><hdop>4.687</hdop><vdop>6.0</vdop><extensions><gom:speed>1.582</gom:speed><gom:course>38.062</gom:course><gom:rel_alt>2.671</gom:rel_alt></extensions></trkpt>
   <trkpt lat="59.3448329598" lon="34.7198286593"><ele>160.154</ele><time>2026-08-13T23:30:44.998Z</time><hdop>4.687</hdop><vdop>6.5</vdop><extensions><gom:speed>1.569</gom:speed><gom:course>20.352</gom:course><gom:rel_alt>2.198</gom:rel_alt></extensions></trkpt>
   <trkpt lat="59.3449203831" lon="34.7199495264"><ele>159.331</ele><time>2026-08-13T23:30:48.998Z</time><hdop>4.687</hdop><vdop>5.75</vdop><extensions><gom:speed>1.795</gom:speed><gom:course>39.924</gom:course><gom:rel_alt>2.026</gom:rel_alt></extensions></trkpt>
   <trkpt lat="59.3450302698" lon="34.7200284839"><ele>158.981</ele><time>2026-08-13T23:30:52.998Z</time><hdop>4.687</hdop><vdop>6.375</vdop><extensions><gom:speed>1.63</gom:speed><gom:course>32.091</gom:course><gom:rel_alt>1.944</gom:rel_alt></extensions></trkpt>
   <trkpt lat="59.3451266198" lon="34.7201137278"><ele>157.474</ele><time>2026-08-13T23:30:56.997Z</time><hdop>4.687</hdop><vdop>6.437</vdop><extensions><gom:speed>1.63</gom:speed><gom:course>33.838</gom:course><gom:rel_alt>1.778</gom:rel_alt></extensions></trkpt>
   <trkpt lat="59.3452098521" lon="34.7202459943"><ele>155.714</ele><time>2026-08-13T23:31:00.997Z</time><hdop>4.687</hdop><vdop>6.5</vdop><extensions><gom:speed>1.526</gom:speed><gom:course>47.445</gom:course><gom:rel_alt>1.73</gom:rel_alt></extensions></trkpt>
   <trkpt lat="59.3452963953" lon="34.7203275502"><ele>155.724</ele><time>2026-08-13T23:31:03.997Z</time><hdop>4.687</hdop><vdop>6.312</vdop><extensions><gom:speed>1.677</gom:speed><gom:course>37.205</gom:course><gom:rel_alt>1.767</gom:rel_alt></extensions></trkpt>
   <trkpt lat="59.3453898116" lon="34.7204006404"><ele>157.574</ele><time>2026-08-13T23:31:06.997Z</time><hdop>4.687</hdop><vdop>6.312</vdop><extensions><gom:speed>1.591</gom:speed><gom:course>37.282</gom:course><gom:rel_alt>1.889</gom:rel_alt></extensions></trkpt>
   <trkpt lat="59.3454937053" lon="34.7204407059"><ele>157.623</ele><time>2026-08-13T23:31:09.997Z</time><hdop>4.687</hdop><vdop>6.437</vdop><extensions><gom:speed>1.672</gom:speed><gom:course>21.346</gom:course><gom:rel_alt>2.145</gom:rel_alt></extensions></trkpt>
   <trkpt lat="59.3455820505" lon="34.7205049113"><ele>157.74</ele><time>2026-08-13T23:31:12.997Z</time><hdop>4.687</hdop><vdop>6.375</vdop><extensions><gom:speed>1.64</gom:speed><gom:course>22.082</gom:course><gom:rel_alt>2.079</gom:rel_alt></extensions></trkpt>
   <trkpt lat="59.3456890036" lon="34.7205872216"><ele>156.377</ele><time>2026-08-13T23:31:16.997Z</time><hdop>4.687</hdop><vdop>6.0</vdop><extensions><gom:speed>1.727</gom:speed><gom:course>26.757</gom:course><gom:rel_alt>1.466</gom:rel_alt></extensions></trkpt>
   <trkpt lat="59.3457820427" lon="34.7206420392"><ele>157.174</ele><time>2026-08-13T23:31:19.997Z</time><hdop>4.687</hdop><vdop>6.5</vdop><extensions><gom:speed>1.573</gom:speed><gom:course>23.236</gom:course><gom:rel_alt>1.228</gom:rel_alt></extensions></trkpt>
   <trkpt lat="59.3458659456" lon="34.7207092621"><ele>156.611</ele><time>2026-08-13T23:31:22.997Z</time><hdop>4.687</hdop><vdop>6.062</vdop><extensions><gom:speed>1.417</gom:speed><gom:course>34.711</gom:course><gom:rel_alt>0.85</gom:rel_alt></extensions></trkpt>
   <trkpt lat="59.3459572245" lon="34.7207674325"><ele>156.302</ele><time>2026-08-13T23:31:25.999Z</time><hdop>4.687</hdop><vdop>5.937</vdop><extensions><gom:speed>1.473</gom:speed><gom:course>34.772</gom:course><gom:rel_alt>0.11</gom:rel_alt></extensions></trkpt>
   <trkpt lat="59.3460469528" lon="34.7208123595"><ele>154.442</ele><time>2026-08-13T23:31:28.999Z</time><hdop>4.687</hdop><vdop>6.437</vdop><extensions><gom:speed>1.447</gom:speed><gom:course>25.472</gom:course><gom:rel_alt>-0.52</gom:rel_alt></extensions></trkpt>
   <trkpt lat="59.3461397824" lon="34.7208726254"><ele>154.677</ele><time>2026-08-13T23:31:31.999Z</time><hdop>4.687</hdop><vdop>5.875</vdop><extensions><gom:speed>1.694</gom:speed><gom:course>28.493</gom:course><gom:rel_alt>-0.583</gom:rel_alt></extensions></trkpt>
   <trkpt lat="59.3462737252" lon="34.7209201508"><ele>154.935</ele><time>2026-08-13T23:31:34.999Z</time><hdop>4.687</hdop><vdop>5.625</vdop><extensions><gom:speed>3.51</gom:speed><gom:course>15.457</gom:course><gom:rel_alt>-0.198</gom:rel_alt></extensions></trkpt>
   <trkpt lat="59.3463765292" lon="34.7209500741"><ele>156.287</ele><time>2026-08-13T23:31:36.999Z</time><hdop>4.687</hdop><vdop>5.0</vdop><extensions><gom:speed>4.379</gom:speed><gom:course>8.3</gom:course><gom:rel_alt>-0.036</gom:rel_alt></extensions></trkpt>
   <trkpt lat="59.3465035989" lon="34.7209696878"><ele>158.799</ele><time>2026-08-13T23:31:39.999Z</time><hdop>4.687</hdop><vdop>5.375</vdop><extensions><gom:speed>3.737</gom:speed><gom:course>7.19</gom:course><gom:rel_alt>0.467</gom:rel_alt></extensions></trkpt>
   <trkpt lat="59.3466240887" lon="34.7209864516"><ele>160.693</ele><time>2026-08-13T23:31:42.999Z</time><hdop>4.687</hdop><vdop>5.187</vdop><extensions><gom:speed>3.925</gom:speed><gom:course>4.152</gom:course><gom:rel_alt>0.834</gom:rel_alt></extensions></trkpt>
   <trkpt lat="59.346742064" lon="34.7209930733"><ele>161.699</ele><time>2026-08-13T23:31:45.999Z</time><hdop>4.687</hdop><vdop>5.125</vdop><extensions><gom:speed>4.255</gom:speed><gom:course>4.07</gom:course><gom:rel_alt>1.107</gom:rel_alt></extensions></trkpt>
   <trkpt lat="59.3468609194" lon="34.7210108429"><ele>161.988</ele><time>2026-08-13T23:31:48.999Z</time><hdop>4.687</hdop><vdop>5.312</vdop><extensions><gom:speed>4.172</gom:speed><gom:course>5.927</gom:course><gom:rel_alt>1.329</gom:rel_alt></extensions></trkpt>
   <trkpt lat="59.3469916352" lon="34.7210209012"><ele>162.937</ele><time>2026-08-13T23:31:51.999Z</time><hdop>4.687</hdop><vdop>5.187</vdop><extensions><gom:speed>4.613</gom:speed><gom:course>2.938</gom:course><gom:rel_alt>1.302</gom:rel_alt></extensions></trkpt>
   <trkpt lat="59.3471220995" lon="34.7210500703"><ele>163.337</ele><time>2026-08-13T23:31:54.999Z</time><hdop>4.687</hdop><vdop>4.625</vdop><extensions><gom:speed>4.723</gom:speed><gom:course>6.438</gom:course><gom:rel_alt>1.366</gom:rel_alt></extensions></trkpt>
   <trkpt lat="59.3472439305" lon="34.7210977633"><ele>164.015</ele><time>2026-08-13T23:31:57.999Z</time><hdop>4.687</hdop><vdop>3.5</vdop><extensions><gom:speed>4.576</gom:speed><gom:course>11.953</gom:course><gom:rel_alt>1.778</gom:rel_alt></extensions></trkpt>
   <trkpt lat="59.3473410348" lon="34.7211561851"><ele>161.764</ele><time>2026-08-13T23:32:01.999Z</time><hdop>4.687</hdop><vdop>4.875</vdop><extensions><gom:speed>1.558</gom:speed><gom:course>17.127</gom:course><gom:rel_alt>2.021</gom:rel_alt></extensions></trkpt>
   <trkpt lat="59.3474435874" lon="34.7211922273"><ele>161.876</ele><time>2026-08-13T23:32:04.999Z</time><hdop>4.687</hdop><vdop>5.562</vdop><extensions><gom:speed>1.662</gom:speed><gom:course>5.773</gom:course><gom:rel_alt>2.087</gom:rel_alt></extensions></trkpt>
   <trkpt lat="59.3475564078" lon="34.7212814108"><ele>161.654</ele><time>2026-08-13T23:32:08.999Z</time><hdop>4.687</hdop><vdop>5.687</vdop><extensions><gom:speed>1.626</gom:speed><gom:course>27.949</gom:course><gom:rel_alt>2.602</gom:rel_alt></extensions></trkpt>
   <trkpt lat="59.3476526321" lon="34.7213046287"><ele>160.4</ele><time>2026-08-13T23:32:11.999Z</time><hdop>4.687</hdop><vdop>5.687</vdop><extensions><gom:speed>1.693</gom:speed><gom:course>9.08</gom:course><gom:rel_alt>2.84</gom:rel_alt></extensions></trkpt>
   <trkpt lat="59.3477548913" lon="34.7213656489"><ele>159.959</ele><time>2026-08-13T23:32:13.999Z</time><hdop>4.687</hdop><vdop>4.75</vdop><extensions><gom:speed>4.591</gom:speed><gom:course>18.028</gom:course><gom:rel_alt>3.001</gom:rel_alt></extensions></trkpt>
   <trkpt lat="59.3478908458" lon="34.7213686664"><ele>160.218</ele><time>2026-08-13T23:32:15.999Z</time><hdop>4.687</hdop><vdop>4.625</vdop><extensions><gom:speed>5.625</gom:speed><gom:course>1.944</gom:course><gom:rel_alt>3.162</gom:rel_alt></extensions></trkpt>
   <trkpt lat="59.3479856032" lon="34.7214213886"><ele>160.907</ele><time>2026-08-13T23:32:17.999Z</time><hdop>4.687</hdop><vdop>4.437</vdop><extensions><gom:speed>4.916</gom:speed><gom:course>12.09</gom:course><gom:rel_alt>3.326</gom:rel_alt></extensions></trkpt>
   <trkpt lat="59.3481330828" lon="34.7214465343"><ele>162.926</ele><time>2026-08-13T23:32:20.999Z</time><hdop>4.687</hdop><vdop>4.812</vdop><extensions><gom:speed>4.592</gom:speed><gom:course>6.674</gom:course><gom:rel_alt>3.39</gom:rel_alt></extensions></trkpt>
   <trkpt lat="59.3482431372" lon="34.7214796428"><ele>161.262</ele><time>2026-08-13T23:32:24.998Z</time><hdop>4.687</hdop><vdop>5.625</vdop><extensions><gom:speed>1.376</gom:speed><gom:course>15.831</gom:course><gom:rel_alt>3.194</gom:rel_alt></extensions></trkpt>
   <trkpt lat="59.3483328654" lon="34.7215233125"><ele>159.127</ele><time>2026-08-13T23:32:27.998Z</time><hdop>4.687</hdop><vdop>5.687</vdop><extensions><gom:speed>1.506</gom:speed><gom:course>20.143</gom:course><gom:rel_alt>2.745</gom:rel_alt></extensions></trkpt>
   <trkpt lat="59.3484342026" lon="34.7215772081"><ele>158.835</ele><time>2026-08-13T23:32:30.998Z</time><hdop>4.687</hdop><vdop>6.062</vdop><extensions><gom:speed>1.877</gom:speed><gom:course>14.496</gom:course><gom:rel_alt>1.667</gom:rel_alt></extensions></trkpt>
   <trkpt lat="59.3485324805" lon="34.7216047846"><ele>156.947</ele><time>2026-08-13T23:32:33.998Z</time><hdop>4.687</hdop><vdop>6.125</vdop><extensions><gom:speed>1.996</gom:speed><gom:course>7.701</gom:course><gom:rel_alt>0.821</gom:rel_alt></extensions></trkpt>
   <trkpt lat="59.3486415709" lon="34.7216460236"><ele>157.524</ele><time>2026-08-13T23:32:36.998Z</time><hdop>4.687</hdop><vdop>6.125</vdop><extensions><gom:speed>1.93</gom:speed><gom:course>10.64</gom:course><gom:rel_alt>0.155</gom:rel_alt></extensions></trkpt>
   <trkpt lat="59.348764282" lon="34.7216672298"><ele>159.49</ele><time>2026-08-13T23:32:39.998Z</time><hdop>4.687</hdop><vdop>4.687</vdop><extensions><gom:speed>2.371</gom:speed><gom:course>0.109</gom:course><gom:rel_alt>0.071</gom:rel_alt></extensions></trkpt>
   <trkpt lat="59.3488682595" lon="34.721675947"><ele>159.501</ele><time>2026-08-13T23:32:42.998Z</time><hdop>4.687</hdop><vdop>4.437</vdop><extensions><gom:speed>1.8</gom:speed><gom:course>356.182</gom:course><gom:rel_alt>0.536</gom:rel_alt></extensions></trkpt>
   <trkpt lat="59.3489863186" lon="34.7216722589"><ele>158.845</ele><time>2026-08-13T23:32:46.998Z</time><hdop>4.687</hdop><vdop>3.875</vdop><extensions><gom:speed>2.181</gom:speed><gom:course>354.462</gom:course><gom:rel_alt>0.937</gom:rel_alt></extensions></trkpt>
   <trkpt lat="59.3490749572" lon="34.7216348756"><ele>159.342</ele><time>2026-08-13T23:32:48.998Z</time><hdop>4.687</hdop><vdop>3.875</vdop><extensions><gom:speed>4.333</gom:speed><gom:course>343.657</gom:course><gom:rel_alt>1.152</gom:rel_alt></extensions></trkpt>
   <trkpt lat="59.3491881967" lon="34.7216514718"><ele>160.062</ele><time>2026-08-13T23:32:50.998Z</time><hdop>4.687</hdop><vdop>3.5</vdop><extensions><gom:speed>4.171</gom:speed><gom:course>8.443</gom:course><gom:rel_alt>1.622</gom:rel_alt></extensions></trkpt>
   <trkpt lat="59.3492795176" lon="34.7216257394"><ele>160.264</ele><time>2026-08-13T23:32:52.998Z</time><hdop>4.687</hdop><vdop>3.937</vdop><extensions><gom:speed>3.46</gom:speed><gom:course>356.896</gom:course><gom:rel_alt>2.045</gom:rel_alt></extensions></trkpt>
   <trkpt lat="59.3493911226" lon="34.7216341213"><ele>160.646</ele><time>2026-08-13T23:32:56.998Z</time><hdop>4.687</hdop><vdop>3.875</vdop><extensions><gom:speed>2.263</gom:speed><gom:course>5.619</gom:course><gom:rel_alt>1.979</gom:rel_alt></extensions></trkpt>
   <trkpt lat="59.3494780429" lon="34.721700925"><ele>160.472</ele><time>2026-08-13T23:33:00.998Z</time><hdop>4.687</hdop><vdop>3.687</vdop><extensions><gom:speed>2.381</gom:speed><gom:course>36.683</gom:course></extensions></trkpt>
   <trkpt lat="59.3495513427" lon="34.7218251448"><ele>161.142</ele><time>2026-08-13T23:33:06.997Z</time><hdop>4.687</hdop><vdop>3.437</vdop><extensions><gom:speed>1.959</gom:speed><gom:course>38.875</gom:course><gom:rel_alt>0.446</gom:rel_alt></extensions></trkpt>
   <trkpt lat="59.3496447171" lon="34.7218850754"><ele>161.184</ele><time>2026-08-13T23:33:11.997Z</time><hdop>4.687</hdop><vdop>3.312</vdop><extensions><gom:speed>2.39</gom:speed><gom:course>9.096</gom:course><gom:rel_alt>0.496</gom:rel_alt></extensions></trkpt>
   <trkpt lat="59.3497443779" lon="34.7218636178"><ele>162.547</ele><time>2026-08-13T23:33:14.997Z</time><hdop>4.687</hdop><vdop>3.375</vdop><extensions><gom:speed>3.701</gom:speed><gom:course>0.994</gom:course><gom:rel_alt>0.832</gom:rel_alt></extensions></trkpt>
   <trkpt lat="59.3498505766" lon="34.7218008373"><ele>162.482</ele><time>2026-08-13T23:33:18.997Z</time><hdop>4.687</hdop><vdop>5.312</vdop><extensions><gom:speed>3.566</gom:speed><gom:course>346.92</gom:course><gom:rel_alt>1.278</gom:rel_alt></extensions></trkpt>
   <trkpt lat="59.3499446635" lon="34.7217347041"><ele>163.096</ele><time>2026-08-13T23:33:21.997Z</time><hdop>4.687</hdop><vdop>5.375</vdop><extensions><gom:speed>3.616</gom:speed><gom:course>343.888</gom:course><gom:rel_alt>1.648</gom:rel_alt></extensions></trkpt>
   <trkpt lat="59.350047258" lon="34.721695393"><ele>164.998</ele><time>2026-08-13T23:33:24.997Z</time><hdop>4.687</hdop><vdop>5.437</vdop><extensions><gom:speed>3.94</gom:speed><gom:course>348.958</gom:course><gom:rel_alt>2.224</gom:rel_alt></extensions></trkpt>
   <trkpt lat="59.3501667839" lon="34.7216886036"><ele>165.02</ele><time>2026-08-13T23:33:27.997Z</time><hdop>4.687</hdop><vdop>5.312</vdop><extensions><gom:speed>4.326</gom:speed><gom:course>1.186</gom:course><gom:rel_alt>2.771</gom:rel_alt></extensions></trkpt>
   <trkpt lat="59.3502771736" lon="34.721672678"><ele>164.521</ele><time>2026-08-13T23:33:30.997Z</time><hdop>4.687</hdop><vdop>5.437</vdop><extensions><gom:speed>4.206</gom:speed><gom:course>352.704</gom:course><gom:rel_alt>3.078</gom:rel_alt></extensions></trkpt>
   <trkpt lat="59.3503890301" lon="34.7216546569"><ele>163.65</ele><time>2026-08-13T23:33:33.999Z</time><hdop>4.687</hdop><vdop>5.187</vdop><extensions><gom:speed>4.358</gom:speed><gom:course>350.353</gom:course><gom:rel_alt>3.099</gom:rel_alt></extensions></trkpt>
   <trkpt lat="59.3504938458" lon="34.7216584288"><ele>163.36</ele><time>2026-08-13T23:33:36.999Z</time><hdop>4.687</hdop><vdop>5.437</vdop><extensions><gom:speed>4.072</gom:speed><gom:course>358.917</gom:course><gom:rel_alt>2.962</gom:rel_alt></extensions></trkpt>
   <trkpt lat="59.3506142937" lon="34.7216667269"><ele>163.59</ele><time>2026-08-13T23:33:39.999Z</time><hdop>4.687</hdop><vdop>5.375</vdop><extensions><gom:speed>4.22</gom:speed><gom:course>2.323</gom:course><gom:rel_alt>2.79</gom:rel_alt></extensions></trkpt>
   <trkpt lat="59.3507248091" lon="34.7216177766"><ele>162.908</ele><time>2026-08-13T23:33:42.999Z</time><hdop>4.687</hdop><vdop>5.25</vdop><extensions><gom:speed>4.433</gom:speed><gom:course>347.305</gom:course><gom:rel_alt>2.507</gom:rel_alt></extensions></trkpt>
   <trkpt lat="59.3508366237" lon="34.7215974923"><ele>163.198</ele><time>2026-08-13T23:33:45.999Z</time><hdop>4.687</hdop><vdop>4.875</vdop><extensions><gom:speed>4.247</gom:speed><gom:course>352.023</gom:course><gom:rel_alt>2.367</gom:rel_alt></extensions></trkpt>
   <trkpt lat="59.3509259329" lon="34.7215295151"><ele>163.598</ele><time>2026-08-13T23:33:48.999Z</time><hdop>4.687</hdop><vdop>5.437</vdop><extensions><gom:speed>3.444</gom:speed><gom:course>340.054</gom:course><gom:rel_alt>2.547</gom:rel_alt></extensions></trkpt>
   <trkpt lat="59.3510183015" lon="34.7214455284"><ele>164.079</ele><time>2026-08-13T23:33:51.999Z</time><hdop>4.687</hdop><vdop>4.687</vdop><extensions><gom:speed>3.789</gom:speed><gom:course>337.741</gom:course></extensions></trkpt>
   <trkpt lat="59.3511118435" lon="34.7213481307"><ele>164.119</ele><time>2026-08-13T23:33:55.999Z</time><hdop>4.687</hdop><vdop>5.687</vdop><extensions><gom:speed>1.899</gom:speed><gom:course>333.192</gom:course><gom:rel_alt>2.71</gom:rel_alt></extensions></trkpt>
   <trkpt lat="59.3512076906" lon="34.7212612942"><ele>163.0</ele><time>2026-08-13T23:33:59.999Z</time><hdop>4.687</hdop><vdop>5.375</vdop><extensions><gom:speed>1.9</gom:speed><gom:course>341.399</gom:course><gom:rel_alt>2.742</gom:rel_alt></extensions></trkpt>
   <trkpt lat="59.3513009393" lon="34.7212061413"><ele>162.029</ele><time>2026-08-13T23:34:03.999Z</time><hdop>4.687</hdop><vdop>5.437</vdop><extensions><gom:speed>1.854</gom:speed><gom:course>334.247</gom:course><gom:rel_alt>2.821</gom:rel_alt></extensions></trkpt>
   <trkpt lat="59.3513564274" lon="34.7210253436"><ele>162.116</ele><time>2026-08-13T23:34:05.999Z</time><hdop>4.687</hdop><vdop>4.937</vdop><extensions><gom:speed>5.575</gom:speed><gom:course>303.051</gom:course><gom:rel_alt>3.086</gom:rel_alt></extensions></trkpt>
   <trkpt lat="59.351487227" lon="34.7208934963"><ele>165.596</ele><time>2026-08-13T23:34:06.999Z</time><hdop>4.687</hdop><vdop>4.0</vdop><extensions><gom:speed>6.569</gom:speed><gom:course>307.967</gom:course><gom:rel_alt>3.173</gom:rel_alt></extensions></trkpt>
   <trkpt lat="59.3515570483" lon="34.7206983656"><ele>165.361</ele><time>2026-08-13T23:34:08.999Z</time><hdop>4.687</hdop><vdop>4.0</vdop><extensions><gom:speed>6.569</gom:speed><gom:course>307.967</gom:course></extensions></trkpt>
   <trkpt lat="59.3516344971" lon="34.7205024805"><ele>164.892</ele><time>2026-08-13T23:34:10.999Z</time><hdop>4.687</hdop><vdop>4.0</vdop><extensions><gom:speed>6.879</gom:speed><gom:course>308.671</gom:course><gom:rel_alt>2.874</gom:rel_alt></extensions></trkpt>
   <trkpt lat="59.351711904" lon="34.7203091938"><ele>164.473</ele><time>2026-08-13T23:34:12.999Z</time><hdop>4.687</hdop><vdop>4.0</vdop><extensions><gom:speed>6.879</gom:speed><gom:course>309.022</gom:course><gom:rel_alt>2.43</gom:rel_alt></extensions></trkpt>
   <trkpt lat="59.3517951363" lon="34.7201104589"><ele>165.22</ele><time>2026-08-13T23:34:14.999Z</time><hdop>4.687</hdop><vdop>3.5</vdop><extensions><gom:speed>6.919</gom:speed><gom:course>307.264</gom:course><gom:rel_alt>2.047</gom:rel_alt></extensions></trkpt>
   <trkpt lat="59.3518758121" lon="34.7199007437"><ele>165.067</ele><time>2026-08-13T23:34:16.999Z</time><hdop>4.687</hdop><vdop>4.0</vdop><extensions><gom:speed>7.029</gom:speed><gom:course>307.616</gom:course><gom:rel_alt>2.034</gom:rel_alt></extensions></trkpt>
   <trkpt lat="59.3519572842" lon="34.7197134082"><ele>164.717</ele><time>2026-08-13T23:34:18.999Z</time><hdop>4.687</hdop><vdop>4.0</vdop><extensions><gom:speed>7.029</gom:speed><gom:course>310.077</gom:course><gom:rel_alt>2.14</gom:rel_alt></extensions></trkpt>
   <trkpt lat="59.3520318412" lon="34.7195446804"><ele>163.267</ele><time>2026-08-13T23:34:20.999Z</time><hdop>4.687</hdop><vdop>4.0</vdop><extensions><gom:speed>6.539</gom:speed><gom:course>312.889</gom:course><gom:rel_alt>2.245</gom:rel_alt></extensions></trkpt>
   <trkpt lat="59.3521045961" lon="34.7193335403"><ele>162.787</ele><time>2026-08-13T23:34:22.999Z</time><hdop>4.687</hdop><vdop>4.0</vdop><extensions><gom:speed>6.999</gom:speed><gom:course>306.913</gom:course><gom:rel_alt>2.343</gom:rel_alt></extensions></trkpt>
   <trkpt lat="59.3521756328" lon="34.7191244118"><ele>163.588</ele><time>2026-08-13T23:34:24.999Z</time><hdop>4.687</hdop><vdop>4.0</vdop><extensions><gom:speed>7.029</gom:speed><gom:course>303.046</gom:course></extensions></trkpt>
   <trkpt lat="59.3522534168" lon="34.7189193905"><ele>163.476</ele><time>2026-08-13T23:34:26.998Z</time><hdop>4.687</hdop><vdop>3.937</vdop><extensions><gom:speed>7.02</gom:speed><gom:course>304.254</gom:course><gom:rel_alt>2.536</gom:rel_alt></extensions></trkpt>
   <trkpt lat="59.3523256269" lon="34.7187049814"><ele>163.495</ele><time>2026-08-13T23:34:28.998Z</time><hdop>4.687</hdop><vdop>5.062</vdop><extensions><gom:speed>7.171</gom:speed><gom:course>304.831</gom:course><gom:rel_alt>2.708</gom:rel_alt></extensions></trkpt>
   <trkpt lat="59.352396915" lon="34.7185007982"><ele>163.241</ele><time>2026-08-13T23:34:30.998Z</time><hdop>4.687</hdop><vdop>4.75</vdop><extensions><gom:speed>7.128</gom:speed><gom:course>305.452</gom:course><gom:rel_alt>2.74</gom:rel_alt></extensions></trkpt>
   <trkpt lat="59.352465018" lon="34.7182917536"><ele>164.482</ele><time>2026-08-13T23:34:32.998Z</time><hdop>4.687</hdop><vdop>4.125</vdop><extensions><gom:speed>6.99</gom:speed><gom:course>302.815</gom:course><gom:rel_alt>2.713</gom:rel_alt></extensions></trkpt>
   <trkpt lat="59.3525267926" lon="34.7181069326"><ele>163.0</ele><time>2026-08-13T23:34:34.998Z</time><hdop>4.687</hdop><vdop>4.562</vdop><extensions><gom:speed>6.438</gom:speed><gom:course>302.068</gom:course><gom:rel_alt>2.687</gom:rel_alt></extensions></trkpt>
   <trkpt lat="59.3525969491" lon="34.7179305773"><ele>164.12</ele><time>2026-08-13T23:34:36.998Z</time><hdop>4.687</hdop><vdop>4.0</vdop><extensions><gom:speed>6.302</gom:speed><gom:course>305.413</gom:course><gom:rel_alt>2.523</gom:rel_alt></extensions></trkpt>
   <trkpt lat="59.3526550357" lon="34.7177436609"><ele>163.678</ele><time>2026-08-13T23:34:38.998Z</time><hdop>4.687</hdop><vdop>4.062</vdop><extensions><gom:speed>6.154</gom:speed><gom:course>302.644</gom:course><gom:rel_alt>2.317</gom:rel_alt></extensions></trkpt>
   <trkpt lat="59.3526892339" lon="34.7175486978"><ele>162.608</ele><time>2026-08-13T23:34:40.998Z</time><hdop>4.687</hdop><vdop>4.5</vdop><extensions><gom:speed>5.871</gom:speed><gom:course>293.163</gom:course><gom:rel_alt>2.206</gom:rel_alt></extensions></trkpt>
   <trkpt lat="59.3527087218" lon="34.7173241467"><ele>164.411</ele><time>2026-08-13T23:34:42.998Z</time><hdop>4.687</hdop><vdop>4.5</vdop><extensions><gom:speed>6.285</gom:speed><gom:course>280.957</gom:course><gom:rel_alt>2.201</gom:rel_alt></extensions></trkpt>
   <trkpt lat="59.3527043632" lon="34.7171196282"><ele>164.93</ele><time>2026-08-13T23:34:44.998Z</time><hdop>4.687</hdop><vdop>4.312</vdop><extensions><gom:speed>5.712</gom:speed><gom:course>271.124</gom:course><gom:rel_alt>2.208</gom:rel_alt></extensions></trkpt>
   <trkpt lat="59.3526480368" lon="34.7169564326"><ele>163.138</ele><time>2026-08-13T23:34:48.998Z</time><hdop>4.687</hdop><vdop>5.25</vdop><extensions><gom:speed>1.822</gom:speed><gom:course>242.889</gom:course><gom:rel_alt>2.145</gom:rel_alt></extensions></trkpt>
   <trkpt lat="59.3526153474" lon="34.716783933"><ele>163.113</ele><time>2026-08-13T23:34:51.998Z</time><hdop>4.687</hdop><vdop>5.562</vdop><extensions><gom:speed>1.451</gom:speed><gom:course>258.254</gom:course><gom:rel_alt>1.928</gom:rel_alt></extensions></trkpt>
   <trkpt lat="59.3525764554" lon="34.71661026"><ele>163.295</ele><time>2026-08-13T23:34:52.998Z</time><hdop>4.687</hdop><vdop>4.0</vdop><extensions><gom:speed>4.429</gom:speed><gom:course>256.639</gom:course><gom:rel_alt>1.881</gom:rel_alt></extensions></trkpt>
   <trkpt lat="59.3525619128" lon="34.7164137043"><ele>163.498</ele><time>2026-08-13T23:34:54.998Z</time><hdop>4.687</hdop><vdop>4.0</vdop><extensions><gom:speed>4.979</gom:speed><gom:course>258.396</gom:course><gom:rel_alt>1.942</gom:rel_alt></extensions></trkpt>
   <trkpt lat="59.3525250324" lon="34.7162018098"><ele>163.897</ele><time>2026-08-13T23:34:56.998Z</time><hdop>4.687</hdop><vdop>4.0</vdop><extensions><gom:speed>5.839</gom:speed><gom:course>251.365</gom:course><gom:rel_alt>2.145</gom:rel_alt></extensions></trkpt>
   <trkpt lat="59.3524955281" lon="34.7160003927"><ele>164.589</ele><time>2026-08-13T23:34:58.998Z</time><hdop>4.687</hdop><vdop>4.0</vdop><extensions><gom:speed>5.839</gom:speed><gom:course>253.474</gom:course></extensions></trkpt>
   <trkpt lat="59.3524693346" lon="34.7158157394"><ele>164.65</ele><time>2026-08-13T23:35:00.998Z</time><hdop>4.687</hdop><vdop>4.0</vdop><extensions><gom:speed>5.419</gom:speed><gom:course>253.826</gom:course><gom:rel_alt>2.563</gom:rel_alt></extensions></trkpt>
   <trkpt lat="59.3524410038" lon="34.7156450838"><ele>164.365</ele><time>2026-08-13T23:35:02.998Z</time><hdop>4.687</hdop><vdop>4.0</vdop><extensions><gom:speed>5.229</gom:speed><gom:course>252.42</gom:course><gom:rel_alt>2.607</gom:rel_alt></extensions></trkpt>
   <trkpt lat="59.3524162772" lon="34.7154631127"><ele>164.461</ele><time>2026-08-13T23:35:04.998Z</time><hdop>4.687</hdop><vdop>4.0</vdop><extensions><gom:speed>5.349</gom:speed><gom:course>254.529</gom:course><gom:rel_alt>2.444</gom:rel_alt></extensions></trkpt>
   <trkpt lat="59.3523845098" lon="34.7152589295"><ele>164.63</ele><time>2026-08-13T23:35:06.998Z</time><hdop>4.687</hdop><vdop>3.875</vdop><extensions><gom:speed>5.659</gom:speed><gom:course>247.146</gom:course><gom:rel_alt>2.277</gom:rel_alt></extensions></trkpt>
   <trkpt lat="59.3523201787" lon="34.7151062113"><ele>164.339</ele><time>2026-08-13T23:35:08.998Z</time><hdop>4.687</hdop><vdop>4.0</vdop><extensions><gom:speed>5.609</gom:speed><gom:course>240.466</gom:course><gom:rel_alt>2.161</gom:rel_alt></extensions></trkpt>
   <trkpt lat="59.3522692586" lon="34.7149234019"><ele>164.368</ele><time>2026-08-13T23:35:10.997Z</time><hdop>4.687</hdop><vdop>4.0</vdop><extensions><gom:speed>5.589</gom:speed><gom:course>244.334</gom:course><gom:rel_alt>2.275</gom:rel_alt></extensions></trkpt>
   <trkpt lat="59.3522185062" lon="34.7147691749"><ele>163.996</ele><time>2026-08-13T23:35:12.997Z</time><hdop>4.687</hdop><vdop>3.187</vdop><extensions><gom:speed>5.019</gom:speed><gom:course>240.428</gom:course><gom:rel_alt>2.475</gom:rel_alt></extensions></trkpt>
   <trkpt lat="59.3521653649" lon="34.7145654947"><ele>164.089</ele><time>2026-08-13T23:35:16.997Z</time><hdop>4.687</hdop><vdop>5.125</vdop><extensions><gom:speed>3.649</gom:speed><gom:course>243.35</gom:course><gom:rel_alt>2.507</gom:rel_alt></extensions></trkpt>
   <trkpt lat="59.3521040513" lon="34.7143453859"><ele>164.105</ele><time>2026-08-13T23:35:19.997Z</time><hdop>4.687</hdop><vdop>5.062</vdop><extensions><gom:speed>4.698</gom:speed><gom:course>242.246</gom:course><gom:rel_alt>2.372</gom:rel_alt></extensions></trkpt>
   <trkpt lat="59.3520914365" lon="34.7141689468"><ele>164.138</ele><time>2026-08-13T23:35:21.997Z</time><hdop>4.687</hdop><vdop>4.937</vdop><extensions><gom:speed>4.955</gom:speed><gom:course>261.198</gom:course><gom:rel_alt>2.359</gom:rel_alt></extensions></trkpt>
   <trkpt lat="59.3520755528" lon="34.7139604051"><ele>165.117</ele><time>2026-08-13T23:35:23.997Z</time><hdop>4.687</hdop><vdop>4.0</vdop><extensions><gom:speed>5.709</gom:speed><gom:course>260.857</gom:course><gom:rel_alt>2.388</gom:rel_alt></extensions></trkpt>
   <trkpt lat="59.3520553524" lon="34.7137673699"><ele>165.079</ele><time>2026-08-13T23:35:25.997Z</time><hdop>4.687</hdop><vdop>4.0</vdop><extensions><gom:speed>5.609</gom:speed><gom:course>258.396</gom:course><gom:rel_alt>2.47</gom:rel_alt></extensions></trkpt>
   <trkpt lat="59.3520486469" lon="34.7135615941"><ele>165.305</ele><time>2026-08-13T23:35:27.997Z</time><hdop>4.687</hdop><vdop>4.0</vdop><extensions><gom:speed>5.609</gom:speed><gom:course>264.373</gom:course><gom:rel_alt>2.578</gom:rel_alt></extensions></trkpt>
   <trkpt lat="59.3520239622" lon="34.7133688942"><ele>165.199</ele><time>2026-08-13T23:35:29.997Z</time><hdop>4.687</hdop><vdop>4.0</vdop><extensions><gom:speed>5.819</gom:speed><gom:course>254.529</gom:course><gom:rel_alt>2.573</gom:rel_alt></extensions></trkpt>
   <trkpt lat="59.352031464" lon="34.713154066"><ele>164.865</ele><time>2026-08-13T23:35:31.997Z</time><hdop>4.687</hdop><vdop>4.0</vdop><extensions><gom:speed>6.139</gom:speed><gom:course>269.998</gom:course><gom:rel_alt>2.565</gom:rel_alt></extensions></trkpt>
   <trkpt lat="59.3520374571" lon="34.7129589353"><ele>164.397</ele><time>2026-08-13T23:35:33.997Z</time><hdop>4.687</hdop><vdop>4.0</vdop><extensions><gom:speed>5.789</gom:speed><gom:course>275.272</gom:course><gom:rel_alt>2.549</gom:rel_alt></extensions></trkpt>
   <trkpt lat="59.3520421929" lon="34.7127699234"><ele>164.467</ele><time>2026-08-13T23:35:35.997Z</time><hdop>4.687</hdop><vdop>4.0</vdop><extensions><gom:speed>5.319</gom:speed><gom:course>273.514</gom:course><gom:rel_alt>2.304</gom:rel_alt></extensions></trkpt>
   <trkpt lat="59.3520498204" lon="34.7125623875"><ele>164.296</ele><time>2026-08-13T23:35:38.999Z</time><hdop>4.687</hdop><vdop>4.0</vdop><extensions><gom:speed>4.179</gom:speed><gom:course>276.326</gom:course><gom:rel_alt>1.609</gom:rel_alt></extensions></trkpt>
   <trkpt lat="59.3520662908" lon="34.7123261854"><ele>164.065</ele><time>2026-08-13T23:35:41.999Z</time><hdop>4.687</hdop><vdop>4.0</vdop><extensions><gom:speed>4.319</gom:speed><gom:course>277.381</gom:course><gom:rel_alt>1.196</gom:rel_alt></extensions></trkpt>
   <trkpt lat="59.3520678415" lon="34.7121479862"><ele>163.176</ele><time>2026-08-13T23:35:43.999Z</time><hdop>4.687</hdop><vdop>3.0</vdop><extensions><gom:speed>4.751</gom:speed><gom:course>273.832</gom:course><gom:rel_alt>1.218</gom:rel_alt></extensions></trkpt>
   <trkpt lat="59.3520816716" lon="34.7119098563"><ele>163.837</ele><time>2026-08-13T23:35:46.999Z</time><hdop>4.687</hdop><vdop>4.562</vdop><extensions><gom:speed>4.347</gom:speed><gom:course>276.337</gom:course><gom:rel_alt>1.294</gom:rel_alt></extensions></trkpt>
   <trkpt lat="59.3520741698" lon="34.7116736543"><ele>163.985</ele><time>2026-08-13T23:35:50.000Z</time><hdop>4.687</hdop><vdop>4.562</vdop><extensions><gom:speed>5.194</gom:speed><gom:course>270.547</gom:course></extensions></trkpt>
   <trkpt lat="59.3520703141" lon="34.7114617598"><ele>163.633</ele><time>2026-08-13T23:35:52.999Z</time><hdop>4.687</hdop><vdop>4.875</vdop><extensions><gom:speed>2.412</gom:speed><gom:course>266.169</gom:course><gom:rel_alt>1.4</gom:rel_alt></extensions></trkpt>
   <trkpt lat="59.3520682606" lon="34.7112818841"><ele>163.669</ele><time>2026-08-13T23:35:54.999Z</time><hdop>4.687</hdop><vdop>4.562</vdop><extensions><gom:speed>4.228</gom:speed><gom:course>269.954</gom:course><gom:rel_alt>1.405</gom:rel_alt></extensions></trkpt>
   <trkpt lat="59.3520633991" lon="34.7110321872"><ele>163.505</ele><time>2026-08-13T23:35:57.999Z</time><hdop>4.687</hdop><vdop>4.625</vdop><extensions><gom:speed>5.023</gom:speed><gom:course>264.84</gom:course><gom:rel_alt>1.033</gom:rel_alt></extensions></trkpt>
   <trkpt lat="59.3520540952" lon="34.7108239807"><ele>163.954</ele><time>2026-08-13T23:35:59.999Z</time><hdop>4.687</hdop><vdop>4.562</vdop><extensions><gom:speed>5.792</gom:speed><gom:course>265.126</gom:course><gom:rel_alt>1.104</gom:rel_alt></extensions></trkpt>
   <trkpt lat="59.3520303744" lon="34.7105985914"><ele>164.401</ele><time>2026-08-13T23:36:01.999Z</time><hdop>4.687</hdop><vdop>4.687</vdop><extensions><gom:speed>6.396</gom:speed><gom:course>260.819</gom:course><gom:rel_alt>1.588</gom:rel_alt></extensions></trkpt>
   <trkpt lat="59.3520188073" lon="34.7103726991"><ele>164.366</ele><time>2026-08-13T23:36:03.999Z</time><hdop>4.687</hdop><vdop>4.875</vdop><extensions><gom:speed>6.427</gom:speed><gom:course>262.67</gom:course><gom:rel_alt>2.031</gom:rel_alt></extensions></trkpt>
   <trkpt lat="59.3520065279" lon="34.7101428673"><ele>165.085</ele><time>2026-08-13T23:36:05.999Z</time><hdop>4.687</hdop><vdop>4.937</vdop><extensions><gom:speed>6.556</gom:speed><gom:course>262.862</gom:course><gom:rel_alt>2.362</gom:rel_alt></extensions></trkpt>
   <trkpt lat="59.3519991937" lon="34.7099064976"><ele>165.621</ele><time>2026-08-13T23:36:07.999Z</time><hdop>4.687</hdop><vdop>4.812</vdop><extensions><gom:speed>6.687</gom:speed><gom:course>266.362</gom:course><gom:rel_alt>2.592</gom:rel_alt></extensions></trkpt>
   <trkpt lat="59.3519912309" lon="34.7096707147"><ele>166.198</ele><time>2026-08-13T23:36:09.999Z</time><hdop>4.687</hdop><vdop>4.812</vdop><extensions><gom:speed>6.694</gom:speed><gom:course>266.411</gom:course><gom:rel_alt>3.165</gom:rel_alt></extensions></trkpt>
   <trkpt lat="59.3519973078" lon="34.7094325848"><ele>166.028</ele><time>2026-08-13T23:36:11.999Z</time><hdop>4.687</hdop><vdop>4.75</vdop><extensions><gom:speed>6.73</gom:speed><gom:course>270.569</gom:course><gom:rel_alt>3.81</gom:rel_alt></extensions></trkpt>
   <trkpt lat="59.3519952542" lon="34.7091890067"><ele>165.571</ele><time>2026-08-13T23:36:13.999Z</time><hdop>4.687</hdop><vdop>4.687</vdop><extensions><gom:speed>6.851</gom:speed><gom:course>270.344</gom:course><gom:rel_alt>4.156</gom:rel_alt></extensions></trkpt>
   <trkpt lat="59.3520002833" lon="34.7089811355"><ele>165.776</ele><time>2026-08-13T23:36:15.999Z</time><hdop>4.687</hdop><vdop>4.625</vdop><extensions><gom:speed>5.878</gom:speed><gom:course>271.388</gom:course><gom:rel_alt>4.156</gom:rel_alt></extensions></trkpt>
   <trkpt lat="59.3520140297" lon="34.7087615296"><ele>164.454</ele><time>2026-08-13T23:36:18.999Z</time><hdop>4.687</hdop><vdop>4.5</vdop><extensions><gom:speed>4.132</gom:speed><gom:course>277.167</gom:course><gom:rel_alt>3.627</gom:rel_alt></extensions></trkpt>
   <trkpt lat="59.3520250938" lon="34.7085212205"><ele>165.002</ele><time>2026-08-13T23:36:21.999Z</time><hdop>4.687</hdop><vdop>4.5</vdop><extensions><gom:speed>4.757</gom:speed><gom:course>275.239</gom:course><gom:rel_alt>3.197</gom:rel_alt></extensions></trkpt>
   <trkpt lat="59.3520216991" lon="34.7082851861"><ele>165.004</ele><time>2026-08-13T23:36:24.999Z</time><hdop>4.687</hdop><vdop>4.437</vdop><extensions><gom:speed>4.583</gom:speed><gom:course>264.675</gom:course><gom:rel_alt>3.189</gom:rel_alt></extensions></trkpt>
   <trkpt lat="59.3519911471" lon="34.7080243413"><ele>164.771</ele><time>2026-08-13T23:36:27.999Z</time><hdop>4.687</hdop><vdop>4.375</vdop><extensions><gom:speed>5.216</gom:speed><gom:course>252.661</gom:course><gom:rel_alt>3.355</gom:rel_alt></extensions></trkpt>
   <trkpt lat="59.3519306297" lon="34.7078708686"><ele>164.911</ele><time>2026-08-13T23:36:29.999Z</time><hdop>4.687</hdop><vdop>4.375</vdop><extensions><gom:speed>5.334</gom:speed><gom:course>235.555</gom:course><gom:rel_alt>3.432</gom:rel_alt></extensions></trkpt>
   <trkpt lat="59.3518245987" lon="34.7077337407"><ele>162.745</ele><time>2026-08-13T23:36:32.999Z</time><hdop>4.687</hdop><vdop>4.312</vdop><extensions><gom:speed>4.465</gom:speed><gom:course>212.11</gom:course><gom:rel_alt>3.442</gom:rel_alt></extensions></trkpt>
   <trkpt lat="59.3517122811" lon="34.7076888975"><ele>164.173</ele><time>2026-08-13T23:36:35.998Z</time><hdop>4.687</hdop><vdop>4.312</vdop><extensions><gom:speed>4.245</gom:speed><gom:course>196.531</gom:course><gom:rel_alt>3.442</gom:rel_alt></extensions></trkpt>
   <trkpt lat="59.3516249836" lon="34.7076373488"><ele>163.94</ele><time>2026-08-13T23:36:37.998Z</time><hdop>4.687</hdop><vdop>4.25</vdop><extensions><gom:speed>4.979</gom:speed><gom:course>195.35</gom:course><gom:rel_alt>3.424</gom:rel_alt></extensions></trkpt>
   <trkpt lat="59.3515098163" lon="34.7076229319"><ele>164.957</ele><time>2026-08-13T23:36:39.998Z</time><hdop>4.687</hdop><vdop>4.312</vdop><extensions><gom:speed>6.342</gom:speed><gom:course>186.407</gom:course><gom:rel_alt>3.405</gom:rel_alt></extensions></trkpt>
   <trkpt lat="59.3513760411" lon="34.7075656835"><ele>164.241</ele><time>2026-08-13T23:36:42.998Z</time><hdop>4.687</hdop><vdop>4.375</vdop><extensions><gom:speed>5.52</gom:speed><gom:course>191.862</gom:course><gom:rel_alt>3.458</gom:rel_alt></extensions></trkpt>
   <trkpt lat="59.3512953234" lon="34.7074861393"><ele>163.973</ele><time>2026-08-13T23:36:44.998Z</time><hdop>4.687</hdop><vdop>4.375</vdop><extensions><gom:speed>5.124</gom:speed><gom:course>205.013</gom:course><gom:rel_alt>3.53</gom:rel_alt></extensions></trkpt>
   <trkpt lat="59.3512366501" lon="34.7073285595"><ele>163.835</ele><time>2026-08-13T23:36:46.998Z</time><hdop>4.687</hdop><vdop>4.375</vdop><extensions><gom:speed>5.375</gom:speed><gom:course>230.859</gom:course><gom:rel_alt>3.434</gom:rel_alt></extensions></trkpt>
   <trkpt lat="59.3512102051" lon="34.7071400505"><ele>163.739</ele><time>2026-08-13T23:36:48.998Z</time><hdop>4.687</hdop><vdop>4.375</vdop><extensions><gom:speed>5.46</gom:speed><gom:course>250.129</gom:course><gom:rel_alt>3.183</gom:rel_alt></extensions></trkpt>
   <trkpt lat="59.3511945729" lon="34.7069248032"><ele>163.011</ele><time>2026-08-13T23:36:50.998Z</time><hdop>4.687</hdop><vdop>4.375</vdop><extensions><gom:speed>6.071</gom:speed><gom:course>260.418</gom:course><gom:rel_alt>2.94</gom:rel_alt></extensions></trkpt>
   <trkpt lat="59.3511702235" lon="34.7067450114"><ele>163.366</ele><time>2026-08-13T23:36:52.998Z</time><hdop>4.687</hdop><vdop>4.375</vdop><extensions><gom:speed>5.316</gom:speed><gom:course>255.826</gom:course><gom:rel_alt>2.821</gom:rel_alt></extensions></trkpt>
   <trkpt lat="59.3511484305" lon="34.7064771258"><ele>163.45</ele><time>2026-08-13T23:36:55.998Z</time><hdop>4.687</hdop><vdop>4.312</vdop><extensions><gom:speed>5.381</gom:speed><gom:course>259.094</gom:course><gom:rel_alt>2.494</gom:rel_alt></extensions></trkpt>
   <trkpt lat="59.3511144" lon="34.706166241"><ele>164.376</ele><time>2026-08-13T23:36:58.998Z</time><hdop>7.625</hdop><vdop>4.0</vdop><extensions><gom:speed>5.969</gom:speed><gom:course>258.045</gom:course><gom:rel_alt>2.333</gom:rel_alt></extensions></trkpt>
   <trkpt lat="59.3510909307" lon="34.7059733734"><ele>164.518</ele><time>2026-08-13T23:37:00.998Z</time><hdop>9.562</hdop><vdop>4.0</vdop><extensions><gom:speed>5.779</gom:speed><gom:course>256.287</gom:course><gom:rel_alt>2.312</gom:rel_alt></extensions></trkpt>
   <trkpt lat="59.3510898829" lon="34.705702135"><ele>164.666</ele><time>2026-08-13T23:37:03.998Z</time><hdop>8.5</hdop><vdop>4.0</vdop><extensions><gom:speed>5.479</gom:speed><gom:course>268.24</gom:course><gom:rel_alt>2.185</gom:rel_alt></extensions></trkpt>
   <trkpt lat="59.3510837641" lon="34.70549418"><ele>164.267</ele><time>2026-08-13T23:37:05.998Z</time><hdop>8.312</hdop><vdop>4.0</vdop><extensions><gom:speed>5.559</gom:speed><gom:course>265.779</gom:course><gom:rel_alt>2.153</gom:rel_alt></extensions></trkpt>
   <trkpt lat="59.351093571" lon="34.7052723948"><ele>164.301</ele><time>2026-08-13T23:37:07.998Z</time><hdop>4.687</hdop><vdop>4.0</vdop><extensions><gom:speed>6.139</gom:speed><gom:course>271.404</gom:course><gom:rel_alt>2.14</gom:rel_alt></extensions></trkpt>
   <trkpt lat="59.351101911" lon="34.7050877415"><ele>164.381</ele><time>2026-08-13T23:37:09.998Z</time><hdop>4.687</hdop><vdop>4.0</vdop><extensions><gom:speed>5.639</gom:speed><gom:course>274.92</gom:course><gom:rel_alt>2.013</gom:rel_alt></extensions></trkpt>
   <trkpt lat="59.3510813334" lon="34.7048201911"><ele>164.445</ele><time>2026-08-13T23:37:12.998Z</time><hdop>4.687</hdop><vdop>4.0</vdop><extensions><gom:speed>5.229</gom:speed><gom:course>262.264</gom:course><gom:rel_alt>1.693</gom:rel_alt></extensions></trkpt>
   <trkpt lat="59.3510657011" lon="34.7045867551"><ele>164.794</ele><time>2026-08-13T23:37:14.998Z</time><hdop>4.687</hdop><vdop>4.0</vdop><extensions><gom:speed>6.649</gom:speed><gom:course>262.615</gom:course></extensions></trkpt>
   <trkpt lat="59.3510591633" lon="34.7043618687"><ele>164.302</ele><time>2026-08-13T23:37:16.997Z</time><hdop>4.687</hdop><vdop>4.0</vdop><extensions><gom:speed>6.609</gom:speed><gom:course>267.889</gom:course><gom:rel_alt>1.809</gom:rel_alt></extensions></trkpt>
   <trkpt lat="59.3510738316" lon="34.7041161113"><ele>165.093</ele><time>2026-08-13T23:37:18.997Z</time><hdop>4.687</hdop><vdop>3.125</vdop><extensions><gom:speed>6.528</gom:speed><gom:course>266.944</gom:course><gom:rel_alt>1.913</gom:rel_alt></extensions></trkpt>
   <trkpt lat="59.3510660783" lon="34.7038891293"><ele>165.433</ele><time>2026-08-13T23:37:20.997Z</time><hdop>4.687</hdop><vdop>3.0</vdop><extensions><gom:speed>6.563</gom:speed><gom:course>267.334</gom:course><gom:rel_alt>2.053</gom:rel_alt></extensions></trkpt>
   <trkpt lat="59.3510569001" lon="34.7036598843"><ele>165.809</ele><time>2026-08-13T23:37:22.997Z</time><hdop>4.687</hdop><vdop>4.562</vdop><extensions><gom:speed>6.59</gom:speed><gom:course>264.736</gom:course><gom:rel_alt>2.145</gom:rel_alt></extensions></trkpt>
   <trkpt lat="59.3510486859" lon="34.7034243528"><ele>166.225</ele><time>2026-08-13T23:37:24.997Z</time><hdop>4.687</hdop><vdop>4.5</vdop><extensions><gom:speed>6.679</gom:speed><gom:course>266.889</gom:course><gom:rel_alt>2.301</gom:rel_alt></extensions></trkpt>
   <trkpt lat="59.351033347" lon="34.7031863068"><ele>165.88</ele><time>2026-08-13T23:37:26.997Z</time><hdop>4.687</hdop><vdop>4.5</vdop><extensions><gom:speed>6.785</gom:speed><gom:course>264.368</gom:course><gom:rel_alt>2.618</gom:rel_alt></extensions></trkpt>
   <trkpt lat="59.3510280664" lon="34.7029515296"><ele>165.903</ele><time>2026-08-13T23:37:28.997Z</time><hdop>4.687</hdop><vdop>4.5</vdop><extensions><gom:speed>6.701</gom:speed><gom:course>268.169</gom:course><gom:rel_alt>2.724</gom:rel_alt></extensions></trkpt>
   <trkpt lat="59.3510193911" lon="34.7027403895"><ele>166.181</ele><time>2026-08-13T23:37:30.997Z</time><hdop>4.687</hdop><vdop>4.5</vdop><extensions><gom:speed>6.01</gom:speed><gom:course>266.587</gom:course><gom:rel_alt>2.705</gom:rel_alt></extensions></trkpt>
   <trkpt lat="59.351011554" lon="34.7025213704"><ele>165.85</ele><time>2026-08-13T23:37:32.997Z</time><hdop>4.687</hdop><vdop>4.5</vdop><extensions><gom:speed>6.242</gom:speed><gom:course>267.103</gom:course><gom:rel_alt>2.684</gom:rel_alt></extensions></trkpt>
   <trkpt lat="59.3510132304" lon="34.7023300115"><ele>166.183</ele><time>2026-08-13T23:37:34.997Z</time><hdop>4.687</hdop><vdop>4.5</vdop><extensions><gom:speed>5.591</gom:speed><gom:course>270.037</gom:course><gom:rel_alt>2.758</gom:rel_alt></extensions></trkpt>
   <trkpt lat="59.3510080336" lon="34.7020971623"><ele>166.211</ele><time>2026-08-13T23:37:37.997Z</time><hdop>4.687</hdop><vdop>4.437</vdop><extensions><gom:speed>4.231</gom:speed><gom:course>269.246</gom:course><gom:rel_alt>2.798</gom:rel_alt></extensions></trkpt>
   <trkpt lat="59.3510131047" lon="34.7018693421"><ele>166.339</ele><time>2026-08-13T23:37:40.997Z</time><hdop>4.687</hdop><vdop>4.375</vdop><extensions><gom:speed>4.591</gom:speed><gom:course>273.81</gom:course><gom:rel_alt>2.816</gom:rel_alt></extensions></trkpt>
   <trkpt lat="59.3510133562" lon="34.7016292006"><ele>166.335</ele><time>2026-08-13T23:37:44.000Z</time><hdop>4.687</hdop><vdop>4.375</vdop><extensions><gom:speed>4.363</gom:speed><gom:course>267.521</gom:course><gom:rel_alt>3.02</gom:rel_alt></extensions></trkpt>
   <trkpt lat="59.3510068183" lon="34.7014160488"><ele>166.321</ele><time>2026-08-13T23:37:47.000Z</time><hdop>4.687</hdop><vdop>4.375</vdop><extensions><gom:speed>3.854</gom:speed><gom:course>262.555</gom:course><gom:rel_alt>3.199</gom:rel_alt></extensions></trkpt>
   <trkpt lat="59.3509557306" lon="34.7011828643"><ele>166.449</ele><time>2026-08-13T23:37:50.000Z</time><hdop>4.687</hdop><vdop>4.437</vdop><extensions><gom:speed>4.908</gom:speed><gom:course>246.602</gom:course><gom:rel_alt>3.273</gom:rel_alt></extensions></trkpt>
   <trkpt lat="59.3509301239" lon="34.7010072634"><ele>166.585</ele><time>2026-08-13T23:37:52.000Z</time><hdop>4.687</hdop><vdop>4.437</vdop><extensions><gom:speed>5.042</gom:speed><gom:course>254.024</gom:course><gom:rel_alt>3.347</gom:rel_alt></extensions></trkpt>
   <trkpt lat="59.3509048943" lon="34.7008296509"><ele>166.734</ele><time>2026-08-13T23:37:54.000Z</time><hdop>4.687</hdop><vdop>4.375</vdop><extensions><gom:speed>5.229</gom:speed><gom:course>254.095</gom:course><gom:rel_alt>3.419</gom:rel_alt></extensions></trkpt>
   <trkpt lat="59.3508791619" lon="34.7005878329"><ele>166.17</ele><time>2026-08-13T23:37:57.000Z</time><hdop>4.687</hdop><vdop>4.375</vdop><extensions><gom:speed>4.662</gom:speed><gom:course>258.429</gom:course><gom:rel_alt>3.704</gom:rel_alt></extensions></trkpt>
   <trkpt lat="59.3508207819" lon="34.7003597614"><ele>166.59</ele><time>2026-08-13T23:37:59.999Z</time><hdop>4.687</hdop><vdop>4.437</vdop><extensions><gom:speed>4.882</gom:speed><gom:course>243.224</gom:course><gom:rel_alt>3.765</gom:rel_alt></extensions></trkpt>
   <trkpt lat="59.3507763578" lon="34.7001405746"><ele>165.919</ele><time>2026-08-13T23:38:02.999Z</time><hdop>4.687</hdop><vdop>4.562</vdop><extensions><gom:speed>4.639</gom:speed><gom:course>250.168</gom:course><gom:rel_alt>3.738</gom:rel_alt></extensions></trkpt>
   <trkpt lat="59.3507275333" lon="34.6999340445"><ele>165.608</ele><time>2026-08-13T23:38:05.999Z</time><hdop>4.687</hdop><vdop>4.687</vdop><extensions><gom:speed>4.263</gom:speed><gom:course>246.251</gom:course><gom:rel_alt>3.569</gom:rel_alt></extensions></trkpt>
   <trkpt lat="59.3506665549" lon="34.6997510676"><ele>165.472</ele><time>2026-08-13T23:38:08.999Z</time><hdop>4.687</hdop><vdop>4.625</vdop><extensions><gom:speed>3.891</gom:speed><gom:course>235.956</gom:course><gom:rel_alt>2.991</gom:rel_alt></extensions></trkpt>
   <trkpt lat="59.3506033134" lon="34.699591057"><ele>165.238</ele><time>2026-08-13T23:38:13.999Z</time><hdop>4.687</hdop><vdop>4.625</vdop><extensions><gom:speed>2.125</gom:speed><gom:course>230.623</gom:course><gom:rel_alt>2.319</gom:rel_alt></extensions></trkpt>
   <trkpt lat="59.3505598533" lon="34.699428951"><ele>164.687</ele><time>2026-08-13T23:39:16.998Z</time><hdop>4.687</hdop><vdop>5.0</vdop><extensions><gom:speed>1.108</gom:speed><gom:course>242.098</gom:course><gom:rel_alt>1.907</gom:rel_alt></extensions></trkpt>
  </trkseg>
 </trk>
</gpx>